# Wetter Temperatur Luftdruck Luftfeuchtigkeit Sichtweite Windgeschwindigkeit Windrichtung Zeit
1 Clouds 9 1007 61 10000 7.7 260 20:23 02.04.2020
2 Clouds 9 1007 61 10000 7.7 260 19:55 02.04.2020
3 Clouds 9 1007 61 10000 7.2 260 19:37 02.04.2020
4 Clouds 9 1007 57 10000 8.7 250 19:19 02.04.2020
5 Clouds 10 1007 57 10000 9.3 250 18:42 02.04.2020
6 Clouds 10 1007 57 10000 7.7 250 18:21 02.04.2020
7 Clouds 10 1007 57 10000 7.7 250 17:59 02.04.2020
8 Clouds 10 1007 57 10000 7.7 250 17:59 02.04.2020
9 Clouds 10 1008 57 10000 7.2 250 17:40 02.04.2020
10 Clouds 10 1008 57 10000 7.2 250 17:22 02.04.2020
11 Clouds 10 1008 53 10000 7.7 250 16:57 02.04.2020
12 Clouds 10 1008 57 10000 7.7 250 16:39 02.04.2020
13 Clouds 10 1008 53 10000 7.7 250 16:21 02.04.2020
14 Clouds 10 1008 53 10000 7.7 250 15:56 02.04.2020
15 Clouds 10 1009 53 10000 9.3 240 15:38 02.04.2020
16 Clouds 10 1009 53 10000 8.2 250 15:18 02.04.2020
17 Clouds 10 1009 53 10000 8.2 250 14:55 02.04.2020
18 Clouds 10 1010 62 10000 8.7 250 14:37 02.04.2020
19 Clouds 10 1010 62 10000 8.7 230 14:18 02.04.2020
20 Clouds 10 1010 62 10000 8.7 230 13:54 02.04.2020
21 Clouds 10 1010 62 10000 8.7 230 13:36 02.04.2020
22 Clouds 10 1010 62 10000 8.2 240 13:18 02.04.2020
23 Clouds 10 1011 53 10000 8.2 250 12:41 02.04.2020
24 Clouds 9 1011 57 10000 8.2 240 12:19 02.04.2020
25 Clouds 9 1011 57 10000 8.2 240 11:57 02.04.2020
26 Clouds 9 1012 57 10000 8.7 250 11:39 02.04.2020
27 Clouds 9 1012 65 10000 6.7 240 11:20 02.04.2020
28 Clouds 8 1012 65 10000 6.7 240 10:56 02.04.2020
29 Clouds 8 1012 70 10000 5.7 250 10:38 02.04.2020
30 Clouds 7 1012 70 10000 5.7 240 10:20 02.04.2020
31 Clouds 7 1012 70 10000 5.7 240 09:58 02.04.2020
32 Clouds 7 1012 70 10000 5.7 240 09:58 02.04.2020
33 Clear 6 1012 81 10000 4.6 240 09:39 02.04.2020
34 Clouds 5 1013 75 10000 4.1 250 09:20 02.04.2020
35 Clouds 5 1013 80 10000 4.1 240 08:47 02.04.2020
36 Clouds 5 1013 80 10000 4.1 240 08:28 02.04.2020
37 Clouds 5 1013 80 10000 3.6 240 07:54 02.04.2020
38 Clouds 4 1013 80 10000 4.1 240 07:36 02.04.2020
39 Clouds 4 1013 80 10000 3.6 240 07:18 02.04.2020
40 Clouds 4 1013 80 10000 3.6 240 06:23 02.04.2020
41 Clouds 4 1014 80 10000 4.1 250 05:46 02.04.2020
42 Clouds 4 1014 80 10000 4.1 250 05:46 02.04.2020
43 Clouds 4 1014 80 10000 3.6 250 04:55 02.04.2020
44 Clouds 5 1015 75 10000 3.1 260 02:19 02.04.2020
45 Clouds 5 1016 80 10000 3.6 260 00:59 02.04.2020
46 Clouds 5 1016 80 10000 3.1 250 00:41 02.04.2020
47 Clouds 5 1016 80 10000 3.1 260 00:19 02.04.2020
48 Clouds 5 1016 80 10000 3.1 260 23:39 01.04.2020
49 Clouds 5 1016 86 10000 3.1 260 23:19 01.04.2020
50 Clouds 6 1016 86 10000 3.1 260 22:56 01.04.2020
51 Clouds 6 1017 86 10000 3.1 260 22:38 01.04.2020
52 Clouds 6 1017 81 10000 4.1 270 22:19 01.04.2020
53 Clouds 6 1017 81 10000 4.1 270 21:41 01.04.2020
54 Rain 6 1017 81 10000 3.6 270 21:19 01.04.2020
55 Rain 6 1017 81 10000 3.6 270 20:56 01.04.2020
56 Clouds 6 1017 81 10000 4.1 270 20:38 01.04.2020
57 Clouds 6 1017 81 10000 4.6 270 20:19 01.04.2020
58 Clouds 6 1017 81 10000 4.6 270 19:58 01.04.2020
59 Clouds 7 1017 81 10000 4.6 270 19:38 01.04.2020
60 Rain 7 1016 80 0 0.89 290 19:19 01.04.2020
61 Clouds 7 1017 70 10000 4.6 260 18:42 01.04.2020
62 Clouds 7 1017 70 10000 4.6 260 18:42 01.04.2020
63 Clouds 7 1017 70 10000 6.2 260 18:23 01.04.2020
64 Clouds 7 1017 70 10000 6.2 260 17:57 01.04.2020
65 Clouds 8 1018 65 10000 4.1 270 17:38 01.04.2020
66 Clouds 8 1018 70 10000 6.2 270 17:19 01.04.2020
67 Clouds 8 1018 70 10000 6.2 270 17:19 01.04.2020
68 Clouds 8 1018 70 10000 6.2 270 16:58 01.04.2020
69 Clouds 8 1018 65 10000 4.6 260 16:39 01.04.2020
70 Clouds 8 1019 70 10000 4.6 250 16:21 01.04.2020
71 Clouds 8 1019 70 10000 4.6 250 15:57 01.04.2020
72 Clouds 8 1019 70 10000 5.7 260 15:37 01.04.2020
73 Clouds 8 1019 70 10000 6.2 270 15:18 01.04.2020
74 Clouds 8 1019 70 10000 6.2 270 14:55 01.04.2020
75 Clouds 8 1019 70 10000 6.2 270 14:55 01.04.2020
76 Clouds 8 1019 70 10000 7.2 270 14:36 01.04.2020
77 Clouds 8 1020 65 10000 5.7 260 14:18 01.04.2020
78 Clouds 8 1020 65 10000 5.7 260 13:55 01.04.2020
79 Clouds 8 1020 61 10000 5.7 260 13:36 01.04.2020
80 Clouds 8 1020 65 10000 5.1 270 13:18 01.04.2020
81 Clouds 8 1021 65 10000 6.2 280 12:42 01.04.2020
82 Clouds 8 1021 65 10000 6.2 280 12:23 01.04.2020
83 Clouds 7 1021 70 10000 6.2 270 11:59 01.04.2020
84 Clouds 7 1021 65 10000 6.7 250 11:39 01.04.2020
85 Clouds 7 1021 70 10000 6.7 260 11:20 01.04.2020
86 Clouds 6 1021 70 10000 6.7 260 10:56 01.04.2020
87 Clouds 5 1022 70 10000 5.1 250 10:37 01.04.2020
88 Clouds 4 1022 70 10000 4.6 240 10:18 01.04.2020
89 Rain 3 1022 74 10000 3.6 240 09:40 01.04.2020
90 Rain 3 1022 74 10000 3.6 240 09:40 01.04.2020
91 Rain 3 1022 74 10000 3.6 240 09:21 01.04.2020
92 Clouds 2 1022 74 10000 2.1 250 08:59 01.04.2020
93 Clouds 1 1023 80 10000 2.1 250 08:40 01.04.2020
94 Clouds 1 1023 87 10000 1.5 260 08:18 01.04.2020
95 Clouds 0 1023 87 10000 1.5 230 07:42 01.04.2020
96 Clouds 0 1023 86 10000 2.1 220 07:20 01.04.2020
97 Clouds -1 1023 80 10000 1.5 230 06:47 01.04.2020
98 Clouds -1 1023 79 10000 1 0 06:22 01.04.2020
99 Clouds -1 1023 79 10000 1 0 05:55 01.04.2020
100 Clear -2 1024 79 10000 1.5 220 04:30 01.04.2020
101 Clear -2 1025 79 10000 1.5 270 03:28 01.04.2020
102 Clear -2 1026 79 10000 1.5 240 02:49 01.04.2020
103 Clear -2 1026 79 10000 1.5 250 01:56 01.04.2020
104 Clear -2 1026 86 10000 1.5 200 01:36 01.04.2020
105 Clear -1 1027 80 10000 1.5 220 01:18 01.04.2020
106 Clear -1 1027 80 10000 1 220 00:43 01.04.2020
107 Clear -1 1027 80 10000 1.5 220 00:18 01.04.2020
108 Clear 0 1027 92 10000 1.5 230 23:41 31.03.2020
109 Clear 0 1026 67 0 0.81 306 23:23 31.03.2020
110 Clear 0 1026 67 0 0.81 306 23:23 31.03.2020
111 Clear 1 1028 55 10000 2.1 350 22:57 31.03.2020
112 Clear 1 1028 55 10000 2.1 350 22:36 31.03.2020
113 Clear 1 1027 66 0 0.89 317 22:18 31.03.2020
114 Clear 1 1027 66 0 0.89 355 21:55 31.03.2020
115 Clear 2 1024 84 0 0.81 306 21:37 31.03.2020
116 Clouds 3 1028 56 10000 4.1 350 21:19 31.03.2020
117 Clouds 3 1028 56 10000 4.1 350 20:54 31.03.2020
118 Clouds 4 1028 52 0 3.6 310 20:36 31.03.2020
119 Clouds 4 1028 52 0 3.6 310 20:36 31.03.2020
120 Clouds 5 1028 52 0 3.6 310 20:18 31.03.2020
121 Clouds 6 1028 45 10000 2.6 290 19:41 31.03.2020
122 Clouds 6 1027 57 0 0.89 309 19:22 31.03.2020
123 Clouds 7 1029 45 10000 2.1 320 18:56 31.03.2020
124 Clouds 7 1029 45 10000 2.1 320 18:37 31.03.2020
125 Clouds 7 1029 42 10000 3.1 300 18:18 31.03.2020
126 Clouds 8 1029 39 10000 2.1 220 17:54 31.03.2020
127 Clouds 8 1029 39 10000 2.1 220 17:36 31.03.2020
128 Clouds 7 1029 42 10000 2.1 310 17:18 31.03.2020
129 Clouds 8 1030 45 10000 1.5 0 16:39 31.03.2020
130 Clouds 7 1030 45 10000 2.6 230 16:19 31.03.2020
131 Clouds 7 1030 45 10000 2.6 230 15:57 31.03.2020
132 Clouds 7 1030 45 10000 2.1 0 15:39 31.03.2020
133 Clouds 7 1031 45 10000 1.5 130 15:20 31.03.2020
134 Clouds 7 1031 45 10000 1.5 130 15:20 31.03.2020
135 Clouds 8 1031 52 10000 2.1 170 14:57 31.03.2020
136 Clouds 7 1031 52 10000 2.1 170 14:38 31.03.2020
137 Clouds 7 1031 48 10000 1 0 14:20 31.03.2020
138 Clouds 7 1031 56 10000 1 0 13:43 31.03.2020
139 Clouds 7 1032 60 10000 1 0 13:19 31.03.2020
140 Clouds 7 1032 60 10000 1 0 13:19 31.03.2020
141 Clouds 7 1032 60 10000 1 0 12:56 31.03.2020
142 Clouds 6 1032 65 10000 1 0 12:38 31.03.2020
143 Clouds 5 1032 65 10000 1.5 0 12:19 31.03.2020
144 Clouds 5 1032 69 10000 2.1 0 11:39 31.03.2020
145 Clouds 5 1032 64 10000 1 0 11:20 31.03.2020
146 Clouds 4 1032 64 10000 1 0 10:58 31.03.2020
147 Clear 4 1032 69 10000 1.5 60 10:40 31.03.2020
148 Clear 3 1032 69 10000 2.1 80 10:21 31.03.2020
149 Clear 3 1032 69 10000 2.1 80 09:57 31.03.2020
150 Clear 2 1032 69 10000 2.1 50 09:39 31.03.2020
151 Clear 1 1032 69 10000 2.1 50 09:21 31.03.2020
152 Clouds 0 1032 69 10000 2.6 60 08:57 31.03.2020
153 Clouds 0 1032 94 10000 2.1 30 08:38 31.03.2020
154 Clouds -1 1031 94 10000 1.5 40 08:19 31.03.2020
155 Clouds -1 1031 94 10000 1.5 40 07:56 31.03.2020
156 Clouds -2 1031 74 10000 2.6 30 07:37 31.03.2020
157 Clouds -3 1031 74 10000 3.6 30 07:18 31.03.2020
158 Clouds -3 1031 94 10000 3.6 20 06:45 31.03.2020
159 Clear -2 1030 95 10000 3.6 20 06:18 31.03.2020
160 Clear -2 1030 95 10000 3.1 10 05:39 31.03.2020
161 Clear -1 1030 95 10000 3.6 30 03:34 31.03.2020
162 Clear 0 1030 69 10000 3.6 30 01:59 31.03.2020
163 Clear 0 1029 69 10000 3.6 30 01:40 31.03.2020
164 Clear 1 1029 74 10000 3.1 30 00:47 31.03.2020
165 Clear 1 1029 74 10000 3.1 30 00:25 31.03.2020
166 Clear 1 1029 69 10000 4.1 30 23:56 30.03.2020
167 Clear 2 1029 69 10000 4.1 30 23:37 30.03.2020
168 Clear 2 1028 69 10000 4.1 30 23:18 30.03.2020
169 Clear 2 1028 69 10000 4.1 30 22:55 30.03.2020
170 Clouds 2 1028 86 10000 4.1 30 22:36 30.03.2020
171 Clouds 2 1028 80 10000 4.6 20 22:18 30.03.2020
172 Clouds 3 1028 80 10000 4.6 20 21:54 30.03.2020
173 Clouds 3 1027 93 10000 1 310 21:36 30.03.2020
174 Clouds 3 1027 93 10000 0.5 0 21:18 30.03.2020
175 Clouds 4 1026 93 10000 1.5 30 20:40 30.03.2020
176 Clouds 4 1026 93 10000 1.5 30 20:22 30.03.2020
177 Clouds 5 1026 86 10000 2.1 50 19:59 30.03.2020
178 Clouds 4 1026 86 10000 1.5 50 19:40 30.03.2020
179 Clouds 5 1025 86 10000 2.1 30 19:21 30.03.2020
180 Clouds 5 1025 86 10000 2.1 30 18:56 30.03.2020
181 Clouds 5 1025 86 10000 1 0 18:38 30.03.2020
182 Clouds 5 1025 86 10000 1 0 18:38 30.03.2020
183 Rain 5 1025 93 7000 5.1 40 18:19 30.03.2020
184 Rain 6 1025 93 7000 5.1 40 17:56 30.03.2020
185 Rain 6 1025 93 7000 5.1 40 17:56 30.03.2020
186 Rain 6 1025 93 7000 5.1 40 17:56 30.03.2020
187 Clouds 7 1025 80 10000 9.3 60 17:37 30.03.2020
188 Clouds 7 1024 70 10000 6.2 330 17:18 30.03.2020
189 Clouds 7 1024 81 10000 1.5 10 16:55 30.03.2020
190 Clouds 7 1024 81 10000 1.5 10 16:36 30.03.2020
191 Clouds 7 1025 81 10000 2.1 40 16:18 30.03.2020
192 Clouds 7 1025 81 10000 4.6 320 15:54 30.03.2020
193 Clouds 7 1025 81 10000 4.6 320 15:36 30.03.2020
194 Clouds 6 1025 81 10000 3.6 330 15:18 30.03.2020
195 Rain 7 1025 81 10000 4.1 320 14:39 30.03.2020
196 Rain 6 1026 86 10000 4.1 300 14:19 30.03.2020
197 Rain 6 1026 86 10000 4.1 300 13:59 30.03.2020
198 Clouds 6 1026 93 10000 3.6 290 13:40 30.03.2020
199 Clouds 5 1026 93 3000 10.3 310 13:20 30.03.2020
200 Clouds 5 1026 93 3000 10.3 310 12:56 30.03.2020
201 Clouds 5 1026 75 10000 5.7 280 12:37 30.03.2020
202 Clouds 5 1027 75 10000 5.1 260 12:19 30.03.2020
203 Clouds 5 1027 75 10000 5.1 260 11:55 30.03.2020
204 Clouds 5 1027 80 10000 5.7 270 11:37 30.03.2020
205 Clouds 4 1028 86 10000 4.6 260 11:18 30.03.2020
206 Clouds 3 1028 93 6000 4.1 250 10:39 30.03.2020
207 Snow 2 1028 93 6000 4.1 260 10:21 30.03.2020
208 Snow 2 1028 93 6000 4.1 260 10:21 30.03.2020
209 Snow 2 1028 93 6000 4.1 260 09:55 30.03.2020
210 Snow 1 1028 80 8000 4.1 270 09:37 30.03.2020
211 Snow 1 1028 80 10000 4.1 250 09:18 30.03.2020
212 Clouds 0 1029 88 10000 3.1 240 08:40 30.03.2020
213 Clouds 0 1029 88 10000 3.1 240 08:22 30.03.2020
214 Snow 0 1029 80 10000 2.1 240 07:49 30.03.2020
215 Snow -1 1029 80 10000 2.1 240 07:27 30.03.2020
216 Clouds -1 1030 79 10000 2.1 250 06:54 30.03.2020
217 Clouds -1 1030 79 10000 2.1 250 06:31 30.03.2020
218 Clouds -1 1030 79 10000 2.1 250 06:31 30.03.2020
219 Clouds -2 1031 73 10000 1.5 230 05:52 30.03.2020
220 Clouds -2 1031 73 10000 1.5 250 05:18 30.03.2020
221 Clouds -3 1031 68 10000 2.1 220 04:22 30.03.2020
222 Clouds -4 1032 73 10000 1.5 270 03:38 30.03.2020
223 Clear -3 1033 79 10000 2.1 220 02:37 30.03.2020
224 Clear -3 1033 68 10000 1 240 01:35 30.03.2020
225 Clear -2 1034 58 10000 1.5 290 00:49 30.03.2020
226 Clear -1 1034 58 10000 2.6 310 00:22 30.03.2020
227 Clear -1 1034 58 10000 3.1 310 23:42 29.03.2020
228 Clear -1 1033 54 10000 2.1 300 23:23 29.03.2020
229 Clear -1 1033 54 10000 2.1 300 22:58 29.03.2020
230 Clear 0 1033 40 10000 1.5 340 22:38 29.03.2020
231 Clear 0 1033 43 10000 3.1 20 22:19 29.03.2020
232 Clear 1 1033 43 10000 3.1 20 21:57 29.03.2020
233 Clear 1 1033 40 10000 3.6 20 21:36 29.03.2020
234 Clear 1 1033 40 10000 3.6 20 21:36 29.03.2020
235 Clouds 1 1033 40 10000 4.1 20 21:18 29.03.2020
236 Clouds 2 1033 40 10000 4.1 20 20:55 29.03.2020
237 Clouds 2 1033 37 10000 5.7 20 20:36 29.03.2020
238 Clouds 3 1033 34 10000 7.2 20 20:18 29.03.2020
239 Clouds 4 1032 32 10000 8.2 30 19:54 29.03.2020
240 Clouds 4 1032 32 10000 8.2 30 19:36 29.03.2020
241 Clouds 4 1032 29 10000 8.2 20 19:18 29.03.2020
242 Clouds 5 1032 30 10000 7.7 20 18:54 29.03.2020
243 Clouds 5 1032 30 10000 7.7 20 18:36 29.03.2020
244 Clouds 5 1031 35 10000 8.7 20 18:18 29.03.2020
245 Clouds 6 1031 28 10000 9.3 20 17:42 29.03.2020
246 Clouds 6 1031 33 10000 8.7 20 17:22 29.03.2020
247 Clouds 6 1031 33 10000 8.7 20 16:58 29.03.2020
248 Clouds 6 1031 41 10000 8.2 30 16:40 29.03.2020
249 Clouds 6 1030 44 10000 8.7 30 16:21 29.03.2020
250 Clouds 6 1030 44 10000 8.7 30 15:58 29.03.2020
251 Clouds 6 1030 45 10000 9.8 30 15:40 29.03.2020
252 Clouds 6 1030 52 10000 10.3 40 15:20 29.03.2020
253 Clouds 6 1030 52 10000 10.3 40 14:56 29.03.2020
254 Clouds 6 1030 56 10000 10.3 20 14:37 29.03.2020
255 Clouds 6 1030 56 10000 10.8 40 14:19 29.03.2020
256 Rain 5 1030 69 10000 9.3 20 13:55 29.03.2020
257 Rain 5 1030 69 10000 9.3 20 13:37 29.03.2020
258 Snow 5 1029 68 10000 10.3 20 13:18 29.03.2020
259 Snow 4 1029 68 10000 10.3 40 12:54 29.03.2020
260 Snow 4 1029 68 10000 10.3 40 12:54 29.03.2020
261 Snow 4 1029 68 10000 10.3 40 12:36 29.03.2020
262 Snow 3 1029 87 10000 11.3 30 12:18 29.03.2020
263 Snow 3 1028 74 10000 12.3 30 11:38 29.03.2020
264 Snow 3 1027 87 10000 11.3 30 11:20 29.03.2020
265 Snow 2 1027 87 10000 10.8 20 10:40 29.03.2020
266 Snow 2 1027 87 4800 9.8 20 10:21 29.03.2020
267 Snow 2 1027 87 4800 9.8 20 09:59 29.03.2020
268 Snow 2 1026 87 8000 10.3 20 09:38 29.03.2020
269 Snow 2 1025 80 10000 10.8 20 09:19 29.03.2020
270 Clouds 3 1025 74 10000 9.8 20 08:48 29.03.2020
271 Clouds 3 1025 74 10000 9.8 20 08:27 29.03.2020
272 Clouds 3 1024 74 10000 8.2 360 07:56 29.03.2020
273 Clouds 3 1024 74 10000 8.7 360 07:38 29.03.2020
274 Clouds 4 1024 64 10000 8.2 10 07:19 29.03.2020
275 Clouds 3 1023 64 10000 5.7 350 04:59 29.03.2020
276 Clouds 4 1023 52 10000 6.7 350 03:48 29.03.2020
277 Clouds 4 1023 52 10000 6.7 350 03:26 29.03.2020
278 Rain 5 1023 48 10000 8.2 360 01:50 29.03.2020
279 Clouds 5 1023 52 10000 6.7 350 01:23 29.03.2020
280 Clouds 5 1022 81 10000 5.7 340 00:53 29.03.2020
281 Clouds 5 1022 81 10000 5.7 340 00:30 29.03.2020
282 Clouds 5 1022 80 10000 5.7 300 23:42 28.03.2020
283 Clouds 5 1022 80 10000 6.2 310 23:23 28.03.2020
284 Clouds 5 1022 80 10000 6.2 310 22:58 28.03.2020
285 Clouds 5 1021 84 0 1.79 312 22:38 28.03.2020
286 Clouds 5 1023 75 10000 6.7 320 22:20 28.03.2020
287 Clouds 5 1023 75 10000 6.7 320 21:54 28.03.2020
288 Clouds 5 1023 75 10000 6.7 320 21:36 28.03.2020
289 Clouds 5 1023 75 10000 5.7 320 21:18 28.03.2020
290 Clouds 5 1023 70 10000 6.2 330 20:41 28.03.2020
291 Clouds 5 1023 70 10000 6.2 330 20:23 28.03.2020
292 Clouds 6 1023 70 10000 6.7 330 19:57 28.03.2020
293 Clouds 6 1023 70 10000 6.2 330 19:39 28.03.2020
294 Clouds 6 1023 65 10000 8.7 330 19:20 28.03.2020
295 Clouds 7 1023 65 10000 8.7 330 18:58 28.03.2020
296 Clouds 7 1022 70 10000 7.7 330 18:39 28.03.2020
297 Clouds 8 1022 61 10000 8.7 330 18:19 28.03.2020
298 Clouds 8 1022 70 10000 8.7 320 17:39 28.03.2020
299 Clouds 9 1022 66 10000 8.7 320 17:20 28.03.2020
300 Clouds 10 1022 61 10000 8.7 320 16:55 28.03.2020
301 Clouds 10 1022 61 10000 8.7 320 16:37 28.03.2020
302 Clouds 11 1022 61 10000 7.2 320 16:18 28.03.2020
303 Clouds 11 1022 57 10000 8.2 320 15:39 28.03.2020
304 Clouds 12 1022 61 10000 6.7 340 15:19 28.03.2020
305 Clouds 12 1022 61 10000 6.7 340 14:56 28.03.2020
306 Clouds 12 1023 50 10000 6.7 320 14:38 28.03.2020
307 Clouds 12 1023 53 10000 6.7 330 14:20 28.03.2020
308 Clear 12 1023 57 10000 7.2 310 13:40 28.03.2020
309 Clear 13 1023 37 10000 4.6 350 13:22 28.03.2020
310 Clear 12 1023 40 10000 5.1 360 12:40 28.03.2020
311 Clear 12 1024 56 10000 5.1 360 12:22 28.03.2020
312 Clear 12 1024 56 10000 5.1 360 12:22 28.03.2020
313 Clear 12 1024 53 10000 5.1 360 11:43 28.03.2020
314 Clear 11 1024 57 10000 4.1 10 11:23 28.03.2020
315 Clear 10 1024 57 10000 4.1 10 10:58 28.03.2020
316 Clear 10 1024 57 10000 5.7 30 10:38 28.03.2020
317 Clear 10 1024 57 10000 3.6 30 10:18 28.03.2020
318 Clear 9 1024 61 10000 4.6 10 09:43 28.03.2020
319 Clear 8 1024 61 10000 4.6 10 09:24 28.03.2020
320 Clear 8 1024 66 10000 4.6 30 08:57 28.03.2020
321 Clear 7 1024 70 10000 4.1 20 08:39 28.03.2020
322 Clear 5 1024 66 10000 4.1 20 08:20 28.03.2020
323 Clear 4 1024 69 10000 4.1 20 07:44 28.03.2020
324 Clear 3 1023 69 10000 3.6 30 06:59 28.03.2020
325 Clear 2 1023 74 10000 3.6 30 06:35 28.03.2020
326 Clear 2 1023 69 10000 3.6 30 05:43 28.03.2020
327 Clear 2 1023 69 10000 3.6 20 05:21 28.03.2020
328 Clear 3 1023 69 10000 3.6 30 04:41 28.03.2020
329 Clear 3 1023 64 10000 4.6 20 03:54 28.03.2020
330 Clear 4 1023 64 10000 3.6 20 02:21 28.03.2020
331 Clear 4 1023 60 10000 4.6 20 01:41 28.03.2020
332 Clear 5 1023 60 10000 4.1 20 01:18 28.03.2020
333 Clear 5 1023 65 10000 3.1 40 00:37 28.03.2020
334 Clear 6 1023 60 10000 3.1 50 23:59 27.03.2020
335 Clear 6 1023 56 10000 4.6 50 23:41 27.03.2020
336 Clear 6 1023 56 10000 5.1 50 23:21 27.03.2020
337 Clear 7 1023 52 10000 5.7 50 22:56 27.03.2020
338 Clear 7 1023 52 10000 5.7 50 22:38 27.03.2020
339 Clear 8 1023 52 10000 5.7 50 22:19 27.03.2020
340 Clear 8 1023 80 10000 5.7 50 21:45 27.03.2020
341 Clear 9 1023 80 10000 5.7 50 21:25 27.03.2020
342 Clear 9 1023 80 10000 6.7 50 20:59 27.03.2020
343 Clear 9 1022 59 0 1.79 59 20:41 27.03.2020
344 Clear 10 1022 53 10000 5.7 40 20:21 27.03.2020
345 Clear 10 1022 53 10000 5.7 40 19:59 27.03.2020
346 Clear 11 1022 50 10000 5.7 50 19:40 27.03.2020
347 Clear 12 1021 43 10000 5.7 50 19:22 27.03.2020
348 Clear 12 1021 43 10000 5.7 50 18:56 27.03.2020
349 Clear 13 1021 41 10000 4.6 50 18:38 27.03.2020
350 Clear 14 1021 76 10000 5.7 50 18:19 27.03.2020
351 Clear 15 1021 76 10000 6.7 60 17:40 27.03.2020
352 Clear 15 1021 55 10000 6.2 50 17:20 27.03.2020
353 Clear 15 1021 55 10000 6.7 70 16:54 27.03.2020
354 Clear 15 1021 55 10000 6.7 70 16:36 27.03.2020
355 Clear 15 1021 55 10000 6.7 70 16:36 27.03.2020
356 Clear 16 1021 55 10000 6.7 50 16:18 27.03.2020
357 Clear 15 1021 55 10000 6.7 60 15:41 27.03.2020
358 Clear 15 1022 38 10000 6.2 50 15:23 27.03.2020
359 Clear 15 1022 55 10000 6.7 60 14:46 27.03.2020
360 Clear 15 1022 55 10000 6.7 60 14:25 27.03.2020
361 Clear 14 1022 35 10000 6.2 60 13:57 27.03.2020
362 Clear 14 1023 53 10000 6.2 50 13:38 27.03.2020
363 Clear 14 1023 35 10000 5.1 50 13:19 27.03.2020
364 Clear 14 1023 37 10000 5.1 60 12:55 27.03.2020
365 Clear 14 1023 37 10000 5.1 60 12:37 27.03.2020
366 Clear 14 1023 37 10000 5.1 80 12:18 27.03.2020
367 Clear 13 1024 37 0 6.7 70 11:41 27.03.2020
368 Clear 11 1024 40 10000 5.7 70 11:23 27.03.2020
369 Clear 9 1024 45 10000 5.7 60 10:55 27.03.2020
370 Clear 9 1024 45 10000 5.7 60 10:37 27.03.2020
371 Clear 9 1024 49 10000 6.2 60 10:18 27.03.2020
372 Clear 9 1024 49 10000 6.2 60 09:56 27.03.2020
373 Clear 8 1024 52 10000 5.7 60 09:37 27.03.2020
374 Clear 7 1024 56 10000 5.1 60 09:18 27.03.2020
375 Clear 5 1024 56 10000 5.1 60 08:56 27.03.2020
376 Clear 4 1024 60 10000 4.6 60 08:37 27.03.2020
377 Clear 3 1024 60 10000 5.1 60 08:19 27.03.2020
378 Clear 3 1024 64 10000 3.6 50 07:50 27.03.2020
379 Clear 2 1024 64 10000 3.6 50 07:23 27.03.2020
380 Clear 1 1024 69 10000 4.1 50 06:51 27.03.2020
381 Clear 1 1024 69 10000 4.1 50 06:33 27.03.2020
382 Clear 2 1024 64 10000 4.1 50 04:24 27.03.2020
383 Clear 3 1024 59 10000 4.1 50 02:32 27.03.2020
384 Clear 3 1025 59 10000 3.6 50 01:23 27.03.2020
385 Clear 3 1025 55 10000 3.6 60 00:50 27.03.2020
386 Clear 3 1025 55 10000 3.6 60 00:24 27.03.2020
387 Clear 4 1025 52 10000 4.6 60 23:44 26.03.2020
388 Clear 4 1025 52 10000 4.1 60 23:22 26.03.2020
389 Clear 4 1025 52 10000 4.1 50 22:59 26.03.2020
390 Clear 4 1025 52 10000 4.1 50 22:38 26.03.2020
391 Clear 5 1025 45 10000 4.1 60 22:20 26.03.2020
392 Clear 5 1025 45 10000 4.1 60 21:57 26.03.2020
393 Clear 5 1025 45 10000 3.1 50 21:38 26.03.2020
394 Clear 6 1025 45 10000 3.1 50 21:20 26.03.2020
395 Clear 6 1025 45 10000 3.1 50 20:57 26.03.2020
396 Clear 6 1025 48 10000 3.6 70 20:38 26.03.2020
397 Clear 7 1025 45 10000 4.1 70 20:20 26.03.2020
398 Clear 7 1025 45 10000 4.1 70 19:54 26.03.2020
399 Clear 8 1025 42 10000 4.6 60 19:36 26.03.2020
400 Clear 9 1025 36 10000 5.1 60 19:18 26.03.2020
401 Clear 9 1025 36 10000 5.1 60 18:55 26.03.2020
402 Clear 9 1025 36 10000 6.2 70 18:36 26.03.2020
403 Clear 10 1025 31 10000 7.2 80 18:18 26.03.2020
404 Clear 11 1025 29 10000 5.1 80 17:42 26.03.2020
405 Clear 11 1025 29 10000 6.7 90 17:18 26.03.2020
406 Clear 11 1025 29 10000 6.2 90 16:45 26.03.2020
407 Clear 11 1025 29 10000 6.2 90 16:27 26.03.2020
408 Clear 11 1025 32 10000 6.7 60 15:58 26.03.2020
409 Clear 11 1025 29 10000 6.7 70 15:40 26.03.2020
410 Clear 11 1025 29 10000 6.7 60 15:21 26.03.2020
411 Clear 11 1025 29 10000 6.7 60 14:58 26.03.2020
412 Clear 10 1025 29 10000 5.7 90 14:38 26.03.2020
413 Clear 10 1025 29 10000 5.7 90 14:38 26.03.2020
414 Clear 10 1026 31 10000 5.7 80 14:19 26.03.2020
415 Clear 10 1026 29 10000 5.7 90 13:43 26.03.2020
416 Clear 10 1026 29 10000 5.7 90 13:23 26.03.2020
417 Clear 10 1026 29 10000 5.1 110 12:57 26.03.2020
418 Clear 9 1027 31 10000 5.7 110 12:38 26.03.2020
419 Clear 10 1027 31 10000 6.7 130 12:19 26.03.2020
420 Clear 9 1027 31 10000 6.2 80 11:45 26.03.2020
421 Clear 7 1027 33 10000 5.1 100 11:21 26.03.2020
422 Clear 7 1027 33 10000 5.1 100 10:56 26.03.2020
423 Clear 6 1027 35 10000 4.6 80 10:37 26.03.2020
424 Clear 6 1028 41 10000 5.1 80 10:18 26.03.2020
425 Clear 5 1028 44 10000 4.1 90 09:43 26.03.2020
426 Clear 4 1028 47 10000 4.1 90 09:19 26.03.2020
427 Clear 4 1028 47 10000 4.1 90 08:55 26.03.2020
428 Clear 3 1028 47 10000 5.1 80 08:37 26.03.2020
429 Clear 2 1028 51 10000 4.1 80 08:18 26.03.2020
430 Clear 1 1027 55 10000 4.6 70 07:41 26.03.2020
431 Clear 0 1027 91 10000 4.1 80 07:20 26.03.2020
432 Clear -1 1027 58 10000 4.1 80 06:48 26.03.2020
433 Clear 0 1027 91 10000 4.1 70 05:54 26.03.2020
434 Clear 1 1027 50 10000 5.1 80 04:25 26.03.2020
435 Clear 1 1027 55 10000 4.1 70 03:41 26.03.2020
436 Clear 1 1027 50 10000 4.1 60 02:54 26.03.2020
437 Clouds 1 1028 55 10000 3.6 60 01:50 26.03.2020
438 Clouds 2 1028 51 10000 4.1 80 00:48 26.03.2020
439 Clouds 3 1028 47 10000 3.6 60 23:59 25.03.2020
440 Clouds 3 1028 47 10000 3.6 60 23:40 25.03.2020
441 Clouds 4 1028 44 10000 4.1 70 23:20 25.03.2020
442 Clouds 4 1028 44 10000 4.1 70 22:40 25.03.2020
443 Clouds 5 1028 41 10000 4.6 80 22:21 25.03.2020
444 Clouds 5 1028 41 10000 4.6 80 21:56 25.03.2020
445 Clouds 5 1028 41 10000 4.6 80 21:37 25.03.2020
446 Clouds 6 1028 38 10000 4.1 90 21:19 25.03.2020
447 Clouds 6 1028 38 10000 4.1 90 20:55 25.03.2020
448 Clouds 6 1028 38 10000 4.6 90 20:37 25.03.2020
449 Clouds 7 1028 36 10000 4.6 80 20:18 25.03.2020
450 Clouds 7 1028 39 10000 3.6 70 19:43 25.03.2020
451 Clouds 8 1027 39 10000 3.1 80 19:23 25.03.2020
452 Clouds 8 1027 39 10000 3.1 80 18:57 25.03.2020
453 Clouds 10 1027 27 10000 2.6 110 18:39 25.03.2020
454 Clouds 10 1027 27 10000 5.1 110 18:21 25.03.2020
455 Clouds 11 1027 21 10000 5.7 110 17:55 25.03.2020
456 Clouds 11 1027 21 10000 5.7 110 17:37 25.03.2020
457 Clouds 11 1027 21 10000 6.2 120 17:19 25.03.2020
458 Clouds 12 1028 20 10000 5.7 120 16:43 25.03.2020
459 Clouds 12 1028 20 10000 5.7 120 16:24 25.03.2020
460 Clouds 12 1028 20 10000 4.6 110 15:59 25.03.2020
461 Clouds 12 1028 23 10000 4.6 120 15:41 25.03.2020
462 Clouds 11 1029 23 10000 6.7 120 15:20 25.03.2020
463 Clouds 11 1029 23 10000 6.7 120 14:55 25.03.2020
464 Clouds 11 1029 23 10000 4.1 110 14:37 25.03.2020
465 Clouds 10 1029 25 10000 4.1 110 14:18 25.03.2020
466 Clouds 9 1030 29 10000 4.1 110 13:42 25.03.2020
467 Clouds 10 1030 29 10000 4.1 110 13:22 25.03.2020
468 Clouds 8 1031 31 10000 4.1 110 12:38 25.03.2020
469 Clouds 8 1031 30 10000 5.1 100 12:20 25.03.2020
470 Clouds 8 1031 30 10000 5.1 100 11:56 25.03.2020
471 Clouds 7 1031 36 10000 2.1 120 11:38 25.03.2020
472 Clouds 6 1032 41 10000 4.1 120 11:20 25.03.2020
473 Clouds 6 1032 41 10000 4.1 120 10:57 25.03.2020
474 Clouds 6 1032 44 10000 4.1 100 10:39 25.03.2020
475 Clouds 5 1032 44 10000 4.6 110 10:18 25.03.2020
476 Clouds 4 1032 44 10000 4.1 120 09:43 25.03.2020
477 Clouds 4 1032 44 10000 4.1 120 09:24 25.03.2020
478 Clouds 2 1032 47 10000 5.7 130 08:57 25.03.2020
479 Clouds 2 1032 47 10000 4.6 120 08:39 25.03.2020
480 Clouds 2 1032 47 10000 4.6 120 08:19 25.03.2020
481 Clouds 1 1032 50 10000 3.6 110 07:41 25.03.2020
482 Clouds 0 1032 89 10000 3.1 100 07:23 25.03.2020
483 Clouds -2 1032 63 10000 1 0 06:50 25.03.2020
484 Clouds -2 1032 63 10000 1 0 06:28 25.03.2020
485 Clouds -1 1031 58 10000 3.1 110 05:58 25.03.2020
486 Clouds -1 1031 58 10000 3.1 110 05:37 25.03.2020
487 Clouds 0 1031 89 10000 4.1 110 04:41 25.03.2020
488 Clouds 0 1031 89 10000 4.6 120 03:53 25.03.2020
489 Clouds 0 1031 89 10000 4.6 130 03:29 25.03.2020
490 Clouds 2 1032 47 10000 4.1 130 01:39 25.03.2020
491 Clouds 3 1032 44 10000 4.6 130 00:50 25.03.2020
492 Clouds 3 1032 44 10000 4.6 130 00:26 25.03.2020
493 Clouds 3 1032 44 10000 4.1 130 23:53 24.03.2020
494 Clouds 3 1032 44 10000 5.1 130 23:28 24.03.2020
495 Clouds 3 1032 44 10000 5.1 130 22:58 24.03.2020
496 Clouds 4 1032 41 10000 5.1 130 22:38 24.03.2020
497 Clouds 4 1032 41 10000 5.1 130 22:20 24.03.2020
498 Clouds 4 1032 41 10000 5.1 130 22:20 24.03.2020
499 Clouds 4 1032 41 10000 5.1 130 21:58 24.03.2020
500 Clouds 4 1032 41 10000 5.1 130 21:40 24.03.2020
501 Clouds 5 1032 38 10000 5.1 130 21:18 24.03.2020
502 Clouds 5 1032 38 10000 5.1 130 21:18 24.03.2020
503 Clouds 5 1032 38 10000 5.1 130 20:58 24.03.2020
504 Clouds 5 1032 35 10000 5.1 120 20:39 24.03.2020
505 Clear 6 1032 35 10000 4.6 130 20:21 24.03.2020
506 Clear 6 1032 38 10000 3.6 130 19:47 24.03.2020
507 Clear 7 1032 39 10000 4.1 120 19:22 24.03.2020
508 Clear 7 1032 39 10000 4.1 120 18:58 24.03.2020
509 Clear 8 1032 33 10000 4.6 130 18:38 24.03.2020
510 Clear 8 1032 36 10000 5.1 120 18:20 24.03.2020
511 Clear 8 1032 33 10000 4.6 120 17:58 24.03.2020
512 Clear 8 1032 33 10000 4.6 120 17:40 24.03.2020
513 Clear 8 1032 33 10000 4.6 120 17:40 24.03.2020
514 Clear 9 1032 33 10000 5.1 130 17:22 24.03.2020
515 Clear 9 1032 29 10000 5.7 120 16:57 24.03.2020
516 Clear 9 1032 29 10000 5.7 120 16:38 24.03.2020
517 Clear 9 1032 29 10000 5.1 120 16:20 24.03.2020
518 Clear 9 1033 29 10000 4.6 130 15:43 24.03.2020
519 Clear 9 1033 29 10000 4.6 130 15:25 24.03.2020
520 Clear 9 1033 31 10000 4.1 160 14:57 24.03.2020
521 Clear 9 1033 31 10000 6.7 150 14:37 24.03.2020
522 Clouds 73 1034 52 0 5.34 148 14:18 24.03.2020
523 Clouds 73 1034 52 0 5.34 148 13:41 24.03.2020
524 Clouds 73 1034 52 0 5.44 148 13:22 24.03.2020
525 Clouds 73 1034 52 0 5.44 148 12:45 24.03.2020
526 Clouds 73 1034 52 0 5.44 148 12:27 24.03.2020
527 Clouds 73 1034 52 0 5.44 148 11:57 24.03.2020
528 Clouds 73 1034 52 0 5.44 148 11:38 24.03.2020
529 Clouds 6 1035 41 10000 5.1 140 11:18 24.03.2020
530 Clouds 6 1035 41 10000 6.2 150 10:42 24.03.2020
531 Clouds 6 1035 44 10000 6.7 150 10:19 24.03.2020
532 Clouds 5 1035 44 10000 6.7 150 09:55 24.03.2020
533 Clouds 4 1035 47 10000 5.1 140 09:37 24.03.2020
534 Clouds 4 1035 51 10000 5.1 140 09:19 24.03.2020
535 Clouds 2 1035 50 10000 4.6 130 08:38 24.03.2020
536 Clouds 0 1035 58 10000 4.6 130 08:20 24.03.2020
537 Clouds 0 1035 58 10000 4.6 130 07:47 24.03.2020
538 Clouds 0 1035 58 10000 4.6 130 07:24 24.03.2020
539 Clouds -2 1035 58 10000 2.6 120 06:50 24.03.2020
540 Clouds -2 1035 58 10000 3.1 130 06:24 24.03.2020
541 Clouds -1 1035 58 10000 4.1 120 04:57 24.03.2020
542 Clouds -1 1035 60 10000 4.6 120 03:48 24.03.2020
543 Clouds 0 1035 60 10000 4.1 120 02:49 24.03.2020
544 Clear 0 1035 58 10000 2.1 120 01:45 24.03.2020
545 Clear 1 1035 59 10000 2.6 140 00:46 24.03.2020
546 Clear 1 1035 59 10000 2.6 140 00:24 24.03.2020
547 Clear 1 1035 43 10000 5.1 130 23:44 23.03.2020
548 Clear 1 1035 47 10000 4.6 130 23:26 23.03.2020
549 Clear 2 1036 40 10000 5.1 130 22:55 23.03.2020
550 Clear 2 1036 40 10000 5.1 130 22:37 23.03.2020
551 Clear 2 1035 40 10000 4.6 120 22:19 23.03.2020
552 Clear 2 1036 44 10000 4.1 120 21:44 23.03.2020
553 Clear 3 1036 44 10000 3.6 110 21:21 23.03.2020
554 Clear 3 1036 44 10000 3.6 110 20:58 23.03.2020
555 Clear 3 1036 41 10000 3.6 110 20:40 23.03.2020
556 Clear 4 1036 41 10000 3.6 110 20:22 23.03.2020
557 Clear 4 1035 41 10000 4.6 110 19:54 23.03.2020
558 Clear 4 1035 35 10000 4.6 120 19:36 23.03.2020
559 Clear 5 1035 33 10000 4.6 120 19:18 23.03.2020
560 Clear 6 1035 35 10000 4.1 120 18:42 23.03.2020
561 Clear 6 1035 28 10000 5.7 120 18:22 23.03.2020
562 Clear 7 1035 30 10000 6.2 110 17:56 23.03.2020
563 Clear 7 1035 30 10000 6.2 110 17:38 23.03.2020
564 Clear 7 1035 28 10000 6.2 130 17:18 23.03.2020
565 Clear 8 1035 33 10000 6.2 120 16:43 23.03.2020
566 Clear 8 1036 30 10000 6.2 140 16:25 23.03.2020
567 Clear 8 1036 28 10000 5.1 120 15:43 23.03.2020
568 Clear 8 1036 30 10000 6.2 120 15:21 23.03.2020
569 Clear 7 1036 30 10000 6.2 120 14:57 23.03.2020
570 Clear 7 1036 30 10000 7.2 130 14:37 23.03.2020
571 Clear 7 1036 33 10000 7.2 120 14:18 23.03.2020
572 Clear 7 1037 30 10000 7.7 130 13:41 23.03.2020
573 Clear 7 1037 30 10000 7.7 130 13:41 23.03.2020
574 Clear 7 1037 33 10000 7.7 120 13:22 23.03.2020
575 Clear 6 1037 33 10000 7.7 120 12:58 23.03.2020
576 Clear 6 1037 32 10000 7.2 120 12:40 23.03.2020
577 Clear 6 1037 32 10000 7.7 130 12:22 23.03.2020
578 Clear 5 1037 35 10000 8.2 130 11:42 23.03.2020
579 Clear 5 1038 32 10000 7.7 130 11:22 23.03.2020
580 Clear 5 1037 38 10000 6.7 130 10:58 23.03.2020
581 Clear 4 1037 38 10000 6.7 130 10:40 23.03.2020
582 Clear 4 1037 38 10000 6.7 130 10:40 23.03.2020
583 Clear 4 1038 37 10000 6.2 130 10:22 23.03.2020
584 Clear 4 1038 37 10000 6.2 130 09:58 23.03.2020
585 Clear 3 1038 40 10000 6.7 130 09:40 23.03.2020
586 Clear 3 1038 50 10000 3.6 120 09:19 23.03.2020
587 Clear 2 1038 50 10000 4.6 120 08:38 23.03.2020
588 Clear 0 1038 56 10000 4.6 110 08:19 23.03.2020
589 Clear -1 1038 54 10000 3.6 100 07:51 23.03.2020
590 Clear -1 1038 54 10000 3.6 100 07:32 23.03.2020
591 Clear -2 1038 63 10000 3.6 100 06:55 23.03.2020
592 Clear -2 1038 63 10000 3.6 100 06:33 23.03.2020
593 Clear -2 1038 58 10000 3.6 110 05:44 23.03.2020
594 Clear -1 1037 58 10000 3.1 110 03:54 23.03.2020
595 Clear 0 1037 60 10000 3.6 110 02:44 23.03.2020
596 Clear 0 1037 50 10000 3.6 120 01:50 23.03.2020
597 Clear 1 1037 50 10000 4.1 110 00:47 23.03.2020
598 Clear 1 1037 47 10000 5.1 110 00:27 23.03.2020
599 Clear 1 1037 47 10000 5.1 110 23:42 22.03.2020
600 Clear 2 1037 47 10000 5.1 110 23:24 22.03.2020
601 Clear 2 1037 44 10000 5.1 110 22:42 22.03.2020
602 Clear 3 1037 41 10000 5.1 100 22:21 22.03.2020
603 Clear 3 1037 41 10000 4.6 90 21:54 22.03.2020
604 Clear 3 1037 41 10000 4.6 90 21:36 22.03.2020
605 Clear 3 1036 44 10000 5.1 90 21:18 22.03.2020
606 Clear 3 1036 44 10000 4.6 90 20:42 22.03.2020
607 Clear 4 1036 44 10000 4.1 90 20:24 22.03.2020
608 Clear 4 1036 44 10000 4.1 90 19:57 22.03.2020
609 Clear 4 1036 41 10000 5.1 100 19:39 22.03.2020
610 Clear 5 1035 41 10000 4.6 110 19:20 22.03.2020
611 Clear 5 1035 41 10000 4.6 110 18:58 22.03.2020
612 Clear 6 1035 38 10000 5.1 120 18:40 22.03.2020
613 Clear 6 1035 36 10000 6.2 110 18:21 22.03.2020
614 Clear 6 1035 36 10000 6.2 110 17:57 22.03.2020
615 Clear 7 1035 39 10000 5.7 120 17:38 22.03.2020
616 Clear 7 1035 39 10000 7.2 110 17:20 22.03.2020
617 Clear 7 1035 39 10000 7.2 110 16:57 22.03.2020
618 Clear 7 1035 39 10000 7.2 120 16:39 22.03.2020
619 Clear 7 1035 39 10000 7.2 120 16:21 22.03.2020
620 Clear 7 1035 39 10000 7.2 120 16:21 22.03.2020
621 Clear 7 1035 42 10000 7.2 120 15:44 22.03.2020
622 Clear 7 1035 42 10000 7.2 120 15:26 22.03.2020
623 Clear 7 1035 39 10000 7.7 120 14:46 22.03.2020
624 Clear 7 1035 39 10000 6.7 110 14:19 22.03.2020
625 Clear 7 1036 41 10000 7.2 110 13:45 22.03.2020
626 Clear 7 1036 41 10000 7.7 120 13:21 22.03.2020
627 Clear 6 1036 41 10000 7.7 120 12:59 22.03.2020
628 Clear 6 1036 45 10000 6.2 100 12:41 22.03.2020
629 Clear 6 1036 44 10000 7.2 110 12:19 22.03.2020
630 Clear 6 1036 48 10000 7.7 120 11:55 22.03.2020
631 Clear 5 1036 48 10000 7.7 120 11:36 22.03.2020
632 Clear 5 1036 48 10000 8.2 110 11:18 22.03.2020
633 Clear 5 1036 48 10000 8.2 110 10:42 22.03.2020
634 Clear 4 1036 48 10000 8.2 110 10:23 22.03.2020
635 Clear 4 1036 47 10000 8.2 100 09:47 22.03.2020
636 Clear 3 1036 47 10000 8.2 100 09:28 22.03.2020
637 Clear 2 1036 59 10000 4.6 90 08:54 22.03.2020
638 Clear 2 1036 59 10000 4.6 90 08:36 22.03.2020
639 Clear 1 1036 64 10000 4.1 80 08:18 22.03.2020
640 Clear 0 1036 72 10000 4.1 80 07:41 22.03.2020
641 Clear 0 1035 74 10000 3.6 80 07:18 22.03.2020
642 Clear -1 1034 68 10000 4.6 80 05:54 22.03.2020
643 Clear -1 1034 70 10000 3.6 90 04:50 22.03.2020
644 Clear 0 1034 70 10000 4.6 80 02:43 22.03.2020
645 Clear 0 1034 59 10000 4.6 80 01:20 22.03.2020
646 Clear 1 1034 59 10000 4.6 70 00:35 22.03.2020
647 Clear 1 1034 64 10000 4.6 70 23:58 21.03.2020
648 Clear 1 1034 64 10000 4.6 70 23:40 21.03.2020
649 Clear 1 1033 59 10000 4.6 70 23:18 21.03.2020
650 Clear 2 1033 59 10000 4.6 70 22:38 21.03.2020
651 Clear 2 1033 59 10000 4.6 70 22:38 21.03.2020
652 Clear 2 1033 59 10000 4.6 70 22:38 21.03.2020
653 Clear 2 1033 59 10000 4.1 60 22:20 21.03.2020
654 Clear 2 1033 59 10000 4.1 60 21:59 21.03.2020
655 Clear 2 1033 55 10000 3.6 60 21:39 21.03.2020
656 Clear 3 1033 51 10000 4.1 80 21:21 21.03.2020
657 Clear 3 1032 48 10000 4.6 80 20:46 21.03.2020
658 Clear 4 1032 51 10000 4.1 80 20:23 21.03.2020
659 Clear 4 1032 51 10000 4.1 80 19:57 21.03.2020
660 Clear 4 1032 51 10000 4.6 80 19:39 21.03.2020
661 Clear 5 1032 48 10000 5.1 90 19:21 21.03.2020
662 Clear 5 1032 45 10000 6.7 80 18:54 21.03.2020
663 Clear 5 1032 45 10000 6.7 80 18:36 21.03.2020
664 Clear 6 1031 45 10000 8.2 80 18:18 21.03.2020
665 Clear 6 1031 45 10000 7.2 80 17:43 21.03.2020
666 Clear 6 1031 45 10000 7.2 80 17:43 21.03.2020
667 Clear 6 1031 45 10000 7.2 80 17:43 21.03.2020
668 Clear 7 1031 45 10000 6.2 90 17:23 21.03.2020
669 Clear 7 1031 45 10000 8.2 90 16:57 21.03.2020
670 Clear 7 1031 45 10000 8.2 90 16:39 21.03.2020
671 Clear 7 1031 45 10000 8.2 80 16:19 21.03.2020
672 Clear 7 1031 45 10000 8.2 80 15:55 21.03.2020
673 Clouds 7 1031 48 10000 6.7 90 15:36 21.03.2020
674 Clouds 7 1031 48 10000 7.2 80 15:18 21.03.2020
675 Clouds 7 1031 48 10000 7.2 80 14:54 21.03.2020
676 Clouds 7 1031 45 10000 8.2 80 14:36 21.03.2020
677 Clouds 7 1032 45 10000 8.7 70 14:18 21.03.2020
678 Clouds 7 1032 52 10000 8.2 70 13:54 21.03.2020
679 Clouds 7 1032 52 10000 8.2 70 13:36 21.03.2020
680 Clouds 7 1032 48 10000 8.7 70 13:18 21.03.2020
681 Clouds 7 1032 52 10000 7.7 60 12:39 21.03.2020
682 Clouds 6 1032 48 10000 9.8 70 12:19 21.03.2020
683 Clouds 6 1032 56 10000 8.7 60 11:57 21.03.2020
684 Clouds 6 1032 56 10000 8.7 60 11:38 21.03.2020
685 Clouds 6 1032 56 10000 8.7 60 11:38 21.03.2020
686 Clouds 6 1032 60 10000 7.2 80 11:19 21.03.2020
687 Clouds 6 1032 65 10000 8.7 70 10:57 21.03.2020
688 Clouds 6 1032 65 10000 8.7 70 10:38 21.03.2020
689 Clouds 6 1032 62 10000 7.7 80 10:20 21.03.2020
690 Clouds 5 1032 62 10000 7.7 80 09:56 21.03.2020
691 Clouds 5 1032 62 10000 7.2 70 09:37 21.03.2020
692 Clouds 4 1032 62 10000 6.7 70 09:19 21.03.2020
693 Clouds 4 1032 62 10000 6.7 70 09:19 21.03.2020
694 Clouds 4 1032 62 10000 6.7 60 08:44 21.03.2020
695 Clouds 4 1032 62 10000 6.7 60 08:44 21.03.2020
696 Clouds 3 1032 60 10000 6.7 60 08:25 21.03.2020
697 Clouds 2 1031 74 10000 4.1 40 07:52 21.03.2020
698 Clouds 2 1031 74 10000 4.1 40 07:32 21.03.2020
699 Clouds 1 1031 69 10000 4.1 30 06:48 21.03.2020
700 Clouds 0 1031 69 10000 4.1 30 06:29 21.03.2020
701 Clear 0 1031 89 10000 4.1 20 05:50 21.03.2020
702 Clear 0 1031 89 10000 3.6 30 05:23 21.03.2020
703 Clear 0 1031 74 10000 4.1 30 03:32 21.03.2020
704 Clear 1 1031 69 10000 4.1 40 02:35 21.03.2020
705 Clouds 2 1031 69 10000 5.1 50 01:42 21.03.2020
706 Clouds 2 1031 64 10000 5.7 40 01:21 21.03.2020
707 Clouds 3 1031 64 10000 6.2 40 00:38 21.03.2020
708 Clouds 3 1031 60 10000 5.1 40 23:59 20.03.2020
709 Clouds 4 1030 64 10000 5.7 40 23:41 20.03.2020
710 Clouds 4 1030 80 10000 5.7 40 23:20 20.03.2020
711 Clouds 4 1030 75 10000 4.6 40 22:44 20.03.2020
712 Clouds 5 1030 75 10000 4.6 40 22:24 20.03.2020
713 Clouds 5 1030 75 10000 6.2 40 21:58 20.03.2020
714 Clouds 5 1029 70 10000 6.2 40 21:39 20.03.2020
715 Clouds 6 1029 65 10000 5.7 30 21:20 20.03.2020
716 Clouds 6 1029 65 10000 5.7 30 20:58 20.03.2020
717 Clouds 6 1029 75 10000 4.6 20 20:40 20.03.2020
718 Clouds 6 1028 75 10000 4.6 20 20:19 20.03.2020
719 Clouds 7 1028 75 10000 4.6 10 19:47 20.03.2020
720 Clouds 7 1028 75 10000 4.6 10 19:20 20.03.2020
721 Clouds 7 1028 75 10000 4.6 10 18:57 20.03.2020
722 Clouds 7 1028 70 10000 4.1 10 18:38 20.03.2020
723 Clouds 7 1028 70 10000 4.1 10 18:38 20.03.2020
724 Clouds 8 1028 65 10000 5.1 20 18:19 20.03.2020
725 Clouds 8 1028 65 10000 5.7 10 17:56 20.03.2020
726 Clouds 8 1028 65 10000 5.7 10 17:37 20.03.2020
727 Clouds 8 1027 65 10000 5.1 20 17:18 20.03.2020
728 Clouds 8 1027 65 10000 4.1 20 16:41 20.03.2020
729 Clouds 8 1027 66 10000 4.6 360 16:21 20.03.2020
730 Clouds 9 1028 61 10000 5.1 20 15:45 20.03.2020
731 Clouds 9 1028 61 10000 5.1 20 15:23 20.03.2020
732 Clouds 9 1028 66 10000 3.6 360 14:59 20.03.2020
733 Clouds 9 1028 66 10000 3.6 360 14:59 20.03.2020
734 Clouds 9 1028 66 10000 4.1 30 14:41 20.03.2020
735 Clouds 9 1028 66 10000 3.6 20 14:21 20.03.2020
736 Clouds 9 1028 66 10000 4.6 20 13:49 20.03.2020
737 Clouds 9 1028 66 10000 4.6 20 13:25 20.03.2020
738 Clouds 9 1028 70 10000 4.6 20 12:58 20.03.2020
739 Clouds 8 1028 70 10000 5.1 40 12:38 20.03.2020
740 Clouds 8 1028 70 10000 5.1 10 12:20 20.03.2020
741 Clouds 8 1028 75 10000 4.6 30 11:39 20.03.2020
742 Clouds 8 1028 75 10000 5.1 30 11:21 20.03.2020
743 Rain 7 1028 75 10000 4.6 30 10:57 20.03.2020
744 Rain 7 1028 75 10000 4.6 30 10:38 20.03.2020
745 Rain 7 1028 75 10000 5.1 40 10:18 20.03.2020
746 Rain 7 1027 81 10000 4.6 30 09:46 20.03.2020
747 Rain 6 1027 81 10000 4.6 30 09:21 20.03.2020
748 Rain 6 1027 81 10000 4.6 30 08:58 20.03.2020
749 Rain 6 1027 81 10000 5.7 20 08:39 20.03.2020
750 Clouds 6 1027 81 10000 5.1 30 08:19 20.03.2020
751 Clouds 6 1027 81 10000 5.1 30 07:45 20.03.2020
752 Clouds 6 1027 81 10000 5.1 30 07:26 20.03.2020
753 Clouds 6 1027 81 10000 5.1 20 06:47 20.03.2020
754 Clouds 6 1027 81 10000 5.1 20 06:29 20.03.2020
755 Clouds 6 1026 87 10000 4.6 20 04:49 20.03.2020
756 Clouds 6 1026 87 10000 3.6 30 03:18 20.03.2020
757 Clouds 6 1026 87 10000 4.1 20 01:51 20.03.2020
758 Rain 6 1026 75 10000 3.6 30 00:46 20.03.2020
759 Rain 7 1026 81 10000 3.6 30 00:25 20.03.2020
760 Clouds 7 1026 81 10000 3.6 30 23:44 19.03.2020
761 Clouds 7 1026 81 10000 4.1 40 23:25 19.03.2020
762 Clouds 7 1027 81 10000 4.1 20 22:56 19.03.2020
763 Clouds 7 1027 81 10000 4.1 20 22:37 19.03.2020
764 Clouds 7 1027 81 10000 4.1 40 22:18 19.03.2020
765 Clouds 7 1026 70 10000 3.6 30 21:41 19.03.2020
766 Clouds 7 1026 65 10000 4.6 20 21:20 19.03.2020
767 Clouds 7 1026 65 10000 4.6 20 20:58 19.03.2020
768 Clouds 8 1026 70 10000 4.1 20 20:39 19.03.2020
769 Clouds 8 1026 72 0 2.67 359 20:20 19.03.2020
770 Clouds 8 1026 70 0 2.67 359 19:55 19.03.2020
771 Clouds 8 1026 70 0 2.67 359 19:37 19.03.2020
772 Clouds 8 1026 71 0 2.67 359 19:18 19.03.2020
773 Clouds 8 1026 76 10000 2.1 30 18:42 19.03.2020
774 Clouds 9 1026 76 10000 2.1 30 18:22 19.03.2020
775 Clouds 9 1026 76 10000 2.1 30 18:22 19.03.2020
776 Clouds 9 1026 76 10000 2.1 20 17:58 19.03.2020
777 Clouds 9 1026 76 10000 2.1 20 17:40 19.03.2020
778 Clouds 9 1026 76 10000 2.6 30 17:19 19.03.2020
779 Clouds 9 1026 76 10000 2.1 30 16:43 19.03.2020
780 Clouds 9 1026 76 10000 2.1 30 16:23 19.03.2020
781 Clouds 9 1026 87 10000 3.1 30 15:45 19.03.2020
782 Clouds 9 1026 87 10000 3.1 30 15:27 19.03.2020
783 Clouds 9 1026 81 10000 4.6 20 14:58 19.03.2020
784 Clouds 9 1026 87 10000 2.6 10 14:40 19.03.2020
785 Clouds 8 1026 87 10000 3.1 10 14:19 19.03.2020
786 Clouds 8 1026 87 10000 2.6 40 13:40 19.03.2020
787 Clouds 8 1027 87 10000 2.1 30 13:19 19.03.2020
788 Drizzle 8 1027 87 6000 1.5 20 12:56 19.03.2020
789 Drizzle 9 1027 87 6000 1.5 20 12:37 19.03.2020
790 Drizzle 8 1027 87 10000 1.5 30 12:19 19.03.2020
791 Clouds 8 1026 87 10000 1.5 90 11:42 19.03.2020
792 Clouds 8 1026 93 10000 1.5 50 11:23 19.03.2020
793 Drizzle 8 1026 93 7000 1.5 20 10:57 19.03.2020
794 Drizzle 7 1026 93 7000 1.5 20 10:37 19.03.2020
795 Drizzle 7 1026 93 5000 2.6 20 10:18 19.03.2020
796 Drizzle 7 1026 93 8000 3.1 20 09:44 19.03.2020
797 Drizzle 7 1026 93 8000 3.1 20 09:26 19.03.2020
798 Drizzle 7 1026 93 6000 3.6 30 08:58 19.03.2020
799 Drizzle 7 1025 93 5000 3.6 20 08:40 19.03.2020
800 Clouds 7 1025 93 6000 4.1 20 08:19 19.03.2020
801 Clouds 7 1025 93 5000 3.6 20 07:44 19.03.2020
802 Drizzle 7 1025 93 5000 3.6 20 07:23 19.03.2020
803 Drizzle 7 1024 93 10000 3.6 30 06:32 19.03.2020
804 Clouds 8 1024 93 10000 3.6 10 05:47 19.03.2020
805 Clouds 9 1023 93 10000 4.6 310 04:53 19.03.2020
806 Clouds 9 1023 93 10000 4.6 310 04:34 19.03.2020
807 Clouds 11 1023 81 10000 3.1 240 02:34 19.03.2020
808 Clouds 11 1023 81 10000 3.6 250 00:57 19.03.2020
809 Clouds 12 1023 76 10000 4.6 260 00:22 19.03.2020
810 Clouds 11 1023 76 10000 5.7 260 23:48 18.03.2020
811 Clouds 11 1023 76 10000 5.7 260 23:29 18.03.2020
812 Clouds 12 1023 76 10000 3.6 250 22:56 18.03.2020
813 Clouds 12 1023 76 10000 3.6 250 22:38 18.03.2020
814 Clouds 12 1024 76 10000 4.6 250 22:20 18.03.2020
815 Clouds 12 1024 81 10000 2.6 260 21:42 18.03.2020
816 Clouds 12 1024 76 10000 2.1 300 21:21 18.03.2020
817 Clouds 12 1024 76 10000 2.1 300 20:58 18.03.2020
818 Clouds 12 1024 76 10000 2.1 290 20:40 18.03.2020
819 Clouds 12 1023 76 10000 2.6 300 20:20 18.03.2020
820 Clouds 13 1023 76 10000 2.6 300 19:56 18.03.2020
821 Clouds 13 1023 71 10000 3.1 300 19:38 18.03.2020
822 Clouds 13 1023 71 10000 3.1 260 19:19 18.03.2020
823 Clouds 13 1023 71 10000 3.1 260 19:19 18.03.2020
824 Clouds 13 1023 71 10000 4.1 250 18:41 18.03.2020
825 Clouds 13 1023 71 10000 3.1 260 18:20 18.03.2020
826 Clouds 14 1023 67 10000 5.1 260 17:58 18.03.2020
827 Clouds 14 1023 67 10000 5.1 260 17:39 18.03.2020
828 Clouds 14 1023 62 10000 6.2 250 17:21 18.03.2020
829 Clouds 14 1023 62 10000 6.2 250 16:58 18.03.2020
830 Clouds 14 1023 67 10000 6.7 240 16:39 18.03.2020
831 Clouds 15 1023 62 10000 5.7 240 16:20 18.03.2020
832 Clouds 15 1023 62 10000 6.7 250 15:45 18.03.2020
833 Clouds 15 1023 62 10000 7.2 240 15:20 18.03.2020
834 Clouds 15 1023 62 10000 7.7 250 14:45 18.03.2020
835 Clouds 14 1024 62 10000 7.2 260 14:22 18.03.2020
836 Clouds 14 1024 62 10000 7.2 260 13:59 18.03.2020
837 Clouds 14 1024 62 10000 6.2 250 13:37 18.03.2020
838 Clouds 14 1024 62 10000 7.2 240 13:19 18.03.2020
839 Clouds 14 1024 62 10000 7.7 230 12:41 18.03.2020
840 Clouds 14 1024 62 10000 7.2 240 12:20 18.03.2020
841 Clouds 13 1025 62 10000 7.7 240 11:40 18.03.2020
842 Clouds 13 1024 58 10000 7.2 230 11:21 18.03.2020
843 Clouds 12 1024 58 10000 5.7 240 10:58 18.03.2020
844 Clouds 12 1024 58 10000 5.7 240 10:39 18.03.2020
845 Clouds 12 1024 62 10000 7.2 240 10:20 18.03.2020
846 Clouds 11 1024 62 10000 7.2 240 09:59 18.03.2020
847 Clouds 11 1024 61 10000 6.2 230 09:39 18.03.2020
848 Clouds 10 1024 57 10000 6.7 230 09:21 18.03.2020
849 Clouds 9 1024 57 10000 6.7 220 08:40 18.03.2020
850 Clouds 9 1024 73 10000 5.1 220 08:21 18.03.2020
851 Clouds 8 1024 76 10000 4.6 220 07:49 18.03.2020
852 Clouds 8 1024 76 10000 4.6 220 07:31 18.03.2020
853 Clouds 8 1024 76 10000 5.7 220 06:55 18.03.2020
854 Clouds 8 1024 76 10000 5.7 220 06:37 18.03.2020
855 Clouds 8 1024 65 10000 4.1 220 05:37 18.03.2020
856 Clouds 8 1024 65 10000 4.1 200 04:32 18.03.2020
857 Clouds 8 1025 61 10000 3.6 210 03:21 18.03.2020
858 Clouds 8 1025 65 10000 3.1 210 02:36 18.03.2020
859 Clouds 8 1026 65 10000 3.1 200 01:42 18.03.2020
860 Clouds 8 1026 65 10000 2.6 200 00:45 18.03.2020
861 Clouds 8 1026 70 10000 2.6 190 00:21 18.03.2020
862 Clouds 8 1026 65 10000 2.6 200 23:42 17.03.2020
863 Clouds 8 1027 70 10000 3.1 190 23:21 17.03.2020
864 Clouds 9 1027 70 10000 3.1 190 22:46 17.03.2020
865 Clouds 9 1027 65 10000 3.1 190 22:28 17.03.2020
866 Clouds 9 1027 65 10000 2.1 210 21:46 17.03.2020
867 Clouds 9 1027 65 10000 2.1 210 21:25 17.03.2020
868 Clouds 9 1027 65 10000 3.1 190 20:58 17.03.2020
869 Clouds 10 1027 61 10000 2.6 190 20:38 17.03.2020
870 Clouds 10 1027 61 10000 2.6 200 20:19 17.03.2020
871 Clouds 11 1026 63 0 3.48 224 19:42 17.03.2020
872 Clouds 11 1027 61 10000 2.6 230 19:21 17.03.2020
873 Clouds 11 1027 66 10000 2.6 240 18:59 17.03.2020
874 Clouds 11 1027 66 10000 2.6 240 18:40 17.03.2020
875 Clouds 12 1027 58 10000 3.6 230 18:22 17.03.2020
876 Clouds 12 1027 58 10000 3.6 230 17:59 17.03.2020
877 Clouds 13 1027 58 10000 3.6 230 17:39 17.03.2020
878 Clouds 13 1027 54 10000 5.7 240 17:19 17.03.2020
879 Clouds 13 1027 54 10000 5.7 240 16:43 17.03.2020
880 Clouds 13 1027 50 10000 6.2 240 16:19 17.03.2020
881 Clouds 13 1027 50 10000 6.2 230 15:48 17.03.2020
882 Clouds 13 1027 50 10000 6.2 230 15:23 17.03.2020
883 Clouds 13 1027 50 10000 5.7 240 14:49 17.03.2020
884 Clouds 13 1027 50 10000 5.7 240 14:31 17.03.2020
885 Rain 13 1027 50 10000 6.7 220 13:59 17.03.2020
886 Clouds 13 1027 54 10000 6.7 240 13:41 17.03.2020
887 Clouds 13 1028 54 10000 7.7 250 13:22 17.03.2020
888 Clouds 12 1028 54 10000 7.7 240 12:48 17.03.2020
889 Clouds 12 1027 58 10000 7.2 240 12:26 17.03.2020
890 Clouds 12 1027 58 10000 7.2 240 11:59 17.03.2020
891 Clouds 12 1027 62 0 7.7 240 11:39 17.03.2020
892 Clouds 12 1027 62 0 7.7 240 11:39 17.03.2020
893 Clouds 11 1027 66 10000 7.2 230 11:21 17.03.2020
894 Clouds 10 1027 66 10000 6.2 220 10:55 17.03.2020
895 Clouds 10 1027 66 10000 6.2 220 10:36 17.03.2020
896 Clouds 10 1027 76 10000 5.1 230 10:18 17.03.2020
897 Clouds 9 1027 81 10000 5.1 230 09:45 17.03.2020
898 Clouds 8 1027 87 10000 5.1 230 09:20 17.03.2020
899 Clouds 7 1027 87 10000 5.1 230 08:58 17.03.2020
900 Clouds 7 1027 93 10000 3.6 230 08:40 17.03.2020
901 Clouds 5 1027 93 8000 2.6 230 08:20 17.03.2020
902 Clouds 5 1027 93 8000 2.1 230 07:49 17.03.2020
903 Fog 4 1027 93 7000 4.6 260 07:21 17.03.2020
904 Clouds 4 1026 100 10000 2.6 250 06:52 17.03.2020
905 Fog 4 1025 93 10000 2.1 210 06:25 17.03.2020
906 Fog 4 1025 100 10000 1.5 210 05:34 17.03.2020
907 Clouds 5 1025 100 10000 0.5 0 03:34 17.03.2020
908 Clouds 5 1025 100 10000 1 210 02:31 17.03.2020
909 Clouds 6 1025 93 10000 0.5 0 01:39 17.03.2020
910 Clouds 6 1024 93 10000 2.1 310 00:54 17.03.2020
911 Clouds 6 1024 93 10000 0.5 0 00:19 17.03.2020
912 Clouds 6 1024 93 10000 1 150 23:43 16.03.2020
913 Clouds 6 1024 93 10000 1.5 160 23:22 16.03.2020
914 Clouds 7 1024 81 10000 1 80 22:38 16.03.2020
915 Clouds 7 1023 81 10000 1.5 90 22:20 16.03.2020
916 Clouds 8 1023 76 10000 1.5 40 21:45 16.03.2020
917 Clouds 8 1023 76 10000 1.5 40 21:27 16.03.2020
918 Clouds 8 1023 76 10000 2.6 50 20:59 16.03.2020
919 Clouds 8 1023 76 10000 4.1 20 20:40 16.03.2020
920 Clouds 9 1023 71 10000 3.6 360 20:21 16.03.2020
921 Clouds 9 1023 76 10000 4.1 10 19:46 16.03.2020
922 Clouds 9 1023 76 10000 4.1 10 19:25 16.03.2020
923 Clouds 9 1023 76 10000 4.1 10 19:25 16.03.2020
924 Clouds 10 1022 66 10000 3.1 310 18:59 16.03.2020
925 Clouds 10 1022 66 10000 3.6 320 18:40 16.03.2020
926 Clouds 11 1022 62 10000 5.1 320 18:20 16.03.2020
927 Clouds 12 1021 62 10000 4.6 320 17:46 16.03.2020
928 Clouds 12 1021 58 10000 3.6 310 17:26 16.03.2020
929 Clouds 13 1021 58 10000 3.6 310 16:58 16.03.2020
930 Clouds 13 1021 58 10000 3.6 310 16:40 16.03.2020
931 Clouds 13 1020 58 10000 4.1 330 16:22 16.03.2020
932 Clouds 14 1020 50 10000 3.6 270 15:43 16.03.2020
933 Clouds 14 1020 50 10000 3.6 270 15:24 16.03.2020
934 Clouds 14 1020 54 10000 3.6 270 14:48 16.03.2020
935 Clouds 13 1020 54 10000 3.6 270 14:25 16.03.2020
936 Clouds 13 1019 62 10000 3.6 290 13:55 16.03.2020
937 Clouds 13 1019 66 10000 4.6 320 13:37 16.03.2020
938 Clouds 13 1019 66 10000 5.1 320 13:18 16.03.2020
939 Clouds 13 1019 62 10000 4.6 310 12:42 16.03.2020
940 Clouds 12 1019 66 10000 5.1 300 12:23 16.03.2020
941 Clouds 12 1019 71 10000 5.1 270 11:45 16.03.2020
942 Clouds 12 1018 71 10000 5.1 270 11:26 16.03.2020
943 Clouds 11 1018 76 10000 5.1 280 10:47 16.03.2020
944 Clouds 11 1018 76 10000 5.1 280 10:25 16.03.2020
945 Clouds 11 1017 76 10000 4.6 280 09:59 16.03.2020
946 Clouds 10 1017 76 10000 4.1 260 09:40 16.03.2020
947 Clouds 10 1016 81 10000 2.6 250 09:20 16.03.2020
948 Clouds 9 1016 81 10000 2.1 230 08:47 16.03.2020
949 Clouds 9 1016 81 10000 2.1 230 08:24 16.03.2020
950 Clouds 7 1015 81 10000 1 210 07:45 16.03.2020
951 Clouds 7 1015 75 10000 1.5 240 07:21 16.03.2020
952 Clouds 7 1014 81 10000 2.6 210 06:46 16.03.2020
953 Clouds 7 1014 81 10000 2.6 210 06:23 16.03.2020
954 Clouds 8 1013 70 10000 1.5 210 04:53 16.03.2020
955 Clouds 10 1012 66 10000 3.1 190 02:40 16.03.2020
956 Clouds 10 1012 76 10000 2.6 180 00:49 16.03.2020
957 Clouds 10 1012 76 10000 2.6 180 00:30 16.03.2020
958 Clouds 10 1012 76 10000 3.1 170 23:42 15.03.2020
959 Clouds 11 1012 76 10000 3.1 180 23:20 15.03.2020
960 Clouds 11 1012 76 10000 2.1 170 22:42 15.03.2020
961 Clouds 11 1012 71 10000 1.5 220 22:22 15.03.2020
962 Clouds 11 1012 71 10000 1.5 220 21:55 15.03.2020
963 Clouds 11 1012 71 10000 2.6 200 21:37 15.03.2020
964 Clouds 12 1012 66 10000 2.6 200 21:18 15.03.2020
965 Clouds 12 1012 66 10000 3.1 200 20:42 15.03.2020
966 Clouds 12 1012 66 10000 3.1 200 20:20 15.03.2020
967 Clouds 12 1012 66 10000 3.1 200 19:56 15.03.2020
968 Clouds 12 1012 66 10000 3.6 200 19:38 15.03.2020
969 Clouds 12 1011 66 10000 3.6 190 19:19 15.03.2020
970 Clouds 12 1011 66 10000 3.6 190 18:55 15.03.2020
971 Clouds 13 1011 62 10000 3.1 190 18:36 15.03.2020
972 Clouds 13 1011 62 10000 3.6 190 18:18 15.03.2020
973 Clouds 13 1011 62 10000 3.6 180 17:40 15.03.2020
974 Clouds 13 1011 62 10000 5.1 200 17:21 15.03.2020
975 Clouds 13 1011 54 10000 5.7 200 16:58 15.03.2020
976 Clouds 13 1011 54 10000 5.7 200 16:38 15.03.2020
977 Clouds 14 1011 54 10000 6.7 200 16:19 15.03.2020
978 Clouds 14 1011 54 10000 8.2 200 15:45 15.03.2020
979 Clouds 14 1011 54 10000 8.2 200 15:27 15.03.2020
980 Clouds 14 1011 54 10000 8.2 200 14:58 15.03.2020
981 Clouds 14 1012 54 10000 8.7 200 14:38 15.03.2020
982 Clouds 14 1012 54 10000 9.3 200 14:19 15.03.2020
983 Clouds 14 1012 58 10000 8.7 200 13:55 15.03.2020
984 Clouds 14 1012 54 10000 9.3 200 13:55 15.03.2020
985 Clouds 14 1012 58 10000 8.7 200 13:36 15.03.2020
986 Clouds 14 1013 62 10000 7.7 200 13:18 15.03.2020
987 Clouds 14 1013 62 10000 7.7 200 13:18 15.03.2020
988 Clouds 13 1013 62 10000 8.2 190 12:40 15.03.2020
989 Clouds 13 1014 62 10000 8.7 200 12:21 15.03.2020
990 Clouds 12 1014 62 10000 8.7 200 11:44 15.03.2020
991 Clouds 12 1014 62 10000 8.7 190 11:25 15.03.2020
992 Clouds 12 1014 62 10000 8.7 190 10:59 15.03.2020
993 Clouds 11 1015 62 10000 7.7 190 10:40 15.03.2020
994 Clouds 11 1015 62 10000 7.7 190 10:21 15.03.2020
995 Clouds 10 1015 61 10000 7.7 200 09:57 15.03.2020
996 Clouds 9 1015 66 10000 7.7 190 09:36 15.03.2020
997 Clouds 9 1015 66 10000 7.7 180 09:18 15.03.2020
998 Clouds 8 1015 70 10000 6.2 180 08:41 15.03.2020
999 Clouds 7 1015 75 10000 6.2 180 08:19 15.03.2020
1000 Clouds 7 1015 70 10000 5.1 180 07:48 15.03.2020
1001 Clouds 7 1015 70 10000 5.1 170 07:22 15.03.2020
1002 Clouds 7 1015 70 10000 6.2 170 06:43 15.03.2020
1003 Clouds 6 1015 75 10000 5.7 160 05:48 15.03.2020
1004 Clouds 6 1016 75 10000 5.1 160 04:57 15.03.2020
1005 Clouds 6 1016 75 10000 5.1 160 04:38 15.03.2020
1006 Clouds 6 1016 70 10000 5.1 160 04:20 15.03.2020
1007 Clouds 5 1017 75 10000 4.6 160 03:19 15.03.2020
1008 Clouds 5 1017 75 10000 5.1 150 02:22 15.03.2020
1009 Clouds 5 1018 75 10000 5.7 140 00:59 15.03.2020
1010 Clouds 5 1018 75 10000 5.7 150 00:40 15.03.2020
1011 Clouds 5 1018 75 10000 6.2 140 00:19 15.03.2020
1012 Clouds 5 1019 75 10000 6.2 140 23:39 14.03.2020
1013 Clouds 5 1019 70 10000 6.2 140 23:20 14.03.2020
1014 Clouds 5 1019 70 10000 6.2 140 22:56 14.03.2020
1015 Clouds 5 1019 75 10000 5.1 140 22:38 14.03.2020
1016 Clouds 6 1019 75 10000 5.7 140 22:19 14.03.2020
1017 Clouds 6 1019 75 10000 5.7 140 21:55 14.03.2020
1018 Clouds 6 1019 75 10000 5.1 130 21:36 14.03.2020
1019 Clouds 6 1020 70 10000 5.1 130 21:18 14.03.2020
1020 Clouds 6 1020 70 10000 5.1 130 20:56 14.03.2020
1021 Clouds 6 1020 75 10000 5.7 130 20:38 14.03.2020
1022 Clear 6 1020 65 10000 4.1 130 20:18 14.03.2020
1023 Clear 7 1020 65 10000 4.6 130 19:41 14.03.2020
1024 Clear 7 1020 65 10000 4.1 130 19:21 14.03.2020
1025 Clear 8 1020 65 10000 4.1 130 18:41 14.03.2020
1026 Clear 8 1020 57 10000 5.1 140 18:21 14.03.2020
1027 Clear 9 1020 57 10000 5.1 130 17:43 14.03.2020
1028 Clouds 9 1020 61 10000 6.7 150 17:24 14.03.2020
1029 Clouds 9 1020 61 10000 6.7 150 16:59 14.03.2020
1030 Clouds 9 1021 61 10000 5.7 140 16:40 14.03.2020
1031 Clouds 9 1021 57 10000 5.7 150 16:21 14.03.2020
1032 Clouds 9 1021 57 10000 5.7 150 16:21 14.03.2020
1033 Clouds 10 1021 57 10000 5.7 150 15:52 14.03.2020
1034 Clouds 9 1021 57 10000 5.7 150 15:25 14.03.2020
1035 Clouds 9 1022 65 10000 5.1 140 14:46 14.03.2020
1036 Clouds 9 1022 65 10000 5.1 140 14:23 14.03.2020
1037 Clouds 9 1022 61 10000 5.7 140 13:57 14.03.2020
1038 Clouds 9 1022 61 10000 5.1 130 13:39 14.03.2020
1039 Clouds 9 1023 65 10000 5.1 120 13:20 14.03.2020
1040 Clouds 8 1023 65 10000 4.6 140 12:46 14.03.2020
1041 Clouds 8 1023 60 10000 3.6 140 12:27 14.03.2020
1042 Clouds 8 1023 60 10000 4.1 130 11:56 14.03.2020
1043 Clouds 7 1023 60 10000 4.1 130 11:38 14.03.2020
1044 Clear 6 1023 65 10000 4.1 140 11:19 14.03.2020
1045 Clear 6 1023 65 10000 4.1 150 10:44 14.03.2020
1046 Clear 5 1023 69 10000 3.1 140 10:25 14.03.2020
1047 Clear 5 1023 69 10000 3.1 140 09:57 14.03.2020
1048 Clear 4 1023 74 10000 2.6 130 09:39 14.03.2020
1049 Clear 3 1023 80 10000 2.6 130 09:19 14.03.2020
1050 Clear 2 1023 69 10000 0.5 0 08:45 14.03.2020
1051 Clear 1 1023 68 10000 0.5 0 08:22 14.03.2020
1052 Clear -2 1022 100 10000 0.5 170 07:39 14.03.2020
1053 Clear -2 1022 92 10000 1 150 07:20 14.03.2020
1054 Clear -2 1022 92 10000 1 0 06:41 14.03.2020
1055 Clear -2 1022 100 10000 0.5 150 05:49 14.03.2020
1056 Clear -2 1022 92 10000 0.5 230 04:51 14.03.2020
1057 Clear -1 1022 92 10000 0.5 0 03:25 14.03.2020
1058 Clear -1 1022 92 10000 0.5 0 02:35 14.03.2020
1059 Clear 0 1021 80 10000 2.1 220 01:27 14.03.2020
1060 Clear 1 1021 80 10000 2.1 290 00:20 14.03.2020
1061 Clouds 2 1021 74 10000 2.6 310 23:38 13.03.2020
1062 Clouds 2 1020 74 10000 2.1 310 23:18 13.03.2020
1063 Clouds 3 1020 74 10000 3.1 310 22:41 13.03.2020
1064 Clouds 3 1020 74 10000 3.6 300 22:20 13.03.2020
1065 Clouds 4 1019 69 10000 3.6 290 21:40 13.03.2020
1066 Clouds 4 1019 69 10000 3.1 290 21:18 13.03.2020
1067 Clouds 4 1018 87 10000 4.1 310 20:42 13.03.2020
1068 Clouds 5 1018 81 10000 6.2 310 20:22 13.03.2020
1069 Clouds 5 1018 81 10000 6.2 310 19:57 13.03.2020
1070 Clouds 5 1018 81 10000 6.2 320 19:39 13.03.2020
1071 Clouds 5 1017 70 10000 6.7 320 19:18 13.03.2020
1072 Clouds 6 1016 65 10000 7.2 310 18:40 13.03.2020
1073 Clouds 6 1016 70 10000 7.7 310 18:22 13.03.2020
1074 Clouds 7 1015 70 10000 7.2 310 17:42 13.03.2020
1075 Clouds 7 1015 70 10000 7.2 290 17:21 13.03.2020
1076 Clouds 8 1015 81 10000 6.2 300 16:57 13.03.2020
1077 Clouds 7 1015 81 10000 6.2 300 16:38 13.03.2020
1078 Rain 8 1014 81 10000 8.2 300 16:20 13.03.2020
1079 Clouds 8 1014 75 10000 9.3 280 15:45 13.03.2020
1080 Clouds 8 1014 75 10000 9.3 280 15:22 13.03.2020
1081 Rain 8 1013 81 10000 12.3 300 14:58 13.03.2020
1082 Rain 8 1013 76 10000 7.7 290 14:40 13.03.2020
1083 Rain 8 1012 70 10000 10.3 290 14:21 13.03.2020
1084 Clouds 9 1011 76 10000 7.7 280 13:42 13.03.2020
1085 Clouds 9 1011 81 10000 7.7 280 13:24 13.03.2020
1086 Clouds 8 1011 81 10000 7.7 280 12:59 13.03.2020
1087 Rain 8 1011 87 10000 8.2 280 12:38 13.03.2020
1088 Rain 7 1010 75 10000 10.3 280 12:20 13.03.2020
1089 Rain 7 1009 81 10000 9.8 270 11:56 13.03.2020
1090 Rain 7 1009 81 10000 9.8 270 11:37 13.03.2020
1091 Clouds 7 1009 87 10000 9.3 270 11:18 13.03.2020
1092 Rain 7 1008 87 10000 9.8 270 10:47 13.03.2020
1093 Rain 6 1008 87 10000 9.8 270 10:26 13.03.2020
1094 Rain 6 1007 87 8000 12.3 260 09:56 13.03.2020
1095 Clouds 6 1007 87 10000 11.8 250 09:38 13.03.2020
1096 Rain 6 1006 87 10000 11.8 250 09:18 13.03.2020
1097 Rain 6 1006 81 10000 12.3 240 08:41 13.03.2020
1098 Rain 5 1005 81 10000 10.8 230 08:22 13.03.2020
1099 Rain 5 1005 81 10000 9.3 230 07:45 13.03.2020
1100 Rain 6 1005 81 10000 9.3 230 07:27 13.03.2020
1101 Rain 5 1005 80 10000 8.7 230 06:46 13.03.2020
1102 Rain 5 1005 80 10000 7.2 230 06:24 13.03.2020
1103 Rain 5 1006 86 10000 5.7 230 05:46 13.03.2020
1104 Rain 5 1006 86 10000 8.7 240 05:19 13.03.2020
1105 Rain 6 1006 81 10000 10.3 230 04:35 13.03.2020
1106 Clouds 5 1006 80 10000 7.2 230 02:58 13.03.2020
1107 Clouds 5 1007 80 10000 6.7 230 01:43 13.03.2020
1108 Clouds 5 1007 80 10000 6.2 220 01:18 13.03.2020
1109 Rain 5 1007 80 10000 6.2 220 00:46 13.03.2020
1110 Rain 4 1007 86 10000 6.2 220 00:20 13.03.2020
1111 Rain 4 1007 86 10000 5.7 220 23:47 12.03.2020
1112 Clouds 4 1007 93 10000 3.6 210 23:26 12.03.2020
1113 Clouds 3 1007 93 10000 2.1 200 22:55 12.03.2020
1114 Clouds 3 1007 93 10000 2.1 200 22:37 12.03.2020
1115 Clouds 3 1007 93 10000 3.6 190 22:19 12.03.2020
1116 Clouds 3 1008 86 10000 3.6 240 21:42 12.03.2020
1117 Clouds 3 1008 86 10000 3.6 240 21:24 12.03.2020
1118 Thunderstorm 4 1008 86 10000 9.3 240 20:55 12.03.2020
1119 Thunderstorm 4 1008 86 10000 5.7 230 20:37 12.03.2020
1120 Rain 4 1007 86 10000 6.2 230 20:18 12.03.2020
1121 Rain 4 1008 86 10000 7.7 240 19:39 12.03.2020
1122 Rain 4 1008 86 10000 7.7 240 19:39 12.03.2020
1123 Clouds 6 1007 74 10000 9.3 250 19:20 12.03.2020
1124 Clouds 6 1007 74 10000 9.3 250 19:20 12.03.2020
1125 Clouds 6 1007 74 10000 9.3 250 18:43 12.03.2020
1126 Clouds 8 1007 74 10000 9.8 240 18:24 12.03.2020
1127 Rain 9 1007 74 10000 9.8 250 17:57 12.03.2020
1128 Rain 9 1007 74 10000 9.8 250 17:37 12.03.2020
1129 Rain 9 1007 57 10000 8.2 250 17:18 12.03.2020
1130 Rain 9 1007 57 10000 9.3 260 16:54 12.03.2020
1131 Rain 9 1007 57 10000 9.3 260 16:36 12.03.2020
1132 Rain 9 1007 57 10000 12.3 260 16:18 12.03.2020
1133 Rain 10 1007 57 10000 9.8 260 15:43 12.03.2020
1134 Rain 10 1007 57 10000 9.8 260 15:24 12.03.2020
1135 Rain 9 1007 49 10000 11.8 260 14:39 12.03.2020
1136 Clouds 9 1007 49 10000 14.4 260 14:19 12.03.2020
1137 Clouds 9 1007 49 10000 13.4 270 13:41 12.03.2020
1138 Clouds 9 1007 49 10000 15.4 260 13:22 12.03.2020
1139 Clouds 9 1007 49 10000 15.4 260 12:56 12.03.2020
1140 Clouds 9 1006 52 10000 13.9 260 12:38 12.03.2020
1141 Clouds 9 1006 52 10000 14.4 260 12:20 12.03.2020
1142 Clouds 9 1005 52 10000 12.3 270 11:56 12.03.2020
1143 Clouds 8 1005 52 10000 12.3 270 11:37 12.03.2020
1144 Rain 8 1005 61 10000 15.4 270 11:19 12.03.2020
1145 Clouds 8 1004 52 10000 15.4 260 10:58 12.03.2020
1146 Clouds 8 1004 52 10000 15.4 260 10:40 12.03.2020
1147 Clouds 8 1003 62 10000 13.4 270 10:22 12.03.2020
1148 Clouds 8 1003 61 10000 13.9 270 09:45 12.03.2020
1149 Clouds 8 1002 70 10000 12.9 270 09:25 12.03.2020
1150 Clouds 8 1001 70 10000 10.8 260 08:43 12.03.2020
1151 Rain 7 1001 81 10000 15.9 270 08:20 12.03.2020
1152 Rain 7 1001 81 10000 15.9 270 07:56 12.03.2020
1153 Clouds 8 999 71 10000 12.9 250 07:38 12.03.2020
1154 Clouds 9 999 66 10000 12.9 250 07:20 12.03.2020
1155 Clouds 10 999 76 10000 11.3 250 05:48 12.03.2020
1156 Clouds 11 999 76 10000 11.3 240 05:25 12.03.2020
1157 Rain 11 1001 93 6000 8.7 240 02:41 12.03.2020
1158 Rain 11 1002 93 5000 7.2 220 01:32 12.03.2020
1159 Rain 11 1003 100 8000 4.1 230 00:47 12.03.2020
1160 Rain 11 1003 100 8000 4.1 230 00:27 12.03.2020
1161 Clouds 11 1004 81 10000 4.6 210 23:47 11.03.2020
1162 Clouds 11 1005 81 10000 5.7 220 23:25 11.03.2020
1163 Clouds 11 1005 81 10000 5.7 210 22:55 11.03.2020
1164 Clouds 11 1005 81 10000 5.7 210 22:37 11.03.2020
1165 Clouds 11 1006 81 10000 4.6 210 22:18 11.03.2020
1166 Clouds 11 1006 81 10000 5.1 220 21:41 11.03.2020
1167 Clouds 11 1006 81 10000 5.1 220 21:23 11.03.2020
1168 Clouds 11 1006 76 10000 6.2 210 20:59 11.03.2020
1169 Clouds 11 1007 76 10000 4.6 210 20:40 11.03.2020
1170 Clouds 11 1007 76 10000 5.1 210 20:20 11.03.2020
1171 Clouds 11 1007 76 10000 5.1 210 19:58 11.03.2020
1172 Clouds 11 1008 81 10000 3.1 200 19:39 11.03.2020
1173 Clouds 11 1008 76 10000 3.1 200 19:21 11.03.2020
1174 Clouds 11 1008 71 10000 3.6 220 18:44 11.03.2020
1175 Clouds 12 1008 66 10000 5.1 230 18:25 11.03.2020
1176 Clouds 12 1008 62 10000 4.6 240 17:59 11.03.2020
1177 Clouds 12 1008 62 10000 4.6 240 17:40 11.03.2020
1178 Clouds 13 1009 58 10000 6.7 250 17:21 11.03.2020
1179 Clouds 13 1009 58 10000 6.7 250 16:55 11.03.2020
1180 Clouds 13 1009 58 10000 6.2 260 16:37 11.03.2020
1181 Clouds 13 1009 58 10000 7.7 250 16:19 11.03.2020
1182 Clouds 13 1009 58 10000 6.7 260 15:42 11.03.2020
1183 Clouds 13 1009 62 10000 7.2 240 15:22 11.03.2020
1184 Clouds 13 1009 66 10000 6.7 230 14:44 11.03.2020
1185 Clouds 13 1009 66 10000 6.7 230 14:23 11.03.2020
1186 Clouds 13 1009 66 10000 5.7 240 13:58 11.03.2020
1187 Clouds 13 1010 62 10000 7.7 260 13:39 11.03.2020
1188 Clouds 13 1009 62 10000 6.2 260 13:21 11.03.2020
1189 Clouds 13 1009 66 10000 6.7 270 12:41 11.03.2020
1190 Clouds 12 1009 66 10000 6.2 260 12:21 11.03.2020
1191 Clouds 12 1009 66 10000 6.2 260 11:57 11.03.2020
1192 Clouds 12 1009 66 10000 7.7 260 11:39 11.03.2020
1193 Clouds 11 1009 66 10000 6.2 260 11:19 11.03.2020
1194 Clouds 11 1008 66 10000 7.2 260 10:46 11.03.2020
1195 Clouds 11 1008 71 10000 6.7 250 10:19 11.03.2020
1196 Clouds 10 1008 71 10000 6.7 250 09:55 11.03.2020
1197 Clouds 10 1008 81 10000 5.7 250 09:36 11.03.2020
1198 Clouds 9 1008 81 10000 5.1 240 09:18 11.03.2020
1199 Clouds 8 1007 81 10000 4.6 240 08:42 11.03.2020
1200 Clouds 8 1007 75 10000 4.6 240 08:23 11.03.2020
1201 Clouds 8 1007 75 10000 5.1 260 07:47 11.03.2020
1202 Clouds 7 1007 81 10000 5.1 250 07:20 11.03.2020
1203 Clouds 7 1006 87 10000 5.1 250 06:49 11.03.2020
1204 Clouds 7 1006 87 10000 4.1 250 06:20 11.03.2020
1205 Clouds 7 1006 81 10000 4.6 260 05:32 11.03.2020
1206 Clouds 9 1004 76 0 8.7 280 02:43 11.03.2020
1207 Clouds 9 1002 76 10000 10.3 280 01:51 11.03.2020
1208 Rain 10 1001 87 10000 8.7 260 00:53 11.03.2020
1209 Rain 10 1001 87 10000 8.7 260 00:32 11.03.2020
1210 Rain 10 1000 87 10000 8.7 260 23:49 10.03.2020
1211 Rain 10 1000 81 10000 11.3 270 23:26 10.03.2020
1212 Rain 10 1000 81 10000 8.7 270 22:56 10.03.2020
1213 Rain 10 1000 81 10000 8.7 270 22:37 10.03.2020
1214 Rain 11 999 81 10000 10.3 280 22:18 10.03.2020
1215 Drizzle 11 999 93 10000 10.8 290 21:56 10.03.2020
1216 Drizzle 11 999 93 10000 10.8 290 21:37 10.03.2020
1217 Drizzle 11 998 93 5000 9.3 250 21:18 10.03.2020
1218 Rain 12 998 93 10000 11.3 250 20:42 10.03.2020
1219 Clouds 12 998 87 10000 9.3 250 20:19 10.03.2020
1220 Clouds 12 998 87 10000 9.3 250 19:58 10.03.2020
1221 Clouds 11 998 87 10000 8.7 240 19:40 10.03.2020
1222 Rain 11 998 93 4800 8.7 240 19:22 10.03.2020
1223 Rain 11 998 93 4800 8.7 240 18:56 10.03.2020
1224 Rain 11 998 87 4500 9.3 240 18:37 10.03.2020
1225 Rain 11 998 100 4500 8.2 240 18:19 10.03.2020
1226 Rain 11 998 100 4500 8.2 240 17:55 10.03.2020
1227 Rain 11 998 87 6000 9.3 240 17:37 10.03.2020
1228 Rain 11 998 93 9000 8.2 240 17:18 10.03.2020
1229 Rain 11 998 93 10000 7.2 230 16:37 10.03.2020
1230 Rain 11 998 93 7000 7.7 230 16:18 10.03.2020
1231 Drizzle 11 998 93 4000 8.2 230 15:42 10.03.2020
1232 Drizzle 11 999 93 4000 7.2 220 15:20 10.03.2020
1233 Drizzle 11 999 93 4000 7.2 220 14:59 10.03.2020
1234 Drizzle 11 999 93 3000 6.7 230 14:40 10.03.2020
1235 Drizzle 10 999 100 4500 6.7 220 14:19 10.03.2020
1236 Drizzle 10 1000 100 4500 6.7 220 13:44 10.03.2020
1237 Drizzle 10 1000 100 4500 6.7 220 13:26 10.03.2020
1238 Drizzle 10 1000 87 10000 6.2 230 12:56 10.03.2020
1239 Drizzle 10 1000 93 10000 7.7 230 12:37 10.03.2020
1240 Drizzle 10 1000 93 10000 7.7 230 12:37 10.03.2020
1241 Drizzle 10 1000 93 8000 6.7 230 12:18 10.03.2020
1242 Drizzle 9 1000 93 6000 6.7 220 11:42 10.03.2020
1243 Clouds 9 999 93 8000 7.2 220 11:24 10.03.2020
1244 Clouds 9 999 93 8000 7.2 220 10:58 10.03.2020
1245 Rain 8 999 93 6000 7.7 220 10:39 10.03.2020
1246 Rain 8 999 100 4500 7.2 220 10:19 10.03.2020
1247 Rain 7 999 100 4500 7.2 220 09:56 10.03.2020
1248 Rain 7 1000 93 5000 7.2 210 09:37 10.03.2020
1249 Rain 6 1000 100 5000 6.7 210 09:18 10.03.2020
1250 Rain 6 1000 93 5000 6.2 200 08:43 10.03.2020
1251 Rain 6 1000 93 5000 6.2 200 08:25 10.03.2020
1252 Rain 5 1000 93 10000 8.2 180 07:46 10.03.2020
1253 Rain 5 1000 93 10000 8.2 180 07:28 10.03.2020
1254 Rain 5 1002 93 10000 9.3 190 06:42 10.03.2020
1255 Rain 5 1002 87 10000 9.3 180 06:23 10.03.2020
1256 Rain 6 1003 87 10000 8.2 180 05:38 10.03.2020
1257 Rain 6 1004 87 10000 6.7 180 04:35 10.03.2020
1258 Rain 6 1006 81 10000 5.1 190 03:34 10.03.2020
1259 Clouds 6 1008 87 10000 4.6 180 02:18 10.03.2020
1260 Clouds 6 1009 87 10000 4.1 190 00:54 10.03.2020
1261 Clouds 6 1010 87 10000 4.1 190 00:30 10.03.2020
1262 Clouds 6 1011 87 10000 3.1 200 23:57 09.03.2020
1263 Clouds 6 1011 87 10000 3.1 200 23:38 09.03.2020
1264 Clouds 6 1011 81 10000 4.1 220 23:20 09.03.2020
1265 Clouds 6 1011 87 10000 5.1 230 22:40 09.03.2020
1266 Clouds 6 1011 87 10000 5.1 220 22:22 09.03.2020
1267 Clouds 6 1011 87 10000 5.1 220 21:57 09.03.2020
1268 Clouds 6 1012 81 10000 3.1 210 21:38 09.03.2020
1269 Clouds 6 1012 81 10000 5.7 230 21:20 09.03.2020
1270 Clouds 7 1012 81 10000 5.7 230 20:56 09.03.2020
1271 Clouds 6 1012 81 10000 5.7 230 20:37 09.03.2020
1272 Clouds 7 1012 75 10000 3.6 210 20:18 09.03.2020
1273 Clouds 7 1012 75 10000 3.6 210 19:44 09.03.2020
1274 Clouds 7 1012 75 10000 3.6 210 19:21 09.03.2020
1275 Clouds 7 1012 75 10000 3.6 210 18:57 09.03.2020
1276 Clouds 7 1012 81 10000 3.1 240 18:38 09.03.2020
1277 Rain 7 1012 70 10000 7.2 260 18:19 09.03.2020
1278 Rain 8 1012 70 10000 7.2 260 17:57 09.03.2020
1279 Clouds 8 1011 70 10000 6.2 230 17:38 09.03.2020
1280 Rain 8 1011 70 10000 5.1 220 17:20 09.03.2020
1281 Rain 9 1011 76 10000 5.1 260 16:57 09.03.2020
1282 Rain 10 1011 76 10000 5.1 260 16:39 09.03.2020
1283 Clouds 10 1010 62 10000 6.7 240 16:20 09.03.2020
1284 Clouds 10 1010 62 10000 6.7 240 15:57 09.03.2020
1285 Clouds 10 1010 62 10000 6.7 240 15:38 09.03.2020
1286 Clouds 10 1011 66 10000 6.7 250 15:19 09.03.2020
1287 Clouds 10 1010 71 10000 7.2 250 14:55 09.03.2020
1288 Clouds 10 1010 76 10000 5.7 230 14:36 09.03.2020
1289 Clouds 10 1010 76 10000 5.7 230 14:18 09.03.2020
1290 Clouds 9 1010 76 10000 6.2 230 13:54 09.03.2020
1291 Clouds 9 1010 76 10000 5.7 230 13:36 09.03.2020
1292 Clouds 9 1010 76 10000 5.7 230 13:18 09.03.2020
1293 Rain 9 1010 76 10000 7.2 230 12:41 09.03.2020
1294 Clouds 10 1010 66 10000 7.2 220 12:21 09.03.2020
1295 Clouds 10 1010 66 10000 7.2 220 12:21 09.03.2020
1296 Clouds 9 1010 71 10000 7.2 230 11:41 09.03.2020
1297 Clouds 9 1010 81 10000 6.7 240 11:22 09.03.2020
1298 Clouds 9 1009 81 10000 6.7 250 10:59 09.03.2020
1299 Clouds 9 1009 81 10000 6.7 250 10:40 09.03.2020
1300 Clouds 8 1009 81 10000 7.2 240 10:20 09.03.2020
1301 Clouds 8 1009 81 10000 7.2 240 10:20 09.03.2020
1302 Clouds 8 1009 87 10000 5.7 240 09:57 09.03.2020
1303 Clouds 8 1009 87 10000 5.7 240 09:37 09.03.2020
1304 Clouds 8 1009 81 10000 6.2 250 09:19 09.03.2020
1305 Clouds 8 1008 87 9000 4.1 230 08:42 09.03.2020
1306 Clouds 7 1008 93 8000 4.1 230 08:23 09.03.2020
1307 Clouds 7 1008 93 8000 3.6 210 07:41 09.03.2020
1308 Clouds 7 1007 93 8000 3.6 220 07:21 09.03.2020
1309 Clouds 7 1007 93 10000 3.6 210 06:44 09.03.2020
1310 Clouds 7 1007 93 10000 3.6 220 06:25 09.03.2020
1311 Clouds 7 1007 93 10000 3.6 220 06:25 09.03.2020
1312 Clouds 7 1007 93 10000 3.6 210 05:52 09.03.2020
1313 Clouds 7 1006 93 10000 2.6 200 05:34 09.03.2020
1314 Clouds 7 1006 93 10000 3.1 210 04:43 09.03.2020
1315 Clouds 7 1006 93 10000 4.1 220 04:22 09.03.2020
1316 Clouds 8 1006 93 10000 3.6 220 03:20 09.03.2020
1317 Clouds 8 1006 93 10000 2.6 210 01:49 09.03.2020
1318 Rain 8 1006 93 10000 3.6 180 00:39 09.03.2020
1319 Rain 8 1006 93 10000 4.1 170 00:20 09.03.2020
1320 Rain 8 1007 100 10000 4.1 180 23:51 08.03.2020
1321 Rain 8 1007 100 10000 4.6 180 23:25 08.03.2020
1322 Rain 8 1007 93 10000 4.1 190 22:58 08.03.2020
1323 Clouds 8 1008 93 10000 5.1 190 22:39 08.03.2020
1324 Clouds 8 1008 93 10000 5.1 190 22:20 08.03.2020
1325 Clouds 8 1008 93 10000 4.1 180 21:57 08.03.2020
1326 Clouds 8 1008 93 10000 4.1 180 21:38 08.03.2020
1327 Clouds 8 1008 93 10000 4.1 180 21:19 08.03.2020
1328 Rain 9 1008 87 10000 4.1 200 20:56 08.03.2020
1329 Clouds 9 1008 87 10000 6.2 200 20:37 08.03.2020
1330 Clouds 8 1008 87 10000 6.2 200 20:18 08.03.2020
1331 Rain 9 1009 87 10000 5.7 200 19:37 08.03.2020
1332 Rain 9 1009 87 10000 6.2 200 19:19 08.03.2020
1333 Rain 9 1009 87 10000 5.7 200 18:42 08.03.2020
1334 Rain 9 1009 93 10000 5.7 210 18:24 08.03.2020
1335 Rain 9 1009 87 8000 5.7 210 17:57 08.03.2020
1336 Rain 9 1009 81 10000 7.2 210 17:38 08.03.2020
1337 Rain 9 1009 81 10000 7.2 210 17:20 08.03.2020
1338 Rain 9 1009 81 10000 7.2 210 16:47 08.03.2020
1339 Rain 9 1009 81 10000 7.2 210 16:28 08.03.2020
1340 Rain 10 1009 76 10000 7.7 220 15:59 08.03.2020
1341 Rain 10 1009 66 10000 7.7 220 15:41 08.03.2020
1342 Rain 10 1009 66 10000 7.7 220 15:21 08.03.2020
1343 Rain 10 1009 66 10000 7.7 220 14:56 08.03.2020
1344 Clouds 11 1009 66 10000 5.7 200 14:37 08.03.2020
1345 Clouds 11 1009 66 10000 5.7 200 14:19 08.03.2020
1346 Clouds 11 1009 66 10000 7.2 210 13:41 08.03.2020
1347 Clouds 11 1009 66 10000 7.2 210 13:20 08.03.2020
1348 Clouds 11 1010 66 10000 8.7 210 12:43 08.03.2020
1349 Clouds 11 1010 66 10000 7.7 210 12:25 08.03.2020
1350 Clouds 11 1010 71 10000 8.2 200 11:58 08.03.2020
1351 Clouds 11 1010 71 10000 8.7 200 11:39 08.03.2020
1352 Clouds 11 1010 71 10000 8.7 200 11:39 08.03.2020
1353 Clouds 11 1010 71 10000 8.7 200 11:21 08.03.2020
1354 Clouds 11 1010 71 10000 8.7 200 11:21 08.03.2020
1355 Clouds 10 1011 71 10000 8.7 200 10:42 08.03.2020
1356 Clouds 10 1011 71 10000 8.7 200 10:23 08.03.2020
1357 Clouds 10 1011 71 10000 7.7 190 09:59 08.03.2020
1358 Clouds 9 1011 76 10000 7.7 190 09:37 08.03.2020
1359 Clouds 9 1011 76 10000 7.7 190 09:19 08.03.2020
1360 Clouds 8 1012 75 10000 6.2 190 08:42 08.03.2020
1361 Clouds 8 1012 75 10000 6.7 200 08:20 08.03.2020
1362 Clouds 7 1012 81 10000 5.7 200 07:45 08.03.2020
1363 Clouds 7 1012 81 10000 5.1 190 07:25 08.03.2020
1364 Clouds 7 1012 75 10000 5.1 190 06:43 08.03.2020
1365 Clouds 7 1012 75 10000 5.1 190 06:24 08.03.2020
1366 Clouds 7 1013 75 10000 5.1 190 05:43 08.03.2020
1367 Clouds 7 1013 75 10000 5.1 190 05:43 08.03.2020
1368 Clouds 7 1013 75 10000 4.6 180 03:52 08.03.2020
1369 Clouds 7 1014 70 10000 4.6 200 02:40 08.03.2020
1370 Clouds 7 1015 70 10000 4.6 210 01:37 08.03.2020
1371 Clouds 7 1015 70 10000 4.1 200 01:18 08.03.2020
1372 Clouds 7 1015 70 10000 4.6 190 00:30 08.03.2020
1373 Clouds 7 1016 70 10000 4.1 200 23:57 07.03.2020
1374 Clouds 7 1016 70 10000 4.1 200 23:36 07.03.2020
1375 Clouds 7 1016 70 10000 4.1 200 23:18 07.03.2020
1376 Clouds 6 1016 75 10000 3.6 190 22:38 07.03.2020
1377 Clouds 6 1016 75 10000 3.6 190 22:19 07.03.2020
1378 Clouds 6 1017 75 10000 4.1 180 21:44 07.03.2020
1379 Clouds 6 1017 70 10000 3.6 180 21:22 07.03.2020
1380 Clouds 6 1017 70 10000 3.6 180 20:41 07.03.2020
1381 Clouds 5 1017 75 10000 3.1 180 20:22 07.03.2020
1382 Clouds 6 1017 75 10000 3.1 190 19:54 07.03.2020
1383 Clouds 6 1017 70 10000 2.6 190 19:36 07.03.2020
1384 Clouds 6 1017 70 10000 2.6 190 19:18 07.03.2020
1385 Clouds 7 1017 70 10000 2.1 200 18:39 07.03.2020
1386 Clouds 7 1017 65 10000 2.6 230 18:21 07.03.2020
1387 Clouds 8 1016 61 10000 3.6 250 17:42 07.03.2020
1388 Clouds 9 1016 61 10000 3.1 260 17:20 07.03.2020
1389 Clouds 9 1016 61 10000 3.6 270 16:59 07.03.2020
1390 Clouds 9 1016 61 10000 3.6 270 16:40 07.03.2020
1391 Clouds 9 1016 57 10000 5.7 270 16:22 07.03.2020
1392 Clouds 9 1016 61 10000 4.1 300 15:57 07.03.2020
1393 Clouds 9 1016 61 10000 4.1 300 15:37 07.03.2020
1394 Clouds 9 1016 65 10000 5.1 290 15:19 07.03.2020
1395 Clouds 9 1016 65 10000 5.1 280 14:46 07.03.2020
1396 Clouds 9 1016 61 10000 5.7 290 14:25 07.03.2020
1397 Clouds 9 1016 65 10000 5.1 290 13:59 07.03.2020
1398 Clouds 8 1015 61 10000 5.1 280 13:39 07.03.2020
1399 Clouds 8 1015 61 10000 5.1 280 13:19 07.03.2020
1400 Clouds 8 1015 65 10000 6.7 270 12:42 07.03.2020
1401 Clouds 7 1015 65 10000 5.1 300 12:20 07.03.2020
1402 Clouds 7 1015 75 10000 5.1 280 11:57 07.03.2020
1403 Clouds 7 1015 75 10000 5.1 280 11:39 07.03.2020
1404 Clouds 7 1015 81 10000 5.1 290 11:21 07.03.2020
1405 Clouds 6 1014 81 10000 5.7 290 10:41 07.03.2020
1406 Clouds 6 1014 81 10000 5.7 280 10:21 07.03.2020
1407 Clear 6 1014 81 10000 6.2 270 09:57 07.03.2020
1408 Clouds 5 1013 80 10000 4.6 280 09:38 07.03.2020
1409 Clouds 5 1013 80 10000 4.6 280 09:18 07.03.2020
1410 Clouds 4 1013 86 10000 4.6 280 08:44 07.03.2020
1411 Clouds 4 1012 86 10000 4.6 290 08:21 07.03.2020
1412 Clouds 3 1012 86 10000 4.6 290 07:51 07.03.2020
1413 Clouds 3 1011 86 10000 5.7 300 07:23 07.03.2020
1414 Clouds 3 1010 96 0 0.89 271 06:57 07.03.2020
1415 Clouds 4 1010 96 0 2.24 296 06:33 07.03.2020
1416 Mist 4 1009 93 5000 4.6 290 05:53 07.03.2020
1417 Mist 4 1009 93 5000 4.6 290 04:47 07.03.2020
1418 Clouds 4 1007 93 6000 4.6 300 02:58 07.03.2020
1419 Clouds 4 1007 93 6000 4.6 300 02:34 07.03.2020
1420 Clouds 4 1007 93 8000 4.6 290 01:45 07.03.2020
1421 Clouds 4 1006 93 10000 5.1 300 00:41 07.03.2020
1422 Clouds 4 1005 86 10000 4.6 320 00:22 07.03.2020
1423 Clouds 4 1005 86 10000 5.1 330 23:56 06.03.2020
1424 Rain 4 1004 86 9000 5.7 330 23:38 06.03.2020
1425 Rain 4 1004 86 9000 5.7 330 23:19 06.03.2020
1426 Rain 4 1003 86 9000 5.7 330 22:42 06.03.2020
1427 Rain 4 1003 86 9000 4.6 340 22:18 06.03.2020
1428 Rain 4 1002 86 10000 5.1 340 21:45 06.03.2020
1429 Rain 4 1002 86 10000 5.1 330 21:19 06.03.2020
1430 Rain 5 1001 86 10000 3.6 340 20:40 06.03.2020
1431 Rain 5 1001 86 10000 4.6 340 20:21 06.03.2020
1432 Rain 4 1000 86 9000 5.1 340 19:54 06.03.2020
1433 Rain 4 999 93 6000 5.1 340 19:34 06.03.2020
1434 Rain 5 999 93 6000 5.1 340 18:59 06.03.2020
1435 Rain 4 999 93 6000 4.6 340 18:41 06.03.2020
1436 Rain 4 998 93 6000 5.1 350 18:20 06.03.2020
1437 Rain 4 998 93 6000 5.1 350 18:20 06.03.2020
1438 Rain 5 997 93 6000 3.6 340 17:56 06.03.2020
1439 Rain 5 997 93 6000 3.6 340 17:36 06.03.2020
1440 Drizzle 5 997 93 6000 3.6 340 17:18 06.03.2020
1441 Rain 5 996 86 10000 4.1 20 16:42 06.03.2020
1442 Rain 5 996 86 10000 4.1 20 16:21 06.03.2020
1443 Drizzle 5 995 86 10000 4.6 360 15:58 06.03.2020
1444 Drizzle 5 995 86 10000 4.6 360 15:40 06.03.2020
1445 Drizzle 5 995 86 10000 4.6 10 15:20 06.03.2020
1446 Rain 5 994 86 9000 5.1 20 14:40 06.03.2020
1447 Rain 4 994 93 9000 5.7 20 14:21 06.03.2020
1448 Rain 4 994 93 9000 5.7 20 14:21 06.03.2020
1449 Drizzle 4 994 86 8000 5.7 30 13:44 06.03.2020
1450 Drizzle 4 993 93 7000 5.7 30 13:23 06.03.2020
1451 Drizzle 4 993 93 7000 5.7 30 13:23 06.03.2020
1452 Drizzle 4 993 93 6000 5.1 30 12:59 06.03.2020
1453 Drizzle 4 993 93 6000 5.1 30 12:40 06.03.2020
1454 Drizzle 4 993 93 3800 5.1 20 12:20 06.03.2020
1455 Drizzle 4 992 93 4000 5.1 30 11:59 06.03.2020
1456 Drizzle 4 992 93 4000 5.1 30 11:40 06.03.2020
1457 Drizzle 4 992 93 5000 4.6 30 11:20 06.03.2020
1458 Drizzle 4 991 86 5000 6.2 30 10:42 06.03.2020
1459 Rain 4 991 93 8000 6.2 30 10:21 06.03.2020
1460 Rain 3 991 93 10000 6.7 40 09:59 06.03.2020
1461 Rain 3 991 93 10000 6.7 40 09:40 06.03.2020
1462 Rain 3 991 93 10000 6.7 40 09:40 06.03.2020
1463 Rain 3 990 93 9000 6.7 40 09:22 06.03.2020
1464 Rain 3 990 93 7000 7.7 40 08:55 06.03.2020
1465 Rain 3 990 93 7000 7.2 50 08:36 06.03.2020
1466 Rain 3 990 93 7000 7.2 50 08:18 06.03.2020
1467 Rain 3 990 93 8000 7.7 50 07:40 06.03.2020
1468 Rain 3 989 93 8000 7.2 50 07:21 06.03.2020
1469 Rain 3 989 100 10000 6.7 40 06:42 06.03.2020
1470 Rain 4 989 93 8000 6.7 50 06:18 06.03.2020
1471 Rain 4 989 86 10000 6.2 60 05:37 06.03.2020
1472 Rain 4 989 86 10000 6.2 60 05:18 06.03.2020
1473 Rain 4 989 80 10000 6.7 70 04:35 06.03.2020
1474 Rain 6 990 65 10000 6.2 60 01:43 06.03.2020
1475 Rain 6 990 70 10000 5.7 60 01:25 06.03.2020
1476 Rain 6 990 65 10000 4.6 70 00:50 06.03.2020
1477 Clouds 7 991 65 10000 5.1 70 00:30 06.03.2020
1478 Clouds 7 991 65 10000 5.7 80 23:44 05.03.2020
1479 Clouds 7 991 65 10000 6.7 70 23:25 05.03.2020
1480 Clouds 7 991 65 10000 6.2 70 22:55 05.03.2020
1481 Clouds 7 991 65 10000 6.7 80 22:37 05.03.2020
1482 Clouds 7 991 65 10000 6.7 80 22:18 05.03.2020
1483 Clouds 7 992 65 10000 6.7 70 21:55 05.03.2020
1484 Clouds 7 987 92 0 5.54 90 21:37 05.03.2020
1485 Clouds 7 991 76 0 2.68 86 21:19 05.03.2020
1486 Clouds 7 993 65 10000 6.7 70 20:43 05.03.2020
1487 Clouds 7 992 74 0 1.34 92 20:21 05.03.2020
1488 Clouds 7 994 65 10000 5.7 80 19:59 05.03.2020
1489 Clouds 7 994 65 10000 5.7 80 19:40 05.03.2020
1490 Clouds 7 994 65 10000 4.1 80 19:22 05.03.2020
1491 Clouds 7 994 65 10000 4.6 100 18:59 05.03.2020
1492 Clouds 7 994 65 10000 4.6 100 18:38 05.03.2020
1493 Clouds 7 994 65 10000 4.6 110 18:19 05.03.2020
1494 Clouds 8 994 65 10000 5.7 100 17:58 05.03.2020
1495 Clouds 8 994 65 10000 5.7 100 17:40 05.03.2020
1496 Clouds 8 994 65 10000 5.7 120 17:21 05.03.2020
1497 Clouds 8 995 65 10000 4.1 110 16:42 05.03.2020
1498 Clouds 8 996 61 10000 5.7 110 16:24 05.03.2020
1499 Clouds 9 996 61 10000 5.7 120 15:59 05.03.2020
1500 Clouds 8 996 61 10000 5.7 120 15:40 05.03.2020
1501 Clouds 8 997 61 10000 5.7 130 15:21 05.03.2020
1502 Clouds 8 997 61 10000 6.2 120 14:55 05.03.2020
1503 Clouds 9 997 70 10000 5.7 110 14:36 05.03.2020
1504 Clouds 9 997 70 10000 5.7 110 14:18 05.03.2020
1505 Clouds 8 998 70 10000 4.6 110 13:43 05.03.2020
1506 Clouds 8 999 70 10000 5.1 100 13:21 05.03.2020
1507 Clouds 8 999 70 10000 5.1 130 12:57 05.03.2020
1508 Clouds 9 999 70 10000 5.1 130 12:38 05.03.2020
1509 Clouds 8 1000 75 10000 4.1 120 12:19 05.03.2020
1510 Clouds 8 1000 75 10000 4.1 100 11:56 05.03.2020
1511 Clouds 8 1001 81 10000 3.1 110 11:37 05.03.2020
1512 Clouds 8 1001 81 10000 3.1 110 11:18 05.03.2020
1513 Clouds 7 1002 80 10000 2.6 120 10:56 05.03.2020
1514 Clouds 6 1002 86 10000 3.6 120 10:38 05.03.2020
1515 Clouds 6 1002 86 10000 3.6 120 10:20 05.03.2020
1516 Clouds 4 1002 86 10000 3.6 120 09:45 05.03.2020
1517 Clouds 4 1002 86 10000 3.6 120 09:26 05.03.2020
1518 Clouds 3 1003 93 10000 3.1 120 08:47 05.03.2020
1519 Clouds 3 1003 93 9000 2.6 130 08:29 05.03.2020
1520 Clouds 2 1003 93 9000 2.6 130 07:49 05.03.2020
1521 Clouds 2 1003 93 9000 2.6 120 07:22 05.03.2020
1522 Clouds 2 1004 93 10000 1.5 130 06:50 05.03.2020
1523 Clouds 2 1004 93 10000 2.1 130 06:23 05.03.2020
1524 Clouds 2 1004 93 10000 2.1 130 05:57 05.03.2020
1525 Clouds 2 1005 100 10000 2.1 130 05:32 05.03.2020
1526 Rain 2 1005 93 10000 2.1 130 04:23 05.03.2020
1527 Clouds 2 1005 93 10000 1.5 150 03:58 05.03.2020
1528 Clouds 2 1007 100 10000 2.1 130 02:25 05.03.2020
1529 Clouds 2 1007 100 10000 1.5 120 01:24 05.03.2020
1530 Clouds 2 1007 100 10000 1 140 00:43 05.03.2020
1531 Clouds 2 1008 93 10000 1 200 23:56 04.03.2020
1532 Clouds 2 1008 93 10000 1 200 23:38 04.03.2020
1533 Clouds 2 1008 93 10000 1.5 170 23:19 04.03.2020
1534 Clouds 3 1008 100 10000 1.5 180 22:54 04.03.2020
1535 Clouds 3 1008 93 10000 2.07 232 22:36 04.03.2020
1536 Clouds 3 1008 93 10000 2.07 232 22:18 04.03.2020
1537 Clouds 3 1008 100 10000 2.1 200 21:41 04.03.2020
1538 Clouds 4 1008 93 10000 2.1 200 21:21 04.03.2020
1539 Rain 4 1008 93 10000 2.1 210 20:58 04.03.2020
1540 Rain 4 1008 93 10000 2.1 210 20:58 04.03.2020
1541 Rain 4 1008 93 10000 2.1 210 20:39 04.03.2020
1542 Rain 4 1009 93 10000 1.5 210 20:21 04.03.2020
1543 Rain 4 1009 93 10000 2.1 210 19:43 04.03.2020
1544 Clouds 5 1008 93 10000 2.6 200 19:24 04.03.2020
1545 Clouds 5 1008 93 10000 2.6 200 18:59 04.03.2020
1546 Clouds 5 1008 93 10000 2.6 200 18:41 04.03.2020
1547 Clouds 6 1008 86 10000 2.6 200 18:22 04.03.2020
1548 Clouds 6 1008 81 10000 2.6 210 17:57 04.03.2020
1549 Clouds 6 1008 81 10000 2.6 210 17:38 04.03.2020
1550 Rain 6 1008 87 10000 1.5 240 17:20 04.03.2020
1551 Rain 7 1008 81 10000 2.6 190 16:54 04.03.2020
1552 Rain 7 1008 81 10000 2.1 240 16:36 04.03.2020
1553 Rain 7 1008 81 10000 2.1 240 16:18 04.03.2020
1554 Rain 7 1008 93 9000 0.5 0 15:42 04.03.2020
1555 Rain 8 1008 75 5000 2.6 250 15:23 04.03.2020
1556 Clouds 8 1008 75 10000 3.6 270 14:56 04.03.2020
1557 Clouds 7 1008 75 10000 3.6 270 14:38 04.03.2020
1558 Clouds 7 1008 75 10000 4.1 240 14:19 04.03.2020
1559 Clouds 7 1009 81 10000 6.7 250 13:57 04.03.2020
1560 Clouds 7 1009 81 10000 6.7 250 13:39 04.03.2020
1561 Clouds 7 1009 81 10000 6.7 250 13:39 04.03.2020
1562 Clouds 7 1009 81 10000 4.6 250 13:20 04.03.2020
1563 Clouds 6 1009 87 9000 4.1 230 12:45 04.03.2020
1564 Clouds 6 1009 93 8000 4.1 240 12:27 04.03.2020
1565 Clouds 5 1008 86 8000 3.6 220 11:59 04.03.2020
1566 Clouds 5 1008 86 8000 3.6 220 11:41 04.03.2020
1567 Clouds 5 1009 86 8000 3.6 230 11:23 04.03.2020
1568 Clouds 5 1009 93 7000 4.1 230 10:57 04.03.2020
1569 Clouds 4 1009 93 7000 4.1 230 10:39 04.03.2020
1570 Clouds 4 1008 93 7000 3.6 220 10:18 04.03.2020
1571 Clouds 4 1008 93 7000 3.1 210 09:42 04.03.2020
1572 Clouds 3 1008 93 6000 2.1 200 09:21 04.03.2020
1573 Clouds 3 1008 100 7000 1.5 210 08:47 04.03.2020
1574 Clouds 2 1008 93 8000 2.1 170 08:27 04.03.2020
1575 Clouds 2 1008 100 8000 2.1 200 07:56 04.03.2020
1576 Clouds 2 1008 100 8000 2.1 200 07:38 04.03.2020
1577 Clouds 2 1008 95 9000 2.1 190 07:20 04.03.2020
1578 Clouds 2 1008 95 10000 2.6 210 06:43 04.03.2020
1579 Clouds 2 1008 93 10000 2.6 210 06:23 04.03.2020
1580 Clouds 1 1007 100 10000 3.1 210 05:50 04.03.2020
1581 Clouds 1 1007 93 10000 3.1 200 04:30 04.03.2020
1582 Clouds 2 1007 93 10000 3.1 210 03:44 04.03.2020
1583 Clear 2 1007 93 10000 3.1 220 03:25 04.03.2020
1584 Clear 2 1007 93 10000 2.6 210 02:55 04.03.2020
1585 Clear 2 1007 93 10000 3.1 220 02:21 04.03.2020
1586 Clouds 2 1007 93 10000 2.1 230 01:54 04.03.2020
1587 Clouds 2 1006 91 10000 2.6 240 00:52 04.03.2020
1588 Clouds 2 1006 91 10000 2.6 240 00:52 04.03.2020
1589 Clouds 2 1006 91 10000 3.1 220 00:27 04.03.2020
1590 Clouds 2 1006 91 10000 3.1 220 00:27 04.03.2020
1591 Clouds 2 1006 91 10000 2.6 230 23:47 03.03.2020
1592 Clouds 2 1006 91 10000 2.6 230 23:28 03.03.2020
1593 Clouds 2 1006 93 10000 2.6 210 22:59 03.03.2020
1594 Clouds 2 1006 93 10000 2.6 210 22:40 03.03.2020
1595 Clouds 2 1005 100 10000 1.5 190 22:20 03.03.2020
1596 Clouds 3 1005 93 10000 1.5 220 21:58 03.03.2020
1597 Clouds 3 1005 93 10000 1.5 220 21:39 03.03.2020
1598 Clouds 3 1005 86 10000 1.5 220 21:20 03.03.2020
1599 Clouds 3 1005 93 10000 0.5 240 20:55 03.03.2020
1600 Clouds 3 1005 93 10000 0.5 240 20:37 03.03.2020
1601 Clouds 3 1005 93 10000 1.5 250 20:18 03.03.2020
1602 Clouds 3 1005 93 10000 1.5 250 20:18 03.03.2020
1603 Clouds 4 1005 86 10000 3.6 270 19:55 03.03.2020
1604 Rain 4 1004 86 10000 1 280 19:36 03.03.2020
1605 Rain 4 1004 86 10000 1 280 19:18 03.03.2020
1606 Rain 4 1004 86 10000 1.5 210 18:55 03.03.2020
1607 Rain 4 1004 86 10000 1.5 210 18:37 03.03.2020
1608 Rain 5 1003 86 10000 7.2 240 18:18 03.03.2020
1609 Rain 6 1002 75 10000 7.2 310 17:40 03.03.2020
1610 Rain 6 1002 65 10000 5.1 240 17:21 03.03.2020
1611 Rain 7 1001 57 10000 4.6 250 16:59 03.03.2020
1612 Rain 7 1001 57 10000 4.6 250 16:38 03.03.2020
1613 Rain 7 1001 57 10000 4.6 250 16:38 03.03.2020
1614 Rain 8 1001 57 10000 4.6 260 16:20 03.03.2020
1615 Rain 8 1001 57 10000 4.6 260 16:20 03.03.2020
1616 Rain 8 1001 57 10000 5.1 270 15:57 03.03.2020
1617 Rain 8 1001 57 10000 5.1 270 15:39 03.03.2020
1618 Clouds 8 1001 57 10000 5.1 260 15:20 03.03.2020
1619 Clouds 9 1000 62 10000 6.7 280 14:43 03.03.2020
1620 Clouds 8 1000 61 10000 6.2 270 14:20 03.03.2020
1621 Rain 8 1000 61 10000 7.2 260 13:58 03.03.2020
1622 Rain 8 1000 61 10000 7.2 260 13:40 03.03.2020
1623 Clouds 8 1000 65 10000 6.2 280 13:21 03.03.2020
1624 Clouds 8 1000 65 10000 6.7 260 12:48 03.03.2020
1625 Clouds 8 1000 70 10000 5.7 260 12:27 03.03.2020
1626 Clouds 8 1000 70 10000 5.7 270 11:59 03.03.2020
1627 Clouds 8 999 81 10000 5.1 260 11:38 03.03.2020
1628 Clouds 7 999 81 10000 5.1 260 11:19 03.03.2020
1629 Clouds 7 999 81 10000 5.1 260 10:56 03.03.2020
1630 Clouds 6 999 81 10000 5.1 260 10:38 03.03.2020
1631 Clouds 6 999 93 10000 4.1 260 10:19 03.03.2020
1632 Clouds 5 999 86 10000 4.1 260 09:45 03.03.2020
1633 Clouds 5 999 86 10000 4.6 260 09:23 03.03.2020
1634 Clouds 4 998 93 10000 4.6 260 08:59 03.03.2020
1635 Clouds 4 998 93 10000 4.6 260 08:39 03.03.2020
1636 Clouds 4 998 93 10000 4.1 270 08:21 03.03.2020
1637 Clouds 4 997 93 10000 4.6 270 07:44 03.03.2020
1638 Clouds 5 997 93 10000 6.2 280 07:23 03.03.2020
1639 Rain 5 996 100 9000 4.6 270 06:53 03.03.2020
1640 Rain 5 996 100 8000 4.6 280 06:27 03.03.2020
1641 Rain 5 996 100 7000 4.1 270 05:48 03.03.2020
1642 Rain 5 995 100 9000 4.6 280 05:30 03.03.2020
1643 Rain 5 994 93 10000 6.2 290 04:38 03.03.2020
1644 Rain 5 993 100 10000 1.5 240 02:24 03.03.2020
1645 Rain 6 992 93 10000 1 0 01:20 03.03.2020
1646 Rain 6 992 93 10000 1 80 00:38 03.03.2020
1647 Clouds 6 992 93 10000 2.1 80 00:19 03.03.2020
1648 Rain 6 992 93 10000 1 60 23:43 02.03.2020
1649 Clouds 6 992 93 10000 1 40 23:23 02.03.2020
1650 Rain 6 992 93 10000 2.6 60 22:56 02.03.2020
1651 Rain 6 992 93 10000 2.6 60 22:56 02.03.2020
1652 Rain 6 992 93 10000 2.6 60 22:56 02.03.2020
1653 Rain 6 992 93 10000 2.6 60 22:38 02.03.2020
1654 Rain 7 992 87 10000 1.5 310 22:19 02.03.2020
1655 Rain 7 992 87 10000 1 340 21:55 02.03.2020
1656 Rain 7 992 87 10000 1 340 21:36 02.03.2020
1657 Rain 7 991 81 10000 1.5 320 21:18 02.03.2020
1658 Rain 7 991 81 10000 1 0 20:41 02.03.2020
1659 Rain 7 991 81 10000 2.1 160 20:22 02.03.2020
1660 Rain 7 991 70 10000 3.1 140 19:59 02.03.2020
1661 Rain 8 991 70 10000 3.1 140 19:39 02.03.2020
1662 Clouds 8 991 70 10000 3.6 120 19:21 02.03.2020
1663 Clouds 8 991 70 10000 3.1 120 18:56 02.03.2020
1664 Clouds 8 991 70 10000 3.1 120 18:38 02.03.2020
1665 Clouds 8 990 65 10000 4.1 140 18:18 02.03.2020
1666 Clouds 9 990 66 10000 3.6 140 17:56 02.03.2020
1667 Clouds 9 990 66 10000 3.6 140 17:38 02.03.2020
1668 Clouds 9 989 61 10000 5.1 130 17:20 02.03.2020
1669 Clouds 9 989 61 10000 5.1 140 16:42 02.03.2020
1670 Clouds 9 989 61 10000 5.7 130 16:23 02.03.2020
1671 Clouds 9 989 61 10000 5.1 130 15:57 02.03.2020
1672 Clouds 10 989 61 10000 5.1 130 15:38 02.03.2020
1673 Clouds 10 989 61 10000 5.7 120 15:18 02.03.2020
1674 Clouds 10 990 61 10000 5.1 140 14:39 02.03.2020
1675 Clouds 10 990 66 10000 6.2 130 14:20 02.03.2020
1676 Clouds 10 990 61 10000 6.2 140 13:57 02.03.2020
1677 Clouds 9 991 66 10000 6.2 150 13:37 02.03.2020
1678 Clouds 9 991 66 10000 6.2 150 13:18 02.03.2020
1679 Clouds 9 991 70 10000 4.6 160 12:43 02.03.2020
1680 Clouds 8 992 75 10000 4.34 146 12:19 02.03.2020
1681 Clouds 8 992 75 10000 5.7 180 11:40 02.03.2020
1682 Clouds 7 992 81 10000 3.6 170 11:21 02.03.2020
1683 Clouds 7 992 81 10000 3.1 180 10:59 02.03.2020
1684 Clouds 6 992 81 10000 3.1 180 10:41 02.03.2020
1685 Clouds 6 992 86 10000 3.6 190 10:20 02.03.2020
1686 Clouds 5 992 86 10000 3.6 190 09:55 02.03.2020
1687 Clouds 5 992 86 10000 3.6 190 09:37 02.03.2020
1688 Clouds 5 992 93 10000 3.1 200 09:18 02.03.2020
1689 Clouds 4 992 93 10000 3.6 200 08:40 02.03.2020
1690 Clouds 4 992 100 10000 2.6 190 08:19 02.03.2020
1691 Clouds 3 991 100 10000 3.1 190 07:40 02.03.2020
1692 Clouds 3 991 93 10000 3.1 200 06:57 02.03.2020
1693 Clouds 3 991 93 10000 3.1 200 06:37 02.03.2020
1694 Clouds 3 991 93 10000 2.6 200 05:52 02.03.2020
1695 Rain 4 991 86 10000 3.1 190 04:21 02.03.2020
1696 Clouds 5 991 80 10000 3.1 200 03:20 02.03.2020
1697 Rain 5 991 86 10000 2.1 200 02:37 02.03.2020
1698 Rain 5 991 86 10000 2.1 200 02:37 02.03.2020
1699 Clouds 5 991 86 10000 1.5 150 01:45 02.03.2020
1700 Clouds 5 991 75 10000 1.5 190 01:26 02.03.2020
1701 Clouds 5 991 75 10000 1.5 160 00:23 02.03.2020
1702 Clouds 5 991 80 10000 1.5 150 23:56 01.03.2020
1703 Clouds 5 991 80 10000 1.5 150 23:38 01.03.2020
1704 Clouds 5 991 80 10000 1.5 180 23:19 01.03.2020
1705 Clouds 5 991 80 10000 2.6 160 22:43 01.03.2020
1706 Clouds 5 991 80 10000 2.6 170 22:20 01.03.2020
1707 Clouds 5 991 75 10000 3.1 160 21:56 01.03.2020
1708 Clouds 5 991 75 10000 3.1 160 21:38 01.03.2020
1709 Clouds 5 991 70 10000 3.1 150 21:19 01.03.2020
1710 Clouds 5 991 75 10000 3.6 150 20:43 01.03.2020
1711 Clouds 5 991 80 10000 3.6 160 20:25 01.03.2020
1712 Clouds 5 992 75 10000 3.1 190 19:56 01.03.2020
1713 Clouds 6 992 75 10000 3.1 190 19:37 01.03.2020
1714 Clouds 6 992 70 10000 3.1 200 19:19 01.03.2020
1715 Clouds 7 991 65 10000 3.6 200 18:41 01.03.2020
1716 Clouds 7 991 65 10000 6.2 220 18:20 01.03.2020
1717 Clouds 7 991 65 10000 6.7 220 17:58 01.03.2020
1718 Clouds 8 991 65 10000 6.7 220 17:40 01.03.2020
1719 Clouds 8 991 65 10000 6.2 210 17:21 01.03.2020
1720 Clouds 8 991 70 10000 6.2 220 16:58 01.03.2020
1721 Clouds 8 991 70 10000 6.2 220 16:39 01.03.2020
1722 Clouds 9 991 70 10000 7.2 220 16:19 01.03.2020
1723 Clouds 9 991 66 10000 8.2 230 15:58 01.03.2020
1724 Clouds 9 991 66 10000 8.2 230 15:40 01.03.2020
1725 Clouds 8 991 61 10000 10.3 220 15:20 01.03.2020
1726 Clouds 9 991 61 10000 11.3 220 14:57 01.03.2020
1727 Clouds 8 991 61 10000 11.3 220 14:39 01.03.2020
1728 Clouds 8 991 61 10000 10.3 220 14:21 01.03.2020
1729 Clouds 8 991 65 10000 9.8 220 13:56 01.03.2020
1730 Clouds 8 991 65 10000 9.8 220 13:38 01.03.2020
1731 Clouds 8 991 65 10000 10.3 230 13:19 01.03.2020
1732 Clouds 8 991 61 10000 10.8 230 12:44 01.03.2020
1733 Clouds 9 991 65 10000 9.8 220 12:23 01.03.2020
1734 Clouds 8 991 70 10000 9.8 220 11:58 01.03.2020
1735 Clouds 8 991 70 10000 9.8 220 11:39 01.03.2020
1736 Clouds 8 991 70 10000 10.3 220 11:19 01.03.2020
1737 Clouds 8 990 70 10000 11.3 220 10:56 01.03.2020
1738 Clouds 7 990 70 10000 11.3 220 10:37 01.03.2020
1739 Clouds 7 990 70 10000 9.8 220 10:18 01.03.2020
1740 Clouds 7 991 65 10000 8.2 210 09:44 01.03.2020
1741 Clouds 7 990 70 10000 6.7 200 09:26 01.03.2020
1742 Clouds 6 991 70 10000 5.7 210 08:47 01.03.2020
1743 Clouds 6 991 70 10000 7.2 210 08:28 01.03.2020
1744 Clouds 6 991 70 10000 7.2 200 07:57 01.03.2020
1745 Clouds 6 991 70 10000 7.2 200 07:39 01.03.2020
1746 Clouds 6 991 70 10000 7.7 210 07:21 01.03.2020
1747 Clouds 6 991 70 10000 8.2 220 06:42 01.03.2020
1748 Clouds 6 991 70 10000 7.7 210 06:21 01.03.2020
1749 Clouds 5 991 70 10000 8.2 220 03:40 01.03.2020
1750 Clouds 5 991 70 10000 8.7 220 02:23 01.03.2020
1751 Clouds 6 991 70 10000 8.7 220 01:46 01.03.2020
1752 Clouds 6 991 70 10000 8.2 220 01:20 01.03.2020
1753 Clouds 6 991 75 10000 7.7 210 00:40 01.03.2020
1754 Clouds 6 991 75 10000 6.7 210 00:19 01.03.2020
1755 Clouds 6 991 70 10000 6.7 210 23:42 29.02.2020
1756 Clouds 6 991 70 10000 5.1 200 23:23 29.02.2020
1757 Clouds 6 991 70 10000 5.7 210 22:40 29.02.2020
1758 Clouds 6 990 75 10000 6.2 220 22:22 29.02.2020
1759 Clouds 6 990 75 10000 7.2 220 21:42 29.02.2020
1760 Clouds 6 990 86 10000 5.1 220 21:22 29.02.2020
1761 Clouds 6 989 86 10000 6.2 220 20:43 29.02.2020
1762 Rain 6 990 86 10000 11.8 240 20:21 29.02.2020
1763 Clouds 7 989 81 10000 7.7 240 19:56 29.02.2020
1764 Clouds 7 989 81 10000 7.7 240 19:38 29.02.2020
1765 Clouds 8 988 75 10000 12.3 240 19:19 29.02.2020
1766 Rain 8 987 75 10000 14.4 250 18:43 29.02.2020
1767 Rain 8 987 86 0 1.34 292 18:24 29.02.2020
1768 Rain 10 983 62 10000 9.8 190 17:57 29.02.2020
1769 Rain 10 983 62 10000 9.8 190 17:39 29.02.2020
1770 Clouds 12 983 62 10000 8.2 180 17:20 29.02.2020
1771 Clouds 12 983 62 10000 8.2 180 17:20 29.02.2020
1772 Clouds 13 984 58 10000 9.3 180 16:45 29.02.2020
1773 Clouds 13 985 54 10000 9.8 190 16:22 29.02.2020
1774 Clouds 13 985 66 10000 6.7 150 15:58 29.02.2020
1775 Clouds 14 985 66 10000 6.7 150 15:40 29.02.2020
1776 Clouds 14 986 62 10000 7.7 170 15:21 29.02.2020
1777 Clouds 14 986 62 10000 10.3 170 14:42 29.02.2020
1778 Clouds 14 986 62 10000 10.3 170 14:42 29.02.2020
1779 Clouds 14 987 62 10000 8.2 160 14:23 29.02.2020
1780 Clouds 14 988 62 10000 8.2 170 13:57 29.02.2020
1781 Clouds 13 988 62 10000 8.2 170 13:38 29.02.2020
1782 Clouds 13 988 66 10000 7.2 170 13:20 29.02.2020
1783 Clouds 12 989 66 10000 6.2 170 12:42 29.02.2020
1784 Clouds 12 990 66 10000 7.2 190 12:22 29.02.2020
1785 Clouds 11 991 71 10000 7.2 200 11:57 29.02.2020
1786 Clouds 11 991 71 10000 7.2 200 11:39 29.02.2020
1787 Clouds 11 991 76 10000 7.2 200 11:21 29.02.2020
1788 Clouds 10 992 81 10000 7.2 210 10:46 29.02.2020
1789 Clouds 10 992 81 10000 6.7 210 10:28 29.02.2020
1790 Clouds 9 992 87 10000 6.2 210 09:50 29.02.2020
1791 Clouds 9 993 87 10000 6.7 200 09:27 29.02.2020
1792 Clouds 8 993 93 10000 6.2 200 08:43 29.02.2020
1793 Clouds 8 993 93 10000 6.2 200 08:24 29.02.2020
1794 Clouds 8 993 93 10000 5.7 200 07:59 29.02.2020
1795 Clouds 8 993 93 10000 5.7 200 07:41 29.02.2020
1796 Clouds 8 994 93 10000 5.7 200 07:18 29.02.2020
1797 Rain 7 994 100 10000 6.2 200 06:45 29.02.2020
1798 Rain 7 994 93 7000 6.2 200 06:25 29.02.2020
1799 Rain 7 995 93 10000 5.7 200 05:47 29.02.2020
1800 Rain 6 996 93 9000 6.7 200 04:50 29.02.2020
1801 Drizzle 5 997 100 10000 5.1 190 03:43 29.02.2020
1802 Drizzle 5 998 93 10000 4.6 190 03:22 29.02.2020
1803 Drizzle 3 998 100 6000 3.6 160 02:39 29.02.2020
1804 Drizzle 3 998 100 6000 3.6 160 02:39 29.02.2020
1805 Rain 2 1000 100 9000 6.2 140 01:26 29.02.2020
1806 Snow 1 1001 93 9000 6.7 150 00:38 29.02.2020
1807 Rain 1 1003 93 4500 7.7 140 23:58 28.02.2020
1808 Rain 1 1003 93 4500 7.7 140 23:37 28.02.2020
1809 Rain 1 1004 93 7000 7.7 140 23:19 28.02.2020
1810 Rain 2 1005 93 7000 7.7 170 22:41 28.02.2020
1811 Rain 3 1006 86 10000 9.8 180 22:19 28.02.2020
1812 Rain 4 1006 85 10000 7.2 180 21:42 28.02.2020
1813 Rain 4 1007 85 10000 7.2 180 21:21 28.02.2020
1814 Rain 5 1007 85 10000 7.7 170 20:56 28.02.2020
1815 Rain 5 1007 85 10000 7.7 170 20:38 28.02.2020
1816 Rain 5 1007 85 10000 7.7 170 20:38 28.02.2020
1817 Clouds 5 1008 75 10000 6.7 170 20:19 28.02.2020
1818 Clouds 5 1008 75 10000 4.6 170 19:56 28.02.2020
1819 Clouds 5 1009 75 10000 4.6 160 19:37 28.02.2020
1820 Clouds 5 1009 75 10000 4.6 160 19:19 28.02.2020
1821 Clouds 5 1010 75 10000 4.6 170 18:46 28.02.2020
1822 Clouds 6 1010 70 10000 4.6 190 18:23 28.02.2020
1823 Clouds 6 1011 70 10000 3.6 190 17:41 28.02.2020
1824 Clouds 6 1012 70 10000 4.6 210 17:23 28.02.2020
1825 Clouds 6 1012 70 10000 4.6 210 17:23 28.02.2020
1826 Clouds 6 1012 73 10000 4.1 210 16:57 28.02.2020
1827 Clouds 7 1012 73 10000 4.1 210 16:38 28.02.2020
1828 Clouds 7 1012 73 10000 4.1 210 16:38 28.02.2020
1829 Clouds 7 1012 65 10000 5.1 220 16:19 28.02.2020
1830 Clouds 7 1013 73 10000 6.7 240 15:56 28.02.2020
1831 Clouds 7 1013 70 10000 5.7 250 15:37 28.02.2020
1832 Clouds 7 1013 70 10000 5.7 250 15:18 28.02.2020
1833 Clouds 7 1013 65 10000 7.2 240 14:45 28.02.2020
1834 Clouds 7 1013 65 10000 7.7 250 14:19 28.02.2020
1835 Clouds 7 1013 65 10000 8.7 240 13:58 28.02.2020
1836 Clouds 7 1013 65 10000 8.7 240 13:40 28.02.2020
1837 Clouds 7 1013 65 10000 8.2 250 13:19 28.02.2020
1838 Clouds 7 1014 70 10000 7.7 250 12:45 28.02.2020
1839 Clouds 7 1014 75 10000 8.2 250 12:27 28.02.2020
1840 Clouds 6 1014 75 10000 7.7 240 11:56 28.02.2020
1841 Clouds 6 1014 75 10000 7.7 240 11:37 28.02.2020
1842 Clouds 6 1013 81 10000 6.7 240 11:19 28.02.2020
1843 Clouds 5 1013 86 10000 6.7 240 10:43 28.02.2020
1844 Clouds 5 1013 80 10000 6.7 250 10:24 28.02.2020
1845 Clear 4 1013 86 10000 5.7 260 09:54 28.02.2020
1846 Clear 4 1012 86 10000 6.2 250 09:36 28.02.2020
1847 Clear 3 1012 86 10000 6.2 250 09:18 28.02.2020
1848 Clouds 2 1012 93 10000 6.2 250 08:42 28.02.2020
1849 Clouds 2 1012 90 10000 5.1 260 08:20 28.02.2020
1850 Clouds 2 1011 91 10000 4.6 250 07:45 28.02.2020
1851 Clouds 1 1011 91 10000 5.7 250 07:25 28.02.2020
1852 Clouds 2 1010 93 10000 5.7 250 06:51 28.02.2020
1853 Clouds 2 1010 93 10000 6.2 250 06:30 28.02.2020
1854 Clouds 2 1009 93 10000 5.1 240 05:30 28.02.2020
1855 Clouds 2 1008 93 10000 5.7 240 04:31 28.02.2020
1856 Clouds 2 1007 100 10000 3.1 260 02:55 28.02.2020
1857 Clouds 2 1006 93 10000 3.6 280 02:28 28.02.2020
1858 Rain 2 1006 93 8000 5.7 270 01:48 28.02.2020
1859 Snow 1 1004 100 3000 3.6 240 00:32 28.02.2020
1860 Rain 2 1004 93 4500 3.1 240 23:47 27.02.2020
1861 Rain 2 1003 93 5000 3.6 280 23:23 27.02.2020
1862 Rain 2 1003 93 6000 2.1 230 22:58 27.02.2020
1863 Rain 2 1003 93 6000 2.1 230 22:39 27.02.2020
1864 Rain 2 1002 93 7000 2.1 240 22:21 27.02.2020
1865 Rain 2 1002 93 9000 3.6 220 21:42 27.02.2020
1866 Rain 2 1001 93 10000 1 0 21:23 27.02.2020
1867 Rain 2 1000 86 10000 1.5 80 20:59 27.02.2020
1868 Rain 2 1000 86 10000 1.5 80 20:41 27.02.2020
1869 Rain 2 1000 93 10000 2.6 30 20:23 27.02.2020
1870 Rain 2 1000 93 10000 2.6 30 20:23 27.02.2020
1871 Rain 3 999 86 10000 2.6 40 19:57 27.02.2020
1872 Rain 3 999 86 10000 2.6 40 19:39 27.02.2020
1873 Clouds 3 998 93 10000 1.5 60 19:21 27.02.2020
1874 Clouds 3 998 86 10000 1.5 30 18:56 27.02.2020
1875 Clouds 3 998 86 10000 1.5 30 18:37 27.02.2020
1876 Clouds 3 997 86 10000 2.1 60 18:19 27.02.2020
1877 Snow 3 997 86 10000 2.6 50 17:55 27.02.2020
1878 Clouds 4 997 75 10000 0.5 0 17:36 27.02.2020
1879 Clouds 4 997 75 10000 0.5 0 17:18 27.02.2020
1880 Clouds 4 997 80 10000 1 0 16:41 27.02.2020
1881 Clouds 5 997 75 10000 1 0 16:20 27.02.2020
1882 Clouds 4 997 80 10000 1.5 170 15:59 27.02.2020
1883 Rain 4 997 80 10000 2.6 200 15:38 27.02.2020
1884 Rain 5 997 80 10000 2.6 200 15:20 27.02.2020
1885 Rain 5 997 80 10000 2.1 190 14:59 27.02.2020
1886 Rain 5 997 80 10000 2.1 190 14:39 27.02.2020
1887 Rain 5 998 80 10000 5.1 240 14:20 27.02.2020
1888 Rain 5 998 86 10000 3.1 190 13:43 27.02.2020
1889 Clouds 5 999 86 10000 4.1 180 13:22 27.02.2020
1890 Clouds 5 999 86 10000 4.1 190 12:59 27.02.2020
1891 Clouds 4 999 86 10000 4.1 190 12:41 27.02.2020
1892 Clouds 4 1000 80 10000 4.1 190 12:19 27.02.2020
1893 Clouds 4 1000 80 10000 4.1 200 11:45 27.02.2020
1894 Clouds 4 1000 86 10000 4.1 200 11:22 27.02.2020
1895 Clouds 3 1001 86 10000 5.1 210 10:55 27.02.2020
1896 Clouds 3 1001 86 10000 5.1 210 10:37 27.02.2020
1897 Clouds 3 1001 86 10000 5.1 210 10:18 27.02.2020
1898 Clouds 3 1001 86 10000 5.7 220 09:40 27.02.2020
1899 Clouds 3 1001 86 10000 5.7 220 09:40 27.02.2020
1900 Clouds 2 1001 93 10000 4.6 220 09:22 27.02.2020
1901 Clouds 2 1001 93 10000 4.1 220 08:42 27.02.2020
1902 Clouds 2 1001 84 10000 5.1 230 08:23 27.02.2020
1903 Clouds 2 1001 94 10000 4.6 240 07:48 27.02.2020
1904 Clouds 2 1002 94 10000 5.1 240 07:28 27.02.2020
1905 Clouds 2 1002 93 10000 5.7 240 06:54 27.02.2020
1906 Clouds 2 1002 93 10000 5.7 240 06:20 27.02.2020
1907 Clouds 2 1002 93 10000 4.6 230 04:22 27.02.2020
1908 Rain 2 1002 93 10000 4.6 240 02:58 27.02.2020
1909 Clouds 2 1002 93 10000 4.6 250 00:59 27.02.2020
1910 Clouds 2 1002 93 10000 4.6 250 00:37 27.02.2020
1911 Rain 2 1002 93 10000 4.1 270 23:41 26.02.2020
1912 Rain 2 1002 93 9000 4.1 290 23:21 26.02.2020
1913 Clouds 2 1001 93 10000 4.1 260 22:59 26.02.2020
1914 Clouds 3 1001 93 10000 4.1 260 22:40 26.02.2020
1915 Clouds 3 1001 93 10000 4.1 260 22:22 26.02.2020
1916 Rain 3 1001 93 10000 4.1 260 21:59 26.02.2020
1917 Rain 3 1001 93 10000 4.1 260 21:39 26.02.2020
1918 Rain 3 1000 93 10000 3.6 270 21:19 26.02.2020
1919 Rain 3 1000 93 10000 4.1 260 20:56 26.02.2020
1920 Rain 3 1000 93 10000 4.1 260 20:38 26.02.2020
1921 Rain 3 1000 93 10000 4.1 260 20:38 26.02.2020
1922 Clouds 3 1000 93 10000 4.1 250 20:19 26.02.2020
1923 Rain 3 1000 93 10000 4.1 250 19:55 26.02.2020
1924 Rain 3 999 93 10000 5.1 270 19:36 26.02.2020
1925 Rain 3 999 93 10000 5.1 270 19:18 26.02.2020
1926 Rain 3 999 93 10000 4.6 300 18:56 26.02.2020
1927 Rain 4 998 86 10000 5.1 290 18:37 26.02.2020
1928 Rain 4 998 86 10000 5.1 290 18:18 26.02.2020
1929 Rain 4 998 86 10000 6.2 280 17:40 26.02.2020
1930 Rain 4 997 86 10000 5.7 290 17:19 26.02.2020
1931 Rain 4 997 80 10000 4.6 270 16:56 26.02.2020
1932 Rain 4 997 80 10000 4.6 270 16:56 26.02.2020
1933 Rain 4 997 80 10000 4.6 270 16:38 26.02.2020
1934 Rain 4 997 80 10000 4.6 270 16:38 26.02.2020
1935 Clouds 5 996 86 10000 3.6 280 16:20 26.02.2020
1936 Rain 5 996 93 10000 4.6 320 15:44 26.02.2020
1937 Rain 5 996 93 10000 4.6 320 15:44 26.02.2020
1938 Rain 6 995 80 10000 4.1 300 15:26 26.02.2020
1939 Rain 5 995 75 10000 6.7 270 14:43 26.02.2020
1940 Rain 6 995 70 10000 7.7 280 14:24 26.02.2020
1941 Clouds 5 994 75 10000 7.7 290 13:58 26.02.2020
1942 Clouds 6 994 75 10000 7.7 290 13:39 26.02.2020
1943 Clouds 6 994 75 10000 6.7 290 13:19 26.02.2020
1944 Clouds 6 994 75 10000 6.7 270 12:39 26.02.2020
1945 Clouds 4 995 86 10000 5.1 270 12:19 26.02.2020
1946 Clouds 4 993 80 10000 6.7 270 11:56 26.02.2020
1947 Clouds 4 993 80 10000 6.7 270 11:38 26.02.2020
1948 Clouds 4 993 86 10000 5.7 290 11:20 26.02.2020
1949 Clouds 4 993 86 10000 5.7 280 10:41 26.02.2020
1950 Clouds 4 993 86 10000 5.7 280 10:41 26.02.2020
1951 Clouds 4 992 93 10000 3.6 270 10:22 26.02.2020
1952 Clouds 4 992 93 8000 2.6 250 09:57 26.02.2020
1953 Clouds 3 992 93 8000 2.6 250 09:39 26.02.2020
1954 Clouds 2 992 100 7000 1.5 260 09:19 26.02.2020
1955 Clouds 2 991 93 7000 1.5 230 08:39 26.02.2020
1956 Clouds 2 991 93 7000 1.5 230 08:39 26.02.2020
1957 Clouds 2 991 93 8000 2.1 220 08:19 26.02.2020
1958 Clouds 2 991 93 8000 1.5 220 07:50 26.02.2020
1959 Clouds 2 990 93 8000 1.5 220 07:29 26.02.2020
1960 Clouds 2 990 93 10000 1 0 06:58 26.02.2020
1961 Clouds 2 990 93 10000 1 0 06:39 26.02.2020
1962 Clouds 2 990 93 10000 2.1 230 06:18 26.02.2020
1963 Clouds 2 990 93 10000 2.1 210 05:47 26.02.2020
1964 Clouds 2 990 93 10000 2.1 210 04:52 26.02.2020
1965 Clouds 2 991 93 10000 2.1 280 02:56 26.02.2020
1966 Clouds 3 991 86 10000 2.6 220 01:56 26.02.2020
1967 Clouds 3 991 86 10000 3.6 230 01:24 26.02.2020
1968 Clouds 3 992 86 10000 3.6 230 00:38 26.02.2020
1969 Clouds 3 992 93 10000 2.6 220 00:19 26.02.2020
1970 Clouds 3 992 93 10000 3.6 220 23:41 25.02.2020
1971 Clouds 3 992 93 10000 3.6 220 23:21 25.02.2020
1972 Clouds 3 992 86 10000 4.1 220 22:56 25.02.2020
1973 Clouds 3 992 86 10000 4.1 230 22:36 25.02.2020
1974 Clouds 3 992 86 10000 4.1 230 22:18 25.02.2020
1975 Clouds 3 993 86 10000 3.6 220 21:38 25.02.2020
1976 Clouds 3 993 93 10000 2.1 210 21:20 25.02.2020
1977 Clouds 3 993 93 10000 2.1 270 20:57 25.02.2020
1978 Clouds 4 993 93 10000 2.1 270 20:38 25.02.2020
1979 Clouds 4 993 93 10000 2.1 270 20:38 25.02.2020
1980 Clouds 4 993 93 10000 2.6 270 20:19 25.02.2020
1981 Thunderstorm 4 994 93 10000 5.7 290 19:54 25.02.2020
1982 Thunderstorm 4 994 86 10000 5.1 240 19:36 25.02.2020
1983 Thunderstorm 4 994 86 10000 5.1 240 19:18 25.02.2020
1984 Rain 5 994 80 10000 6.2 240 18:40 25.02.2020
1985 Clouds 6 994 70 10000 5.7 260 18:21 25.02.2020
1986 Clouds 6 994 70 10000 7.2 260 17:56 25.02.2020
1987 Clouds 6 994 65 10000 11.3 260 17:37 25.02.2020
1988 Clouds 7 994 65 10000 11.3 260 17:19 25.02.2020
1989 Rain 7 994 70 10000 11.8 260 16:56 25.02.2020
1990 Rain 7 994 70 10000 11.8 260 16:38 25.02.2020
1991 Clouds 8 994 61 10000 10.3 260 16:19 25.02.2020
1992 Clouds 8 994 65 10000 8.7 270 15:54 25.02.2020
1993 Clouds 8 994 70 10000 8.7 260 15:36 25.02.2020
1994 Clouds 8 994 70 10000 8.7 260 15:18 25.02.2020
1995 Clouds 8 995 70 10000 10.8 270 14:40 25.02.2020
1996 Clouds 8 995 70 10000 13.4 260 14:19 25.02.2020
1997 Clouds 8 995 70 10000 13.4 260 14:19 25.02.2020
1998 Clouds 8 995 70 10000 13.4 260 14:19 25.02.2020
1999 Clouds 8 994 61 10000 11.3 250 13:59 25.02.2020
2000 Clouds 8 994 61 10000 11.3 250 13:41 25.02.2020
2001 Clouds 8 994 61 10000 9.8 260 13:21 25.02.2020
2002 Clouds 8 995 64 10000 12.3 250 12:59 25.02.2020
2003 Clouds 8 995 64 10000 12.3 250 12:39 25.02.2020
2004 Clouds 8 995 70 10000 10.8 250 12:20 25.02.2020
2005 Clouds 8 995 65 10000 10.8 250 11:56 25.02.2020
2006 Clouds 8 995 65 10000 10.8 250 11:38 25.02.2020
2007 Clouds 7 995 65 10000 10.3 250 11:18 25.02.2020
2008 Clouds 7 995 65 10000 10.3 250 11:18 25.02.2020
2009 Clouds 7 995 70 10000 10.8 250 10:56 25.02.2020
2010 Clouds 7 995 70 10000 10.8 250 10:38 25.02.2020
2011 Clouds 7 995 70 10000 10.8 240 10:19 25.02.2020
2012 Clouds 7 996 70 10000 9.3 240 09:40 25.02.2020
2013 Clouds 7 996 75 10000 8.7 240 09:19 25.02.2020
2014 Clouds 6 996 75 10000 7.7 240 08:43 25.02.2020
2015 Clouds 6 996 75 10000 9.3 250 08:24 25.02.2020
2016 Clouds 6 996 75 10000 9.8 250 07:50 25.02.2020
2017 Clouds 6 996 75 10000 9.3 250 07:25 25.02.2020
2018 Clouds 6 997 75 10000 8.2 250 06:59 25.02.2020
2019 Clouds 6 997 75 10000 10.3 260 06:26 25.02.2020
2020 Clouds 6 997 75 10000 9.3 260 05:23 25.02.2020
2021 Rain 8 996 81 10000 10.3 240 02:44 25.02.2020
2022 Rain 10 996 87 10000 8.7 240 01:19 25.02.2020
2023 Rain 10 997 87 10000 8.2 240 00:34 25.02.2020
2024 Rain 10 997 93 10000 7.7 230 23:57 24.02.2020
2025 Rain 10 997 93 10000 7.7 230 23:39 24.02.2020
2026 Drizzle 10 998 93 10000 8.7 240 23:19 24.02.2020
2027 Clouds 10 998 93 10000 8.2 240 22:38 24.02.2020
2028 Drizzle 9 998 100 6000 7.2 240 22:19 24.02.2020
2029 Rain 9 998 93 8000 8.2 230 21:57 24.02.2020
2030 Rain 9 998 93 8000 8.2 230 21:39 24.02.2020
2031 Rain 9 998 93 10000 8.2 230 21:19 24.02.2020
2032 Rain 9 999 93 10000 8.2 240 20:57 24.02.2020
2033 Rain 9 999 93 10000 8.2 240 20:38 24.02.2020
2034 Rain 9 999 93 10000 7.2 220 20:19 24.02.2020
2035 Rain 9 999 93 10000 5.7 210 19:56 24.02.2020
2036 Rain 8 999 93 10000 5.7 210 19:37 24.02.2020
2037 Rain 7 1000 100 10000 5.7 210 19:19 24.02.2020
2038 Rain 7 1000 100 10000 6.7 190 18:42 24.02.2020
2039 Rain 6 1001 100 8000 5.1 180 18:24 24.02.2020
2040 Rain 5 1002 100 6000 5.1 140 17:57 24.02.2020
2041 Rain 5 1002 100 6000 5.1 140 17:39 24.02.2020
2042 Rain 4 1003 100 6000 6.7 150 17:19 24.02.2020
2043 Rain 4 1004 93 6000 5.1 140 16:55 24.02.2020
2044 Rain 4 1006 93 9000 5.7 150 16:37 24.02.2020
2045 Rain 4 1006 93 9000 5.7 150 16:18 24.02.2020
2046 Rain 4 1007 86 9000 6.2 140 15:57 24.02.2020
2047 Rain 4 1007 86 9000 6.2 140 15:38 24.02.2020
2048 Rain 4 1008 86 10000 6.7 140 15:20 24.02.2020
2049 Rain 4 1009 86 10000 6.2 150 14:42 24.02.2020
2050 Rain 4 1011 86 10000 7.7 170 14:23 24.02.2020
2051 Rain 4 1013 86 10000 6.2 170 13:59 24.02.2020
2052 Rain 4 1013 86 10000 6.2 170 13:41 24.02.2020
2053 Rain 5 1014 80 10000 5.7 190 13:23 24.02.2020
2054 Clouds 5 1014 86 10000 5.1 170 12:59 24.02.2020
2055 Clouds 5 1014 86 10000 5.1 170 12:41 24.02.2020
2056 Rain 5 1015 86 10000 4.6 180 12:23 24.02.2020
2057 Rain 5 1016 86 10000 4.6 180 11:50 24.02.2020
2058 Rain 5 1017 86 10000 4.6 200 11:32 24.02.2020
2059 Clouds 5 1017 86 10000 3.6 210 10:54 24.02.2020
2060 Clouds 5 1018 86 10000 5.1 220 10:36 24.02.2020
2061 Clouds 5 1018 86 10000 5.1 220 10:18 24.02.2020
2062 Clouds 5 1019 86 10000 5.7 220 09:40 24.02.2020
2063 Clouds 4 1019 93 10000 5.1 220 09:19 24.02.2020
2064 Clouds 4 1019 93 10000 5.1 220 09:19 24.02.2020
2065 Clouds 4 1019 93 10000 4.6 230 08:51 24.02.2020
2066 Clouds 4 1019 93 10000 4.6 240 08:29 24.02.2020
2067 Clouds 4 1019 93 10000 4.1 250 07:55 24.02.2020
2068 Clouds 4 1019 93 10000 5.7 250 07:33 24.02.2020
2069 Clouds 4 1019 86 10000 6.2 260 06:52 24.02.2020
2070 Clouds 5 1019 86 10000 6.7 260 06:24 24.02.2020
2071 Clouds 4 1019 86 10000 7.2 250 05:45 24.02.2020
2072 Clouds 4 1019 86 10000 7.2 250 05:25 24.02.2020
2073 Clouds 4 1018 86 10000 7.2 260 02:58 24.02.2020
2074 Clouds 4 1018 86 10000 7.2 260 02:18 24.02.2020
2075 Clouds 4 1018 80 10000 7.7 260 01:31 24.02.2020
2076 Clouds 4 1018 80 10000 7.7 260 01:31 24.02.2020
2077 Clouds 4 1017 80 10000 8.2 260 00:47 24.02.2020
2078 Clouds 4 1017 75 10000 8.7 260 00:21 24.02.2020
2079 Clouds 4 1016 86 10000 8.2 260 23:55 23.02.2020
2080 Clouds 4 1016 86 10000 7.7 260 23:36 23.02.2020
2081 Rain 4 1016 86 10000 7.7 260 23:18 23.02.2020
2082 Clouds 4 1015 86 10000 8.7 270 22:42 23.02.2020
2083 Clouds 4 1015 86 10000 8.2 280 22:22 23.02.2020
2084 Clouds 4 1014 80 10000 9.8 290 21:55 23.02.2020
2085 Clouds 4 1014 80 10000 9.8 290 21:37 23.02.2020
2086 Rain 4 1012 86 10000 11.3 280 21:18 23.02.2020
2087 Rain 4 1012 86 10000 11.3 280 21:18 23.02.2020
2088 Clouds 4 1012 86 10000 8.7 270 20:55 23.02.2020
2089 Rain 4 1011 86 10000 12.9 280 20:37 23.02.2020
2090 Rain 4 1011 86 10000 12.9 280 20:18 23.02.2020
2091 Rain 5 1010 86 10000 7.2 280 19:54 23.02.2020
2092 Rain 5 1010 86 10000 7.7 300 19:36 23.02.2020
2093 Rain 5 1010 86 10000 7.7 300 19:18 23.02.2020
2094 Rain 5 1008 93 10000 11.3 310 18:41 23.02.2020
2095 Rain 5 1006 87 10000 13.4 310 18:21 23.02.2020
2096 Rain 6 1005 93 10000 10.8 280 17:58 23.02.2020
2097 Rain 6 1005 93 10000 10.8 280 17:40 23.02.2020
2098 Clouds 7 1004 93 10000 8.7 290 17:21 23.02.2020
2099 Drizzle 7 1003 100 4500 7.2 290 16:57 23.02.2020
2100 Drizzle 7 1003 100 4500 7.2 290 16:38 23.02.2020
2101 Rain 7 1002 100 10000 5.7 310 16:20 23.02.2020
2102 Rain 7 1001 100 10000 3.6 300 15:54 23.02.2020
2103 Rain 6 1001 100 4500 2.1 340 15:36 23.02.2020
2104 Rain 7 1001 100 4500 2.1 340 15:18 23.02.2020
2105 Rain 6 1001 100 3500 1.5 340 14:55 23.02.2020
2106 Rain 6 1001 100 3500 1.5 340 14:37 23.02.2020
2107 Rain 6 1001 100 2800 1.5 330 14:19 23.02.2020
2108 Drizzle 6 1002 100 2500 1 0 13:55 23.02.2020
2109 Rain 6 1002 93 8000 1 160 13:36 23.02.2020
2110 Rain 6 1002 93 8000 1 160 13:18 23.02.2020
2111 Rain 6 1003 93 7000 2.1 170 12:40 23.02.2020
2112 Rain 6 1004 93 10000 2.1 170 12:20 23.02.2020
2113 Rain 6 1005 100 10000 2.6 210 11:39 23.02.2020
2114 Rain 6 1006 93 10000 3.1 240 11:20 23.02.2020
2115 Rain 6 1006 93 10000 3.1 240 11:20 23.02.2020
2116 Rain 6 1007 87 10000 5.1 240 10:58 23.02.2020
2117 Rain 6 1007 87 10000 5.1 240 10:58 23.02.2020
2118 Rain 6 1007 87 10000 5.1 240 10:40 23.02.2020
2119 Rain 6 1008 93 10000 5.1 220 10:22 23.02.2020
2120 Rain 6 1009 93 10000 4.1 230 09:56 23.02.2020
2121 Rain 6 1009 93 10000 4.1 230 09:38 23.02.2020
2122 Rain 6 1010 93 10000 5.7 230 09:18 23.02.2020
2123 Rain 6 1011 100 10000 4.6 230 08:46 23.02.2020
2124 Rain 6 1011 100 10000 3.1 230 08:25 23.02.2020
2125 Rain 6 1012 93 10000 5.1 240 07:47 23.02.2020
2126 Rain 6 1013 87 10000 6.2 240 07:28 23.02.2020
2127 Rain 7 1013 81 10000 7.7 260 06:25 23.02.2020
2128 Clouds 8 1014 81 10000 8.7 260 05:34 23.02.2020
2129 Rain 8 1014 75 10000 9.8 250 04:23 23.02.2020
2130 Clouds 8 1014 61 10000 6.2 240 02:53 23.02.2020
2131 Rain 8 1015 61 10000 9.3 270 01:47 23.02.2020
2132 Rain 8 1015 70 10000 8.2 260 01:22 23.02.2020
2133 Rain 8 1015 70 10000 9.8 260 00:45 23.02.2020
2134 Rain 8 1014 70 10000 11.3 260 00:23 23.02.2020
2135 Rain 8 1014 75 10000 9.3 260 23:44 22.02.2020
2136 Clouds 8 1014 75 10000 8.7 260 23:26 22.02.2020
2137 Clouds 8 1014 81 10000 8.2 250 22:56 22.02.2020
2138 Clouds 8 1014 75 10000 8.2 260 22:36 22.02.2020
2139 Clouds 8 1014 75 10000 8.2 260 22:18 22.02.2020
2140 Clouds 8 1013 70 10000 8.7 260 21:40 22.02.2020
2141 Clouds 9 1013 70 10000 10.8 260 21:21 22.02.2020
2142 Clouds 9 1013 76 10000 8.2 250 20:43 22.02.2020
2143 Rain 9 1014 76 10000 7.2 260 20:24 22.02.2020
2144 Rain 9 1013 81 10000 6.7 260 19:55 22.02.2020
2145 Rain 9 1013 81 10000 6.7 250 19:36 22.02.2020
2146 Rain 9 1013 81 10000 6.7 250 19:18 22.02.2020
2147 Clouds 9 1013 81 10000 6.7 250 18:39 22.02.2020
2148 Clouds 9 1013 81 10000 7.7 260 18:21 22.02.2020
2149 Clouds 9 1013 81 10000 7.7 260 18:21 22.02.2020
2150 Clouds 9 1012 81 10000 8.7 250 17:57 22.02.2020
2151 Clouds 9 1012 81 10000 8.7 250 17:38 22.02.2020
2152 Clouds 9 1012 81 10000 9.8 260 17:19 22.02.2020
2153 Rain 9 1011 81 10000 9.8 270 16:57 22.02.2020
2154 Rain 9 1011 81 10000 9.8 270 16:38 22.02.2020
2155 Rain 9 1012 87 5000 11.3 280 16:19 22.02.2020
2156 Rain 9 1010 87 8000 11.8 240 15:43 22.02.2020
2157 Rain 9 1010 87 7000 12.3 240 15:24 22.02.2020
2158 Drizzle 9 1010 81 10000 12.9 240 14:44 22.02.2020
2159 Clouds 9 1010 71 10000 12.9 240 14:24 22.02.2020
2160 Clouds 9 1011 76 10000 12.9 240 13:58 22.02.2020
2161 Clouds 9 1011 76 10000 12.9 240 13:40 22.02.2020
2162 Clouds 9 1010 76 10000 13.4 240 13:18 22.02.2020
2163 Clouds 9 1011 70 10000 12.3 240 12:44 22.02.2020
2164 Clouds 8 1011 75 10000 13.4 240 12:24 22.02.2020
2165 Clouds 8 1011 70 10000 13.9 240 11:55 22.02.2020
2166 Clouds 8 1010 70 10000 13.4 230 11:36 22.02.2020
2167 Clouds 8 1010 70 10000 13.4 230 11:18 22.02.2020
2168 Clouds 7 1010 75 10000 11.8 230 10:40 22.02.2020
2169 Rain 7 1011 75 10000 10.8 230 10:20 22.02.2020
2170 Rain 7 1011 75 10000 10.3 230 09:58 22.02.2020
2171 Rain 7 1011 75 10000 10.3 230 09:39 22.02.2020
2172 Rain 7 1012 75 10000 10.3 230 09:20 22.02.2020
2173 Rain 7 1012 75 10000 9.8 230 08:48 22.02.2020
2174 Clouds 7 1012 75 10000 10.3 230 08:28 22.02.2020
2175 Clouds 7 1012 75 10000 9.8 220 07:50 22.02.2020
2176 Clouds 8 1012 70 10000 10.8 220 07:20 22.02.2020
2177 Clouds 8 1013 70 10000 10.3 220 06:50 22.02.2020
2178 Clouds 8 1013 70 10000 11.3 220 06:32 22.02.2020
2179 Clouds 8 1014 70 10000 10.3 220 04:38 22.02.2020
2180 Clouds 8 1016 75 10000 9.3 220 03:33 22.02.2020
2181 Clouds 8 1017 75 10000 8.7 220 02:33 22.02.2020
2182 Clouds 8 1018 75 10000 9.8 230 01:47 22.02.2020
2183 Clouds 8 1017 75 10000 9.8 220 01:27 22.02.2020
2184 Clouds 8 1018 70 10000 10.3 220 00:46 22.02.2020
2185 Clouds 8 1018 75 10000 9.8 220 00:28 22.02.2020
2186 Clouds 8 1018 75 10000 8.7 230 23:48 21.02.2020
2187 Clouds 8 1019 75 10000 9.3 230 23:24 21.02.2020
2188 Clouds 8 1019 75 10000 8.7 230 22:57 21.02.2020
2189 Clouds 8 1019 75 10000 8.7 230 22:39 21.02.2020
2190 Clouds 8 1019 75 10000 8.2 230 22:21 21.02.2020
2191 Rain 8 1019 75 10000 8.7 230 21:42 21.02.2020
2192 Clouds 8 1020 75 10000 8.2 230 21:24 21.02.2020
2193 Clouds 8 1020 81 10000 8.2 230 20:56 21.02.2020
2194 Clouds 8 1020 81 10000 8.2 230 20:38 21.02.2020
2195 Clouds 7 1020 81 10000 8.7 230 20:19 21.02.2020
2196 Clouds 7 1020 75 10000 7.7 220 19:39 21.02.2020
2197 Clouds 7 1020 75 10000 7.7 220 19:39 21.02.2020
2198 Clouds 7 1020 75 10000 6.7 220 19:19 21.02.2020
2199 Rain 7 1020 75 10000 7.2 220 18:42 21.02.2020
2200 Rain 7 1020 81 10000 7.2 220 18:23 21.02.2020
2201 Rain 7 1021 75 10000 9.8 230 17:56 21.02.2020
2202 Rain 7 1021 70 10000 8.2 230 17:37 21.02.2020
2203 Rain 8 1021 70 10000 8.2 230 17:19 21.02.2020
2204 Clouds 8 1021 70 10000 9.3 230 16:42 21.02.2020
2205 Clouds 8 1021 70 10000 7.2 230 16:22 21.02.2020
2206 Clouds 8 1021 70 10000 9.3 230 15:58 21.02.2020
2207 Clouds 8 1021 70 10000 9.3 230 15:38 21.02.2020
2208 Clouds 8 1021 70 10000 7.2 230 15:18 21.02.2020
2209 Clouds 8 1021 70 10000 8.7 240 14:42 21.02.2020
2210 Clouds 8 1021 70 10000 8.7 240 14:21 21.02.2020
2211 Clouds 8 1021 70 10000 8.7 240 13:59 21.02.2020
2212 Clouds 8 1021 70 10000 8.7 240 13:39 21.02.2020
2213 Clouds 8 1021 70 10000 8.7 250 13:20 21.02.2020
2214 Clouds 8 1021 75 10000 9.8 250 12:43 21.02.2020
2215 Clouds 7 1021 75 10000 9.3 240 12:24 21.02.2020
2216 Clouds 7 1022 70 10000 8.7 250 11:56 21.02.2020
2217 Clouds 7 1021 75 10000 7.7 250 11:37 21.02.2020
2218 Clouds 7 1021 75 10000 8.7 250 11:19 21.02.2020
2219 Clouds 6 1020 75 10000 8.7 240 10:42 21.02.2020
2220 Clouds 6 1020 75 10000 8.7 240 10:42 21.02.2020
2221 Clouds 6 1020 75 10000 8.7 240 10:42 21.02.2020
2222 Clouds 6 1020 81 10000 7.7 250 10:22 21.02.2020
2223 Clouds 6 1020 75 10000 7.7 240 09:58 21.02.2020
2224 Clouds 5 1020 75 10000 7.7 240 09:39 21.02.2020
2225 Clouds 5 1019 80 10000 7.7 250 09:20 21.02.2020
2226 Clouds 5 1019 80 10000 7.2 250 08:55 21.02.2020
2227 Clouds 5 1018 80 10000 7.2 250 08:36 21.02.2020
2228 Clouds 5 1018 80 10000 7.2 250 08:18 21.02.2020
2229 Clouds 5 1018 80 10000 7.2 260 07:41 21.02.2020
2230 Clouds 5 1018 80 10000 8.2 260 07:21 21.02.2020
2231 Rain 5 1017 80 10000 7.7 260 06:56 21.02.2020
2232 Rain 5 1016 80 10000 7.2 250 06:33 21.02.2020
2233 Rain 5 1016 86 10000 9.3 270 05:56 21.02.2020
2234 Rain 5 1015 80 10000 8.7 260 05:30 21.02.2020
2235 Clouds 4 1014 80 10000 8.2 260 04:26 21.02.2020
2236 Rain 4 1014 86 10000 7.7 260 03:52 21.02.2020
2237 Rain 4 1012 86 10000 7.2 270 02:59 21.02.2020
2238 Rain 4 1011 80 10000 10.3 270 01:44 21.02.2020
2239 Clouds 4 1010 80 10000 8.2 270 01:22 21.02.2020
2240 Rain 5 1009 80 10000 8.7 280 00:39 21.02.2020
2241 Rain 5 1008 93 8000 8.7 270 00:20 21.02.2020
2242 Rain 5 1007 93 10000 7.2 280 23:42 20.02.2020
2243 Rain 5 1006 87 10000 9.3 290 23:22 20.02.2020
2244 Rain 6 1005 87 10000 9.8 290 22:42 20.02.2020
2245 Rain 6 1005 87 8000 10.3 270 22:24 20.02.2020
2246 Rain 7 1004 87 10000 7.7 210 21:58 20.02.2020
2247 Rain 7 1004 87 10000 7.7 200 21:40 20.02.2020
2248 Rain 8 1004 87 10000 7.7 200 21:20 20.02.2020
2249 Rain 8 1004 87 10000 7.2 200 20:57 20.02.2020
2250 Rain 8 1004 87 10000 7.2 200 20:39 20.02.2020
2251 Rain 8 1005 81 10000 8.2 200 20:20 20.02.2020
2252 Rain 8 1005 76 10000 8.7 210 19:59 20.02.2020
2253 Rain 8 1005 76 10000 8.7 210 19:41 20.02.2020
2254 Clouds 9 1006 70 10000 7.2 200 19:23 20.02.2020
2255 Clouds 9 1006 70 10000 6.7 200 18:58 20.02.2020
2256 Clouds 9 1007 70 10000 7.2 200 18:37 20.02.2020
2257 Clouds 9 1007 70 10000 7.2 200 18:19 20.02.2020
2258 Clouds 9 1007 76 10000 5.7 200 17:40 20.02.2020
2259 Clouds 9 1007 76 10000 5.7 200 17:22 20.02.2020
2260 Clouds 10 1008 76 10000 6.2 200 16:58 20.02.2020
2261 Clouds 9 1009 76 10000 6.2 200 16:39 20.02.2020
2262 Clouds 9 1009 76 10000 6.2 200 16:19 20.02.2020
2263 Clouds 9 1009 76 10000 5.7 200 15:57 20.02.2020
2264 Clouds 9 1009 76 10000 5.7 200 15:39 20.02.2020
2265 Clouds 9 1009 76 10000 6.7 200 15:20 20.02.2020
2266 Clouds 9 1010 81 10000 7.2 210 14:54 20.02.2020
2267 Clouds 9 1010 81 10000 6.2 210 14:36 20.02.2020
2268 Clouds 9 1010 81 10000 6.2 210 14:36 20.02.2020
2269 Clouds 9 1010 81 10000 6.2 210 14:18 20.02.2020
2270 Clouds 9 1011 81 10000 6.7 200 13:42 20.02.2020
2271 Clouds 9 1011 93 10000 6.7 190 13:19 20.02.2020
2272 Clouds 8 1012 93 10000 5.7 200 12:43 20.02.2020
2273 Clouds 8 1012 93 10000 6.2 200 12:22 20.02.2020
2274 Clouds 8 1013 87 8000 6.2 200 11:59 20.02.2020
2275 Clouds 8 1013 87 8000 6.2 200 11:41 20.02.2020
2276 Clouds 8 1013 93 6000 5.7 190 11:22 20.02.2020
2277 Drizzle 7 1013 93 4800 5.1 200 10:57 20.02.2020
2278 Clouds 7 1013 93 7000 6.2 200 10:39 20.02.2020
2279 Clouds 7 1013 93 7000 6.2 200 10:20 20.02.2020
2280 Clouds 7 1013 93 7000 6.2 200 09:46 20.02.2020
2281 Clouds 7 1013 93 6000 5.7 200 09:25 20.02.2020
2282 Drizzle 6 1013 93 4800 5.1 200 08:59 20.02.2020
2283 Drizzle 6 1013 93 4800 5.1 200 08:38 20.02.2020
2284 Drizzle 6 1014 93 4300 5.1 200 08:20 20.02.2020
2285 Drizzle 6 1014 100 4400 5.1 200 07:45 20.02.2020
2286 Drizzle 6 1014 100 4700 4.6 200 07:26 20.02.2020
2287 Drizzle 5 1014 93 6000 4.6 190 06:55 20.02.2020
2288 Drizzle 5 1014 93 7000 4.6 190 06:27 20.02.2020
2289 Drizzle 5 1014 93 10000 4.6 180 05:46 20.02.2020
2290 Rain 5 1015 93 10000 3.6 190 04:55 20.02.2020
2291 Rain 5 1015 86 10000 4.1 200 04:23 20.02.2020
2292 Clouds 4 1016 80 10000 4.1 190 03:30 20.02.2020
2293 Clouds 4 1017 86 10000 2.6 190 02:28 20.02.2020
2294 Clouds 4 1017 87 10000 2.6 180 01:18 20.02.2020
2295 Clouds 3 1018 87 10000 3.1 190 00:34 20.02.2020
2296 Clouds 3 1018 87 10000 3.1 190 23:52 19.02.2020
2297 Clouds 3 1018 87 10000 3.1 200 23:23 19.02.2020
2298 Clouds 3 1018 78 10000 3.6 220 22:56 19.02.2020
2299 Clouds 3 1018 78 10000 3.6 220 22:38 19.02.2020
2300 Clouds 3 1018 78 10000 4.1 230 22:20 19.02.2020
2301 Clouds 4 1018 80 10000 4.6 240 21:56 19.02.2020
2302 Clouds 4 1018 80 10000 4.6 240 21:38 19.02.2020
2303 Clouds 4 1018 80 10000 5.1 240 21:18 19.02.2020
2304 Clouds 4 1018 80 10000 4.1 240 20:55 19.02.2020
2305 Clouds 4 1018 80 10000 4.6 240 20:36 19.02.2020
2306 Clouds 5 1018 80 10000 4.6 240 20:18 19.02.2020
2307 Clouds 5 1018 75 10000 5.7 250 19:56 19.02.2020
2308 Clouds 5 1017 75 10000 6.2 250 19:37 19.02.2020
2309 Clouds 5 1017 75 10000 6.2 250 19:18 19.02.2020
2310 Clouds 6 1017 75 10000 7.2 270 18:56 19.02.2020
2311 Clouds 6 1017 75 10000 7.2 270 18:38 19.02.2020
2312 Clouds 6 1017 81 10000 6.7 270 18:20 19.02.2020
2313 Clouds 6 1016 81 10000 7.2 270 17:43 19.02.2020
2314 Clouds 6 1016 81 10000 9.3 260 17:20 19.02.2020
2315 Rain 6 1015 87 10000 6.7 270 16:45 19.02.2020
2316 Rain 6 1015 93 10000 7.7 280 16:20 19.02.2020
2317 Rain 7 1015 87 10000 9.3 270 15:59 19.02.2020
2318 Rain 7 1015 87 10000 9.3 270 15:41 19.02.2020
2319 Rain 6 1014 87 10000 7.7 270 15:23 19.02.2020
2320 Rain 6 1014 81 10000 9.8 270 14:56 19.02.2020
2321 Rain 6 1014 81 10000 9.8 270 14:37 19.02.2020
2322 Rain 6 1014 87 10000 8.7 260 14:19 19.02.2020
2323 Rain 6 1014 86 10000 9.3 270 13:41 19.02.2020
2324 Rain 6 1013 86 10000 10.3 270 13:21 19.02.2020
2325 Rain 5 1013 86 10000 8.2 260 12:42 19.02.2020
2326 Rain 5 1013 86 10000 8.2 260 12:19 19.02.2020
2327 Rain 5 1013 86 10000 8.2 260 12:19 19.02.2020
2328 Rain 5 1013 86 10000 10.3 270 11:59 19.02.2020
2329 Rain 5 1013 86 10000 10.3 270 11:38 19.02.2020
2330 Clouds 5 1012 80 10000 10.3 260 11:20 19.02.2020
2331 Clouds 5 1012 80 10000 10.8 270 10:58 19.02.2020
2332 Clouds 5 1012 80 10000 10.8 270 10:38 19.02.2020
2333 Clouds 5 1011 80 10000 8.2 260 10:20 19.02.2020
2334 Clouds 5 1011 80 10000 6.2 260 09:58 19.02.2020
2335 Clouds 5 1011 80 10000 6.2 260 09:37 19.02.2020
2336 Clouds 5 1011 80 10000 6.2 260 09:19 19.02.2020
2337 Clouds 5 1011 80 10000 6.2 260 09:19 19.02.2020
2338 Clouds 5 1010 80 10000 6.7 260 08:45 19.02.2020
2339 Clouds 5 1010 86 10000 6.2 250 08:24 19.02.2020
2340 Clouds 5 1009 86 10000 6.2 250 07:44 19.02.2020
2341 Clouds 5 1009 86 10000 6.2 250 07:26 19.02.2020
2342 Clouds 5 1009 86 10000 6.2 250 06:57 19.02.2020
2343 Rain 4 1005 99 0 6.28 277 06:31 19.02.2020
2344 Rain 5 1008 93 10000 6.2 240 04:25 19.02.2020
2345 Rain 6 1008 87 10000 6.2 210 03:20 19.02.2020
2346 Clouds 7 1009 75 10000 7.7 210 02:32 19.02.2020
2347 Rain 7 1010 81 10000 6.7 210 01:25 19.02.2020
2348 Clouds 7 1011 81 10000 8.7 220 00:51 19.02.2020
2349 Rain 7 1011 75 10000 8.7 220 00:32 19.02.2020
2350 Rain 7 1012 75 10000 7.7 220 23:57 18.02.2020
2351 Rain 7 1012 75 10000 7.7 220 23:39 18.02.2020
2352 Clouds 7 1013 75 10000 6.7 220 23:19 18.02.2020
2353 Clouds 7 1013 75 10000 7.2 210 22:45 18.02.2020
2354 Rain 7 1013 75 10000 9.3 220 22:20 18.02.2020
2355 Rain 7 1014 81 10000 7.2 220 21:59 18.02.2020
2356 Rain 7 1014 81 10000 7.2 220 21:38 18.02.2020
2357 Rain 7 1014 81 10000 8.2 220 21:19 18.02.2020
2358 Rain 6 1014 75 10000 8.2 220 20:59 18.02.2020
2359 Clouds 6 1015 75 10000 7.2 210 20:39 18.02.2020
2360 Clouds 7 1015 75 10000 7.2 210 20:20 18.02.2020
2361 Clouds 7 1015 75 10000 7.2 210 20:20 18.02.2020
2362 Clouds 7 1015 75 10000 6.7 210 19:56 18.02.2020
2363 Clouds 7 1015 75 10000 6.7 210 19:38 18.02.2020
2364 Rain 7 1015 75 10000 6.7 220 19:18 18.02.2020
2365 Rain 7 1016 75 10000 6.2 220 18:42 18.02.2020
2366 Clouds 7 1016 75 10000 6.7 230 18:21 18.02.2020
2367 Clouds 7 1016 75 10000 6.7 230 18:21 18.02.2020
2368 Clouds 7 1016 75 10000 6.7 230 17:57 18.02.2020
2369 Clouds 7 1016 75 10000 6.7 230 17:39 18.02.2020
2370 Clouds 7 1016 75 10000 6.7 230 17:39 18.02.2020
2371 Clouds 7 1016 75 10000 6.7 230 17:19 18.02.2020
2372 Rain 7 1016 75 10000 8.2 240 16:40 18.02.2020
2373 Rain 7 1016 81 10000 9.3 230 16:21 18.02.2020
2374 Rain 8 1016 70 10000 9.3 240 15:54 18.02.2020
2375 Rain 8 1016 70 10000 9.3 240 15:36 18.02.2020
2376 Rain 8 1016 70 10000 9.3 240 15:18 18.02.2020
2377 Rain 8 1016 75 10000 10.3 240 14:54 18.02.2020
2378 Rain 8 1016 75 10000 8.2 250 14:36 18.02.2020
2379 Rain 8 1016 75 10000 8.2 250 14:18 18.02.2020
2380 Rain 8 1016 65 10000 9.3 240 13:41 18.02.2020
2381 Clouds 8 1017 70 10000 10.8 250 13:21 18.02.2020
2382 Clouds 8 1017 65 10000 10.3 250 12:44 18.02.2020
2383 Clouds 8 1017 70 10000 10.3 250 12:25 18.02.2020
2384 Clouds 7 1017 70 10000 11.3 250 11:59 18.02.2020
2385 Clouds 7 1017 70 10000 11.3 250 11:41 18.02.2020
2386 Clouds 7 1017 75 10000 9.3 240 11:22 18.02.2020
2387 Clouds 7 1016 75 10000 9.3 240 10:44 18.02.2020
2388 Clouds 6 1016 75 10000 9.8 250 10:24 18.02.2020
2389 Clouds 6 1016 75 10000 8.7 240 09:57 18.02.2020
2390 Clouds 6 1015 75 10000 9.3 240 09:38 18.02.2020
2391 Clouds 6 1015 75 10000 9.3 240 09:20 18.02.2020
2392 Clouds 6 1015 80 10000 9.3 240 08:57 18.02.2020
2393 Clouds 5 1015 80 10000 9.3 240 08:38 18.02.2020
2394 Clouds 5 1015 80 10000 7.2 240 08:19 18.02.2020
2395 Clouds 5 1014 80 10000 7.7 250 07:48 18.02.2020
2396 Clouds 5 1014 80 10000 6.2 240 07:25 18.02.2020
2397 Clouds 5 1014 86 10000 8.2 250 06:55 18.02.2020
2398 Clouds 5 1013 81 10000 7.7 250 06:29 18.02.2020
2399 Rain 6 1013 93 10000 7.7 280 05:48 18.02.2020
2400 -273 0 0 0 0 0 05:21 18.02.2020
2401 Clouds 7 1012 87 10000 7.7 250 03:52 18.02.2020
2402 Clouds 7 1012 81 10000 7.2 240 02:58 18.02.2020
2403 Clouds 6 1011 87 10000 5.7 230 01:27 18.02.2020
2404 Clouds 6 1011 87 10000 5.7 230 00:43 18.02.2020
2405 Clouds 6 1011 87 10000 6.7 240 00:18 18.02.2020
2406 Rain 6 1011 93 10000 5.1 230 23:40 17.02.2020
2407 Rain 6 1011 93 10000 6.2 240 23:21 17.02.2020
2408 Clouds 6 1010 81 10000 7.2 230 22:58 17.02.2020
2409 Clouds 6 1010 81 10000 7.2 230 22:58 17.02.2020
2410 Clouds 7 1010 81 10000 7.2 230 22:40 17.02.2020
2411 Clouds 7 1010 81 10000 7.2 220 22:19 17.02.2020
2412 Clouds 7 1010 87 10000 5.7 230 21:39 17.02.2020
2413 Clouds 7 1010 87 10000 5.7 230 21:19 17.02.2020
2414 Clouds 7 1010 81 10000 6.7 230 20:57 17.02.2020
2415 Clouds 7 1010 81 10000 6.7 230 20:38 17.02.2020
2416 Clouds 7 1010 81 10000 5.7 210 20:19 17.02.2020
2417 Clouds 7 1010 81 10000 5.1 210 19:43 17.02.2020
2418 Clouds 7 1010 75 10000 6.2 230 19:22 17.02.2020
2419 Clouds 7 1010 81 10000 6.2 230 18:59 17.02.2020
2420 Clouds 7 1009 75 10000 6.7 230 18:37 17.02.2020
2421 Clouds 7 1009 75 10000 6.7 230 18:19 17.02.2020
2422 Clouds 7 1009 81 10000 6.2 220 17:54 17.02.2020
2423 Clouds 7 1009 81 10000 8.7 230 17:36 17.02.2020
2424 Clouds 7 1009 81 10000 8.7 230 17:18 17.02.2020
2425 Rain 8 1009 70 10000 8.2 240 16:43 17.02.2020
2426 Clouds 8 1008 57 10000 9.3 220 16:22 17.02.2020
2427 Clouds 9 1008 57 10000 8.7 230 15:58 17.02.2020
2428 Clouds 10 1008 57 10000 8.7 230 15:40 17.02.2020
2429 Clouds 10 1008 61 10000 7.2 230 15:21 17.02.2020
2430 Clouds 10 1009 61 10000 9.8 230 14:45 17.02.2020
2431 Clouds 10 1009 61 10000 8.2 230 14:26 17.02.2020
2432 Clouds 10 1009 61 10000 10.3 230 13:59 17.02.2020
2433 Clouds 10 1009 61 10000 10.3 230 13:39 17.02.2020
2434 Clouds 10 1009 66 10000 10.3 240 13:19 17.02.2020
2435 Clouds 10 1010 61 10000 9.8 230 12:54 17.02.2020
2436 Clouds 10 1009 66 10000 12.3 230 12:36 17.02.2020
2437 Clouds 10 1009 66 10000 12.3 230 12:18 17.02.2020
2438 Clouds 10 1009 66 10000 10.3 220 11:43 17.02.2020
2439 Clouds 9 1009 66 10000 10.3 220 11:22 17.02.2020
2440 Clear 9 1009 65 0 9.8 220 10:56 17.02.2020
2441 Clear 8 1009 65 0 9.8 220 10:37 17.02.2020
2442 Clouds 8 1009 65 10000 10.8 230 10:19 17.02.2020
2443 Clouds 8 1009 65 10000 10.8 230 10:19 17.02.2020
2444 Clouds 8 1009 70 10000 9.8 220 09:54 17.02.2020
2445 Clouds 7 1008 70 10000 9.8 220 09:36 17.02.2020
2446 Clouds 7 1008 70 10000 9.8 220 09:18 17.02.2020
2447 Clouds 7 1008 70 10000 9.3 230 08:41 17.02.2020
2448 Clouds 7 1008 65 10000 9.3 230 08:22 17.02.2020
2449 Clouds 7 1008 70 10000 9.3 230 07:57 17.02.2020
2450 Clouds 7 1007 70 10000 9.3 240 07:26 17.02.2020
2451 Clouds 7 1007 70 10000 10.3 240 06:56 17.02.2020
2452 Clouds 7 1007 70 10000 9.8 240 06:36 17.02.2020
2453 Clouds 7 1007 70 10000 9.8 240 06:18 17.02.2020
2454 Clouds 8 1006 65 10000 9.8 250 05:39 17.02.2020
2455 Rain 8 1004 81 10000 7.7 220 03:55 17.02.2020
2456 Rain 7 1003 81 10000 11.8 250 02:44 17.02.2020
2457 Clouds 8 1002 76 10000 9.8 230 00:59 17.02.2020
2458 Clouds 8 1002 76 10000 9.8 230 00:37 17.02.2020
2459 Clouds 8 1001 76 10000 9.3 240 00:18 17.02.2020
2460 Clouds 8 1000 81 10000 10.3 220 23:41 16.02.2020
2461 Rain 9 1000 81 10000 9.3 240 23:22 16.02.2020
2462 Rain 9 999 87 10000 10.3 240 22:55 16.02.2020
2463 Rain 9 999 87 10000 10.3 240 22:37 16.02.2020
2464 Rain 9 998 87 10000 8.7 230 22:18 16.02.2020
2465 Rain 9 999 87 10000 9.3 260 21:43 16.02.2020
2466 Rain 9 998 93 10000 6.7 270 21:24 16.02.2020
2467 Rain 9 997 93 6000 9.8 300 20:58 16.02.2020
2468 Rain 9 997 93 6000 9.8 300 20:40 16.02.2020
2469 Rain 11 995 93 2500 15.9 300 20:22 16.02.2020
2470 Clouds 12 992 55 10000 15.4 210 19:59 16.02.2020
2471 Clouds 13 992 55 10000 15.4 210 19:40 16.02.2020
2472 Clouds 16 992 59 10000 13.9 210 19:19 16.02.2020
2473 Clouds 17 992 59 10000 13.9 210 18:59 16.02.2020
2474 Clouds 17 992 59 10000 13.9 210 18:41 16.02.2020
2475 Clouds 16 993 59 10000 12.9 210 18:22 16.02.2020
2476 Clouds 16 994 63 10000 11.8 210 17:44 16.02.2020
2477 Clouds 16 995 67 10000 10.8 200 17:21 16.02.2020
2478 Clouds 16 995 62 10000 9.8 210 16:57 16.02.2020
2479 Clouds 15 996 62 10000 9.8 200 16:39 16.02.2020
2480 Clouds 16 996 62 10000 9.8 200 16:21 16.02.2020
2481 Clouds 16 996 62 10000 9.8 200 15:56 16.02.2020
2482 Clouds 16 996 62 10000 9.8 200 15:37 16.02.2020
2483 Clouds 16 997 62 10000 8.7 200 15:18 16.02.2020
2484 Clouds 16 997 67 10000 8.7 200 14:39 16.02.2020
2485 Clouds 15 998 67 10000 9.8 210 14:21 16.02.2020
2486 Clouds 15 998 67 10000 9.3 210 13:47 16.02.2020
2487 Clouds 15 998 71 10000 8.7 210 13:24 16.02.2020
2488 Clouds 15 998 71 10000 8.7 210 13:24 16.02.2020
2489 Clouds 15 999 71 10000 11.8 210 12:56 16.02.2020
2490 Clouds 14 999 71 10000 11.8 210 12:38 16.02.2020
2491 Clouds 14 999 82 10000 10.3 210 12:19 16.02.2020
2492 Rain 13 999 82 10000 10.3 210 11:39 16.02.2020
2493 Rain 13 999 82 10000 11.3 210 11:19 16.02.2020
2494 Clouds 13 999 82 10000 11.3 210 10:57 16.02.2020
2495 Clouds 13 999 82 10000 11.3 210 10:39 16.02.2020
2496 Clouds 13 999 76 10000 12.9 210 10:21 16.02.2020
2497 Clouds 13 1000 76 10000 11.8 210 09:57 16.02.2020
2498 Clouds 13 1000 76 10000 11.8 210 09:37 16.02.2020
2499 Clouds 12 1000 81 10000 8.7 200 09:19 16.02.2020
2500 Rain 12 1000 81 10000 9.3 200 08:47 16.02.2020
2501 Rain 12 1001 87 10000 8.7 190 08:22 16.02.2020
2502 Rain 12 1001 76 10000 9.8 200 07:56 16.02.2020
2503 Clouds 12 999 84 0 3.13 172 07:34 16.02.2020
2504 Clouds 13 1002 66 10000 8.7 200 06:36 16.02.2020
2505 Clouds 13 1003 71 10000 9.3 200 05:37 16.02.2020
2506 Clouds 13 1004 62 10000 7.2 200 04:30 16.02.2020
2507 Clouds 12 1004 66 10000 7.7 200 03:18 16.02.2020
2508 Clouds 12 1005 66 10000 8.7 200 01:57 16.02.2020
2509 Clouds 12 1005 66 10000 8.7 200 01:37 16.02.2020
2510 Clouds 12 1005 62 10000 8.7 190 01:19 16.02.2020
2511 Clouds 11 1006 62 10000 9.3 200 00:41 16.02.2020
2512 Clouds 11 1006 62 10000 9.3 190 00:21 16.02.2020
2513 Clouds 11 1006 66 10000 9.8 190 23:43 15.02.2020
2514 Clouds 10 1007 66 10000 8.7 190 23:24 15.02.2020
2515 Clouds 10 1008 66 10000 8.7 190 22:57 15.02.2020
2516 Clouds 10 1008 66 10000 8.7 190 22:39 15.02.2020
2517 Clouds 11 1008 62 10000 8.7 190 22:19 15.02.2020
2518 Clouds 10 1008 66 10000 7.7 180 21:43 15.02.2020
2519 Clouds 10 1010 66 10000 8.2 190 21:24 15.02.2020
2520 Clouds 11 1010 62 10000 9.3 190 20:58 15.02.2020
2521 Clouds 11 1010 62 10000 9.3 190 20:37 15.02.2020
2522 Clouds 11 1011 66 10000 7.7 190 20:19 15.02.2020
2523 Clouds 11 1011 66 10000 7.7 180 19:42 15.02.2020
2524 Clouds 11 1011 66 10000 7.2 180 19:22 15.02.2020
2525 Clouds 11 1012 71 10000 6.2 180 18:42 15.02.2020
2526 Clouds 10 1012 71 10000 6.2 180 18:21 15.02.2020
2527 Clouds 11 1012 66 10000 6.7 190 17:57 15.02.2020
2528 Clouds 11 1012 66 10000 6.7 190 17:37 15.02.2020
2529 Clouds 11 1013 71 10000 5.7 180 17:19 15.02.2020
2530 Clouds 12 1013 66 10000 6.2 180 16:42 15.02.2020
2531 Clouds 12 1014 66 10000 6.7 190 16:24 15.02.2020
2532 Clouds 12 1014 66 10000 6.2 200 15:57 15.02.2020
2533 Clouds 12 1014 66 10000 6.2 200 15:39 15.02.2020
2534 Clouds 12 1014 71 10000 8.2 190 15:20 15.02.2020
2535 Clouds 12 1014 71 10000 6.2 200 14:43 15.02.2020
2536 Clouds 12 1015 71 10000 7.7 200 14:19 15.02.2020
2537 Clouds 12 1015 71 10000 6.7 190 13:54 15.02.2020
2538 Clouds 11 1015 76 10000 5.7 200 13:36 15.02.2020
2539 Clouds 11 1015 76 10000 5.7 200 13:18 15.02.2020
2540 Clouds 10 1016 81 10000 5.7 200 12:41 15.02.2020
2541 Clouds 9 1016 76 10000 6.7 200 12:22 15.02.2020
2542 Clouds 9 1017 76 10000 5.1 210 11:49 15.02.2020
2543 Clouds 9 1017 81 10000 4.6 210 11:30 15.02.2020
2544 Clouds 9 1013 99 0 6.4 208 10:56 15.02.2020
2545 Clouds 8 1017 81 10000 4.6 190 10:37 15.02.2020
2546 Clouds 8 1017 81 10000 4.6 190 10:18 15.02.2020
2547 Clouds 7 1018 87 10000 4.6 180 09:41 15.02.2020
2548 Clouds 7 1018 81 10000 4.6 180 09:23 15.02.2020
2549 Clouds 6 1018 81 10000 4.1 180 08:44 15.02.2020
2550 Clouds 6 1018 81 0 4.1 180 08:25 15.02.2020
2551 Clouds 6 1018 81 10000 3.6 180 07:59 15.02.2020
2552 Clouds 6 1018 86 10000 5.1 170 07:39 15.02.2020
2553 Clouds 6 1018 86 10000 5.1 170 07:18 15.02.2020
2554 Clouds 6 1018 86 10000 3.6 170 06:37 15.02.2020
2555 Clouds 6 1019 81 10000 2.1 210 05:55 15.02.2020
2556 Clouds 6 1018 86 10000 4.6 180 04:48 15.02.2020
2557 Clouds 5 1019 86 10000 5.1 180 03:45 15.02.2020
2558 Clouds 5 1020 86 10000 4.1 170 02:58 15.02.2020
2559 Clouds 5 1020 86 10000 4.1 160 02:24 15.02.2020
2560 Clouds 5 1021 86 10000 4.1 170 01:43 15.02.2020
2561 Clouds 4 1021 86 10000 4.1 170 00:58 15.02.2020
2562 Clouds 5 1021 80 10000 4.1 150 00:27 15.02.2020
2563 Clouds 5 1021 80 10000 4.1 160 23:44 14.02.2020
2564 Clouds 5 1021 80 10000 4.1 160 23:21 14.02.2020
2565 Clouds 5 1022 80 10000 3.6 170 22:55 14.02.2020
2566 Clouds 5 1022 75 10000 3.6 190 22:36 14.02.2020
2567 Clouds 5 1022 75 10000 3.6 190 22:18 14.02.2020
2568 Clouds 5 1022 81 10000 5.1 230 21:41 14.02.2020
2569 Clouds 5 1022 81 10000 4.1 230 21:23 14.02.2020
2570 Clouds 5 1022 93 10000 2.1 180 20:44 14.02.2020
2571 Clouds 6 1022 81 10000 1.5 210 20:20 14.02.2020
2572 Clouds 6 1022 86 10000 2.1 170 19:59 14.02.2020
2573 Clouds 5 1022 86 10000 2.1 170 19:40 14.02.2020
2574 Clouds 5 1021 86 10000 1.5 170 19:21 14.02.2020
2575 Clouds 5 1021 86 10000 1 180 18:56 14.02.2020
2576 Clouds 5 1021 86 10000 1 180 18:38 14.02.2020
2577 Clouds 5 1021 86 10000 1 200 18:19 14.02.2020
2578 Clouds 6 1020 86 10000 0.5 0 17:43 14.02.2020
2579 Clouds 6 1020 75 10000 1 0 17:21 14.02.2020
2580 Clouds 6 1020 81 10000 2.1 270 16:58 14.02.2020
2581 Clouds 6 1020 81 10000 2.1 270 16:58 14.02.2020
2582 Clouds 6 1020 81 10000 2.1 270 16:39 14.02.2020
2583 Clouds 6 1020 75 10000 4.1 270 16:21 14.02.2020
2584 Clouds 6 1020 81 10000 3.1 280 15:56 14.02.2020
2585 Clouds 6 1020 81 10000 3.1 280 15:37 14.02.2020
2586 Clouds 6 1020 81 10000 3.1 280 15:37 14.02.2020
2587 Clouds 6 1020 81 10000 3.1 280 15:37 14.02.2020
2588 Clouds 6 1020 75 10000 2.6 290 15:37 14.02.2020
2589 Clouds 6 1020 75 10000 2.6 290 15:19 14.02.2020
2590 Clouds 6 1019 81 10000 4.1 300 14:58 14.02.2020
2591 Clouds 6 1019 81 10000 4.1 300 14:39 14.02.2020
2592 Clouds 6 1019 81 10000 4.6 300 14:21 14.02.2020
2593 Clouds 6 1019 81 10000 4.1 300 13:54 14.02.2020
2594 Clouds 6 1018 81 10000 4.6 290 13:36 14.02.2020
2595 Clouds 6 1018 81 10000 4.6 290 13:18 14.02.2020
2596 Clouds 6 1018 86 9000 4.1 300 12:54 14.02.2020
2597 Clouds 6 1018 86 9000 4.1 300 12:54 14.02.2020
2598 Clouds 6 1017 87 7000 3.6 290 12:36 14.02.2020
2599 Clouds 6 1017 87 7000 3.6 290 12:36 14.02.2020
2600 Clouds 6 1017 87 7000 3.6 290 12:18 14.02.2020
2601 Clouds 6 1016 87 7000 4.1 290 11:41 14.02.2020
2602 Clouds 6 1016 87 7000 4.1 290 11:21 14.02.2020
2603 Clouds 6 1015 93 7000 3.6 300 10:57 14.02.2020
2604 Clouds 6 1015 93 7000 3.6 300 10:38 14.02.2020
2605 Clouds 5 1015 87 7000 5.1 290 10:20 14.02.2020
2606 Clouds 5 1014 100 6000 4.6 280 09:44 14.02.2020
2607 Clouds 5 1013 93 6000 2.6 270 09:22 14.02.2020
2608 Clouds 5 1013 93 6000 2.6 260 08:56 14.02.2020
2609 Clouds 5 1013 93 6000 2.6 260 08:38 14.02.2020
2610 Rain 5 1012 100 6000 3.6 260 08:19 14.02.2020
2611 Mist 5 1011 100 4500 2.6 260 07:49 14.02.2020
2612 Mist 5 1011 100 4500 2.6 250 07:24 14.02.2020
2613 Drizzle 5 1009 100 3300 3.1 280 06:33 14.02.2020
2614 Mist 5 1009 100 3500 3.1 280 05:59 14.02.2020
2615 Mist 5 1008 100 4200 3.6 270 05:28 14.02.2020
2616 Mist 4 1005 100 3800 0.5 250 03:31 14.02.2020
2617 Drizzle 4 1005 100 3300 1 220 02:53 14.02.2020
2618 Drizzle 4 1004 100 4500 1 160 01:55 14.02.2020
2619 Drizzle 4 1002 93 10000 0.5 0 00:45 14.02.2020
2620 Clouds 4 1001 93 10000 2.1 160 00:26 14.02.2020
2621 Rain 3 1001 93 10000 2.6 170 23:56 13.02.2020
2622 Rain 3 1001 93 10000 2.6 170 23:37 13.02.2020
2623 Rain 3 1001 93 10000 2.1 150 23:18 13.02.2020
2624 Rain 3 1001 100 9000 2.6 150 22:38 13.02.2020
2625 Rain 3 1000 100 9000 1 0 22:19 13.02.2020
2626 Rain 3 999 86 10000 2.6 120 21:56 13.02.2020
2627 Rain 3 999 86 10000 2.6 120 21:37 13.02.2020
2628 Rain 3 999 93 10000 2.6 140 21:19 13.02.2020
2629 Rain 3 999 93 10000 2.1 130 20:42 13.02.2020
2630 Rain 3 998 93 10000 2.6 150 20:22 13.02.2020
2631 Rain 3 998 93 10000 2.6 150 20:22 13.02.2020
2632 Rain 3 998 93 10000 3.1 150 19:57 13.02.2020
2633 Rain 3 998 93 10000 3.1 150 19:57 13.02.2020
2634 Clouds 3 998 100 10000 4.1 140 19:38 13.02.2020
2635 Clouds 3 998 100 10000 4.1 140 19:20 13.02.2020
2636 Clouds 3 998 100 10000 3.1 150 18:57 13.02.2020
2637 Clouds 3 998 100 10000 3.1 150 18:39 13.02.2020
2638 Clouds 3 998 93 10000 3.6 150 18:20 13.02.2020
2639 Clouds 3 998 93 10000 4.1 150 17:57 13.02.2020
2640 Rain 3 998 93 10000 6.2 140 17:37 13.02.2020
2641 Rain 3 998 93 10000 6.2 140 17:18 13.02.2020
2642 Rain 3 998 93 10000 7.2 150 16:42 13.02.2020
2643 Clouds 3 998 93 9000 8.2 140 16:21 13.02.2020
2644 Clouds 3 999 93 10000 9.3 140 15:57 13.02.2020
2645 Clouds 3 999 93 10000 9.3 140 15:39 13.02.2020
2646 Clouds 3 999 93 10000 9.3 140 15:39 13.02.2020
2647 Clouds 3 999 100 9000 8.2 130 15:19 13.02.2020
2648 Rain 3 1000 93 10000 8.2 140 14:59 13.02.2020
2649 Rain 3 1000 93 10000 8.2 140 14:40 13.02.2020
2650 Rain 3 1001 93 10000 8.2 140 14:21 13.02.2020
2651 Rain 3 1002 86 10000 8.7 140 13:48 13.02.2020
2652 Rain 3 1003 86 10000 7.2 140 13:20 13.02.2020
2653 Rain 3 1004 86 10000 5.7 140 12:58 13.02.2020
2654 Rain 4 1004 86 10000 5.7 140 12:40 13.02.2020
2655 Rain 4 1005 80 10000 6.2 140 12:22 13.02.2020
2656 Rain 4 1005 86 10000 6.2 140 11:57 13.02.2020
2657 Rain 4 1006 86 10000 6.2 140 11:39 13.02.2020
2658 Rain 3 1006 86 10000 6.2 140 11:18 13.02.2020
2659 Clouds 3 1006 80 10000 5.7 150 10:43 13.02.2020
2660 Clouds 3 1007 80 10000 5.1 140 10:23 13.02.2020
2661 Clouds 3 1008 80 10000 4.1 130 09:46 13.02.2020
2662 Clouds 3 1008 80 10000 3.1 140 09:24 13.02.2020
2663 Clouds 3 1008 80 10000 3.1 140 09:24 13.02.2020
2664 Clouds 2 1009 80 10000 3.6 150 08:48 13.02.2020
2665 Clouds 2 1009 93 10000 3.1 160 08:20 13.02.2020
2666 Clouds 2 1010 93 10000 3.1 160 07:44 13.02.2020
2667 Clouds 2 1010 93 10000 3.1 160 07:44 13.02.2020
2668 Clouds 2 1010 93 10000 3.1 170 07:24 13.02.2020
2669 Clouds 2 1011 86 10000 2.6 190 06:56 13.02.2020
2670 Clouds 1 1011 86 10000 2.6 190 06:38 13.02.2020
2671 Clouds 1 1011 86 10000 3.1 200 05:56 13.02.2020
2672 Clear 2 1012 80 10000 4.1 220 04:50 13.02.2020
2673 Clear 2 1012 80 10000 4.1 220 04:24 13.02.2020
2674 Clear 2 1012 80 10000 5.1 220 03:45 13.02.2020
2675 Clouds 2 1012 88 10000 5.7 230 02:59 13.02.2020
2676 Clouds 3 1012 88 10000 5.7 230 02:37 13.02.2020
2677 Clouds 3 1012 82 10000 6.2 230 02:18 13.02.2020
2678 Clouds 3 1012 82 10000 7.2 240 01:27 13.02.2020
2679 Clouds 3 1012 83 10000 6.7 260 00:32 13.02.2020
2680 Clouds 3 1012 83 10000 8.2 240 23:58 12.02.2020
2681 Clouds 3 1012 83 10000 8.2 240 23:37 12.02.2020
2682 Clouds 3 1012 81 10000 7.7 240 23:18 12.02.2020
2683 Clouds 3 1011 81 10000 6.7 240 22:44 12.02.2020
2684 Clouds 3 1011 81 10000 7.7 250 22:24 12.02.2020
2685 Clouds 3 1011 81 10000 8.2 250 21:57 12.02.2020
2686 Clouds 4 1011 81 10000 8.2 250 21:39 12.02.2020
2687 Clouds 4 1011 81 10000 8.2 250 21:19 12.02.2020
2688 Clouds 4 1011 81 10000 7.7 250 20:55 12.02.2020
2689 Clouds 4 1011 81 10000 8.2 250 20:37 12.02.2020
2690 Clouds 4 1011 79 10000 8.2 250 20:18 12.02.2020
2691 Snow 4 1010 77 10000 8.2 250 19:44 12.02.2020
2692 Clouds 4 1010 69 10000 7.7 250 19:23 12.02.2020
2693 Clouds 4 1010 79 10000 7.7 250 18:54 12.02.2020
2694 Clouds 4 1010 77 10000 5.7 240 18:36 12.02.2020
2695 Clouds 4 1010 79 10000 5.7 240 18:18 12.02.2020
2696 Clouds 5 1009 80 10000 7.7 250 17:42 12.02.2020
2697 Clouds 5 1009 71 10000 8.2 260 17:20 12.02.2020
2698 Clouds 5 1009 71 10000 10.8 260 16:58 12.02.2020
2699 Clouds 5 1008 75 10000 8.2 260 16:38 12.02.2020
2700 Clouds 5 1008 75 10000 8.2 260 16:19 12.02.2020
2701 Clouds 5 1008 75 10000 8.2 260 16:19 12.02.2020
2702 Rain 6 1008 68 10000 13.9 260 15:41 12.02.2020
2703 Clouds 6 1007 71 10000 11.8 260 15:23 12.02.2020
2704 Clouds 6 1007 70 10000 12.3 260 14:57 12.02.2020
2705 Clouds 6 1007 70 10000 12.3 260 14:39 12.02.2020
2706 Clouds 6 1007 70 10000 12.3 260 14:39 12.02.2020
2707 Clouds 6 1007 70 10000 13.4 250 14:19 12.02.2020
2708 Clouds 6 1007 70 10000 11.3 260 13:56 12.02.2020
2709 Clouds 6 1007 70 10000 11.3 260 13:56 12.02.2020
2710 Clouds 6 1006 70 10000 13.9 250 13:38 12.02.2020
2711 Clouds 6 1006 70 10000 13.9 250 13:19 12.02.2020
2712 Clouds 6 1006 66 10000 10.8 260 12:57 12.02.2020
2713 Clouds 6 1006 66 10000 10.8 260 12:37 12.02.2020
2714 Clouds 6 1006 75 10000 11.8 260 12:18 12.02.2020
2715 Clouds 6 1005 75 10000 12.9 250 11:56 12.02.2020
2716 Clouds 6 1005 75 10000 12.9 250 11:37 12.02.2020
2717 Clouds 5 1005 75 10000 13.4 250 11:19 12.02.2020
2718 Clouds 5 1005 80 10000 11.8 250 10:54 12.02.2020
2719 Clouds 5 1004 80 10000 9.8 250 10:36 12.02.2020
2720 Clouds 4 1004 80 10000 9.8 250 10:18 12.02.2020
2721 Rain 4 1004 86 10000 10.8 250 09:41 12.02.2020
2722 Rain 4 1004 86 10000 10.8 250 09:41 12.02.2020
2723 Rain 3 1004 86 10000 12.9 250 09:21 12.02.2020
2724 Rain 3 1004 86 10000 12.9 250 09:21 12.02.2020
2725 Clouds 3 1004 75 10000 10.8 250 08:57 12.02.2020
2726 Clouds 3 1004 75 10000 10.8 250 08:37 12.02.2020
2727 Rain 3 1003 78 10000 10.3 250 08:19 12.02.2020
2728 Clouds 3 1003 78 10000 11.8 250 07:44 12.02.2020
2729 Clouds 3 1003 78 10000 12.3 250 07:23 12.02.2020
2730 Rain 3 1003 78 10000 14.4 250 06:53 12.02.2020
2731 Rain 3 1003 78 10000 9.8 250 06:23 12.02.2020
2732 Rain 3 1003 78 10000 13.9 260 05:38 12.02.2020
2733 Clouds 3 1002 69 10000 11.8 250 04:58 12.02.2020
2734 Clouds 4 1002 69 10000 11.8 250 04:39 12.02.2020
2735 Clouds 4 1002 76 10000 9.3 240 03:33 12.02.2020
2736 Clouds 3 1002 76 10000 11.3 250 02:58 12.02.2020
2737 Clouds 3 1002 76 10000 9.8 250 02:30 12.02.2020
2738 Clouds 3 1001 73 10000 10.8 250 01:51 12.02.2020
2739 Rain 3 1001 72 10000 10.3 250 00:46 12.02.2020
2740 Clouds 3 1001 72 10000 11.3 240 00:26 12.02.2020
2741 Clouds 3 1001 72 10000 8.7 240 23:58 11.02.2020
2742 Clouds 3 1001 72 10000 8.7 240 23:40 11.02.2020
2743 Clouds 3 1001 74 10000 9.3 240 23:22 11.02.2020
2744 Clouds 3 1000 74 10000 9.8 250 22:55 11.02.2020
2745 Clouds 3 1000 74 10000 9.3 240 22:37 11.02.2020
2746 Clouds 3 1000 74 10000 9.3 240 22:19 11.02.2020
2747 Clouds 3 1000 74 10000 8.7 240 21:56 11.02.2020
2748 Clouds 3 1000 74 10000 7.2 240 21:37 11.02.2020
2749 Clouds 3 1000 74 10000 7.2 240 21:18 11.02.2020
2750 Clouds 3 1000 74 10000 7.2 240 21:18 11.02.2020
2751 Rain 3 1000 74 10000 8.7 260 20:55 11.02.2020
2752 Rain 3 1000 74 10000 12.3 260 20:37 11.02.2020
2753 Rain 3 1000 76 10000 12.3 260 20:18 11.02.2020
2754 Rain 3 1000 74 10000 12.9 260 19:42 11.02.2020
2755 Clouds 3 999 74 10000 9.8 260 19:24 11.02.2020
2756 Clouds 3 999 74 10000 9.8 260 19:24 11.02.2020
2757 Clouds 4 999 74 10000 9.3 260 18:57 11.02.2020
2758 Clouds 4 999 74 10000 9.3 260 18:39 11.02.2020
2759 Clouds 4 999 74 10000 9.3 260 18:39 11.02.2020
2760 Clouds 4 999 74 10000 9.3 260 18:20 11.02.2020
2761 Rain 4 998 74 10000 15.9 270 17:55 11.02.2020
2762 Clouds 4 998 74 10000 10.8 260 17:36 11.02.2020
2763 Clouds 5 998 72 10000 10.8 260 17:18 11.02.2020
2764 Clouds 4 997 75 10000 12.9 260 16:57 11.02.2020
2765 Clouds 5 997 75 10000 12.9 260 16:38 11.02.2020
2766 Clouds 5 997 75 10000 11.3 260 16:19 11.02.2020
2767 Rain 4 997 86 10000 10.3 250 15:45 11.02.2020
2768 Rain 4 997 93 9000 13.9 260 15:26 11.02.2020
2769 Clouds 4 996 75 10000 13.9 250 14:58 11.02.2020
2770 Clouds 4 996 75 10000 13.9 250 14:39 11.02.2020
2771 Rain 4 996 80 10000 13.9 250 14:18 11.02.2020
2772 Rain 4 996 80 10000 13.9 250 13:42 11.02.2020
2773 Rain 5 996 86 10000 14.9 260 13:22 11.02.2020
2774 Clouds 5 995 70 10000 14.9 250 12:59 11.02.2020
2775 Clouds 5 995 70 10000 14.9 250 12:40 11.02.2020
2776 Clouds 6 995 70 10000 14.4 250 12:21 11.02.2020
2777 Clouds 6 994 70 10000 13.9 250 11:56 11.02.2020
2778 Clouds 6 994 70 10000 13.9 250 11:38 11.02.2020
2779 Clouds 6 994 70 10000 13.4 250 11:19 11.02.2020
2780 Clouds 5 994 75 10000 11.3 250 10:40 11.02.2020
2781 Clouds 5 994 80 10000 12.3 250 10:21 11.02.2020
2782 Rain 5 994 80 10000 12.9 250 09:57 11.02.2020
2783 Rain 4 994 80 10000 12.9 250 09:39 11.02.2020
2784 Rain 4 993 80 10000 11.3 250 09:21 11.02.2020
2785 Rain 4 993 80 10000 13.9 250 08:49 11.02.2020
2786 Rain 4 993 80 10000 12.3 250 08:25 11.02.2020
2787 Rain 4 993 80 10000 12.3 250 08:25 11.02.2020
2788 Rain 4 992 80 10000 12.3 250 07:55 11.02.2020
2789 Rain 4 992 80 10000 12.3 250 07:55 11.02.2020
2790 Rain 4 992 80 10000 11.8 240 07:33 11.02.2020
2791 Rain 4 992 86 10000 11.3 240 06:58 11.02.2020
2792 Rain 4 992 86 10000 11.3 240 06:58 11.02.2020
2793 Rain 4 992 86 10000 11.3 240 06:38 11.02.2020
2794 Rain 4 992 86 10000 11.3 240 06:38 11.02.2020
2795 Clouds 3 992 86 10000 11.3 240 06:20 11.02.2020
2796 Clouds 3 992 86 10000 11.3 240 05:41 11.02.2020
2797 Rain 4 991 76 10000 11.8 240 05:20 11.02.2020
2798 Rain 3 991 76 10000 10.3 260 04:18 11.02.2020
2799 Clouds 3 990 76 10000 10.8 260 02:38 11.02.2020
2800 Clouds 2 990 93 10000 7.2 240 01:59 11.02.2020
2801 Clouds 2 989 100 10000 5.7 240 01:31 11.02.2020
2802 Clouds 1 989 86 10000 6.2 250 00:26 11.02.2020
2803 Snow 1 988 100 10000 5.1 250 23:48 10.02.2020
2804 Snow 1 988 86 10000 3.1 220 23:30 10.02.2020
2805 Thunderstorm 1 988 90 10000 1 0 22:58 10.02.2020
2806 Thunderstorm 1 988 90 10000 1 0 22:37 10.02.2020
2807 Thunderstorm 1 988 90 10000 1 0 22:37 10.02.2020
2808 Snow 1 989 90 1600 6.2 310 22:19 10.02.2020
2809 Clouds 2 988 100 7000 2.6 260 21:41 10.02.2020
2810 Rain 3 989 86 10000 8.7 220 21:23 10.02.2020
2811 Clouds 5 989 70 10000 6.2 210 20:56 10.02.2020
2812 Clouds 5 989 70 10000 6.2 210 20:38 10.02.2020
2813 Clouds 5 990 70 10000 5.7 210 20:20 10.02.2020
2814 Clouds 5 991 75 10000 3.6 210 19:58 10.02.2020
2815 Clouds 6 991 75 10000 3.6 210 19:38 10.02.2020
2816 Clouds 5 992 75 10000 5.7 220 19:18 10.02.2020
2817 Clouds 6 993 70 10000 9.3 240 18:58 10.02.2020
2818 Clouds 6 993 70 10000 9.3 240 18:39 10.02.2020
2819 Clouds 6 994 70 10000 12.3 250 18:20 10.02.2020
2820 Clouds 6 994 70 10000 9.8 250 17:57 10.02.2020
2821 Clouds 6 994 70 10000 9.8 250 17:37 10.02.2020
2822 Clouds 6 994 70 10000 9.8 250 17:37 10.02.2020
2823 Clouds 6 994 70 10000 10.3 260 17:19 10.02.2020
2824 Clouds 6 994 70 10000 10.3 260 17:19 10.02.2020
2825 Rain 6 994 65 10000 11.8 250 16:58 10.02.2020
2826 Rain 6 994 65 10000 11.8 250 16:39 10.02.2020
2827 Rain 6 994 65 10000 11.3 250 16:19 10.02.2020
2828 Rain 6 993 65 10000 14.9 260 15:56 10.02.2020
2829 Rain 6 993 65 10000 14.9 260 15:38 10.02.2020
2830 Rain 6 993 75 10000 12.3 260 15:20 10.02.2020
2831 Rain 7 993 75 10000 18 260 14:55 10.02.2020
2832 Rain 7 992 70 10000 15.4 260 14:36 10.02.2020
2833 Rain 7 992 70 10000 15.4 260 14:18 10.02.2020
2834 Rain 7 992 70 10000 12.3 260 13:42 10.02.2020
2835 Rain 7 991 70 10000 14.9 260 13:24 10.02.2020
2836 Rain 7 991 75 10000 14.9 260 12:50 10.02.2020
2837 Rain 7 991 81 10000 11.8 260 12:26 10.02.2020
2838 Rain 7 990 81 10000 11.3 250 11:56 10.02.2020
2839 Rain 7 990 81 10000 11.3 250 11:38 10.02.2020
2840 Rain 7 989 75 10000 12.9 260 11:20 10.02.2020
2841 Rain 7 988 75 10000 11.3 260 10:47 10.02.2020
2842 Rain 7 987 87 10000 10.3 280 10:28 10.02.2020
2843 Rain 7 986 81 10000 16.5 270 09:48 10.02.2020
2844 Rain 7 986 81 10000 16.5 270 09:48 10.02.2020
2845 Rain 7 985 81 10000 13.9 260 09:27 10.02.2020
2846 Rain 7 984 87 10000 9.8 260 08:59 10.02.2020
2847 Rain 7 984 87 10000 9.8 260 08:38 10.02.2020
2848 Rain 8 984 81 10000 9.3 250 08:19 10.02.2020
2849 Clouds 8 983 75 10000 10.3 260 07:51 10.02.2020
2850 Clouds 8 983 81 10000 10.3 250 07:32 10.02.2020
2851 Rain 8 983 87 10000 10.8 260 06:30 10.02.2020
2852 Clouds 8 982 76 10000 10.8 260 04:47 10.02.2020
2853 Rain 8 982 81 10000 9.8 260 03:53 10.02.2020
2854 Rain 8 982 87 7000 15.9 270 02:57 10.02.2020
2855 Clouds 8 981 76 10000 12.9 250 02:36 10.02.2020
2856 Rain 9 981 81 10000 10.3 220 00:56 10.02.2020
2857 Rain 8 983 93 10000 12.3 230 00:37 10.02.2020
2858 Rain 8 983 93 10000 9.3 230 23:59 09.02.2020
2859 Rain 8 983 93 10000 9.3 230 23:41 09.02.2020
2860 Rain 9 984 87 7000 12.9 260 23:23 09.02.2020
2861 Rain 9 984 87 7000 12.9 260 23:23 09.02.2020
2862 Rain 10 982 81 10000 12.9 210 22:43 09.02.2020
2863 Rain 11 983 87 10000 12.9 210 22:22 09.02.2020
2864 Rain 11 984 87 5000 14.4 210 21:54 09.02.2020
2865 Rain 11 985 81 10000 14.9 210 21:36 09.02.2020
2866 Rain 12 985 81 10000 14.9 210 21:18 09.02.2020
2867 Rain 12 986 81 10000 13.9 210 20:43 09.02.2020
2868 Rain 12 986 76 10000 13.9 210 20:21 09.02.2020
2869 Rain 12 987 76 10000 12.3 210 19:54 09.02.2020
2870 Clouds 12 988 71 10000 12.9 210 19:36 09.02.2020
2871 Clouds 12 988 71 10000 12.9 210 19:18 09.02.2020
2872 Clouds 12 988 62 10000 13.9 210 18:41 09.02.2020
2873 Clouds 12 989 62 10000 13.4 210 18:23 09.02.2020
2874 Clouds 12 990 58 10000 13.9 210 17:44 09.02.2020
2875 Clouds 13 991 54 10000 14.9 210 17:23 09.02.2020
2876 Clouds 13 992 54 10000 14.4 200 16:59 09.02.2020
2877 Clouds 13 992 54 10000 14.4 200 16:40 09.02.2020
2878 Clouds 13 993 50 10000 12.9 200 16:21 09.02.2020
2879 Clouds 13 994 50 10000 12.9 200 15:57 09.02.2020
2880 Clouds 13 994 50 10000 12.9 200 15:39 09.02.2020
2881 Clouds 13 995 50 10000 12.3 200 15:20 09.02.2020
2882 Clouds 13 996 50 10000 11.8 200 14:55 09.02.2020
2883 Clouds 12 997 50 10000 12.3 200 14:36 09.02.2020
2884 Clouds 12 997 50 10000 12.3 200 14:18 09.02.2020
2885 Clouds 12 999 54 10000 12.9 200 13:41 09.02.2020
2886 Clouds 12 1000 57 10000 11.8 200 13:21 09.02.2020
2887 Clouds 11 1001 62 10000 11.8 200 12:54 09.02.2020
2888 Clouds 11 1002 62 10000 11.3 200 12:36 09.02.2020
2889 Clouds 11 1002 62 10000 11.3 200 12:18 09.02.2020
2890 Clouds 10 1004 71 10000 10.8 200 11:39 09.02.2020
2891 Clouds 10 1005 71 10000 9.8 200 11:19 09.02.2020
2892 Clouds 9 1006 71 10000 9.3 200 10:43 09.02.2020
2893 Clouds 9 1007 76 10000 8.7 200 10:23 09.02.2020
2894 Clouds 9 1007 76 10000 9.8 200 09:58 09.02.2020
2895 Clouds 9 1007 76 10000 9.8 200 09:38 09.02.2020
2896 Clouds 8 1008 81 10000 8.7 190 09:20 09.02.2020
2897 Clouds 8 1009 81 10000 7.7 200 08:41 09.02.2020
2898 Clouds 8 1009 81 10000 7.2 190 08:23 09.02.2020
2899 Clouds 8 1010 81 10000 7.2 190 07:52 09.02.2020
2900 Clouds 7 1011 87 10000 7.2 180 07:30 09.02.2020
2901 Clouds 7 1012 87 10000 6.7 180 06:38 09.02.2020
2902 Clouds 7 1013 87 10000 5.1 190 05:56 09.02.2020
2903 Clouds 7 1013 87 10000 5.1 190 05:56 09.02.2020
2904 Clouds 7 1014 93 10000 5.1 190 05:34 09.02.2020
2905 Clouds 7 1014 93 10000 4.1 180 04:51 09.02.2020
2906 Clouds 8 1016 87 10000 6.2 210 02:58 09.02.2020
2907 Clouds 8 1016 87 10000 6.2 210 02:38 09.02.2020
2908 Clouds 8 1016 93 10000 4.1 200 01:45 09.02.2020
2909 Clouds 8 1016 93 10000 4.1 190 01:27 09.02.2020
2910 Clouds 7 1017 93 10000 3.6 180 00:38 09.02.2020
2911 Clouds 7 1017 93 10000 3.6 190 00:18 09.02.2020
2912 Clouds 8 1018 87 10000 3.1 190 23:41 08.02.2020
2913 Clouds 8 1018 87 10000 2.6 190 23:19 08.02.2020
2914 Rain 8 1018 87 10000 2.6 190 22:40 08.02.2020
2915 Rain 8 1018 81 10000 2.1 210 22:21 08.02.2020
2916 Clouds 8 1018 81 10000 2.6 220 21:54 08.02.2020
2917 Clouds 8 1018 87 10000 2.6 190 21:36 08.02.2020
2918 Clouds 8 1018 87 10000 2.6 190 21:18 08.02.2020
2919 Clouds 8 1018 75 10000 3.6 200 20:54 08.02.2020
2920 Clouds 8 1018 75 10000 3.6 200 20:54 08.02.2020
2921 Clouds 8 1018 75 10000 4.1 180 20:36 08.02.2020
2922 Clouds 8 1018 75 10000 4.1 180 20:18 08.02.2020
2923 Clouds 8 1018 75 10000 3.6 180 19:40 08.02.2020
2924 Clouds 8 1018 75 10000 3.6 180 19:20 08.02.2020
2925 Clouds 8 1018 75 10000 3.6 170 18:59 08.02.2020
2926 Clouds 8 1018 75 10000 3.6 170 18:40 08.02.2020
2927 Clouds 8 1018 81 10000 3.1 170 18:22 08.02.2020
2928 Clouds 8 1018 81 10000 3.6 170 17:42 08.02.2020
2929 Clouds 8 1017 81 10000 3.6 160 17:21 08.02.2020
2930 Clouds 8 1018 75 10000 4.1 180 16:57 08.02.2020
2931 Clouds 8 1018 75 10000 4.1 180 16:38 08.02.2020
2932 Clouds 9 1018 70 10000 4.1 180 16:19 08.02.2020
2933 Clouds 9 1018 70 10000 4.1 180 15:41 08.02.2020
2934 Clouds 9 1018 70 10000 3.1 170 15:19 08.02.2020
2935 Clouds 9 1018 70 10000 4.1 180 14:57 08.02.2020
2936 Clouds 8 1018 70 10000 4.1 180 14:39 08.02.2020
2937 Clouds 8 1018 70 10000 4.1 170 14:18 08.02.2020
2938 Clouds 7 1019 70 10000 4.1 170 13:43 08.02.2020
2939 Clouds 7 1019 70 10000 3.6 170 13:23 08.02.2020
2940 Clouds 7 1019 75 10000 4.1 160 12:54 08.02.2020
2941 Clouds 6 1019 70 10000 4.1 160 12:36 08.02.2020
2942 Clouds 6 1019 70 10000 4.1 160 12:18 08.02.2020
2943 Clouds 5 1019 75 10000 4.1 170 11:41 08.02.2020
2944 Clouds 5 1020 70 10000 4.1 180 11:21 08.02.2020
2945 Clouds 4 1020 70 10000 4.1 170 10:43 08.02.2020
2946 Clouds 4 1020 74 10000 3.1 160 10:25 08.02.2020
2947 Clouds 3 1020 80 10000 3.6 150 09:55 08.02.2020
2948 Clouds 3 1019 80 10000 2.6 150 09:30 08.02.2020
2949 Clouds 2 1020 70 10000 2.6 160 08:59 08.02.2020
2950 Clouds 1 1020 70 10000 2.6 160 08:39 08.02.2020
2951 Clouds 1 1020 70 10000 2.6 140 08:21 08.02.2020
2952 Clear 1 1019 80 10000 3.1 140 07:50 08.02.2020
2953 Clear 1 1020 80 10000 1.5 130 07:32 08.02.2020
2954 Clear 0 1020 80 10000 2.1 130 06:41 08.02.2020
2955 Clear 1 1020 80 10000 2.6 130 06:18 08.02.2020
2956 Clear 1 1020 86 10000 3.6 140 05:33 08.02.2020
2957 Clear 1 1020 86 10000 3.1 140 04:53 08.02.2020
2958 Clear 1 1021 86 10000 2.6 130 04:24 08.02.2020
2959 Clear 1 1021 86 10000 2.6 140 03:37 08.02.2020
2960 Clear 2 1022 86 10000 3.1 130 02:29 08.02.2020
2961 Clear 2 1022 86 10000 3.1 130 02:29 08.02.2020
2962 Clear 2 1023 85 10000 3.6 150 01:31 08.02.2020
2963 Clear 2 1023 85 10000 4.6 130 00:47 08.02.2020
2964 Clear 3 1023 85 10000 4.6 130 00:25 08.02.2020
2965 Clear 3 1023 86 10000 4.1 140 23:58 07.02.2020
2966 Clear 3 1023 86 10000 4.1 140 23:39 07.02.2020
2967 Clear 3 1023 80 10000 4.6 130 23:20 07.02.2020
2968 Clear 4 1023 80 10000 4.6 130 22:42 07.02.2020
2969 Clear 4 1023 80 10000 4.6 130 22:42 07.02.2020
2970 Clear 4 1024 80 10000 5.1 130 22:20 07.02.2020
2971 Clear 4 1024 80 10000 5.1 130 21:59 07.02.2020
2972 Clear 4 1024 80 10000 5.1 130 21:40 07.02.2020
2973 Clear 4 1024 80 10000 5.7 130 21:20 07.02.2020
2974 Clear 4 1025 80 10000 5.1 130 20:40 07.02.2020
2975 Clear 4 1025 80 10000 5.1 130 20:21 07.02.2020
2976 Clear 5 1025 80 10000 5.1 120 19:56 07.02.2020
2977 Clear 5 1025 80 10000 5.1 120 19:37 07.02.2020
2978 Clear 5 1025 80 10000 5.1 120 19:37 07.02.2020
2979 Clear 5 1025 80 10000 6.2 120 19:18 07.02.2020
2980 Clear 5 1025 80 10000 5.7 120 18:45 07.02.2020
2981 Clear 5 1025 80 10000 5.1 120 18:25 07.02.2020
2982 Clear 5 1026 80 10000 4.6 120 17:57 07.02.2020
2983 Clear 6 1026 80 10000 4.6 120 17:39 07.02.2020
2984 Clouds 6 1026 75 10000 4.6 130 17:19 07.02.2020
2985 Clouds 6 1026 70 10000 6.2 130 16:50 07.02.2020
2986 Clouds 7 1026 70 10000 5.7 140 16:24 07.02.2020
2987 Clouds 7 1026 70 10000 6.2 150 15:55 07.02.2020
2988 Clouds 7 1027 75 10000 7.2 130 15:29 07.02.2020
2989 Clouds 7 1027 70 10000 5.1 140 14:58 07.02.2020
2990 Clouds 7 1027 70 10000 5.1 140 14:40 07.02.2020
2991 Clouds 7 1027 70 10000 4.6 140 14:21 07.02.2020
2992 Clouds 7 1028 70 10000 5.7 140 13:57 07.02.2020
2993 Clouds 7 1028 70 10000 5.7 140 13:38 07.02.2020
2994 Clouds 7 1028 70 10000 5.7 160 13:20 07.02.2020
2995 Clouds 7 1028 75 10000 4.1 140 12:42 07.02.2020
2996 Clouds 6 1029 75 10000 4.1 150 12:24 07.02.2020
2997 Clouds 6 1029 81 10000 3.6 140 11:58 07.02.2020
2998 Clouds 6 1029 81 10000 2.6 140 11:39 07.02.2020
2999 Clouds 6 1029 81 10000 2.6 140 11:18 07.02.2020
3000 Clouds 6 1029 81 10000 2.6 150 10:40 07.02.2020
3001 Clouds 5 1030 86 10000 2.1 140 10:20 07.02.2020
3002 Clouds 5 1030 86 10000 2.1 140 09:46 07.02.2020
3003 Clouds 5 1030 86 10000 2.1 130 09:26 07.02.2020
3004 Clouds 5 1029 86 10000 1.5 140 08:57 07.02.2020
3005 Clouds 5 1029 86 10000 1 0 08:37 07.02.2020
3006 Clouds 5 1029 86 10000 1 0 08:19 07.02.2020
3007 Clouds 4 1029 86 10000 1.5 170 07:40 07.02.2020
3008 Clouds 4 1029 86 10000 1 150 07:22 07.02.2020
3009 Clouds 4 1029 86 10000 1 130 06:43 07.02.2020
3010 Clouds 5 1029 86 10000 1 0 06:23 07.02.2020
3011 Clouds 5 1029 86 10000 1 210 05:43 07.02.2020
3012 Clouds 5 1030 86 10000 0.5 230 04:24 07.02.2020
3013 Clouds 5 1030 86 10000 1.5 280 02:32 07.02.2020
3014 Clouds 5 1030 86 10000 1.5 260 01:35 07.02.2020
3015 Clouds 5 1030 86 10000 1 250 00:45 07.02.2020
3016 Clouds 5 1030 93 10000 1 0 00:18 07.02.2020
3017 Clouds 5 1030 86 10000 2.1 270 23:37 06.02.2020
3018 Clouds 5 1030 86 10000 2.1 270 23:18 06.02.2020
3019 Clouds 5 1030 93 10000 2.6 260 22:43 06.02.2020
3020 Clouds 6 1030 87 10000 3.1 280 22:24 06.02.2020
3021 Clouds 5 1030 93 10000 1.5 270 21:38 06.02.2020
3022 Clouds 6 1030 93 10000 1.5 270 21:19 06.02.2020
3023 Clouds 6 1030 87 10000 2.6 280 20:58 06.02.2020
3024 Clouds 6 1030 87 10000 2.6 280 20:39 06.02.2020
3025 Clouds 6 1030 87 10000 3.1 280 20:19 06.02.2020
3026 Clouds 6 1030 87 10000 3.1 280 19:59 06.02.2020
3027 Clouds 6 1030 87 10000 3.1 280 19:40 06.02.2020
3028 Clouds 6 1030 87 10000 2.6 270 19:22 06.02.2020
3029 Clouds 6 1029 87 10000 3.1 270 18:58 06.02.2020
3030 Clouds 6 1029 87 10000 3.1 270 18:40 06.02.2020
3031 Clouds 6 1029 87 10000 3.1 250 18:20 06.02.2020
3032 Clouds 6 1029 87 10000 3.1 260 17:44 06.02.2020
3033 Clouds 6 1029 87 10000 3.1 260 17:44 06.02.2020
3034 Clouds 6 1029 87 10000 3.6 260 17:21 06.02.2020
3035 Clouds 6 1029 87 10000 3.1 260 16:59 06.02.2020
3036 Clouds 6 1029 87 10000 3.1 260 16:40 06.02.2020
3037 Clouds 6 1029 87 10000 4.1 270 16:22 06.02.2020
3038 Clouds 6 1029 81 10000 4.1 270 15:42 06.02.2020
3039 Clouds 6 1029 81 10000 4.1 260 15:22 06.02.2020
3040 Clouds 6 1029 81 10000 4.1 260 14:50 06.02.2020
3041 Clouds 6 1029 75 10000 4.1 260 14:28 06.02.2020
3042 Clouds 6 1029 81 10000 3.6 250 13:58 06.02.2020
3043 Clouds 6 1029 81 10000 3.6 250 13:40 06.02.2020
3044 Clouds 6 1029 81 10000 4.6 250 13:19 06.02.2020
3045 Clouds 6 1030 81 10000 4.6 250 12:44 06.02.2020
3046 Clouds 6 1030 81 10000 5.1 250 12:19 06.02.2020
3047 Clouds 5 1030 81 10000 4.1 260 11:57 06.02.2020
3048 Clouds 5 1030 81 10000 4.1 260 11:39 06.02.2020
3049 Clouds 5 1030 81 10000 3.6 280 11:19 06.02.2020
3050 Clouds 5 1030 86 10000 3.6 270 10:56 06.02.2020
3051 Clouds 5 1030 86 10000 3.6 270 10:38 06.02.2020
3052 Clouds 5 1030 86 10000 3.6 260 10:19 06.02.2020
3053 Clouds 5 1030 86 10000 3.6 260 10:19 06.02.2020
3054 Clouds 5 1030 86 10000 4.6 250 09:56 06.02.2020
3055 Clouds 4 1030 93 10000 4.1 260 09:36 06.02.2020
3056 Clouds 4 1030 93 10000 4.1 260 09:18 06.02.2020
3057 Clouds 4 1030 93 10000 4.1 260 08:41 06.02.2020
3058 Clouds 4 1030 93 10000 4.6 250 08:20 06.02.2020
3059 Clouds 4 1030 93 10000 4.1 260 07:46 06.02.2020
3060 Clouds 4 1029 93 10000 4.6 260 07:25 06.02.2020
3061 Clouds 4 1029 86 10000 4.6 250 06:22 06.02.2020
3062 Clouds 4 1029 86 10000 4.6 250 06:22 06.02.2020
3063 Clouds 4 1029 86 10000 4.6 250 06:22 06.02.2020
3064 Clouds 4 1030 93 10000 4.1 250 05:54 06.02.2020
3065 Clouds 3 1030 93 10000 3.1 260 04:23 06.02.2020
3066 Clouds 3 1029 91 0 1.34 272 03:20 06.02.2020
3067 Clouds 3 1031 95 10000 3.6 230 02:29 06.02.2020
3068 Clouds 3 1030 88 0 0.89 257 01:35 06.02.2020
3069 Clouds 3 1030 87 0 0.45 225 00:58 06.02.2020
3070 Clouds 3 1032 86 10000 4.1 240 00:26 06.02.2020
3071 Clouds 4 1033 80 10000 3.6 250 23:46 05.02.2020
3072 Clouds 4 1033 80 10000 4.1 250 23:28 05.02.2020
3073 Clouds 4 1033 80 10000 4.6 250 22:58 05.02.2020
3074 Clouds 4 1033 80 10000 4.6 250 22:40 05.02.2020
3075 Clouds 4 1033 80 10000 4.6 260 22:22 05.02.2020
3076 Clouds 4 1033 80 10000 5.1 250 21:54 05.02.2020
3077 Clouds 4 1033 80 10000 4.6 250 21:36 05.02.2020
3078 Clouds 4 1033 80 10000 4.6 250 21:18 05.02.2020
3079 Clouds 5 1033 75 10000 4.1 250 20:39 05.02.2020
3080 Clouds 5 1033 75 10000 4.1 250 20:39 05.02.2020
3081 Clouds 5 1033 75 10000 3.6 250 20:19 05.02.2020
3082 Clouds 5 1033 75 10000 4.1 240 19:57 05.02.2020
3083 Clouds 5 1033 75 10000 4.1 240 19:38 05.02.2020
3084 Clouds 5 1033 75 10000 3.6 250 19:19 05.02.2020
3085 Clouds 5 1034 75 10000 5.1 280 18:55 05.02.2020
3086 Clouds 5 1033 81 10000 3.1 270 18:36 05.02.2020
3087 Clouds 5 1033 81 10000 3.1 270 18:18 05.02.2020
3088 Clouds 5 1033 65 10000 4.1 240 17:38 05.02.2020
3089 Clouds 5 1033 65 10000 4.1 240 17:38 05.02.2020
3090 Clouds 5 1033 65 10000 4.1 240 17:19 05.02.2020
3091 Clouds 6 1033 69 10000 4.1 250 16:57 05.02.2020
3092 Clouds 6 1034 69 10000 4.6 250 16:38 05.02.2020
3093 Clouds 6 1034 69 10000 4.6 250 16:19 05.02.2020
3094 Clouds 7 1034 56 10000 4.6 250 15:45 05.02.2020
3095 Clouds 7 1034 56 10000 3.6 240 15:20 05.02.2020
3096 Clouds 7 1034 52 10000 3.1 260 14:58 05.02.2020
3097 Clouds 7 1034 52 10000 3.1 260 14:39 05.02.2020
3098 Clouds 7 1034 56 10000 3.6 270 14:21 05.02.2020
3099 Clear 7 1035 56 10000 4.6 280 13:43 05.02.2020
3100 Clear 6 1035 60 10000 4.1 290 13:22 05.02.2020
3101 Clear 6 1035 56 10000 2.6 300 12:57 05.02.2020
3102 Clear 6 1035 65 10000 2.6 290 12:36 05.02.2020
3103 Clear 5 1035 65 10000 2.6 290 12:18 05.02.2020
3104 Clear 5 1035 65 10000 2.6 290 12:18 05.02.2020
3105 Clear 4 1034 74 10000 2.6 300 11:41 05.02.2020
3106 Clear 3 1034 74 10000 2.6 300 11:22 05.02.2020
3107 Clear 3 1034 80 10000 1.5 260 10:57 05.02.2020
3108 Clear 2 1034 86 10000 1.5 260 10:39 05.02.2020
3109 Clear 2 1034 86 10000 1.5 260 10:39 05.02.2020
3110 Clear 1 1034 86 10000 1.5 260 10:18 05.02.2020
3111 Clear 0 1033 71 10000 1 290 09:39 05.02.2020
3112 Clear 0 1033 92 10000 2.1 240 09:21 05.02.2020
3113 Clear -1 1033 92 10000 1.5 230 08:55 05.02.2020
3114 Clear -1 1033 92 10000 1.5 230 08:37 05.02.2020
3115 Clear -1 1032 86 10000 1 0 08:18 05.02.2020
3116 Clear -1 1031 86 10000 2.6 300 07:42 05.02.2020
3117 Clear -1 1031 86 10000 2.6 300 07:18 05.02.2020
3118 Clear -1 1031 80 10000 2.6 310 06:39 05.02.2020
3119 Clear -1 1030 80 10000 2.1 320 06:39 05.02.2020
3120 Clear -1 1030 80 10000 2.1 320 06:20 05.02.2020
3121 Clear 0 1029 86 0 0.45 321 05:20 05.02.2020
3122 Clear 0 1029 86 0 0.89 316 04:58 05.02.2020
3123 Clear 1 1028 80 0 4.6 340 04:25 05.02.2020
3124 Clear 2 1026 74 10000 6.7 340 02:52 05.02.2020
3125 Clear 3 1026 69 10000 7.2 350 02:22 05.02.2020
3126 Clouds 4 1024 75 10000 7.2 330 01:29 05.02.2020
3127 Clouds 5 1023 75 10000 5.1 340 00:25 05.02.2020
3128 Clouds 5 1022 70 10000 6.2 340 23:42 04.02.2020
3129 Clouds 5 1022 75 10000 7.7 340 23:21 04.02.2020
3130 Clouds 5 1021 84 0 1.34 347 22:57 04.02.2020
3131 Clouds 6 1021 75 10000 7.2 320 22:39 04.02.2020
3132 Clouds 6 1020 75 10000 6.7 310 22:20 04.02.2020
3133 Clouds 6 1019 81 10000 5.1 320 21:56 04.02.2020
3134 Clouds 6 1019 81 10000 5.1 320 21:38 04.02.2020
3135 Clouds 6 1019 86 10000 5.1 300 21:19 04.02.2020
3136 Clouds 5 1018 86 10000 5.7 300 20:55 04.02.2020
3137 Clouds 5 1018 86 10000 6.7 310 20:37 04.02.2020
3138 Clouds 5 1018 86 10000 6.7 310 20:18 04.02.2020
3139 Clouds 5 1017 80 10000 7.2 310 19:43 04.02.2020
3140 Clouds 5 1017 80 10000 6.2 300 19:25 04.02.2020
3141 Clouds 5 1016 80 10000 4.6 300 18:59 04.02.2020
3142 Clouds 5 1016 80 10000 4.6 300 18:40 04.02.2020
3143 Clouds 5 1015 80 10000 3.6 290 18:21 04.02.2020
3144 Clouds 5 1014 80 10000 4.6 290 17:58 04.02.2020
3145 Clouds 5 1013 80 10000 4.6 290 17:40 04.02.2020
3146 Clouds 5 1013 80 10000 4.6 290 17:19 04.02.2020
3147 Clouds 6 1012 70 10000 6.7 300 16:39 04.02.2020
3148 Clouds 6 1012 70 10000 6.7 300 16:21 04.02.2020
3149 Clouds 6 1012 70 10000 6.7 300 16:21 04.02.2020
3150 Clouds 6 1011 70 10000 7.7 290 15:57 04.02.2020
3151 Clouds 6 1010 70 10000 6.7 290 15:39 04.02.2020
3152 Clouds 6 1010 70 10000 6.7 290 15:20 04.02.2020
3153 Clouds 6 1010 70 10000 6.2 290 14:56 04.02.2020
3154 Clouds 7 1010 81 10000 6.2 290 14:37 04.02.2020
3155 Clouds 7 1010 81 10000 6.2 290 14:19 04.02.2020
3156 Clouds 6 1010 86 10000 6.2 280 13:41 04.02.2020
3157 Rain 6 1009 86 9000 7.7 290 13:23 04.02.2020
3158 Clouds 6 1009 75 10000 7.7 270 12:58 04.02.2020
3159 Clouds 6 1009 75 10000 7.7 270 12:39 04.02.2020
3160 Clouds 5 1008 81 10000 6.2 270 12:20 04.02.2020
3161 Clouds 5 1008 81 10000 6.2 270 11:56 04.02.2020
3162 Clouds 5 1008 81 10000 6.2 270 11:37 04.02.2020
3163 Clouds 5 1008 86 10000 7.7 270 11:18 04.02.2020
3164 Clouds 5 1007 86 10000 8.2 260 10:45 04.02.2020
3165 Rain 4 1007 80 10000 7.7 270 10:26 04.02.2020
3166 Clouds 4 1006 86 10000 6.2 250 09:57 04.02.2020
3167 Clouds 4 1006 86 10000 6.2 250 09:39 04.02.2020
3168 Clouds 4 1006 86 10000 5.7 250 09:20 04.02.2020
3169 Clouds 4 1005 86 10000 4.6 250 08:45 04.02.2020
3170 Rain 4 1005 86 10000 2.6 300 08:27 04.02.2020
3171 Clouds 4 1005 86 10000 5.1 290 07:52 04.02.2020
3172 Rain 4 1004 86 10000 5.7 270 07:25 04.02.2020
3173 Clouds 4 1004 86 10000 6.2 260 06:54 04.02.2020
3174 Clouds 4 1003 86 10000 6.2 270 06:36 04.02.2020
3175 Clouds 4 1003 86 10000 5.7 260 05:34 04.02.2020
3176 Clouds 4 1002 86 10000 4.6 260 04:27 04.02.2020
3177 Clouds 5 1002 86 10000 4.6 270 03:47 04.02.2020
3178 Clouds 5 1002 80 10000 5.1 280 03:29 04.02.2020
3179 Clouds 5 998 99 0 5.06 278 02:42 04.02.2020
3180 Rain 5 1002 86 5000 10.3 310 02:24 04.02.2020
3181 Clouds 6 1002 81 10000 4.6 260 01:45 04.02.2020
3182 Clouds 6 1003 86 10000 3.6 250 00:56 04.02.2020
3183 Clouds 6 1003 86 10000 3.1 240 00:23 04.02.2020
3184 Clouds 6 1003 86 10000 3.1 230 23:49 03.02.2020
3185 Clouds 6 1004 81 10000 2.6 230 23:30 03.02.2020
3186 Clouds 6 1005 81 10000 3.6 260 22:58 03.02.2020
3187 Clouds 6 1005 81 10000 3.6 260 22:38 03.02.2020
3188 Clouds 6 1005 81 10000 4.1 250 22:19 03.02.2020
3189 Clouds 7 1006 75 10000 4.1 250 21:42 03.02.2020
3190 Clouds 7 1007 75 10000 5.7 260 21:20 03.02.2020
3191 Clouds 7 1007 81 10000 6.2 250 20:57 03.02.2020
3192 Clouds 7 1007 81 10000 6.2 250 20:39 03.02.2020
3193 Clouds 7 1007 81 10000 5.7 250 20:18 03.02.2020
3194 Clouds 7 1007 81 10000 5.7 260 19:42 03.02.2020
3195 Clouds 8 1008 75 10000 5.7 270 19:23 03.02.2020
3196 Clouds 8 1008 75 10000 6.2 260 18:59 03.02.2020
3197 Clouds 8 1008 75 10000 6.2 260 18:41 03.02.2020
3198 Clouds 8 1008 81 10000 6.2 260 18:22 03.02.2020
3199 Clouds 8 1008 81 10000 6.2 260 17:58 03.02.2020
3200 Clouds 8 1008 81 10000 6.2 260 17:39 03.02.2020
3201 Clouds 8 1008 81 10000 7.2 260 17:19 03.02.2020
3202 Clouds 9 1008 87 10000 7.2 260 16:40 03.02.2020
3203 Drizzle 9 1008 87 10000 7.7 260 16:22 03.02.2020
3204 Clouds 9 1008 87 10000 9.8 260 15:59 03.02.2020
3205 Clouds 9 1008 87 10000 9.8 260 15:39 03.02.2020
3206 Drizzle 9 1008 93 8000 7.2 260 15:20 03.02.2020
3207 Drizzle 9 1008 93 6000 7.2 260 14:58 03.02.2020
3208 Drizzle 9 1008 93 6000 7.2 260 14:58 03.02.2020
3209 Drizzle 9 1008 93 6000 7.2 260 14:39 03.02.2020
3210 Drizzle 9 1008 93 10000 8.2 260 14:21 03.02.2020
3211 Drizzle 9 1008 93 8000 7.2 260 13:54 03.02.2020
3212 Drizzle 9 1007 93 10000 7.2 260 13:36 03.02.2020
3213 Drizzle 9 1007 93 10000 7.2 260 13:18 03.02.2020
3214 Clouds 9 1008 93 10000 7.7 260 12:40 03.02.2020
3215 Clouds 9 1008 93 10000 7.7 260 12:21 03.02.2020
3216 Clouds 9 1008 93 10000 7.2 260 11:58 03.02.2020
3217 Clouds 9 1008 93 10000 7.2 260 11:37 03.02.2020
3218 Rain 9 1007 93 6000 7.2 250 11:18 03.02.2020
3219 Rain 9 1007 93 6000 6.2 250 10:41 03.02.2020
3220 Rain 9 1007 87 4900 6.2 250 10:23 03.02.2020
3221 Clouds 9 1007 87 10000 5.1 260 09:49 03.02.2020
3222 Clouds 9 1007 87 10000 5.1 260 09:49 03.02.2020
3223 Clouds 9 1006 87 10000 6.7 260 09:28 03.02.2020
3224 Clouds 9 1006 87 10000 6.7 260 08:59 03.02.2020
3225 Clouds 9 1006 87 10000 6.7 260 08:40 03.02.2020
3226 Clouds 9 1006 87 10000 6.7 260 08:22 03.02.2020
3227 Clouds 9 1006 87 10000 7.7 260 07:42 03.02.2020
3228 Clouds 9 1005 87 10000 8.2 260 07:22 03.02.2020
3229 Clouds 9 1005 87 10000 10.3 270 06:56 03.02.2020
3230 Clouds 8 1005 87 10000 8.2 260 06:31 03.02.2020
3231 Clouds 8 1005 87 10000 7.7 260 05:51 03.02.2020
3232 Clouds 8 1005 93 10000 6.2 250 05:31 03.02.2020
3233 Clouds 8 1005 93 10000 4.6 240 04:45 03.02.2020
3234 Clouds 8 1005 93 10000 4.6 240 04:45 03.02.2020
3235 Clouds 6 1005 93 10000 3.6 220 02:48 03.02.2020
3236 Clouds 6 1005 93 10000 3.6 240 02:28 03.02.2020
3237 Clouds 7 1005 87 10000 5.1 260 00:50 03.02.2020
3238 Clouds 7 1006 93 10000 7.2 260 00:28 03.02.2020
3239 Clouds 6 1005 93 7000 4.1 250 23:59 02.02.2020
3240 Drizzle 6 1006 100 4400 2.1 210 23:37 02.02.2020
3241 Drizzle 6 1006 100 4400 2.1 210 23:18 02.02.2020
3242 Drizzle 6 1006 100 4400 2.1 210 23:18 02.02.2020
3243 Drizzle 6 1006 100 4400 1 190 22:40 02.02.2020
3244 Drizzle 6 1005 100 5000 0.5 0 22:22 02.02.2020
3245 Drizzle 6 1005 100 6000 1 240 21:58 02.02.2020
3246 Drizzle 6 1005 100 6000 1 240 21:39 02.02.2020
3247 Drizzle 6 1005 100 6000 1 260 21:20 02.02.2020
3248 Drizzle 6 1005 100 6000 1 0 20:58 02.02.2020
3249 Drizzle 6 1005 100 6000 1 0 20:39 02.02.2020
3250 Drizzle 6 1005 100 6000 0.5 270 20:20 02.02.2020
3251 Drizzle 6 1005 100 6000 0.5 250 19:59 02.02.2020
3252 Drizzle 6 1005 100 6000 0.5 250 19:41 02.02.2020
3253 Drizzle 6 1005 100 5000 1 290 19:22 02.02.2020
3254 Drizzle 6 1004 100 6000 1.5 290 18:57 02.02.2020
3255 Drizzle 6 1004 100 2700 1 0 18:38 02.02.2020
3256 Drizzle 6 1004 100 2700 1 0 18:20 02.02.2020
3257 Drizzle 6 1004 100 4000 1.5 260 17:57 02.02.2020
3258 Drizzle 6 1004 100 6000 1.5 220 17:37 02.02.2020
3259 Drizzle 6 1004 100 6000 1.5 220 17:18 02.02.2020
3260 Rain 6 1004 93 8000 1.5 220 16:58 02.02.2020
3261 Rain 7 1004 93 8000 1.5 220 16:38 02.02.2020
3262 Rain 7 1004 87 9000 1.5 250 16:19 02.02.2020
3263 Rain 7 1004 87 9000 1.5 250 16:19 02.02.2020
3264 Rain 7 1003 93 8000 1 0 15:57 02.02.2020
3265 Rain 7 1003 93 8000 1 0 15:38 02.02.2020
3266 Rain 7 1004 93 9000 2.6 270 15:19 02.02.2020
3267 Rain 7 1004 87 8000 2.6 280 14:44 02.02.2020
3268 Rain 7 1004 93 8000 3.1 240 14:20 02.02.2020
3269 Rain 7 1004 93 8000 2.6 250 13:59 02.02.2020
3270 Rain 7 1004 93 8000 2.6 250 13:41 02.02.2020
3271 Rain 7 1005 93 10000 3.1 250 13:22 02.02.2020
3272 Rain 7 1005 87 10000 4.6 250 12:58 02.02.2020
3273 Rain 7 1005 87 10000 4.6 250 12:40 02.02.2020
3274 Rain 7 1005 93 8000 4.6 230 12:22 02.02.2020
3275 Rain 7 1006 93 6000 1 0 11:54 02.02.2020
3276 Rain 7 1006 93 10000 1.5 240 11:36 02.02.2020
3277 Rain 7 1006 93 10000 1.5 240 11:18 02.02.2020
3278 Rain 7 1006 100 10000 2.1 300 10:54 02.02.2020
3279 Rain 7 1006 100 10000 3.6 290 10:36 02.02.2020
3280 Rain 7 1006 100 10000 3.6 290 10:18 02.02.2020
3281 Drizzle 7 1006 93 9000 3.6 310 09:40 02.02.2020
3282 Drizzle 7 1006 93 6000 3.1 310 09:21 02.02.2020
3283 Rain 7 1006 93 10000 4.1 290 08:56 02.02.2020
3284 Rain 7 1006 87 10000 7.2 260 08:37 02.02.2020
3285 Rain 7 1006 87 10000 7.2 260 08:19 02.02.2020
3286 Rain 7 1006 93 10000 5.7 250 07:44 02.02.2020
3287 Rain 7 1006 87 10000 7.2 240 07:25 02.02.2020
3288 Rain 8 1006 87 10000 7.7 250 06:38 02.02.2020
3289 Rain 8 1005 87 10000 7.7 250 06:19 02.02.2020
3290 Rain 8 1005 87 10000 7.7 250 05:23 02.02.2020
3291 Clouds 8 1005 87 10000 8.7 250 04:30 02.02.2020
3292 Rain 8 1004 81 10000 9.3 250 03:24 02.02.2020
3293 Rain 8 1004 70 10000 9.8 250 02:24 02.02.2020
3294 Clouds 9 1003 70 10000 9.8 250 01:52 02.02.2020
3295 Clouds 9 1003 70 10000 9.8 250 01:19 02.02.2020
3296 Rain 9 1003 70 10000 9.8 260 00:41 02.02.2020
3297 Rain 9 1002 70 10000 9.3 250 00:19 02.02.2020
3298 Clouds 9 1002 66 10000 9.8 250 23:45 01.02.2020
3299 Clouds 9 1002 70 10000 9.3 250 23:21 01.02.2020
3300 Clouds 9 1002 70 10000 10.3 250 22:48 01.02.2020
3301 Clouds 9 1002 70 10000 7.7 250 22:19 01.02.2020
3302 Clouds 8 1001 75 10000 7.7 250 21:44 01.02.2020
3303 Clouds 8 1001 70 10000 8.7 260 21:20 01.02.2020
3304 Clouds 9 1001 70 10000 8.7 250 20:58 01.02.2020
3305 Clouds 9 1001 70 10000 7.7 250 20:40 01.02.2020
3306 Clouds 9 1001 70 10000 7.7 250 20:20 01.02.2020
3307 Clouds 9 1001 70 10000 7.7 250 19:56 01.02.2020
3308 Clouds 9 1001 70 10000 7.7 250 19:38 01.02.2020
3309 Clouds 9 1000 70 10000 9.8 250 19:19 01.02.2020
3310 Rain 9 1000 66 10000 7.7 260 18:57 01.02.2020
3311 Rain 10 1000 66 10000 7.7 260 18:38 01.02.2020
3312 Clouds 10 1000 71 10000 10.8 270 18:20 01.02.2020
3313 Rain 10 999 66 10000 9.8 260 17:56 01.02.2020
3314 Rain 10 999 66 10000 9.8 260 17:38 01.02.2020
3315 Clouds 10 999 71 10000 8.7 260 17:19 01.02.2020
3316 Clouds 11 999 76 10000 8.2 260 16:42 01.02.2020
3317 Clouds 11 999 76 10000 7.7 260 16:23 01.02.2020
3318 Clouds 11 998 76 10000 8.7 270 15:58 01.02.2020
3319 Rain 11 997 84 0 3.13 292 15:38 01.02.2020
3320 Clouds 11 998 76 10000 7.2 260 15:18 01.02.2020
3321 Clouds 11 998 81 10000 8.2 250 14:40 01.02.2020
3322 Rain 12 998 81 10000 6.7 240 14:21 01.02.2020
3323 Rain 12 998 81 10000 7.7 250 13:45 01.02.2020
3324 Rain 12 998 87 10000 6.7 240 13:24 01.02.2020
3325 Clouds 12 998 87 10000 6.2 240 12:59 01.02.2020
3326 Clouds 12 998 87 10000 6.2 240 12:41 01.02.2020
3327 Clouds 12 998 87 10000 6.2 230 12:22 01.02.2020
3328 Clouds 11 999 87 10000 7.2 230 11:44 01.02.2020
3329 Clouds 11 999 87 10000 6.7 230 11:24 01.02.2020
3330 Drizzle 11 999 87 10000 6.7 230 10:59 01.02.2020
3331 Drizzle 11 999 87 10000 6.7 230 10:40 01.02.2020
3332 Clouds 11 999 87 10000 6.7 220 10:22 01.02.2020
3333 Clouds 11 999 93 10000 5.7 220 09:59 01.02.2020
3334 Clouds 11 999 93 10000 5.7 220 09:40 01.02.2020
3335 Clouds 11 1000 93 10000 6.7 220 09:21 01.02.2020
3336 Clouds 11 1000 93 10000 6.7 220 08:52 01.02.2020
3337 Drizzle 11 1000 93 10000 6.2 220 07:59 01.02.2020
3338 Drizzle 11 1000 93 10000 6.2 220 07:40 01.02.2020
3339 Clouds 11 1000 93 10000 7.2 220 07:21 01.02.2020
3340 Clouds 11 1000 93 10000 7.7 220 06:43 01.02.2020
3341 Clouds 11 1001 93 10000 8.2 220 05:54 01.02.2020
3342 Clouds 11 1001 93 10000 8.2 220 05:54 01.02.2020
3343 Rain 11 1001 93 10000 7.2 230 04:22 01.02.2020
3344 Rain 11 1002 93 10000 8.7 230 03:25 01.02.2020
3345 Rain 12 1002 81 10000 9.3 230 02:55 01.02.2020
3346 Rain 12 1002 81 10000 9.3 230 02:37 01.02.2020
3347 Rain 12 1002 81 10000 9.3 230 02:18 01.02.2020
3348 Clouds 12 1002 81 10000 8.7 220 01:39 01.02.2020
3349 Clouds 12 1002 81 10000 9.3 220 01:19 01.02.2020
3350 Clouds 12 1003 81 10000 8.2 230 00:23 01.02.2020
3351 Clouds 12 1003 87 10000 8.2 230 23:41 31.01.2020
3352 Clouds 12 1003 87 10000 7.7 230 23:19 31.01.2020
3353 Rain 12 1004 87 10000 8.7 220 22:57 31.01.2020
3354 Rain 12 1004 87 10000 8.7 220 22:38 31.01.2020
3355 Rain 12 1004 87 10000 8.7 230 22:20 31.01.2020
3356 Clouds 12 1004 87 10000 7.2 220 21:55 31.01.2020
3357 Clouds 11 1004 93 10000 6.2 220 21:36 31.01.2020
3358 Clouds 11 1004 93 10000 6.2 220 21:18 31.01.2020
3359 Rain 11 1004 93 10000 7.2 230 20:54 31.01.2020
3360 Rain 11 1004 93 10000 7.2 230 20:54 31.01.2020
3361 Rain 11 1005 87 10000 7.2 230 20:36 31.01.2020
3362 Rain 11 1005 87 10000 7.2 230 20:36 31.01.2020
3363 Rain 11 1005 87 10000 7.2 230 20:18 31.01.2020
3364 Clouds 11 1005 87 10000 8.2 240 19:42 31.01.2020
3365 Clouds 11 1005 87 10000 7.7 240 19:23 31.01.2020
3366 Clouds 11 1005 81 10000 7.7 230 18:58 31.01.2020
3367 Clouds 11 1005 81 10000 7.7 230 18:38 31.01.2020
3368 Clouds 11 1004 81 10000 8.7 240 18:19 31.01.2020
3369 Clouds 11 1005 81 10000 8.7 240 17:44 31.01.2020
3370 Clouds 11 1004 76 10000 9.8 230 17:26 31.01.2020
3371 Clouds 11 1004 76 10000 9.8 230 16:57 31.01.2020
3372 Clouds 11 1004 76 10000 9.8 230 16:38 31.01.2020
3373 Clouds 11 1005 76 10000 8.7 230 16:19 31.01.2020
3374 Clouds 11 1005 71 10000 8.2 230 15:58 31.01.2020
3375 Clouds 11 1005 71 10000 8.2 230 15:40 31.01.2020
3376 Clouds 11 1004 71 10000 9.3 240 15:20 31.01.2020
3377 Clouds 11 1005 76 10000 8.2 240 14:44 31.01.2020
3378 Clouds 11 1005 76 10000 8.7 250 14:24 31.01.2020
3379 Clouds 11 1005 76 10000 8.2 240 13:56 31.01.2020
3380 Clouds 11 1005 76 10000 8.2 240 13:38 31.01.2020
3381 Clouds 11 1005 81 10000 9.3 250 13:20 31.01.2020
3382 Clouds 10 1005 81 10000 7.7 240 12:44 31.01.2020
3383 Clouds 10 1005 76 10000 8.7 250 12:24 31.01.2020
3384 Clouds 10 1005 76 10000 8.7 260 11:55 31.01.2020
3385 Clouds 10 1005 76 10000 8.7 260 11:37 31.01.2020
3386 Clouds 10 1005 76 10000 8.7 260 11:18 31.01.2020
3387 Clouds 10 1005 81 10000 7.2 250 10:43 31.01.2020
3388 Clouds 9 1005 81 10000 7.2 260 10:22 31.01.2020
3389 Clouds 9 1005 81 10000 7.2 260 10:22 31.01.2020
3390 Clouds 9 1005 81 10000 6.7 260 09:58 31.01.2020
3391 Clouds 9 1005 81 10000 6.7 260 09:39 31.01.2020
3392 Clouds 9 1005 81 10000 6.7 260 09:39 31.01.2020
3393 Clouds 9 1004 81 10000 7.7 260 09:39 31.01.2020
3394 Clouds 9 1004 81 10000 7.7 260 09:19 31.01.2020
3395 Clouds 9 1004 81 10000 6.7 260 08:53 31.01.2020
3396 Clouds 8 1004 87 10000 6.2 260 08:28 31.01.2020
3397 Clouds 8 1003 81 10000 7.2 260 07:58 31.01.2020
3398 Clouds 8 1003 81 10000 7.2 260 07:39 31.01.2020
3399 Clouds 8 1003 81 10000 7.7 270 07:18 31.01.2020
3400 Clouds 9 1001 76 10000 10.3 280 06:27 31.01.2020
3401 Clouds 9 1001 76 10000 10.3 280 06:27 31.01.2020
3402 Clouds 9 1001 76 10000 10.3 280 05:50 31.01.2020
3403 Clouds 10 1000 81 10000 7.7 280 04:57 31.01.2020
3404 Drizzle 10 998 81 10000 10.8 270 03:29 31.01.2020
3405 Drizzle 10 997 93 10000 7.2 260 01:40 31.01.2020
3406 Drizzle 10 995 93 4600 10.8 250 00:47 31.01.2020
3407 Drizzle 9 996 100 5000 8.7 240 00:28 31.01.2020
3408 Drizzle 9 995 93 5000 8.2 230 23:57 30.01.2020
3409 Drizzle 9 996 93 5000 7.7 220 23:26 30.01.2020
3410 Drizzle 9 996 93 6000 8.2 220 22:58 30.01.2020
3411 Drizzle 9 996 93 6000 8.2 220 22:38 30.01.2020
3412 Clouds 9 997 93 10000 8.2 220 22:19 30.01.2020
3413 Clouds 9 997 81 10000 8.2 220 21:57 30.01.2020
3414 Clouds 9 997 81 10000 8.2 220 21:39 30.01.2020
3415 Clouds 9 998 81 10000 7.2 210 21:18 30.01.2020
3416 Clouds 8 998 76 10000 6.2 200 20:55 30.01.2020
3417 Clouds 8 999 81 10000 7.2 200 20:37 30.01.2020
3418 Clouds 8 999 81 10000 7.2 200 20:18 30.01.2020
3419 Clouds 9 1000 76 10000 5.7 200 19:42 30.01.2020
3420 Clouds 8 999 81 10000 6.7 200 19:19 30.01.2020
3421 Clouds 8 1000 81 10000 5.7 200 18:58 30.01.2020
3422 Clouds 9 1001 76 10000 6.2 200 18:36 30.01.2020
3423 Clouds 9 1001 76 10000 6.2 200 18:18 30.01.2020
3424 Clouds 8 1001 76 10000 6.2 210 17:41 30.01.2020
3425 Clouds 8 1002 76 10000 4.6 210 17:19 30.01.2020
3426 Clouds 9 1003 76 10000 5.7 220 16:58 30.01.2020
3427 Clouds 9 1003 76 10000 5.7 220 16:39 30.01.2020
3428 Clouds 9 1003 76 10000 6.2 220 16:21 30.01.2020
3429 Clouds 9 1003 76 10000 6.2 220 15:44 30.01.2020
3430 Clouds 9 1004 81 10000 5.7 220 15:21 30.01.2020
3431 Clouds 9 1005 81 10000 6.7 230 14:58 30.01.2020
3432 Clouds 8 1005 81 10000 6.7 230 14:39 30.01.2020
3433 Clouds 9 1005 76 10000 6.7 240 14:20 30.01.2020
3434 Clouds 8 1005 81 10000 6.7 240 13:41 30.01.2020
3435 Clouds 8 1006 81 10000 7.2 240 13:23 30.01.2020
3436 Clouds 8 1006 81 10000 6.7 240 12:56 30.01.2020
3437 Drizzle 8 1006 81 10000 8.7 240 12:38 30.01.2020
3438 Drizzle 8 1006 81 10000 8.7 240 12:19 30.01.2020
3439 Clouds 8 1006 81 10000 8.2 240 11:41 30.01.2020
3440 Clouds 8 1006 81 10000 9.3 240 11:22 30.01.2020
3441 Clouds 8 1006 87 10000 8.7 240 10:59 30.01.2020
3442 Clouds 7 1006 87 10000 8.7 240 10:40 30.01.2020
3443 Clouds 7 1006 87 10000 8.7 240 10:20 30.01.2020
3444 Clouds 7 1006 87 10000 8.2 240 09:45 30.01.2020
3445 Clouds 7 1006 87 10000 8.7 240 09:26 30.01.2020
3446 Drizzle 7 1005 87 10000 8.2 240 08:43 30.01.2020
3447 Drizzle 7 1005 87 10000 9.3 240 08:22 30.01.2020
3448 Clouds 7 1005 87 10000 10.3 240 07:59 30.01.2020
3449 Clouds 7 1005 87 10000 10.3 240 07:41 30.01.2020
3450 Drizzle 7 1005 87 10000 9.8 240 07:19 30.01.2020
3451 Drizzle 7 1005 87 10000 9.8 250 06:45 30.01.2020
3452 Drizzle 7 1005 87 10000 9.8 250 06:26 30.01.2020
3453 Drizzle 7 1005 81 10000 9.8 240 05:39 30.01.2020
3454 Drizzle 6 1005 81 10000 9.8 240 05:19 30.01.2020
3455 Drizzle 6 1006 86 7000 8.7 230 03:48 30.01.2020
3456 Drizzle 5 1006 86 10000 8.7 230 03:24 30.01.2020
3457 Rain 5 1007 86 10000 7.7 220 01:41 30.01.2020
3458 Clouds 4 1007 86 10000 6.2 220 00:37 30.01.2020
3459 Clouds 4 1007 86 10000 6.2 220 00:19 30.01.2020
3460 Clouds 4 1007 86 10000 6.2 220 00:19 30.01.2020
3461 Clouds 4 1008 86 10000 5.7 220 23:44 29.01.2020
3462 Clouds 3 1008 93 10000 4.6 220 23:20 29.01.2020
3463 Clouds 3 1008 93 10000 5.7 230 22:56 29.01.2020
3464 Clouds 3 1007 93 10000 5.7 230 22:38 29.01.2020
3465 Clouds 3 1007 93 10000 5.7 230 22:19 29.01.2020
3466 Clouds 4 1007 86 10000 6.2 240 21:57 29.01.2020
3467 Clouds 4 1007 93 10000 6.2 240 21:38 29.01.2020
3468 Clouds 3 1007 93 10000 6.2 240 21:18 29.01.2020
3469 Clouds 3 1007 93 10000 5.1 240 20:57 29.01.2020
3470 Clouds 3 1007 93 10000 5.7 250 20:37 29.01.2020
3471 Clouds 3 1007 93 10000 5.7 250 20:18 29.01.2020
3472 Rain 3 1007 93 10000 6.2 250 19:55 29.01.2020
3473 Clouds 4 1006 93 10000 5.7 250 19:36 29.01.2020
3474 Clouds 4 1006 93 10000 5.7 250 19:18 29.01.2020
3475 Rain 4 1006 86 10000 5.1 250 18:42 29.01.2020
3476 Clouds 4 1005 86 10000 6.2 250 18:19 29.01.2020
3477 Clouds 4 1005 86 10000 5.7 260 17:55 29.01.2020
3478 Clouds 4 1004 86 10000 5.7 260 17:37 29.01.2020
3479 Clouds 4 1004 86 10000 5.7 260 17:18 29.01.2020
3480 Clouds 4 1004 93 10000 5.7 250 16:40 29.01.2020
3481 Rain 4 1003 93 10000 7.7 270 16:22 29.01.2020
3482 Rain 4 1003 93 10000 4.6 300 15:41 29.01.2020
3483 Rain 4 1002 93 10000 4.1 300 15:22 29.01.2020
3484 Rain 4 1002 93 10000 6.7 280 14:59 29.01.2020
3485 Rain 4 1002 93 10000 6.7 280 14:41 29.01.2020
3486 Rain 4 1001 86 10000 8.7 260 14:20 29.01.2020
3487 Rain 5 1001 86 10000 8.7 250 13:41 29.01.2020
3488 Clouds 5 1001 93 10000 8.2 240 13:22 29.01.2020
3489 Clouds 5 1001 86 10000 9.3 250 12:59 29.01.2020
3490 Rain 5 1000 86 10000 6.2 250 12:39 29.01.2020
3491 Rain 5 1000 86 10000 6.2 250 12:21 29.01.2020
3492 Rain 5 1000 86 5000 6.2 270 11:58 29.01.2020
3493 Rain 5 1000 86 5000 6.2 270 11:40 29.01.2020
3494 Rain 5 1000 80 10000 9.8 240 11:20 29.01.2020
3495 Clouds 5 1000 80 10000 9.3 250 10:46 29.01.2020
3496 Clouds 5 999 80 10000 8.7 250 10:22 29.01.2020
3497 Clouds 5 998 80 10000 9.8 240 09:57 29.01.2020
3498 Clouds 5 998 80 10000 9.8 240 09:39 29.01.2020
3499 Clouds 5 998 80 10000 9.8 240 09:18 29.01.2020
3500 Clouds 5 998 80 10000 8.7 240 08:42 29.01.2020
3501 Clouds 5 998 80 10000 8.7 240 08:42 29.01.2020
3502 Clouds 5 998 86 10000 9.3 240 08:22 29.01.2020
3503 Rain 4 998 93 10000 9.3 240 07:45 29.01.2020
3504 Rain 4 997 93 10000 8.7 240 07:26 29.01.2020
3505 Clouds 4 997 93 10000 9.8 240 06:56 29.01.2020
3506 Clouds 4 997 93 10000 9.8 240 06:56 29.01.2020
3507 Clouds 4 997 93 10000 9.8 240 06:37 29.01.2020
3508 Rain 4 997 86 10000 7.7 240 06:19 29.01.2020
3509 Rain 4 997 86 10000 7.2 240 05:50 29.01.2020
3510 Clouds 4 996 86 10000 7.7 240 05:31 29.01.2020
3511 Clouds 4 996 86 10000 6.2 240 04:38 29.01.2020
3512 Clouds 4 996 93 10000 7.2 240 03:59 29.01.2020
3513 Clouds 3 995 86 10000 7.2 240 02:34 29.01.2020
3514 Clouds 3 994 94 0 2.68 255 01:18 29.01.2020
3515 Rain 3 995 93 10000 6.2 240 00:39 29.01.2020
3516 Rain 3 995 93 10000 5.1 250 00:20 29.01.2020
3517 Clouds 3 995 93 0 5.1 250 23:40 28.01.2020
3518 Rain 3 995 93 10000 6.2 260 23:19 28.01.2020
3519 Rain 3 994 80 10000 9.8 250 22:51 28.01.2020
3520 Clouds 3 994 80 10000 8.7 250 22:27 28.01.2020
3521 Clouds 4 994 80 10000 9.8 250 21:58 28.01.2020
3522 Clouds 4 994 80 10000 9.8 250 21:39 28.01.2020
3523 Clouds 4 993 80 10000 9.3 250 21:20 28.01.2020
3524 Clouds 4 993 80 10000 10.8 250 20:46 28.01.2020
3525 Clouds 4 993 80 10000 9.3 250 20:27 28.01.2020
3526 Clouds 4 992 86 10000 10.3 250 19:58 28.01.2020
3527 Clouds 4 992 86 10000 10.3 250 19:38 28.01.2020
3528 Rain 4 992 86 10000 12.3 250 19:19 28.01.2020
3529 Rain 4 992 86 10000 12.3 250 19:19 28.01.2020
3530 Rain 4 991 86 10000 12.9 250 18:54 28.01.2020
3531 Rain 4 991 86 10000 11.3 250 18:36 28.01.2020
3532 Rain 4 991 86 10000 11.3 250 18:18 28.01.2020
3533 Rain 4 990 86 10000 10.3 240 17:55 28.01.2020
3534 Rain 4 990 86 10000 10.8 240 17:36 28.01.2020
3535 Rain 4 990 86 10000 10.8 240 17:18 28.01.2020
3536 Rain 4 989 86 10000 11.8 250 16:44 28.01.2020
3537 Rain 4 989 86 10000 12.3 250 16:26 28.01.2020
3538 Rain 4 988 86 10000 13.4 240 15:59 28.01.2020
3539 Rain 4 988 86 10000 13.4 240 15:40 28.01.2020
3540 Rain 5 987 86 10000 10.8 230 15:18 28.01.2020
3541 Rain 5 987 86 10000 9.3 230 14:44 28.01.2020
3542 Rain 5 987 86 10000 9.3 230 14:20 28.01.2020
3543 Rain 5 987 86 10000 8.7 230 13:43 28.01.2020
3544 Rain 5 987 81 10000 9.8 220 13:25 28.01.2020
3545 Rain 6 987 87 10000 7.2 220 12:58 28.01.2020
3546 Rain 6 987 87 10000 7.2 220 12:40 28.01.2020
3547 Rain 6 987 87 10000 7.7 200 12:22 28.01.2020
3548 Clouds 6 987 87 10000 5.7 190 11:42 28.01.2020
3549 Clouds 6 987 87 10000 5.1 180 11:22 28.01.2020
3550 Clouds 6 987 87 10000 4.6 180 10:55 28.01.2020
3551 Clouds 6 988 87 10000 5.7 190 10:37 28.01.2020
3552 Clouds 6 988 87 10000 5.7 190 10:18 28.01.2020
3553 Clouds 6 988 87 10000 4.6 200 09:42 28.01.2020
3554 Clouds 6 988 87 10000 5.7 200 09:20 28.01.2020
3555 Clouds 6 989 87 10000 6.2 210 08:46 28.01.2020
3556 Clouds 6 989 87 10000 6.7 210 08:26 28.01.2020
3557 Clouds 6 989 87 10000 4.6 200 07:57 28.01.2020
3558 Clouds 6 989 81 10000 3.1 200 07:36 28.01.2020
3559 Clouds 6 989 81 10000 4.6 230 06:49 28.01.2020
3560 Clouds 6 985 99 0 6.35 216 06:25 28.01.2020
3561 Clouds 6 990 81 10000 6.7 230 05:53 28.01.2020
3562 Rain 6 990 87 10000 6.2 210 05:25 28.01.2020
3563 Rain 6 991 93 10000 6.7 150 03:59 28.01.2020
3564 Rain 5 992 93 10000 4.6 140 02:58 28.01.2020
3565 Clouds 6 993 93 10000 5.7 150 02:25 28.01.2020
3566 Clouds 5 994 93 10000 5.7 150 01:57 28.01.2020
3567 Clouds 5 995 93 10000 4.6 140 01:24 28.01.2020
3568 Clouds 5 995 93 10000 4.1 140 00:48 28.01.2020
3569 Clouds 5 996 93 10000 4.1 130 00:28 28.01.2020
3570 Clouds 5 997 93 10000 3.6 150 23:49 27.01.2020
3571 Clouds 5 997 93 10000 3.6 160 23:30 27.01.2020
3572 Clouds 6 998 93 10000 4.1 170 22:56 27.01.2020
3573 Clouds 6 998 93 10000 4.1 170 22:38 27.01.2020
3574 Clouds 6 998 100 10000 3.6 150 22:18 27.01.2020
3575 Clouds 7 999 93 10000 3.6 170 21:54 27.01.2020
3576 Clouds 7 1000 93 10000 3.6 180 21:36 27.01.2020
3577 Clouds 7 1000 93 10000 3.6 180 21:18 27.01.2020
3578 Rain 7 1000 93 0 2.6 180 20:43 27.01.2020
3579 Clouds 7 1001 100 10000 3.1 180 20:22 27.01.2020
3580 Clouds 7 1001 100 9000 3.1 180 19:59 27.01.2020
3581 Clouds 7 1001 100 9000 3.1 180 19:41 27.01.2020
3582 Drizzle 7 1001 100 5000 3.6 180 19:22 27.01.2020
3583 Drizzle 7 1002 100 6000 3.6 170 18:56 27.01.2020
3584 Drizzle 7 1002 100 6000 3.6 170 18:38 27.01.2020
3585 Drizzle 8 1002 100 4500 3.1 180 18:19 27.01.2020
3586 Clouds 8 1002 93 8000 4.1 170 17:39 27.01.2020
3587 Clouds 8 1003 93 10000 5.7 170 17:21 27.01.2020
3588 Clouds 8 1003 93 10000 5.7 170 16:59 27.01.2020
3589 Clouds 8 1003 93 10000 5.7 170 16:41 27.01.2020
3590 Clouds 8 1003 81 10000 4.6 180 16:23 27.01.2020
3591 Clouds 8 1004 81 10000 4.6 200 15:55 27.01.2020
3592 Clouds 8 1004 81 10000 4.1 200 15:37 27.01.2020
3593 Clouds 8 1004 81 10000 4.1 200 15:37 27.01.2020
3594 Clouds 8 1004 81 10000 4.1 200 15:18 27.01.2020
3595 Clouds 8 1004 87 10000 4.6 200 14:42 27.01.2020
3596 Clouds 8 1005 93 10000 4.1 200 14:22 27.01.2020
3597 Drizzle 8 1005 93 7000 4.6 200 13:58 27.01.2020
3598 Drizzle 8 1005 93 7000 4.6 200 13:40 27.01.2020
3599 Drizzle 8 1005 93 7000 4.6 200 13:20 27.01.2020
3600 Drizzle 8 1006 87 6000 5.1 200 12:55 27.01.2020
3601 Clouds 8 1006 87 6000 5.1 200 12:37 27.01.2020
3602 Clouds 8 1006 87 6000 5.1 200 12:18 27.01.2020
3603 Clouds 7 1006 93 7000 5.1 200 11:41 27.01.2020
3604 Clouds 7 1006 93 6000 5.1 200 11:21 27.01.2020
3605 Drizzle 7 1007 93 6000 5.7 200 10:43 27.01.2020
3606 Clouds 7 1007 93 7000 5.1 200 10:25 27.01.2020
3607 Clouds 7 1007 93 6000 5.1 200 09:57 27.01.2020
3608 Clouds 7 1007 93 6000 5.1 200 09:38 27.01.2020
3609 Drizzle 7 1007 93 5000 5.7 200 09:18 27.01.2020
3610 Clouds 6 1007 93 8000 6.2 200 08:43 27.01.2020
3611 Rain 6 1007 93 8000 5.1 190 08:22 27.01.2020
3612 Rain 6 1007 93 8000 4.1 190 07:54 27.01.2020
3613 Rain 6 1008 93 8000 5.1 190 07:35 27.01.2020
3614 Rain 6 1008 93 10000 5.1 190 06:53 27.01.2020
3615 Rain 6 1008 87 10000 5.1 180 06:27 27.01.2020
3616 Rain 6 1009 87 10000 5.1 180 05:28 27.01.2020
3617 Clouds 5 1010 86 10000 5.1 180 03:58 27.01.2020
3618 Clouds 4 1010 93 10000 4.1 170 02:43 27.01.2020
3619 Clouds 4 1011 86 10000 4.6 180 01:31 27.01.2020
3620 Clouds 4 1011 93 10000 2.6 160 00:59 27.01.2020
3621 Clouds 4 1012 93 10000 3.6 150 00:37 27.01.2020
3622 Clouds 4 1012 93 10000 3.6 150 00:19 27.01.2020
3623 Clouds 4 1012 93 10000 3.6 150 23:41 26.01.2020
3624 Clouds 4 1012 93 10000 2.6 140 23:19 26.01.2020
3625 Clouds 3 1012 86 10000 2.6 140 22:57 26.01.2020
3626 Clouds 3 1013 93 10000 2.1 140 22:37 26.01.2020
3627 Clouds 3 1013 93 10000 2.1 140 22:18 26.01.2020
3628 Clouds 3 1013 93 0 2.6 150 21:56 26.01.2020
3629 Clouds 2 1013 100 10000 2.6 140 21:38 26.01.2020
3630 Clouds 3 1013 100 10000 2.6 140 21:19 26.01.2020
3631 Clouds 3 1013 100 10000 2.6 140 21:19 26.01.2020
3632 Clouds 3 1013 100 10000 2.6 140 20:56 26.01.2020
3633 Clouds 3 1013 100 10000 2.6 140 20:38 26.01.2020
3634 Clouds 3 1013 93 10000 2.6 140 20:18 26.01.2020
3635 Clouds 3 1013 93 10000 3.1 150 19:57 26.01.2020
3636 Clouds 3 1013 93 10000 3.1 140 19:37 26.01.2020
3637 Clouds 3 1013 93 10000 3.1 140 19:18 26.01.2020
3638 Clouds 3 1014 93 10000 2.6 140 18:54 26.01.2020
3639 Clouds 3 1014 100 9000 3.1 140 18:36 26.01.2020
3640 Clouds 3 1014 100 9000 3.1 140 18:18 26.01.2020
3641 Clouds 3 1014 100 7000 3.1 130 17:54 26.01.2020
3642 Clouds 4 1014 93 6000 3.6 130 17:36 26.01.2020
3643 Clouds 4 1014 93 6000 3.6 130 17:18 26.01.2020
3644 Mist 4 1014 93 5000 3.1 130 16:54 26.01.2020
3645 Mist 4 1014 93 5000 3.6 150 16:36 26.01.2020
3646 Mist 4 1014 93 5000 3.6 150 16:18 26.01.2020
3647 Clouds 4 1014 97 0 1.34 136 15:41 26.01.2020
3648 Clouds 4 1013 97 0 1.79 171 15:19 26.01.2020
3649 Clouds 4 1011 99 0 3.24 166 14:41 26.01.2020
3650 Clouds 4 1014 97 0 1.34 176 14:23 26.01.2020
3651 Clouds 4 1014 97 0 0.89 155 13:59 26.01.2020
3652 Clouds 4 1014 97 0 0.89 155 13:59 26.01.2020
3653 Clouds 3 1014 97 0 1.34 170 13:38 26.01.2020
3654 Clouds 3 1015 97 0 1.34 167 13:18 26.01.2020
3655 Clouds 3 1014 99 0 1.34 139 12:43 26.01.2020
3656 Clouds 3 1014 99 0 1.34 139 12:43 26.01.2020
3657 Clouds 3 1012 99 0 3.84 177 12:25 26.01.2020
3658 Clouds 2 1016 96 0 1.79 128 11:59 26.01.2020
3659 Clouds 2 1013 99 0 3.84 177 11:40 26.01.2020
3660 Mist 2 1018 100 1300 4.6 150 11:19 26.01.2020
3661 Mist 2 1018 100 1300 4.6 150 10:59 26.01.2020
3662 Mist 1 1018 100 1300 4.6 150 10:39 26.01.2020
3663 Mist 1 1018 100 1300 4.6 150 10:21 26.01.2020
3664 Mist 1 1018 100 1800 4.6 160 09:59 26.01.2020
3665 Mist 1 1018 100 1800 4.6 160 09:41 26.01.2020
3666 Mist 1 1018 78 2200 3.6 150 09:22 26.01.2020
3667 Mist 1 1018 78 2800 4.1 140 08:55 26.01.2020
3668 Mist 1 1018 78 3800 3.6 140 08:37 26.01.2020
3669 Mist 1 1018 73 3800 3.6 140 08:18 26.01.2020
3670 Mist 1 1018 73 5000 4.1 170 07:45 26.01.2020
3671 Mist 1 1018 73 5000 4.1 160 07:22 26.01.2020
3672 Clouds 1 1018 73 6000 3.6 160 06:32 26.01.2020
3673 Clouds 1 1018 73 7000 3.6 180 05:37 26.01.2020
3674 Clouds 1 1018 71 7000 3.1 170 04:58 26.01.2020
3675 Clouds 1 1019 71 7000 2.1 180 02:59 26.01.2020
3676 Clouds 1 1019 76 7000 1.5 160 01:59 26.01.2020
3677 Clouds 1 1019 76 7000 1.5 160 01:39 26.01.2020
3678 Clouds 1 1020 76 7000 1.5 150 01:19 26.01.2020
3679 Clouds 0 1020 74 7000 2.1 150 00:39 26.01.2020
3680 Clouds 0 1020 74 7000 2.1 190 00:20 26.01.2020
3681 Clouds 1 1019 96 0 1.34 192 23:38 25.01.2020
3682 Clouds 1 1019 100 0 1.34 194 23:20 25.01.2020
3683 Clouds 1 1019 96 0 1.34 170 22:44 25.01.2020
3684 Clouds 1 1019 96 0 1.34 181 22:21 25.01.2020
3685 Clouds 1 1019 96 0 0.89 195 21:59 25.01.2020
3686 Clouds 1 1019 96 0 0.89 195 21:59 25.01.2020
3687 Clouds 1 1019 96 0 0.45 175 21:41 25.01.2020
3688 Clouds 1 1019 96 0 0.89 161 21:22 25.01.2020
3689 Clouds 1 1017 99 0 2.58 202 20:55 25.01.2020
3690 Clouds 1 1017 99 0 2.58 202 20:36 25.01.2020
3691 Clouds 0 1020 81 0 2.89 188 20:18 25.01.2020
3692 Clouds 0 1020 81 0 2.89 188 19:42 25.01.2020
3693 Clouds 2 1019 96 0 0.45 214 19:20 25.01.2020
3694 Clouds 2 1019 96 0 0.45 214 18:57 25.01.2020
3695 Clouds 2 1016 99 0 2.87 193 18:57 25.01.2020
3696 Clouds 2 1019 96 0 0.89 217 18:38 25.01.2020
3697 Clouds 2 1019 96 0 0.45 197 18:20 25.01.2020
3698 Clouds 2 1016 99 0 2.87 193 17:42 25.01.2020
3699 Clouds 2 1019 96 0 0.45 187 17:23 25.01.2020
3700 Clouds 2 1019 96 0 0.45 201 16:58 25.01.2020
3701 Clouds 2 1019 96 0 1.34 216 16:40 25.01.2020
3702 Clouds 2 1016 99 0 1.68 218 16:21 25.01.2020
3703 Clouds 3 1019 97 0 0.45 233 15:55 25.01.2020
3704 Clouds 3 1016 99 0 1.68 218 15:37 25.01.2020
3705 Clouds 3 1019 96 0 1.34 213 15:18 25.01.2020
3706 Clouds 3 1017 99 0 1.68 218 14:41 25.01.2020
3707 Clouds 3 1020 97 0 3.34 234 14:19 25.01.2020
3708 Clouds 2 1020 97 0 0.89 238 13:43 25.01.2020
3709 Clouds 2 1017 99 0 3.4 224 13:25 25.01.2020
3710 Mist 2 1022 93 4500 4.1 230 12:50 25.01.2020
3711 Mist 2 1022 93 4500 4.1 230 12:30 25.01.2020
3712 Mist 2 1022 93 4500 4.1 230 11:57 25.01.2020
3713 Mist 2 1022 93 4500 4.1 230 11:38 25.01.2020
3714 Mist 2 1021 93 4000 4.6 220 11:19 25.01.2020
3715 Mist 2 1021 93 3600 3.6 230 10:42 25.01.2020
3716 Mist 2 1021 93 3400 3.6 220 10:21 25.01.2020
3717 Mist 2 1021 93 3100 2.6 230 09:59 25.01.2020
3718 Mist 2 1021 93 3100 2.6 230 09:38 25.01.2020
3719 Mist 2 1021 93 3100 3.1 230 09:19 25.01.2020
3720 Drizzle 1 1021 93 2500 3.1 220 08:42 25.01.2020
3721 Drizzle 1 1021 93 2500 3.1 220 08:42 25.01.2020
3722 Mist 1 1021 93 4800 3.1 220 07:54 25.01.2020
3723 Mist 1 1020 93 4800 3.1 220 07:28 25.01.2020
3724 Drizzle 1 1020 93 3500 3.6 220 06:31 25.01.2020
3725 Drizzle 2 1020 93 4000 2.6 240 05:57 25.01.2020
3726 Drizzle 2 1020 93 4000 2.6 240 05:38 25.01.2020
3727 Clouds 2 1021 93 6000 2.1 240 03:58 25.01.2020
3728 Clouds 2 1021 93 6000 2.1 240 03:39 25.01.2020
3729 Drizzle 2 1021 93 4500 3.1 210 02:36 25.01.2020
3730 Drizzle 1 1021 100 4500 3.1 230 01:57 25.01.2020
3731 Drizzle 1 1021 100 4500 4.1 220 01:23 25.01.2020
3732 Drizzle 1 1021 100 3500 4.1 220 00:39 25.01.2020
3733 Drizzle 1 1021 100 3200 3.1 210 00:18 25.01.2020
3734 Drizzle 1 1022 78 3800 3.1 220 23:42 24.01.2020
3735 Drizzle 1 1022 78 3800 3.1 220 23:42 24.01.2020
3736 Drizzle 1 1022 78 4000 3.6 230 23:24 24.01.2020
3737 Mist 1 1022 73 5000 3.1 220 22:46 24.01.2020
3738 Mist 1 1022 73 5000 3.6 230 22:28 24.01.2020
3739 Mist 1 1022 73 4500 4.6 210 21:59 24.01.2020
3740 Mist 1 1022 73 4500 4.6 210 21:40 24.01.2020
3741 Drizzle 1 1022 73 4000 3.6 230 21:19 24.01.2020
3742 Mist 1 1022 73 4000 5.1 210 20:44 24.01.2020
3743 Drizzle 1 1022 73 4000 4.6 220 20:22 24.01.2020
3744 Mist 1 1022 93 5000 3.6 220 19:59 24.01.2020
3745 Mist 2 1022 93 5000 3.6 220 19:40 24.01.2020
3746 Mist 2 1022 93 4500 3.1 210 19:22 24.01.2020
3747 Mist 1 1022 93 4200 3.1 240 18:57 24.01.2020
3748 Mist 2 1022 93 4200 3.1 240 18:39 24.01.2020
3749 Mist 2 1021 93 4200 3.6 220 18:21 24.01.2020
3750 Drizzle 2 1022 93 2500 3.6 220 17:42 24.01.2020
3751 Drizzle 2 1021 93 2000 3.6 220 17:21 24.01.2020
3752 Mist 2 1021 93 4000 3.6 210 16:57 24.01.2020
3753 Mist 2 1021 93 4000 3.6 210 16:38 24.01.2020
3754 Mist 2 1021 93 4200 4.6 220 16:18 24.01.2020
3755 Mist 2 1021 93 3800 4.6 240 15:41 24.01.2020
3756 Mist 2 1021 93 2800 5.7 220 15:21 24.01.2020
3757 Drizzle 2 1021 100 2000 4.6 210 14:42 24.01.2020
3758 Mist 2 1022 100 2200 4.6 230 14:24 24.01.2020
3759 Mist 2 1022 93 2200 5.1 220 13:59 24.01.2020
3760 Mist 2 1022 93 2200 5.1 220 13:40 24.01.2020
3761 Mist 2 1022 93 2200 4.6 230 13:21 24.01.2020
3762 Mist 1 1022 93 2200 4.6 220 12:42 24.01.2020
3763 Mist 1 1023 100 1800 4.6 220 12:20 24.01.2020
3764 Mist 1 1022 100 1400 4.1 210 11:45 24.01.2020
3765 Drizzle 1 1023 100 1300 3.6 220 11:19 24.01.2020
3766 Drizzle 1 1023 100 1300 3.6 220 11:19 24.01.2020
3767 Drizzle 1 1023 100 1300 3.1 230 10:58 24.01.2020
3768 Drizzle 1 1023 100 1300 3.1 230 10:40 24.01.2020
3769 Drizzle 1 1023 100 1500 2.6 230 10:19 24.01.2020
3770 Mist 0 1023 86 1900 2.1 260 09:41 24.01.2020
3771 Mist 0 1023 86 1500 2.1 270 09:23 24.01.2020
3772 Drizzle 0 1023 86 1100 2.6 280 08:41 24.01.2020
3773 Drizzle 0 1023 86 1100 2.6 280 08:41 24.01.2020
3774 Fog 0 1023 92 500 2.1 240 08:21 24.01.2020
3775 Fog 0 1023 92 450 2.6 230 07:58 24.01.2020
3776 Fog 0 1023 92 450 2.6 230 07:39 24.01.2020
3777 Fog 0 1023 100 200 1.5 210 06:54 24.01.2020
3778 Fog 0 1023 100 200 1.5 200 06:33 24.01.2020
3779 Fog 0 1023 100 200 2.1 280 05:59 24.01.2020
3780 Fog -1 1023 100 200 2.1 250 05:18 24.01.2020
3781 Fog -1 1025 100 200 1.5 290 02:54 24.01.2020
3782 Fog -1 1025 100 300 2.1 300 02:27 24.01.2020
3783 Fog -1 1026 100 700 2.6 290 01:56 24.01.2020
3784 Fog -1 1026 92 700 1.5 290 01:35 24.01.2020
3785 Clear -1 1026 100 6000 2.1 310 00:39 24.01.2020
3786 Clear 0 1025 91 0 1.61 205 23:58 23.01.2020
3787 Clear 0 1025 91 0 1.61 205 23:58 23.01.2020
3788 Mist 0 1026 100 2300 2.1 300 23:40 23.01.2020
3789 Fog 0 1027 100 300 1 270 23:21 23.01.2020
3790 Clear 0 1027 92 6000 0.5 0 22:58 23.01.2020
3791 Clouds 0 1027 100 8000 1.24 219 22:36 23.01.2020
3792 Clouds 0 1027 100 8000 1.24 219 22:18 23.01.2020
3793 Clouds 1 1028 91 8000 1 290 21:55 23.01.2020
3794 Clear 1 1028 91 10000 1 220 21:37 23.01.2020
3795 Clear 1 1028 91 10000 1 220 21:18 23.01.2020
3796 Clouds 1 1028 91 10000 1.5 240 20:41 23.01.2020
3797 Clouds 1 1028 92 10000 1 180 20:22 23.01.2020
3798 Clouds 2 1028 93 10000 0.5 160 19:57 23.01.2020
3799 Clouds 2 1028 93 10000 0.5 160 19:39 23.01.2020
3800 Clouds 2 1028 93 10000 0.5 160 19:39 23.01.2020
3801 Clear 2 1029 93 10000 0.5 180 19:21 23.01.2020
3802 Clouds 2 1029 93 10000 1 180 18:57 23.01.2020
3803 Clouds 2 1029 93 10000 1 180 18:38 23.01.2020
3804 Clouds 3 1029 86 10000 1 190 18:19 23.01.2020
3805 Clouds 3 1029 86 10000 1.5 270 17:55 23.01.2020
3806 Clouds 4 1029 80 10000 2.1 240 17:37 23.01.2020
3807 Clouds 4 1029 80 10000 2.1 240 17:18 23.01.2020
3808 Clouds 5 1029 80 10000 2.6 220 16:39 23.01.2020
3809 Clouds 6 1030 75 10000 3.1 210 16:20 23.01.2020
3810 Clouds 6 1030 75 10000 3.1 210 16:20 23.01.2020
3811 Clouds 5 1030 80 10000 2.6 230 15:58 23.01.2020
3812 Clouds 6 1030 80 10000 2.6 230 15:39 23.01.2020
3813 Clouds 6 1030 75 10000 3.1 240 15:19 23.01.2020
3814 Clouds 6 1031 65 10000 3.6 220 14:58 23.01.2020
3815 Clouds 6 1031 65 10000 3.6 220 14:40 23.01.2020
3816 Clouds 6 1031 70 10000 3.6 240 14:22 23.01.2020
3817 Clouds 6 1031 70 10000 3.6 220 13:56 23.01.2020
3818 Clouds 6 1032 70 10000 3.6 220 13:37 23.01.2020
3819 Clouds 6 1032 70 10000 3.6 220 13:18 23.01.2020
3820 Clear 6 1032 70 10000 3.1 200 12:43 23.01.2020
3821 Clouds 6 1033 87 10000 2.1 220 12:24 23.01.2020
3822 Clouds 5 1033 86 10000 1 220 11:56 23.01.2020
3823 Clouds 5 1033 86 10000 1 220 11:37 23.01.2020
3824 Clouds 5 1033 86 10000 1 220 11:37 23.01.2020
3825 Clouds 4 1033 93 10000 1.5 220 11:18 23.01.2020
3826 Clouds 4 1033 93 10000 1.5 220 11:18 23.01.2020
3827 Clouds 4 1034 93 10000 1.5 250 10:43 23.01.2020
3828 Clouds 4 1034 93 10000 1 0 10:19 23.01.2020
3829 Clouds 3 1034 100 10000 0.5 190 09:43 23.01.2020
3830 Clouds 3 1034 100 10000 1 0 09:25 23.01.2020
3831 Fog 3 1034 100 10000 1.5 190 08:59 23.01.2020
3832 Fog 2 1034 100 10000 1.5 190 08:40 23.01.2020
3833 Clouds 3 1034 100 10000 1 230 08:22 23.01.2020
3834 Clouds 3 1034 100 10000 0.5 0 07:45 23.01.2020
3835 Clouds 3 1034 93 10000 1 0 07:26 23.01.2020
3836 Clouds 3 1034 93 10000 0.5 0 06:51 23.01.2020
3837 Clouds 4 1034 93 10000 0.5 0 06:22 23.01.2020
3838 Clouds 4 1034 93 10000 0.5 0 05:44 23.01.2020
3839 Clouds 4 1035 93 10000 0.5 0 04:24 23.01.2020
3840 Clouds 4 1035 93 10000 1 0 02:34 23.01.2020
3841 Clouds 4 1036 93 10000 1.5 0 01:32 23.01.2020
3842 Clouds 3 1036 100 10000 1 0 00:27 23.01.2020
3843 Clouds 3 1036 100 10000 2.1 240 23:48 22.01.2020
3844 Clouds 3 1036 100 10000 1.5 240 23:30 22.01.2020
3845 Fog 3 1035 100 10000 1.5 260 22:59 22.01.2020
3846 Fog 3 1035 100 10000 1.5 260 22:40 22.01.2020
3847 Fog 3 1035 100 1800 1.5 250 22:22 22.01.2020
3848 Fog 3 1035 100 10000 1.5 250 21:40 22.01.2020
3849 Clouds 3 1035 100 10000 2.6 280 21:22 22.01.2020
3850 Clouds 3 1035 100 10000 2.1 280 20:57 22.01.2020
3851 Clouds 3 1035 100 10000 2.1 280 20:39 22.01.2020
3852 Clouds 4 1035 100 10000 2.6 300 20:21 22.01.2020
3853 Clouds 4 1035 93 10000 2.6 280 19:57 22.01.2020
3854 Clouds 4 1035 93 10000 2.6 280 19:38 22.01.2020
3855 Clouds 5 1035 93 10000 2.1 290 19:18 22.01.2020
3856 Clouds 5 1035 93 10000 2.6 280 18:56 22.01.2020
3857 Clouds 5 1035 93 10000 2.6 280 18:38 22.01.2020
3858 Clouds 5 1033 91 0 2.52 317 18:19 22.01.2020
3859 Clouds 5 1033 90 0 2.52 317 17:54 22.01.2020
3860 Clouds 6 1033 81 10000 3.6 330 17:36 22.01.2020
3861 Clouds 6 1033 81 10000 3.6 330 17:18 22.01.2020
3862 Clouds 6 1033 81 10000 3.6 330 17:18 22.01.2020
3863 Clouds 7 1033 81 10000 3.6 320 16:43 22.01.2020
3864 Clouds 7 1033 75 10000 4.1 330 16:23 22.01.2020
3865 Clouds 7 1033 75 10000 4.6 320 15:58 22.01.2020
3866 Clouds 7 1033 75 10000 4.6 320 15:39 22.01.2020
3867 Clouds 7 1034 81 10000 3.1 310 15:21 22.01.2020
3868 Clouds 7 1034 87 10000 5.1 320 14:56 22.01.2020
3869 Clouds 7 1034 87 10000 3.1 310 14:36 22.01.2020
3870 Clouds 7 1034 87 10000 3.1 310 14:18 22.01.2020
3871 Clouds 7 1034 93 10000 4.1 310 13:54 22.01.2020
3872 Drizzle 7 1034 93 6000 4.6 290 13:36 22.01.2020
3873 Drizzle 6 1034 93 6000 4.6 290 13:18 22.01.2020
3874 Clouds 6 1034 93 6000 3.6 280 12:54 22.01.2020
3875 Drizzle 6 1034 100 4200 3.6 280 12:36 22.01.2020
3876 Drizzle 6 1034 100 4200 3.6 280 12:18 22.01.2020
3877 Drizzle 6 1034 100 3600 3.6 290 11:54 22.01.2020
3878 Drizzle 6 1034 100 2300 4.1 280 11:36 22.01.2020
3879 Drizzle 5 1034 100 2300 4.1 280 11:18 22.01.2020
3880 Drizzle 5 1034 93 3600 3.6 270 10:42 22.01.2020
3881 Drizzle 5 1034 100 1800 3.6 260 10:19 22.01.2020
3882 Drizzle 5 1034 100 1400 3.1 280 09:43 22.01.2020
3883 Mist 4 1034 93 2000 3.1 270 09:24 22.01.2020
3884 Mist 4 1033 100 2300 3.6 260 08:57 22.01.2020
3885 Mist 4 1033 100 2300 3.6 260 08:57 22.01.2020
3886 Mist 4 1033 100 2300 3.6 260 08:39 22.01.2020
3887 Mist 4 1033 100 4000 4.1 270 08:21 22.01.2020
3888 Drizzle 4 1033 100 4000 4.1 270 07:54 22.01.2020
3889 Mist 4 1033 100 4000 4.1 260 07:36 22.01.2020
3890 Mist 4 1033 100 4000 4.1 260 07:18 22.01.2020
3891 Drizzle 4 1033 93 2800 4.1 250 06:30 22.01.2020
3892 Drizzle 4 1033 93 3500 4.1 260 05:41 22.01.2020
3893 Clouds 4 1035 93 10000 4.1 250 04:18 22.01.2020
3894 Clouds 4 1035 93 10000 4.1 260 03:22 22.01.2020
3895 Clouds 4 1036 93 10000 4.1 250 01:44 22.01.2020
3896 Clouds 4 1036 93 10000 3.1 250 00:44 22.01.2020
3897 Clouds 4 1036 86 10000 3.6 240 00:26 22.01.2020
3898 Clouds 4 1036 86 10000 3.1 240 23:39 21.01.2020
3899 Clouds 4 1036 93 10000 3.1 250 23:21 21.01.2020
3900 Clouds 4 1037 93 10000 3.1 260 22:59 21.01.2020
3901 Clouds 4 1037 93 10000 3.1 260 22:39 21.01.2020
3902 Clouds 4 1037 86 10000 3.1 260 22:20 21.01.2020
3903 Clouds 4 1037 86 10000 3.6 240 21:56 21.01.2020
3904 Clouds 4 1037 86 10000 4.1 240 21:37 21.01.2020
3905 Clouds 4 1037 86 10000 4.1 240 21:19 21.01.2020
3906 Clouds 4 1037 86 10000 3.1 240 20:55 21.01.2020
3907 Clouds 4 1038 93 10000 2.6 250 20:37 21.01.2020
3908 Clouds 4 1038 93 10000 2.6 250 20:18 21.01.2020
3909 Clouds 4 1038 93 10000 2.6 250 20:18 21.01.2020
3910 Clouds 4 1038 93 10000 2.1 240 19:55 21.01.2020
3911 Clouds 3 1037 93 10000 1 0 19:37 21.01.2020
3912 Clouds 3 1037 93 10000 1 0 19:19 21.01.2020
3913 Clouds 3 1037 93 9000 2.6 210 18:55 21.01.2020
3914 Clouds 3 1037 86 9000 2.6 240 18:36 21.01.2020
3915 Clouds 3 1037 86 9000 2.6 240 18:18 21.01.2020
3916 Clouds 4 1038 86 10000 4.1 260 17:43 21.01.2020
3917 Clouds 4 1038 86 10000 4.1 260 17:20 21.01.2020
3918 Clouds 5 1039 80 10000 4.6 280 16:58 21.01.2020
3919 Clouds 5 1039 80 10000 5.1 300 16:37 21.01.2020
3920 Clouds 5 1039 80 10000 5.1 300 16:18 21.01.2020
3921 Clouds 5 1039 75 10000 5.7 310 15:42 21.01.2020
3922 Clouds 6 1039 75 10000 4.6 260 15:21 21.01.2020
3923 Clouds 6 1039 81 10000 5.7 270 14:59 21.01.2020
3924 Clouds 6 1040 75 10000 4.6 260 14:38 21.01.2020
3925 Clouds 6 1040 75 10000 4.6 260 14:19 21.01.2020
3926 Clouds 6 1040 75 10000 5.1 250 13:40 21.01.2020
3927 Clouds 6 1040 75 10000 5.7 270 13:19 21.01.2020
3928 Clear 5 1041 75 10000 6.2 270 12:44 21.01.2020
3929 Clear 5 1040 80 10000 4.6 250 12:25 21.01.2020
3930 Clear 4 1041 80 10000 3.6 240 11:58 21.01.2020
3931 Clear 4 1041 80 10000 3.6 240 11:40 21.01.2020
3932 Clear 4 1041 86 10000 3.6 240 11:21 21.01.2020
3933 Clear 3 1041 86 10000 3.6 240 10:55 21.01.2020
3934 Clear 3 1041 93 8000 3.6 250 10:37 21.01.2020
3935 Clear 2 1041 93 8000 3.6 250 10:18 21.01.2020
3936 Clear 1 1041 84 7000 3.1 240 09:41 21.01.2020
3937 Clear 1 1041 84 6000 3.6 240 09:22 21.01.2020
3938 Clear 1 1041 84 6000 4.6 230 08:50 21.01.2020
3939 Clouds 1 1041 100 6000 4.1 230 08:30 21.01.2020
3940 Mist 1 1041 90 4000 3.1 230 07:59 21.01.2020
3941 Mist 2 1041 90 4000 3.1 230 07:40 21.01.2020
3942 Mist 2 1041 90 4000 3.1 230 07:40 21.01.2020
3943 Mist 2 1041 100 3000 3.6 220 07:21 21.01.2020
3944 Clouds 2 1041 100 10000 4.1 230 06:49 21.01.2020
3945 Clouds 2 1041 93 7000 4.1 220 06:29 21.01.2020
3946 Mist 2 1041 100 4800 4.1 230 05:42 21.01.2020
3947 Mist 2 1041 100 4500 4.1 230 04:40 21.01.2020
3948 Clear 3 1042 93 10000 3.6 230 02:56 21.01.2020
3949 Clouds 3 1043 93 10000 3.6 220 01:55 21.01.2020
3950 Clouds 4 1043 93 10000 3.6 220 01:18 21.01.2020
3951 Clouds 4 1043 93 10000 3.6 220 00:37 21.01.2020
3952 Clouds 4 1044 93 10000 3.6 230 23:59 20.01.2020
3953 Clouds 4 1044 93 10000 3.6 230 23:41 20.01.2020
3954 Clouds 4 1044 93 10000 3.1 220 23:19 20.01.2020
3955 Clouds 4 1044 93 10000 3.1 230 22:58 20.01.2020
3956 Clouds 4 1044 93 10000 3.1 230 22:38 20.01.2020
3957 Clouds 4 1044 93 10000 3.6 230 22:20 20.01.2020
3958 Clouds 4 1044 93 10000 3.6 230 22:20 20.01.2020
3959 Clouds 5 1044 93 10000 3.6 220 21:58 20.01.2020
3960 Clouds 4 1044 86 10000 3.6 220 21:37 20.01.2020
3961 Clouds 4 1044 86 10000 3.6 220 21:19 20.01.2020
3962 Clouds 5 1044 93 10000 3.6 210 20:56 20.01.2020
3963 Clouds 5 1044 93 10000 3.6 210 20:38 20.01.2020
3964 Clouds 4 1045 93 10000 3.1 220 20:18 20.01.2020
3965 Clouds 5 1045 93 10000 3.1 240 19:56 20.01.2020
3966 Clouds 5 1045 93 10000 3.1 240 19:38 20.01.2020
3967 Clouds 5 1045 93 10000 3.6 230 19:18 20.01.2020
3968 Clouds 5 1045 93 10000 3.6 220 18:44 20.01.2020
3969 Clouds 5 1045 93 10000 4.1 220 18:23 20.01.2020
3970 Clouds 5 1045 87 10000 3.6 220 17:58 20.01.2020
3971 Clouds 6 1045 87 10000 3.6 220 17:36 20.01.2020
3972 Clouds 6 1045 87 10000 3.6 220 17:36 20.01.2020
3973 Clouds 6 1045 87 10000 3.6 220 17:18 20.01.2020
3974 Clouds 6 1045 87 10000 3.6 230 16:43 20.01.2020
3975 Clouds 6 1045 87 10000 3.6 230 16:25 20.01.2020
3976 Clouds 6 1045 87 10000 4.1 230 15:58 20.01.2020
3977 Clouds 6 1045 87 10000 4.1 230 15:39 20.01.2020
3978 Clouds 6 1045 93 10000 4.1 230 15:21 20.01.2020
3979 Clouds 6 1045 93 10000 3.6 230 14:44 20.01.2020
3980 Clouds 6 1046 93 10000 3.6 230 14:25 20.01.2020
3981 Clouds 6 1046 87 10000 3.6 220 13:59 20.01.2020
3982 Clouds 6 1046 87 10000 3.6 220 13:40 20.01.2020
3983 Clouds 6 1046 87 10000 3.1 220 13:22 20.01.2020
3984 Clouds 6 1046 87 10000 3.1 220 12:48 20.01.2020
3985 Clouds 6 1047 93 10000 3.1 230 12:29 20.01.2020
3986 Clouds 5 1047 93 10000 2.6 230 11:59 20.01.2020
3987 Clouds 5 1047 93 10000 2.6 230 11:40 20.01.2020
3988 Clouds 5 1047 93 10000 2.1 250 11:22 20.01.2020
3989 Clouds 5 1046 100 9000 1.5 230 10:57 20.01.2020
3990 Clouds 4 1046 100 9000 1.5 230 10:39 20.01.2020
3991 Clouds 4 1046 100 8000 1.5 230 10:19 20.01.2020
3992 Clouds 4 1046 100 8000 1 0 09:41 20.01.2020
3993 Clouds 4 1046 100 8000 1 0 09:41 20.01.2020
3994 Clouds 4 1046 100 8000 1.5 260 09:22 20.01.2020
3995 Clouds 3 1046 100 8000 2.1 280 08:51 20.01.2020
3996 Clouds 3 1045 100 7000 1.5 260 08:31 20.01.2020
3997 Mist 3 1045 100 4500 1 230 07:55 20.01.2020
3998 Mist 3 1045 100 1500 1.5 220 07:31 20.01.2020
3999 Mist 3 1045 93 1800 1 260 06:59 20.01.2020
4000 Mist 3 1045 93 1800 1 260 06:59 20.01.2020
4001 Mist 3 1045 100 2500 1.5 220 06:34 20.01.2020
4002 Mist 3 1045 93 4500 2.1 230 05:56 20.01.2020
4003 Mist 3 1045 100 4500 2.1 250 05:37 20.01.2020
4004 Mist 3 1045 100 4500 2.1 250 05:18 20.01.2020
4005 Clouds 3 1045 100 8000 1.5 260 03:46 20.01.2020
4006 Clouds 3 1044 100 10000 2.6 300 01:58 20.01.2020
4007 Clouds 3 1044 100 10000 2.6 300 01:38 20.01.2020
4008 Clouds 3 1044 93 7000 1.5 280 00:46 20.01.2020
4009 Clouds 3 1044 100 8000 1.5 270 00:27 20.01.2020
4010 Clouds 3 1044 93 10000 3.1 300 23:55 19.01.2020
4011 Clouds 3 1043 100 10000 2.1 300 23:36 19.01.2020
4012 Clouds 3 1043 100 10000 2.1 300 23:18 19.01.2020
4013 Clouds 3 1043 93 10000 3.1 300 22:54 19.01.2020
4014 Clouds 3 1043 93 10000 2.6 300 22:36 19.01.2020
4015 Clouds 3 1043 93 10000 2.6 300 22:18 19.01.2020
4016 Clouds 3 1043 93 10000 2.6 300 21:55 19.01.2020
4017 Clouds 3 1043 93 10000 2.6 300 21:55 19.01.2020
4018 Clouds 4 1042 93 10000 3.6 300 21:36 19.01.2020
4019 Clouds 4 1042 93 10000 3.6 300 21:36 19.01.2020
4020 Clouds 4 1042 93 10000 3.6 300 21:18 19.01.2020
4021 Clouds 4 1042 93 10000 3.6 300 20:55 19.01.2020
4022 Clouds 4 1041 93 10000 4.1 310 20:37 19.01.2020
4023 Clouds 4 1041 93 10000 4.1 310 20:18 19.01.2020
4024 Clouds 4 1041 86 10000 3.6 310 19:54 19.01.2020
4025 Clouds 4 1040 86 10000 2.6 300 19:36 19.01.2020
4026 Clouds 4 1040 86 10000 2.6 300 19:18 19.01.2020
4027 Clouds 5 1040 86 10000 4.6 310 18:55 19.01.2020
4028 Clouds 5 1040 81 10000 4.1 310 18:36 19.01.2020
4029 Clouds 5 1040 81 10000 4.1 310 18:18 19.01.2020
4030 Clouds 5 1039 75 10000 5.1 320 17:56 19.01.2020
4031 Clouds 5 1039 75 10000 5.1 320 17:38 19.01.2020
4032 Clear 5 1039 84 0 0.89 333 17:18 19.01.2020
4033 Clouds 6 1039 70 10000 4.6 320 16:55 19.01.2020
4034 Clouds 6 1038 70 10000 5.1 320 16:36 19.01.2020
4035 Clouds 6 1038 70 10000 5.1 320 16:18 19.01.2020
4036 Clouds 7 1038 65 10000 6.2 340 15:55 19.01.2020
4037 Clouds 7 1037 65 10000 5.7 340 15:36 19.01.2020
4038 Clouds 7 1037 65 10000 5.7 340 15:18 19.01.2020
4039 Clouds 7 1037 65 10000 5.7 340 15:18 19.01.2020
4040 Clouds 7 1037 70 10000 4.6 330 14:41 19.01.2020
4041 Clouds 7 1037 70 10000 5.1 320 14:21 19.01.2020
4042 Clouds 7 1037 75 10000 5.1 330 13:59 19.01.2020
4043 Clouds 7 1037 75 10000 5.1 330 13:40 19.01.2020
4044 Clouds 7 1036 81 10000 3.6 310 13:22 19.01.2020
4045 Clouds 7 1036 81 10000 3.6 310 13:22 19.01.2020
4046 Clouds 7 1036 87 10000 3.6 300 12:59 19.01.2020
4047 Clouds 7 1036 87 10000 3.6 300 12:41 19.01.2020
4048 Clouds 6 1036 93 10000 3.6 300 12:21 19.01.2020
4049 Clouds 6 1035 93 10000 3.1 290 11:57 19.01.2020
4050 Clouds 5 1035 93 10000 3.1 290 11:38 19.01.2020
4051 Clouds 4 1035 93 10000 2.6 280 11:18 19.01.2020
4052 Clouds 3 1035 93 10000 3.1 300 10:41 19.01.2020
4053 Clouds 3 1034 100 10000 3.6 290 10:21 19.01.2020
4054 Clouds 2 1034 100 10000 2.6 280 09:58 19.01.2020
4055 Clouds 2 1034 100 10000 2.6 280 09:39 19.01.2020
4056 Clouds 2 1033 100 10000 1.5 270 09:21 19.01.2020
4057 Clouds 2 1032 100 10000 1.5 270 08:56 19.01.2020
4058 Clouds 1 1032 100 10000 1.5 270 08:38 19.01.2020
4059 Clouds 1 1031 100 10000 2.1 260 08:19 19.01.2020
4060 Clouds 1 1031 93 10000 2.1 250 07:30 19.01.2020
4061 Clouds 1 1030 93 10000 1.5 260 06:56 19.01.2020
4062 Clouds 1 1030 93 10000 2.6 240 06:25 19.01.2020
4063 Clear 1 1028 95 0 3.5 272 04:41 19.01.2020
4064 Clouds 2 1027 100 10000 3.1 260 02:37 19.01.2020
4065 Clouds 2 1027 100 10000 3.1 260 02:19 19.01.2020
4066 Clouds 2 1027 93 10000 3.6 260 01:24 19.01.2020
4067 Clouds 2 1027 93 10000 3.6 260 01:24 19.01.2020
4068 Clouds 2 1026 93 10000 2.6 270 00:45 19.01.2020
4069 Clouds 3 1026 100 10000 3.1 260 00:27 19.01.2020
4070 Clouds 3 1026 100 10000 3.1 260 23:55 18.01.2020
4071 Clouds 3 1026 93 10000 3.1 270 23:37 18.01.2020
4072 Clouds 3 1026 93 10000 3.1 270 23:18 18.01.2020
4073 Clouds 3 1025 100 10000 4.1 260 22:54 18.01.2020
4074 Clouds 3 1025 93 10000 3.6 270 22:36 18.01.2020
4075 Clouds 3 1025 93 10000 3.6 270 22:18 18.01.2020
4076 Clouds 3 1025 93 10000 4.1 260 21:56 18.01.2020
4077 Clouds 3 1025 93 10000 4.6 260 21:36 18.01.2020
4078 Clouds 3 1025 93 10000 4.6 260 21:18 18.01.2020
4079 Clouds 3 1025 100 10000 3.1 260 20:42 18.01.2020
4080 Clouds 3 1024 93 10000 2.1 250 20:20 18.01.2020
4081 Clouds 3 1024 93 10000 3.1 230 19:55 18.01.2020
4082 Rain 3 1020 99 0 4.97 252 19:37 18.01.2020
4083 Rain 3 1020 99 0 4.97 252 19:37 18.01.2020
4084 Rain 4 1023 93 0 0.89 263 19:19 18.01.2020
4085 Clouds 4 1023 93 10000 2.1 240 18:42 18.01.2020
4086 Clouds 4 1023 93 10000 2.1 220 18:21 18.01.2020
4087 Rain 4 1022 93 0 1.34 236 17:55 18.01.2020
4088 Rain 4 1022 93 8000 3.1 280 17:37 18.01.2020
4089 Rain 4 1022 93 8000 3.1 280 17:18 18.01.2020
4090 Rain 5 1022 86 8000 3.6 310 16:42 18.01.2020
4091 Clouds 5 1022 86 10000 3.6 250 16:24 18.01.2020
4092 Rain 5 1021 86 10000 5.7 260 15:59 18.01.2020
4093 Rain 5 1021 86 10000 5.7 260 15:41 18.01.2020
4094 Rain 5 1021 86 10000 5.7 250 15:22 18.01.2020
4095 Clouds 5 1021 86 10000 6.2 240 14:55 18.01.2020
4096 Clouds 6 1021 81 10000 7.7 240 14:37 18.01.2020
4097 Clouds 6 1021 81 10000 7.7 240 14:18 18.01.2020
4098 Clouds 6 1021 81 10000 7.7 240 13:43 18.01.2020
4099 Rain 6 1021 81 10000 8.7 240 13:24 18.01.2020
4100 Clouds 5 1021 81 10000 7.7 230 12:57 18.01.2020
4101 Clouds 5 1021 81 10000 7.7 230 12:38 18.01.2020
4102 Clouds 5 1021 80 10000 7.7 230 12:19 18.01.2020
4103 Clouds 5 1021 86 10000 7.2 230 11:44 18.01.2020
4104 Clouds 5 1021 80 10000 7.7 230 11:21 18.01.2020
4105 Clouds 5 1021 80 10000 7.7 230 11:21 18.01.2020
4106 Clouds 5 1020 86 10000 7.7 230 10:57 18.01.2020
4107 Clouds 4 1020 86 10000 7.7 230 10:38 18.01.2020
4108 Clouds 4 1020 86 10000 5.7 230 10:19 18.01.2020
4109 Clouds 4 1020 93 10000 5.7 230 09:43 18.01.2020
4110 Clouds 4 1020 93 10000 6.2 220 09:24 18.01.2020
4111 Clouds 3 1020 93 10000 5.1 220 08:55 18.01.2020
4112 Clouds 3 1019 93 10000 5.7 230 08:37 18.01.2020
4113 Clouds 3 1019 93 10000 5.7 230 08:18 18.01.2020
4114 Clouds 4 1019 86 10000 4.6 220 07:45 18.01.2020
4115 Clouds 4 1019 86 10000 4.6 210 07:26 18.01.2020
4116 Clouds 4 1019 86 10000 4.6 210 06:47 18.01.2020
4117 Clouds 4 1019 86 10000 4.6 210 06:47 18.01.2020
4118 Clouds 4 1018 86 10000 5.1 220 05:59 18.01.2020
4119 Clouds 4 1018 86 10000 5.7 230 05:19 18.01.2020
4120 Drizzle 6 1017 75 10000 8.2 240 02:55 18.01.2020
4121 Clouds 6 1016 75 10000 9.8 250 01:52 18.01.2020
4122 Clouds 6 1016 75 10000 8.7 250 01:30 18.01.2020
4123 Clouds 7 1015 75 10000 6.2 240 00:37 18.01.2020
4124 Clouds 7 1015 75 10000 6.2 240 00:18 18.01.2020
4125 Clouds 7 1014 81 10000 7.2 250 23:41 17.01.2020
4126 Clouds 7 1014 87 10000 6.2 240 23:20 17.01.2020
4127 Clouds 8 1014 87 10000 6.2 230 22:45 17.01.2020
4128 Clouds 8 1014 93 10000 4.1 210 22:22 17.01.2020
4129 Clouds 8 1013 93 10000 4.6 220 21:59 17.01.2020
4130 Clouds 8 1013 93 10000 4.6 220 21:41 17.01.2020
4131 Clouds 8 1013 93 10000 5.1 240 21:22 17.01.2020
4132 Rain 8 1013 100 4500 5.1 220 20:58 17.01.2020
4133 Rain 8 1013 100 4500 5.1 220 20:38 17.01.2020
4134 Clouds 8 1013 93 10000 4.6 220 20:20 17.01.2020
4135 Rain 8 1013 93 8000 4.6 220 19:55 17.01.2020
4136 Rain 8 1013 93 8000 4.6 220 19:55 17.01.2020
4137 Rain 8 1013 93 8000 4.6 210 19:37 17.01.2020
4138 Rain 8 1013 93 8000 4.6 210 19:19 17.01.2020
4139 Rain 8 1013 93 10000 3.6 210 18:56 17.01.2020
4140 Rain 8 1013 93 10000 3.6 210 18:56 17.01.2020
4141 Rain 8 1013 93 10000 4.1 210 18:36 17.01.2020
4142 Rain 8 1013 93 10000 4.1 210 18:18 17.01.2020
4143 Rain 9 1013 81 10000 6.2 220 17:39 17.01.2020
4144 Rain 9 1013 76 10000 4.1 220 17:20 17.01.2020
4145 Clouds 10 1012 76 10000 4.1 200 16:44 17.01.2020
4146 Clouds 10 1012 71 10000 3.6 210 16:21 17.01.2020
4147 Clouds 10 1012 71 10000 3.6 210 16:21 17.01.2020
4148 Clouds 10 1012 76 10000 3.1 200 15:58 17.01.2020
4149 Clouds 10 1012 76 10000 3.1 200 15:40 17.01.2020
4150 Clouds 10 1012 76 10000 3.1 200 15:40 17.01.2020
4151 Clouds 10 1012 76 10000 2.6 190 15:21 17.01.2020
4152 Clouds 10 1013 71 10000 3.1 180 14:43 17.01.2020
4153 Clouds 10 1013 76 10000 2.6 190 14:24 17.01.2020
4154 Clouds 10 1013 71 10000 3.6 190 13:45 17.01.2020
4155 Clouds 10 1013 66 10000 5.1 190 13:23 17.01.2020
4156 Clouds 10 1014 71 10000 4.6 180 12:48 17.01.2020
4157 Clouds 10 1014 76 10000 5.7 180 12:24 17.01.2020
4158 Clouds 9 1014 76 10000 4.6 180 11:56 17.01.2020
4159 Clouds 10 1015 76 10000 4.1 160 11:37 17.01.2020
4160 Clouds 9 1015 76 10000 4.1 160 11:18 17.01.2020
4161 Clouds 8 1015 81 10000 3.1 160 10:42 17.01.2020
4162 Clouds 8 1015 81 10000 3.1 160 10:42 17.01.2020
4163 Clouds 7 1015 81 10000 5.7 140 10:22 17.01.2020
4164 Clouds 7 1015 81 10000 5.7 130 09:57 17.01.2020
4165 Clouds 6 1015 86 10000 2.1 150 09:37 17.01.2020
4166 Clouds 6 1015 86 10000 2.1 150 09:18 17.01.2020
4167 Clouds 6 1016 86 10000 3.1 130 08:42 17.01.2020
4168 Clouds 6 1016 86 10000 2.6 130 08:24 17.01.2020
4169 Clouds 6 1016 93 10000 3.6 120 07:53 17.01.2020
4170 Clouds 6 1016 93 10000 2.6 130 07:31 17.01.2020
4171 Clouds 6 1016 87 10000 4.1 130 06:57 17.01.2020
4172 Clouds 6 1017 87 10000 5.7 140 06:38 17.01.2020
4173 Clouds 6 1017 93 10000 3.6 140 05:38 17.01.2020
4174 Clouds 6 1018 94 0 5.59 168 03:39 17.01.2020
4175 Clouds 6 1015 99 0 5.59 168 02:47 17.01.2020
4176 Clouds 6 1015 99 0 4.61 168 01:47 17.01.2020
4177 Clouds 6 1019 93 0 4.76 169 01:28 17.01.2020
4178 Clouds 6 1019 93 0 4.76 169 00:48 17.01.2020
4179 Clouds 6 1021 87 10000 3.6 150 00:23 17.01.2020
4180 Clouds 6 1021 87 10000 3.6 150 23:44 16.01.2020
4181 Clouds 6 1021 87 10000 3.6 150 23:25 16.01.2020
4182 Clear 6 1021 87 10000 4.6 150 22:57 16.01.2020
4183 Clear 6 1021 87 10000 4.6 150 22:39 16.01.2020
4184 Clear 6 1022 87 10000 4.1 140 22:20 16.01.2020
4185 Clear 6 1022 87 10000 3.6 140 21:55 16.01.2020
4186 Clear 6 1023 87 10000 3.6 140 21:36 16.01.2020
4187 Clear 6 1023 87 10000 3.6 140 21:18 16.01.2020
4188 Clear 6 1023 87 10000 4.1 150 20:41 16.01.2020
4189 Clouds 6 1023 87 10000 4.1 140 20:21 16.01.2020
4190 Clouds 6 1023 81 10000 5.1 140 19:59 16.01.2020
4191 Clouds 6 1023 81 10000 5.1 140 19:41 16.01.2020
4192 Clouds 6 1023 81 10000 4.6 140 19:22 16.01.2020
4193 Clouds 6 1023 81 10000 4.1 130 18:57 16.01.2020
4194 Clouds 7 1023 81 10000 4.1 130 18:39 16.01.2020
4195 Clouds 7 1023 81 10000 3.6 130 18:20 16.01.2020
4196 Clouds 7 1024 75 10000 3.6 130 17:59 16.01.2020
4197 Clouds 7 1024 75 10000 3.6 130 17:40 16.01.2020
4198 Clouds 7 1024 75 10000 4.1 130 17:20 16.01.2020
4199 Clouds 8 1024 75 10000 3.6 140 16:56 16.01.2020
4200 Clouds 8 1024 76 10000 4.1 140 16:36 16.01.2020
4201 Clouds 9 1024 76 10000 4.1 140 16:18 16.01.2020
4202 Clouds 9 1024 71 10000 3.6 150 15:42 16.01.2020
4203 Clouds 10 1025 71 10000 5.1 170 15:21 16.01.2020
4204 Clouds 10 1025 71 10000 3.6 170 14:55 16.01.2020
4205 Clouds 10 1025 76 10000 3.6 170 14:37 16.01.2020
4206 Clear 10 1025 76 10000 3.6 170 14:18 16.01.2020
4207 Clear 9 1026 81 10000 4.6 200 13:43 16.01.2020
4208 Clear 9 1025 81 10000 4.1 170 13:24 16.01.2020
4209 Clear 8 1026 81 10000 3.6 180 12:46 16.01.2020
4210 Clear 8 1026 87 10000 3.6 190 12:28 16.01.2020
4211 Clear 8 1026 87 10000 3.6 190 11:57 16.01.2020
4212 Clear 7 1026 87 10000 3.6 190 11:39 16.01.2020
4213 Clouds 7 1027 87 10000 3.1 200 11:21 16.01.2020
4214 Clouds 5 1026 87 10000 2.6 210 10:39 16.01.2020
4215 Clouds 5 1026 93 10000 2.1 210 10:21 16.01.2020
4216 Clouds 4 1026 93 8000 2.1 210 09:58 16.01.2020
4217 Clouds 4 1026 93 8000 2.1 210 09:40 16.01.2020
4218 Clouds 4 1026 100 8000 2.6 200 09:22 16.01.2020
4219 Clouds 3 1025 100 8000 2.6 200 08:53 16.01.2020
4220 Clouds 4 1025 93 8000 2.6 190 08:35 16.01.2020
4221 Clear 4 1025 93 8000 3.1 200 07:59 16.01.2020
4222 Clear 4 1025 93 8000 3.1 200 07:39 16.01.2020
4223 Clear 4 1024 93 8000 2.6 210 07:21 16.01.2020
4224 Clear 4 1024 93 7000 2.6 210 06:43 16.01.2020
4225 Clear 5 1024 93 8000 3.1 210 06:22 16.01.2020
4226 Clear 5 1023 100 8000 3.6 220 05:46 16.01.2020
4227 Clear 5 1023 93 10000 4.1 210 04:40 16.01.2020
4228 Clear 5 1022 93 10000 4.6 230 03:28 16.01.2020
4229 Clear 5 1021 93 10000 5.1 240 02:44 16.01.2020
4230 Clouds 6 1020 93 10000 5.1 240 01:24 16.01.2020
4231 Clouds 6 1019 93 10000 4.6 230 00:41 16.01.2020
4232 Clouds 6 1019 93 10000 4.6 230 00:19 16.01.2020
4233 Clouds 6 1018 87 10000 4.6 230 23:40 15.01.2020
4234 Rain 6 1018 87 10000 4.6 240 23:19 15.01.2020
4235 Rain 6 1017 93 10000 4.6 240 22:56 15.01.2020
4236 Clouds 7 1016 87 10000 5.1 250 22:36 15.01.2020
4237 Clouds 7 1016 87 10000 5.1 250 22:18 15.01.2020
4238 Clouds 7 1015 81 10000 6.2 260 21:55 15.01.2020
4239 Clouds 7 1015 87 10000 6.7 270 21:36 15.01.2020
4240 Clouds 7 1015 87 10000 6.7 270 21:18 15.01.2020
4241 Rain 8 1014 87 10000 7.7 280 20:54 15.01.2020
4242 Rain 9 1013 87 10000 7.2 230 20:36 15.01.2020
4243 Rain 9 1013 87 10000 7.2 230 20:18 15.01.2020
4244 Rain 9 1012 81 10000 8.7 230 19:54 15.01.2020
4245 Rain 10 1011 76 10000 10.8 230 19:36 15.01.2020
4246 Rain 10 1011 76 10000 10.8 230 19:18 15.01.2020
4247 Rain 10 1011 76 10000 10.8 230 19:18 15.01.2020
4248 Rain 11 1011 66 10000 9.3 220 18:54 15.01.2020
4249 Clouds 11 1010 62 10000 9.3 220 18:36 15.01.2020
4250 Clouds 11 1010 62 10000 9.3 220 18:18 15.01.2020
4251 Clouds 12 1010 62 10000 6.2 210 17:40 15.01.2020
4252 Clouds 12 1010 62 10000 6.2 210 17:40 15.01.2020
4253 Clouds 12 1009 62 10000 6.2 210 17:21 15.01.2020
4254 Clouds 12 1009 58 10000 7.7 210 16:57 15.01.2020
4255 Clouds 13 1009 58 10000 7.7 210 16:38 15.01.2020
4256 Clouds 13 1009 58 10000 6.2 210 16:20 15.01.2020
4257 Clouds 13 1009 58 10000 6.2 210 16:20 15.01.2020
4258 Clouds 13 1008 58 10000 6.7 200 15:43 15.01.2020
4259 Clouds 13 1008 58 10000 7.7 200 15:21 15.01.2020
4260 Clouds 13 1008 58 10000 7.2 200 14:56 15.01.2020
4261 Clouds 13 1008 62 10000 7.7 200 14:37 15.01.2020
4262 Clouds 13 1008 62 10000 7.7 200 14:18 15.01.2020
4263 Clouds 13 1008 58 10000 7.2 200 13:44 15.01.2020
4264 Clouds 13 1008 58 10000 8.7 200 13:23 15.01.2020
4265 Clouds 13 1008 62 10000 7.2 200 12:56 15.01.2020
4266 Clouds 13 1008 62 10000 7.2 200 12:37 15.01.2020
4267 Clouds 13 1008 58 10000 8.7 210 12:19 15.01.2020
4268 Clouds 13 1008 58 10000 8.2 200 11:55 15.01.2020
4269 Clouds 13 1008 58 10000 7.7 210 11:36 15.01.2020
4270 Clouds 13 1008 58 10000 7.7 210 11:36 15.01.2020
4271 Clouds 13 1008 58 10000 7.7 210 11:18 15.01.2020
4272 Clouds 12 1008 66 10000 8.2 200 10:41 15.01.2020
4273 Clouds 12 1008 66 10000 7.7 210 10:21 15.01.2020
4274 Clouds 12 1008 66 10000 7.7 200 09:42 15.01.2020
4275 Clouds 12 1007 66 10000 8.7 200 09:22 15.01.2020
4276 Clouds 11 1007 66 10000 8.7 200 08:46 15.01.2020
4277 Clouds 12 1007 66 10000 7.2 200 08:28 15.01.2020
4278 Clouds 12 1007 71 10000 7.7 210 07:59 15.01.2020
4279 Clouds 12 1007 71 10000 7.7 210 07:40 15.01.2020
4280 Clouds 12 1006 71 10000 7.2 210 07:21 15.01.2020
4281 Clouds 12 1006 71 10000 7.7 210 06:43 15.01.2020
4282 Clouds 12 1006 71 10000 7.2 210 05:57 15.01.2020
4283 Clouds 12 1006 71 10000 8.2 210 03:56 15.01.2020
4284 Rain 12 1005 71 10000 9.8 210 02:28 15.01.2020
4285 Rain 11 1005 76 10000 9.8 210 01:22 15.01.2020
4286 Rain 11 1005 71 10000 10.3 210 00:45 15.01.2020
4287 Rain 11 1005 71 10000 8.7 210 00:26 15.01.2020
4288 Clouds 12 1005 71 10000 9.3 210 23:47 14.01.2020
4289 Clouds 12 1004 71 10000 10.3 210 23:29 14.01.2020
4290 Clouds 12 1004 71 10000 7.7 200 22:59 14.01.2020
4291 Clouds 12 1004 71 10000 7.7 200 22:40 14.01.2020
4292 Clouds 11 1004 71 10000 9.8 200 22:19 14.01.2020
4293 Clouds 11 1004 71 10000 9.3 210 21:58 14.01.2020
4294 Clouds 11 1004 76 10000 9.3 200 21:39 14.01.2020
4295 Clouds 11 1004 76 10000 9.3 200 21:21 14.01.2020
4296 Clouds 11 1004 76 10000 9.3 210 20:58 14.01.2020
4297 Clouds 11 1004 76 10000 9.3 210 20:40 14.01.2020
4298 Clouds 11 1004 71 10000 8.7 200 20:19 14.01.2020
4299 Clouds 11 1004 71 10000 8.7 200 19:56 14.01.2020
4300 Clouds 11 1004 76 10000 7.7 200 19:37 14.01.2020
4301 Clouds 11 1004 76 10000 7.7 200 19:18 14.01.2020
4302 Clouds 10 1004 81 10000 7.7 190 18:55 14.01.2020
4303 Clouds 10 1004 81 10000 6.7 200 18:37 14.01.2020
4304 Clouds 10 1004 81 10000 6.7 200 18:18 14.01.2020
4305 Clouds 10 1004 81 10000 6.7 200 17:38 14.01.2020
4306 Clouds 10 1005 81 10000 7.7 200 17:19 14.01.2020
4307 Clouds 10 1005 81 10000 7.7 200 16:55 14.01.2020
4308 Clouds 10 1005 81 10000 7.7 200 16:37 14.01.2020
4309 Clouds 10 1005 81 10000 7.7 200 16:19 14.01.2020
4310 Clouds 10 1004 81 10000 7.7 200 15:43 14.01.2020
4311 Clouds 10 1004 81 10000 7.7 210 15:19 14.01.2020
4312 Clouds 10 1005 81 10000 7.2 200 14:57 14.01.2020
4313 Clouds 10 1004 76 10000 8.2 210 14:39 14.01.2020
4314 Clouds 10 1004 81 10000 7.7 210 14:18 14.01.2020
4315 Clouds 10 1004 87 10000 7.7 200 13:42 14.01.2020
4316 Clouds 10 1005 87 10000 7.2 210 13:19 14.01.2020
4317 Clouds 9 1005 93 10000 7.7 220 12:43 14.01.2020
4318 Clouds 9 1004 93 10000 7.2 210 12:25 14.01.2020
4319 Rain 9 1004 93 10000 6.7 210 11:59 14.01.2020
4320 Rain 9 1004 93 10000 6.7 210 11:40 14.01.2020
4321 Rain 9 1004 93 10000 8.7 220 11:40 14.01.2020
4322 Rain 9 1004 93 10000 8.7 220 11:22 14.01.2020
4323 Rain 9 1003 93 9000 7.7 210 10:56 14.01.2020
4324 Rain 9 1003 93 9000 7.7 210 10:38 14.01.2020
4325 Rain 9 1003 87 10000 7.2 210 10:19 14.01.2020
4326 Rain 9 1003 87 10000 7.7 210 09:56 14.01.2020
4327 Rain 9 1003 87 10000 7.7 210 09:37 14.01.2020
4328 Rain 9 1003 81 10000 7.7 210 09:19 14.01.2020
4329 Rain 9 1002 81 10000 7.7 200 08:41 14.01.2020
4330 Rain 9 1002 81 10000 7.2 200 08:23 14.01.2020
4331 Rain 9 1002 87 10000 7.2 200 07:53 14.01.2020
4332 Rain 9 1002 87 10000 7.2 190 07:26 14.01.2020
4333 Rain 9 1002 87 10000 7.2 190 06:50 14.01.2020
4334 Rain 9 1002 87 10000 6.2 180 06:23 14.01.2020
4335 Clouds 8 1003 76 10000 8.2 180 04:58 14.01.2020
4336 Clouds 8 1004 76 10000 7.7 180 03:48 14.01.2020
4337 Clouds 7 1005 81 10000 7.2 170 02:42 14.01.2020
4338 Clouds 7 1007 81 10000 6.2 170 01:35 14.01.2020
4339 Clouds 7 1007 81 10000 7.2 160 00:49 14.01.2020
4340 Clouds 7 1008 81 10000 7.2 160 00:28 14.01.2020
4341 Clouds 6 1008 81 10000 6.2 170 23:54 13.01.2020
4342 Clouds 6 1009 81 10000 5.7 160 23:36 13.01.2020
4343 Clouds 6 1009 81 10000 5.7 160 23:18 13.01.2020
4344 Clouds 6 1010 81 10000 6.2 160 22:41 13.01.2020
4345 Clouds 6 1010 81 10000 6.2 170 22:21 13.01.2020
4346 Clouds 6 1010 86 10000 5.1 160 21:56 13.01.2020
4347 Clouds 6 1010 86 10000 5.1 160 21:38 13.01.2020
4348 Clouds 6 1011 86 10000 5.7 150 21:19 13.01.2020
4349 Clouds 6 1012 86 10000 5.1 150 20:58 13.01.2020
4350 Clouds 6 1012 86 10000 5.1 150 20:40 13.01.2020
4351 Clouds 6 1012 86 10000 5.1 150 20:22 13.01.2020
4352 Clouds 6 1012 81 10000 4.6 140 19:58 13.01.2020
4353 Clouds 6 1012 81 10000 4.6 140 19:39 13.01.2020
4354 Clouds 6 1013 87 10000 4.6 140 19:20 13.01.2020
4355 Clouds 6 1013 87 10000 4.1 140 18:56 13.01.2020
4356 Clouds 6 1014 86 10000 3.1 150 18:37 13.01.2020
4357 Clouds 6 1014 86 10000 3.1 150 18:37 13.01.2020
4358 Clouds 6 1014 86 10000 3.1 150 18:18 13.01.2020
4359 Clouds 6 1014 93 10000 3.1 160 17:43 13.01.2020
4360 Clouds 6 1014 87 10000 4.1 170 17:24 13.01.2020
4361 Clouds 7 1015 87 10000 3.6 190 16:57 13.01.2020
4362 Clouds 7 1013 89 0 2.24 200 16:38 13.01.2020
4363 Clouds 7 1013 88 0 1.34 192 16:20 13.01.2020
4364 Clouds 8 1014 88 0 0.89 180 15:44 13.01.2020
4365 Clouds 8 1014 87 0 2.24 169 15:24 13.01.2020
4366 Clouds 8 1014 87 0 1.34 226 14:59 13.01.2020
4367 Clouds 8 1014 87 0 2.24 165 14:40 13.01.2020
4368 Clouds 8 1014 86 0 1.34 178 14:22 13.01.2020
4369 Clouds 8 1015 88 0 1.79 219 13:56 13.01.2020
4370 Clouds 8 1012 99 0 5.18 226 13:37 13.01.2020
4371 Clouds 8 1015 91 0 1.79 191 13:19 13.01.2020
4372 Clouds 8 1018 81 10000 5.1 210 12:43 13.01.2020
4373 Clouds 8 1018 81 10000 5.1 210 12:23 13.01.2020
4374 Clouds 8 1018 81 10000 5.1 210 12:23 13.01.2020
4375 Clouds 8 1018 81 10000 5.1 210 11:58 13.01.2020
4376 Clouds 7 1018 93 10000 3.6 210 11:38 13.01.2020
4377 Clouds 7 1018 93 10000 3.6 210 11:38 13.01.2020
4378 Clouds 7 1018 93 10000 3.6 210 11:19 13.01.2020
4379 Clouds 7 1018 93 8000 3.6 210 10:56 13.01.2020
4380 Clouds 7 1018 93 7000 3.1 210 10:38 13.01.2020
4381 Clouds 7 1018 93 7000 3.1 210 10:19 13.01.2020
4382 Clouds 6 1018 100 7000 3.1 200 09:44 13.01.2020
4383 Clouds 6 1018 93 8000 3.1 210 09:26 13.01.2020
4384 Clouds 6 1018 93 9000 3.6 220 08:59 13.01.2020
4385 Clouds 6 1018 93 9000 3.6 220 08:38 13.01.2020
4386 Clouds 6 1018 100 10000 2.6 190 08:19 13.01.2020
4387 Clouds 5 1018 93 10000 2.1 200 07:45 13.01.2020
4388 Clouds 5 1018 100 10000 2.1 200 07:27 13.01.2020
4389 Clouds 5 1018 93 10000 1.5 150 06:39 13.01.2020
4390 Clouds 5 1018 93 10000 2.6 190 06:18 13.01.2020
4391 Clouds 5 1019 93 10000 3.1 200 05:20 13.01.2020
4392 Clouds 5 1020 87 10000 3.6 220 03:47 13.01.2020
4393 Clouds 5 1020 87 10000 4.6 250 02:51 13.01.2020
4394 Clouds 6 1020 93 10000 4.1 250 02:31 13.01.2020
4395 Clouds 6 1020 81 10000 5.1 250 01:47 13.01.2020
4396 Clouds 7 1019 81 10000 5.7 260 00:59 13.01.2020
4397 Clouds 7 1019 81 10000 5.7 260 00:40 13.01.2020
4398 Rain 7 1019 87 10000 7.2 260 00:21 13.01.2020
4399 Clouds 7 1018 87 10000 8.2 260 23:41 12.01.2020
4400 Clouds 7 1018 81 10000 8.2 260 23:23 12.01.2020
4401 Clouds 8 1017 81 10000 9.3 260 22:57 12.01.2020
4402 Clouds 8 1017 81 10000 9.3 260 22:39 12.01.2020
4403 Clouds 8 1017 81 10000 10.3 260 22:21 12.01.2020
4404 Rain 8 1017 89 0 1.34 270 21:55 12.01.2020
4405 Rain 8 1017 89 0 1.34 270 21:55 12.01.2020
4406 Rain 8 1013 99 0 1.79 225 21:37 12.01.2020
4407 Rain 8 1015 93 0 2.68 270 21:19 12.01.2020
4408 Clouds 8 1015 87 10000 8.2 230 20:56 12.01.2020
4409 Clouds 8 1015 93 10000 7.7 230 20:37 12.01.2020
4410 Clouds 8 1015 93 10000 7.7 230 20:19 12.01.2020
4411 Clouds 8 1015 93 10000 7.7 230 19:55 12.01.2020
4412 Rain 8 1015 93 10000 6.7 230 19:37 12.01.2020
4413 Rain 8 1015 93 10000 6.7 230 19:18 12.01.2020
4414 Rain 8 1015 87 10000 7.7 230 18:56 12.01.2020
4415 Rain 8 1015 87 10000 7.7 230 18:38 12.01.2020
4416 Rain 7 1015 93 10000 7.7 220 18:19 12.01.2020
4417 Drizzle 7 1015 93 10000 8.2 220 17:42 12.01.2020
4418 Drizzle 7 1015 93 6000 7.7 220 17:22 12.01.2020
4419 Drizzle 7 1015 93 8000 8.7 220 16:58 12.01.2020
4420 Drizzle 7 1015 93 8000 8.7 220 16:39 12.01.2020
4421 Drizzle 6 1015 93 10000 7.7 220 16:20 12.01.2020
4422 Drizzle 6 1015 93 3500 8.2 220 15:57 12.01.2020
4423 Drizzle 6 1015 93 3500 8.2 220 15:38 12.01.2020
4424 Rain 6 1015 93 10000 7.7 220 15:20 12.01.2020
4425 Drizzle 6 1015 93 10000 7.7 210 14:43 12.01.2020
4426 Drizzle 6 1015 93 3800 7.7 220 14:24 12.01.2020
4427 Rain 6 1015 87 10000 7.7 210 13:57 12.01.2020
4428 Rain 6 1015 87 10000 7.7 210 13:39 12.01.2020
4429 Rain 6 1016 87 10000 8.2 220 13:20 12.01.2020
4430 Rain 6 1016 87 10000 8.2 220 13:20 12.01.2020
4431 Rain 6 1012 99 0 0.89 270 12:57 12.01.2020
4432 Clouds 6 1017 81 10000 9.3 220 12:37 12.01.2020
4433 Clouds 6 1017 81 10000 9.3 220 12:19 12.01.2020
4434 Clouds 6 1017 75 10000 8.7 220 11:42 12.01.2020
4435 Clouds 6 1017 75 10000 8.2 220 11:22 12.01.2020
4436 Clouds 6 1017 75 10000 8.2 220 10:58 12.01.2020
4437 Clouds 6 1017 75 10000 8.2 220 10:40 12.01.2020
4438 Clouds 6 1017 75 10000 8.7 210 10:20 12.01.2020
4439 Clouds 6 1018 75 10000 8.2 220 09:44 12.01.2020
4440 Clouds 5 1018 75 10000 7.7 220 09:24 12.01.2020
4441 Clouds 5 1018 75 10000 8.2 220 08:57 12.01.2020
4442 Clouds 5 1018 75 10000 8.2 220 08:38 12.01.2020
4443 Clouds 5 1018 75 10000 8.2 220 08:19 12.01.2020
4444 Clouds 5 1019 80 10000 7.7 220 07:38 12.01.2020
4445 Clouds 6 1019 75 10000 7.7 220 07:19 12.01.2020
4446 Clouds 5 1019 75 10000 7.7 220 06:42 12.01.2020
4447 Clouds 5 1019 75 10000 8.7 220 06:18 12.01.2020
4448 Rain 6 1020 75 10000 7.7 220 05:20 12.01.2020
4449 Clouds 6 1020 81 10000 8.7 220 03:45 12.01.2020
4450 Clouds 6 1021 81 10000 8.7 220 02:59 12.01.2020
4451 Clouds 6 1021 81 10000 7.2 220 02:30 12.01.2020
4452 Clouds 6 1021 75 10000 7.7 210 01:42 12.01.2020
4453 Clouds 6 1022 75 10000 7.2 220 01:21 12.01.2020
4454 Clouds 6 1022 75 10000 7.2 220 01:21 12.01.2020
4455 Clouds 6 1022 81 10000 6.7 220 00:40 12.01.2020
4456 Clouds 6 1022 75 10000 7.7 210 00:19 12.01.2020
4457 Clouds 6 1023 75 10000 7.2 210 23:42 11.01.2020
4458 Clouds 6 1023 75 10000 7.7 210 23:19 11.01.2020
4459 Clouds 6 1023 75 10000 7.2 210 22:57 11.01.2020
4460 Clouds 6 1023 75 10000 7.2 210 22:39 11.01.2020
4461 Clouds 6 1024 75 10000 6.7 210 22:20 11.01.2020
4462 Clouds 6 1024 75 10000 6.2 210 21:58 11.01.2020
4463 Clouds 6 1024 75 10000 6.2 210 21:39 11.01.2020
4464 Clouds 6 1024 75 10000 6.2 210 21:18 11.01.2020
4465 Clouds 6 1025 75 10000 7.2 220 20:40 11.01.2020
4466 Clouds 6 1025 75 10000 5.7 210 20:22 11.01.2020
4467 Clouds 6 1025 80 10000 5.7 210 19:58 11.01.2020
4468 Clouds 5 1025 80 10000 5.7 210 19:39 11.01.2020
4469 Clouds 5 1025 80 10000 5.1 200 19:21 11.01.2020
4470 Clouds 5 1025 80 10000 5.7 200 18:58 11.01.2020
4471 Clouds 5 1025 80 10000 5.7 200 18:38 11.01.2020
4472 Clouds 5 1025 80 10000 6.2 200 18:20 11.01.2020
4473 Clouds 5 1026 80 10000 6.2 200 17:57 11.01.2020
4474 Clouds 5 1026 80 10000 6.2 200 17:39 11.01.2020
4475 Clouds 5 1026 80 10000 5.1 200 17:19 11.01.2020
4476 Clouds 5 1026 80 10000 5.7 210 16:46 11.01.2020
4477 Clouds 5 1026 80 10000 5.7 210 16:46 11.01.2020
4478 Clouds 6 1026 75 10000 5.7 200 16:27 11.01.2020
4479 Clouds 6 1027 75 10000 6.7 210 15:59 11.01.2020
4480 Clouds 6 1027 75 10000 6.7 210 15:41 11.01.2020
4481 Clouds 6 1027 75 10000 6.2 210 15:22 11.01.2020
4482 Clouds 6 1027 75 10000 6.7 220 14:58 11.01.2020
4483 Clouds 6 1027 75 10000 6.7 220 14:39 11.01.2020
4484 Clouds 6 1027 75 10000 6.2 210 14:21 11.01.2020
4485 Clouds 5 1027 80 10000 7.2 210 13:55 11.01.2020
4486 Clouds 5 1028 80 10000 6.2 210 13:36 11.01.2020
4487 Clouds 5 1028 80 10000 6.2 210 13:18 11.01.2020
4488 Clouds 5 1028 80 10000 6.7 210 12:41 11.01.2020
4489 Clouds 5 1029 80 10000 5.7 210 12:23 11.01.2020
4490 Clouds 4 1029 86 10000 6.2 210 11:48 11.01.2020
4491 Clouds 4 1030 86 10000 4.6 200 11:27 11.01.2020
4492 Clouds 4 1030 93 10000 3.6 210 10:58 11.01.2020
4493 Clouds 3 1030 93 10000 3.6 210 10:40 11.01.2020
4494 Clouds 3 1029 86 10000 3.6 200 10:22 11.01.2020
4495 Clouds 2 1029 93 10000 3.1 190 09:39 11.01.2020
4496 Clouds 2 1029 100 10000 3.1 200 09:21 11.01.2020
4497 Clouds 2 1029 100 10000 3.1 210 08:43 11.01.2020
4498 Clouds 1 1029 100 10000 3.1 210 08:22 11.01.2020
4499 Clouds 1 1029 100 10000 3.1 210 07:44 11.01.2020
4500 Clouds 1 1029 100 10000 3.1 200 07:26 11.01.2020
4501 Clouds 1 1029 100 10000 3.1 210 06:55 11.01.2020
4502 Clouds 1 1029 94 10000 2.6 220 06:22 11.01.2020
4503 Clear 2 1029 94 0 0.45 241 04:48 11.01.2020
4504 Clear 2 1029 94 0 0.89 237 04:30 11.01.2020
4505 Clear 2 1028 94 0 1.34 311 03:49 11.01.2020
4506 Clear 3 1025 99 0 3.54 257 02:41 11.01.2020
4507 Clouds 3 1028 93 10000 3.1 270 01:44 11.01.2020
4508 Clouds 3 1028 86 10000 3.6 270 01:20 11.01.2020
4509 Clouds 3 1027 93 10000 4.1 270 00:46 11.01.2020
4510 Clouds 4 1027 86 10000 4.6 270 00:20 11.01.2020
4511 Clouds 4 1027 86 10000 5.1 270 23:41 10.01.2020
4512 Clouds 4 1026 93 10000 4.1 270 23:22 10.01.2020
4513 Clouds 4 1026 93 10000 4.1 270 22:59 10.01.2020
4514 Clouds 4 1026 93 10000 4.1 270 22:41 10.01.2020
4515 Clouds 4 1025 93 10000 4.1 270 22:21 10.01.2020
4516 Clouds 4 1025 93 10000 4.1 260 21:58 10.01.2020
4517 Clouds 4 1025 93 10000 4.1 260 21:39 10.01.2020
4518 Clouds 4 1024 92 0 4.32 283 21:20 10.01.2020
4519 Clouds 4 1024 95 0 4.32 283 20:55 10.01.2020
4520 Clouds 5 1020 99 0 4.32 283 20:37 10.01.2020
4521 Rain 5 1023 92 0 0.45 272 20:19 10.01.2020
4522 Clouds 5 1022 80 10000 4.6 300 19:39 10.01.2020
4523 Clouds 5 1022 80 10000 4.6 300 19:20 10.01.2020
4524 Clouds 5 1022 87 10000 5.7 300 18:55 10.01.2020
4525 Rain 5 1019 99 0 6.4 315 18:36 10.01.2020
4526 Rain 5 1021 87 10000 7.2 310 18:18 10.01.2020
4527 Clouds 5 1020 81 10000 8.2 310 17:56 10.01.2020
4528 Rain 6 1019 81 10000 9.3 310 17:37 10.01.2020
4529 Rain 6 1019 81 10000 9.3 310 17:19 10.01.2020
4530 Clouds 6 1017 75 10000 7.2 310 16:41 10.01.2020
4531 Clouds 6 1017 75 10000 7.2 310 16:21 10.01.2020
4532 Rain 7 1016 81 10000 7.7 320 15:56 10.01.2020
4533 Rain 7 1016 81 10000 7.7 320 15:56 10.01.2020
4534 Clouds 7 1016 87 10000 9.3 310 15:37 10.01.2020
4535 Clouds 7 1016 87 10000 9.3 310 15:19 10.01.2020
4536 Rain 7 1015 93 10000 7.2 310 14:57 10.01.2020
4537 Rain 7 1015 93 10000 7.2 310 14:39 10.01.2020
4538 Rain 8 1014 87 6000 6.7 260 14:19 10.01.2020
4539 Clouds 8 1014 81 10000 7.2 280 13:56 10.01.2020
4540 Clouds 8 1013 81 10000 6.7 250 13:37 10.01.2020
4541 Clouds 9 1013 81 10000 6.7 250 13:18 10.01.2020
4542 Clouds 9 1013 81 10000 7.7 250 12:56 10.01.2020
4543 Clouds 9 1012 81 10000 7.2 250 12:38 10.01.2020
4544 Clouds 9 1012 81 10000 7.2 250 12:18 10.01.2020
4545 Clouds 9 1013 81 10000 7.7 250 11:42 10.01.2020
4546 -273 0 0 0 0 0 11:22 10.01.2020
4547 Clouds 8 1012 87 10000 6.2 240 10:59 10.01.2020
4548 Clouds 8 1012 87 10000 6.2 240 10:38 10.01.2020
4549 Clouds 8 1011 87 10000 6.2 230 10:20 10.01.2020
4550 Clouds 8 1011 87 10000 6.2 230 09:55 10.01.2020
4551 Clouds 8 1011 93 10000 5.1 240 09:36 10.01.2020
4552 Clouds 8 1011 93 10000 5.1 240 09:18 10.01.2020
4553 Clouds 8 1010 87 10000 6.2 230 08:40 10.01.2020
4554 Clouds 8 1011 87 10000 4.6 230 08:21 10.01.2020
4555 Rain 8 1010 87 10000 5.1 230 07:44 10.01.2020
4556 Rain 8 1009 87 10000 4.1 220 07:23 10.01.2020
4557 Rain 9 1009 81 10000 5.7 240 06:45 10.01.2020
4558 Rain 9 1009 87 10000 8.2 260 06:25 10.01.2020
4559 Drizzle 10 1008 93 10000 6.7 220 05:46 10.01.2020
4560 Rain 11 1007 100 8000 4.6 210 03:37 10.01.2020
4561 Rain 11 1007 100 8000 4.6 210 03:18 10.01.2020
4562 Rain 11 1007 100 8000 5.1 210 02:39 10.01.2020
4563 Rain 12 1007 100 5000 5.1 210 01:38 10.01.2020
4564 Drizzle 12 1007 93 10000 6.2 220 01:19 10.01.2020
4565 Drizzle 12 1007 93 5000 4.6 210 00:39 10.01.2020
4566 Drizzle 12 1007 93 9000 4.6 200 23:58 09.01.2020
4567 Drizzle 12 1007 93 9000 4.6 200 23:38 09.01.2020
4568 Clouds 12 1007 87 10000 5.1 200 23:20 09.01.2020
4569 Clouds 12 1007 87 10000 5.1 210 22:57 09.01.2020
4570 Clouds 12 1007 87 10000 5.1 210 22:39 09.01.2020
4571 Clouds 12 1007 87 10000 4.6 210 22:19 09.01.2020
4572 Clouds 12 1008 87 10000 4.6 210 21:57 09.01.2020
4573 Clouds 12 1008 87 10000 4.6 210 21:38 09.01.2020
4574 Drizzle 12 1008 93 10000 4.6 210 21:19 09.01.2020
4575 Drizzle 12 1008 87 10000 5.7 210 20:57 09.01.2020
4576 Drizzle 12 1008 87 10000 5.7 210 20:39 09.01.2020
4577 Clouds 12 1008 87 10000 4.6 210 20:20 09.01.2020
4578 Clouds 12 1008 87 10000 4.6 210 19:57 09.01.2020
4579 Clouds 12 1008 87 10000 4.6 210 19:38 09.01.2020
4580 Drizzle 12 1008 93 10000 4.1 210 19:19 09.01.2020
4581 Drizzle 12 1008 93 10000 4.1 210 18:55 09.01.2020
4582 Drizzle 12 1008 93 10000 4.1 210 18:55 09.01.2020
4583 Drizzle 12 1008 93 10000 4.6 210 18:37 09.01.2020
4584 Drizzle 12 1008 93 10000 4.6 210 18:19 09.01.2020
4585 Drizzle 12 1008 87 7000 5.1 210 17:41 09.01.2020
4586 Drizzle 12 1008 87 7000 5.1 210 17:41 09.01.2020
4587 Drizzle 12 1008 87 10000 5.1 210 17:18 09.01.2020
4588 Drizzle 12 1008 87 10000 5.1 210 16:56 09.01.2020
4589 Clouds 12 1008 87 10000 5.1 210 16:36 09.01.2020
4590 Clouds 12 1008 87 10000 5.1 210 16:18 09.01.2020
4591 Clouds 12 1008 87 10000 5.7 210 15:41 09.01.2020
4592 Clouds 12 1008 93 10000 6.7 210 15:21 09.01.2020
4593 Clouds 12 1008 93 10000 6.7 210 14:55 09.01.2020
4594 Clouds 12 1008 93 10000 6.2 210 14:37 09.01.2020
4595 Drizzle 12 1009 87 4500 6.7 220 14:18 09.01.2020
4596 Drizzle 11 1009 87 4500 6.7 220 13:55 09.01.2020
4597 Rain 11 1009 87 10000 7.7 220 13:37 09.01.2020
4598 Rain 11 1009 87 10000 7.2 200 13:18 09.01.2020
4599 Drizzle 11 1010 93 6000 6.2 210 12:42 09.01.2020
4600 Drizzle 11 1010 93 6000 6.2 210 12:24 09.01.2020
4601 Drizzle 11 1010 93 10000 5.7 200 11:59 09.01.2020
4602 Rain 11 1011 87 10000 5.1 190 11:41 09.01.2020
4603 Clouds 10 1011 93 10000 4.6 170 11:23 09.01.2020
4604 Clouds 10 1011 93 10000 4.6 170 10:57 09.01.2020
4605 Clouds 10 1012 93 10000 5.1 170 10:39 09.01.2020
4606 Clouds 10 1012 100 7000 5.7 170 10:20 09.01.2020
4607 Clouds 10 1012 100 10000 5.7 170 09:41 09.01.2020
4608 Clouds 10 1012 100 10000 5.7 170 09:41 09.01.2020
4609 Clouds 10 1012 100 10000 5.7 170 09:41 09.01.2020
4610 Clouds 10 1012 100 10000 5.7 170 09:41 09.01.2020
4611 Clouds 9 1013 100 9000 5.7 160 09:23 09.01.2020
4612 Clouds 9 1013 100 9000 5.7 160 08:57 09.01.2020
4613 Clouds 9 1013 100 6000 5.7 160 08:38 09.01.2020
4614 Drizzle 9 1014 100 3000 5.7 150 08:20 09.01.2020
4615 Drizzle 9 1014 93 6000 4.6 160 07:46 09.01.2020
4616 Drizzle 9 1014 93 6000 4.6 160 07:28 09.01.2020
4617 Mist 9 1016 100 5000 4.1 170 06:40 09.01.2020
4618 Drizzle 9 1016 100 5000 3.1 140 06:21 09.01.2020
4619 Mist 9 1017 100 5000 3.1 150 05:51 09.01.2020
4620 Clouds 9 1018 100 8000 2.1 160 04:54 09.01.2020
4621 Clouds 9 1018 100 9000 2.6 170 04:36 09.01.2020
4622 Clouds 9 1019 100 7000 3.1 180 03:26 09.01.2020
4623 Clouds 9 1020 100 6000 2.1 190 02:46 09.01.2020
4624 Clouds 9 1020 100 6000 1.5 190 01:41 09.01.2020
4625 Clouds 9 1020 100 6000 2.1 200 00:57 09.01.2020
4626 Clouds 9 1021 100 6000 2.1 220 00:37 09.01.2020
4627 Clouds 9 1021 100 6000 2.6 200 00:19 09.01.2020
4628 Drizzle 9 1021 100 7000 2.1 200 23:39 08.01.2020
4629 Drizzle 9 1021 100 7000 1.5 210 23:20 08.01.2020
4630 Clouds 9 1021 100 8000 2.1 180 22:40 08.01.2020
4631 Clouds 9 1021 100 9000 2.6 230 22:22 08.01.2020
4632 Clouds 9 1021 100 9000 2.6 230 21:59 08.01.2020
4633 Clouds 9 1021 100 10000 2.1 240 21:40 08.01.2020
4634 Clouds 9 1021 100 10000 2.1 240 21:40 08.01.2020
4635 Clouds 9 1022 93 10000 1.5 250 21:21 08.01.2020
4636 Clouds 9 1022 93 10000 1.5 250 20:59 08.01.2020
4637 Clouds 9 1022 93 10000 1.5 250 20:59 08.01.2020
4638 Clouds 9 1021 93 10000 2.6 230 20:41 08.01.2020
4639 Clouds 9 1021 100 10000 2.1 210 20:21 08.01.2020
4640 Clouds 9 1021 100 10000 2.1 210 19:58 08.01.2020
4641 Clouds 9 1021 100 10000 2.1 250 19:38 08.01.2020
4642 Clouds 10 1021 93 10000 2.1 260 19:19 08.01.2020
4643 Clouds 10 1021 93 10000 2.1 260 18:58 08.01.2020
4644 Rain 10 1021 93 10000 3.1 240 18:39 08.01.2020
4645 Rain 10 1021 93 10000 3.6 240 18:19 08.01.2020
4646 Rain 10 1021 93 10000 3.1 250 17:57 08.01.2020
4647 Rain 10 1021 93 10000 3.1 250 17:38 08.01.2020
4648 Clouds 10 1020 96 0 5.29 244 17:19 08.01.2020
4649 Clouds 10 1020 96 0 5.29 244 17:19 08.01.2020
4650 Clouds 10 1021 93 10000 3.6 270 16:56 08.01.2020
4651 Clouds 11 1021 93 10000 3.6 260 16:38 08.01.2020
4652 Clouds 11 1020 93 10000 4.6 270 16:19 08.01.2020
4653 Drizzle 11 1020 93 9000 5.1 260 15:45 08.01.2020
4654 Drizzle 11 1020 93 9000 5.1 260 15:22 08.01.2020
4655 Drizzle 11 1020 93 9000 5.1 260 15:22 08.01.2020
4656 Drizzle 11 1020 93 8000 4.1 260 14:59 08.01.2020
4657 Drizzle 11 1019 93 4500 5.1 250 14:40 08.01.2020
4658 Clouds 11 1019 93 10000 5.1 240 14:21 08.01.2020
4659 Clouds 10 1019 93 10000 6.2 240 13:42 08.01.2020
4660 Clouds 10 1019 93 10000 6.2 240 13:22 08.01.2020
4661 Clouds 10 1019 100 10000 6.7 240 12:55 08.01.2020
4662 Clouds 10 1019 100 10000 6.7 240 12:37 08.01.2020
4663 Clouds 10 1019 93 10000 6.7 240 12:18 08.01.2020
4664 Clouds 10 1019 93 10000 6.7 240 12:18 08.01.2020
4665 Clouds 10 1019 93 10000 6.2 230 11:48 08.01.2020
4666 Drizzle 10 1019 93 10000 6.2 230 11:19 08.01.2020
4667 Drizzle 10 1019 93 10000 6.2 230 10:59 08.01.2020
4668 Drizzle 9 1019 100 3500 6.2 230 10:40 08.01.2020
4669 Drizzle 9 1019 100 5000 6.7 230 10:21 08.01.2020
4670 Mist 9 1019 93 5000 7.2 230 09:43 08.01.2020
4671 Drizzle 9 1019 93 5000 6.7 230 09:20 08.01.2020
4672 Drizzle 9 1019 93 5000 6.7 230 08:59 08.01.2020
4673 Rain 9 1019 93 8000 6.7 220 08:41 08.01.2020
4674 Rain 9 1019 93 8000 6.7 220 08:22 08.01.2020
4675 Clouds 8 1018 93 10000 5.7 220 07:58 08.01.2020
4676 Clouds 8 1018 93 8000 5.7 210 07:40 08.01.2020
4677 Clouds 8 1018 87 10000 6.2 220 07:18 08.01.2020
4678 Clouds 8 1018 87 10000 6.2 220 06:41 08.01.2020
4679 Clouds 8 1019 81 10000 6.7 220 05:56 08.01.2020
4680 Clouds 8 1019 81 10000 6.7 220 05:26 08.01.2020
4681 Clouds 8 1019 75 10000 6.7 220 04:37 08.01.2020
4682 Rain 7 1019 70 10000 6.2 210 02:46 08.01.2020
4683 Rain 7 1019 70 10000 6.2 210 02:28 08.01.2020
4684 Clouds 7 1019 75 10000 7.2 200 01:58 08.01.2020
4685 Clouds 7 1020 75 10000 7.7 210 01:32 08.01.2020
4686 Clouds 7 1020 81 10000 7.7 190 00:51 08.01.2020
4687 Clouds 7 1020 81 10000 7.7 190 00:23 08.01.2020
4688 Clouds 7 1022 81 10000 6.2 210 23:46 07.01.2020
4689 Clouds 7 1022 81 10000 5.7 210 23:21 07.01.2020
4690 Clouds 7 1022 81 10000 5.7 210 22:57 07.01.2020
4691 Clouds 7 1022 87 10000 5.1 210 22:38 07.01.2020
4692 Clouds 7 1023 87 10000 5.7 210 22:19 07.01.2020
4693 Clouds 7 1022 87 10000 5.1 200 21:42 07.01.2020
4694 Clouds 7 1023 87 10000 4.6 210 21:22 07.01.2020
4695 Clouds 7 1023 87 10000 4.6 210 20:58 07.01.2020
4696 Clouds 7 1023 81 10000 5.1 200 20:40 07.01.2020
4697 Clouds 6 1023 81 10000 5.7 200 20:22 07.01.2020
4698 Clouds 7 1023 81 10000 5.7 200 19:58 07.01.2020
4699 Clouds 6 1023 87 10000 6.2 190 19:38 07.01.2020
4700 Clouds 6 1023 87 10000 5.7 190 19:19 07.01.2020
4701 Clouds 6 1023 87 10000 5.7 190 18:56 07.01.2020
4702 Clouds 6 1024 87 10000 4.6 190 18:38 07.01.2020
4703 Clouds 6 1024 87 10000 4.1 200 18:18 07.01.2020
4704 Clouds 6 1024 87 10000 4.1 200 17:57 07.01.2020
4705 Clouds 6 1025 87 10000 4.1 210 17:37 07.01.2020
4706 Clouds 6 1025 81 10000 4.1 210 17:19 07.01.2020
4707 Clouds 6 1025 81 10000 4.1 210 16:55 07.01.2020
4708 Clouds 7 1025 87 10000 5.1 220 16:37 07.01.2020
4709 Clouds 7 1025 81 10000 5.1 220 16:18 07.01.2020
4710 Clouds 8 1025 75 10000 6.2 220 15:43 07.01.2020
4711 Clouds 8 1025 75 10000 6.2 220 15:24 07.01.2020
4712 Clouds 8 1024 81 10000 5.7 230 14:59 07.01.2020
4713 Clouds 8 1024 81 10000 5.7 230 14:40 07.01.2020
4714 Clouds 8 1024 81 10000 6.2 230 14:22 07.01.2020
4715 Clouds 8 1024 81 10000 6.2 230 13:55 07.01.2020
4716 Clouds 8 1024 81 10000 6.7 240 13:37 07.01.2020
4717 Clouds 7 1024 81 10000 6.7 230 13:18 07.01.2020
4718 Clouds 7 1024 87 9000 6.2 240 12:40 07.01.2020
4719 Clouds 7 1024 87 8000 4.6 240 12:19 07.01.2020
4720 Clouds 7 1024 93 8000 4.6 240 11:43 07.01.2020
4721 Clouds 7 1024 93 8000 4.6 240 11:23 07.01.2020
4722 Clouds 7 1024 93 8000 3.6 230 10:58 07.01.2020
4723 Clouds 7 1024 87 7000 3.6 230 10:40 07.01.2020
4724 Clouds 7 1024 87 7000 3.6 230 10:22 07.01.2020
4725 Clouds 6 1024 93 7000 3.6 250 09:56 07.01.2020
4726 Clouds 6 1023 93 6000 3.6 240 09:37 07.01.2020
4727 Clouds 6 1023 93 6000 3.6 240 09:37 07.01.2020
4728 Mist 6 1023 93 5000 4.6 240 09:19 07.01.2020
4729 Mist 6 1023 93 5000 4.6 240 09:19 07.01.2020
4730 Clouds 6 1022 93 6000 4.6 250 08:41 07.01.2020
4731 Clouds 6 1022 93 6000 4.6 250 08:41 07.01.2020
4732 Clouds 6 1022 93 6000 4.6 240 08:21 07.01.2020
4733 Clouds 6 1021 93 7000 4.1 240 07:51 07.01.2020
4734 Clouds 5 1021 93 7000 4.1 240 07:26 07.01.2020
4735 Clouds 5 1021 93 7000 4.6 240 06:52 07.01.2020
4736 Clouds 5 1021 100 7000 4.6 250 06:32 07.01.2020
4737 Clouds 5 1020 93 8000 4.1 230 05:46 07.01.2020
4738 Clouds 4 1019 93 10000 5.1 230 04:31 07.01.2020
4739 Rain 4 1019 86 10000 3.1 220 03:25 07.01.2020
4740 Clouds 3 1019 86 10000 2.6 210 02:21 07.01.2020
4741 Clouds 3 1019 88 10000 2.6 200 01:51 07.01.2020
4742 Clouds 3 1019 88 10000 2.6 200 01:26 07.01.2020
4743 Clouds 1 1018 88 10000 3.1 170 00:23 07.01.2020
4744 Clouds 1 1018 88 10000 2.6 160 23:59 06.01.2020
4745 Clouds 1 1018 88 10000 2.1 150 23:39 06.01.2020
4746 Clouds 1 1018 86 10000 2.1 120 23:21 06.01.2020
4747 Clouds 1 1018 86 10000 2.1 120 22:58 06.01.2020
4748 Clouds 1 1018 88 10000 2.6 140 22:38 06.01.2020
4749 Clouds 2 1019 88 10000 3.1 130 22:20 06.01.2020
4750 Clouds 2 1019 88 10000 3.1 130 21:56 06.01.2020
4751 Clouds 2 1019 88 10000 2.6 140 21:37 06.01.2020
4752 Clouds 2 1019 88 10000 2.6 140 21:19 06.01.2020
4753 Clouds 3 1019 88 10000 2.6 140 20:56 06.01.2020
4754 Clouds 3 1020 88 10000 3.1 150 20:37 06.01.2020
4755 Clouds 3 1020 90 10000 2.6 160 20:19 06.01.2020
4756 Clouds 3 1020 90 10000 2.6 160 19:55 06.01.2020
4757 Clouds 3 1021 90 10000 3.6 160 19:37 06.01.2020
4758 Clouds 4 1021 86 10000 3.1 180 19:18 06.01.2020
4759 Clouds 4 1021 75 10000 4.1 190 18:45 06.01.2020
4760 Clouds 5 1021 80 10000 4.6 200 18:21 06.01.2020
4761 Clouds 5 1021 80 10000 4.6 200 17:56 06.01.2020
4762 Clouds 5 1022 75 10000 4.1 190 17:37 06.01.2020
4763 Clouds 5 1022 81 10000 4.1 180 17:18 06.01.2020
4764 Clouds 6 1022 81 10000 3.1 180 16:42 06.01.2020
4765 Clouds 6 1022 81 10000 3.1 180 16:42 06.01.2020
4766 Clouds 6 1022 81 10000 3.1 180 16:23 06.01.2020
4767 Clouds 6 1023 81 10000 3.6 190 15:59 06.01.2020
4768 Clouds 6 1023 81 10000 3.6 200 15:38 06.01.2020
4769 Clouds 6 1023 87 10000 3.6 200 15:18 06.01.2020
4770 Clouds 6 1023 87 10000 3.6 200 15:18 06.01.2020
4771 Clouds 6 1023 87 10000 3.6 200 14:56 06.01.2020
4772 Clouds 6 1024 87 10000 3.1 200 14:37 06.01.2020
4773 Clouds 6 1024 87 10000 4.1 210 14:18 06.01.2020
4774 Clouds 6 1024 87 10000 4.1 210 13:40 06.01.2020
4775 Clouds 6 1025 87 10000 4.6 220 13:22 06.01.2020
4776 Clouds 6 1025 87 10000 4.6 220 12:59 06.01.2020
4777 Clouds 6 1025 87 10000 4.6 220 12:41 06.01.2020
4778 Clouds 6 1026 87 10000 3.6 210 12:20 06.01.2020
4779 Clouds 6 1026 87 10000 3.6 210 11:55 06.01.2020
4780 Clouds 6 1026 87 10000 3.6 210 11:37 06.01.2020
4781 Clouds 6 1026 87 10000 2.6 200 11:19 06.01.2020
4782 Clouds 6 1027 87 10000 1.5 190 10:42 06.01.2020
4783 Clouds 6 1027 81 10000 2.6 200 10:21 06.01.2020
4784 Clouds 5 1027 86 10000 3.1 210 09:42 06.01.2020
4785 Clouds 5 1027 86 10000 3.1 210 09:24 06.01.2020
4786 Clouds 5 1027 86 10000 3.1 210 09:24 06.01.2020
4787 Clouds 5 1027 86 10000 2.6 200 08:58 06.01.2020
4788 Clouds 5 1027 86 10000 2.6 200 08:58 06.01.2020
4789 Clouds 5 1027 86 10000 2.6 200 08:58 06.01.2020
4790 Clouds 5 1027 86 10000 2.1 210 08:39 06.01.2020
4791 Clouds 5 1027 86 10000 2.1 200 08:21 06.01.2020
4792 Clouds 5 1027 93 10000 2.6 220 07:46 06.01.2020
4793 Clouds 5 1027 93 10000 2.6 220 07:21 06.01.2020
4794 Clouds 5 1027 93 10000 2.6 220 07:21 06.01.2020
4795 Drizzle 5 1028 93 10000 3.6 220 06:41 06.01.2020
4796 Drizzle 5 1028 93 10000 3.6 230 05:51 06.01.2020
4797 Drizzle 5 1028 93 10000 3.6 230 05:33 06.01.2020
4798 Clouds 5 1028 93 10000 3.6 220 04:26 06.01.2020
4799 Clouds 5 1028 93 10000 3.6 230 03:53 06.01.2020
4800 Drizzle 5 1028 93 10000 4.6 220 02:40 06.01.2020
4801 Clouds 5 1029 93 10000 4.1 220 02:20 06.01.2020
4802 Clouds 5 1029 93 10000 5.1 220 01:41 06.01.2020
4803 Clouds 5 1029 93 10000 5.1 230 01:20 06.01.2020
4804 Clouds 6 1029 81 10000 5.1 230 00:40 06.01.2020
4805 Drizzle 6 1030 81 10000 4.6 230 00:19 06.01.2020
4806 Clouds 6 1030 81 10000 4.1 230 23:41 05.01.2020
4807 Drizzle 6 1030 81 10000 4.1 230 23:21 05.01.2020
4808 Drizzle 6 1030 81 10000 4.1 230 22:55 05.01.2020
4809 Drizzle 6 1030 81 10000 4.1 230 22:37 05.01.2020
4810 Clouds 6 1030 81 10000 4.6 210 22:18 05.01.2020
4811 Clouds 6 1030 81 10000 4.1 210 21:41 05.01.2020
4812 Clouds 6 1030 81 10000 4.1 220 21:21 05.01.2020
4813 Clouds 6 1030 81 10000 4.1 220 20:59 05.01.2020
4814 Clouds 6 1031 81 10000 4.6 210 20:39 05.01.2020
4815 Clouds 6 1031 87 10000 4.1 220 20:20 05.01.2020
4816 Clouds 6 1031 87 10000 4.1 220 20:20 05.01.2020
4817 Clouds 6 1031 87 10000 4.1 220 19:59 05.01.2020
4818 Clouds 6 1031 87 10000 4.6 220 19:41 05.01.2020
4819 Clouds 6 1031 87 10000 5.1 220 19:21 05.01.2020
4820 Clouds 6 1031 87 10000 5.1 220 18:56 05.01.2020
4821 Clouds 6 1031 93 10000 4.6 220 18:38 05.01.2020
4822 Clouds 6 1031 93 10000 4.1 220 18:19 05.01.2020
4823 Clouds 6 1031 93 10000 4.1 220 17:59 05.01.2020
4824 Clouds 6 1031 93 10000 4.1 220 17:59 05.01.2020
4825 Clouds 6 1031 93 8000 4.1 220 17:39 05.01.2020
4826 Clouds 6 1031 93 6000 4.1 220 17:20 05.01.2020
4827 Clouds 6 1031 93 6000 4.1 220 16:57 05.01.2020
4828 Clouds 6 1031 93 6000 3.6 220 16:39 05.01.2020
4829 Clouds 6 1031 93 6000 3.6 220 16:39 05.01.2020
4830 Mist 6 1031 93 5000 3.6 220 16:20 05.01.2020
4831 Mist 6 1031 93 5000 3.6 220 15:40 05.01.2020
4832 -273 0 0 0 0 0 15:22 05.01.2020
4833 -273 0 0 0 0 0 15:22 05.01.2020
4834 Mist 6 1031 93 5000 3.6 220 15:22 05.01.2020
4835 Mist 6 1031 93 4500 3.6 220 14:57 05.01.2020
4836 Mist 6 1032 93 4500 4.1 220 14:39 05.01.2020
4837 Mist 6 1032 100 4500 4.1 220 14:21 05.01.2020
4838 Mist 5 1032 100 4500 4.1 220 13:58 05.01.2020
4839 Mist 5 1032 100 5000 4.1 220 13:38 05.01.2020
4840 Mist 5 1032 93 5000 3.6 220 13:20 05.01.2020
4841 Mist 5 1032 93 5000 3.6 220 12:57 05.01.2020
4842 Mist 5 1032 93 5000 2.6 210 12:38 05.01.2020
4843 Mist 4 1033 100 5000 1.5 190 12:20 05.01.2020
4844 Mist 4 1033 100 5000 1.5 190 12:20 05.01.2020
4845 Mist 4 1033 100 5000 1.5 190 11:55 05.01.2020
4846 Mist 4 1033 93 5000 2.1 220 11:36 05.01.2020
4847 Clouds 4 1033 93 8000 1.5 210 11:18 05.01.2020
4848 Clouds 3 1033 93 9000 2.1 210 10:41 05.01.2020
4849 Mist 3 1033 93 5000 2.1 220 10:20 05.01.2020
4850 Mist 3 1033 93 5000 2.1 220 10:20 05.01.2020
4851 Mist 2 1033 93 5000 2.1 220 09:57 05.01.2020
4852 Clouds 2 1033 100 10000 2.1 230 09:38 05.01.2020
4853 Clouds 1 1033 100 10000 1.5 220 09:20 05.01.2020
4854 Clouds 1 1033 100 10000 2.1 220 08:45 05.01.2020
4855 Clouds 1 1033 90 10000 1.5 210 08:21 05.01.2020
4856 Clouds 1 1033 90 10000 1.5 190 07:47 05.01.2020
4857 Clouds 1 1033 90 10000 1.5 190 07:29 05.01.2020
4858 Clouds 1 1033 90 10000 1.5 200 06:56 05.01.2020
4859 Clouds 1 1032 90 10000 1 220 05:52 05.01.2020
4860 Clouds 2 1032 91 10000 2.6 190 04:57 05.01.2020
4861 Clouds 2 1032 91 10000 1.5 260 04:19 05.01.2020
4862 Clouds 3 1033 86 10000 2.1 300 03:45 05.01.2020
4863 Clouds 3 1032 86 10000 2.6 250 02:41 05.01.2020
4864 Clouds 4 1032 80 10000 3.6 260 02:19 05.01.2020
4865 Rain 3 1032 86 10000 2.1 280 01:36 05.01.2020
4866 Clouds 3 1031 86 10000 2.6 250 01:18 05.01.2020
4867 Clouds 3 1031 86 10000 2.1 270 00:40 05.01.2020
4868 Clouds 3 1031 86 10000 3.1 250 00:21 05.01.2020
4869 Clouds 3 1031 86 10000 3.1 250 00:21 05.01.2020
4870 Clouds 3 1031 86 10000 3.1 250 23:59 04.01.2020
4871 Clouds 3 1031 86 10000 3.1 250 23:39 04.01.2020
4872 Clouds 3 1030 86 10000 2.6 270 23:18 04.01.2020
4873 Clouds 3 1030 86 10000 1.5 280 22:39 04.01.2020
4874 Clouds 3 1030 86 10000 1.5 280 22:39 04.01.2020
4875 Clouds 3 1029 93 10000 1.5 270 22:21 04.01.2020
4876 Clouds 3 1029 93 10000 1.5 270 21:57 04.01.2020
4877 Clouds 3 1029 93 10000 1.5 270 21:57 04.01.2020
4878 Clouds 3 1029 93 10000 3.1 260 21:38 04.01.2020
4879 Clouds 3 1028 93 10000 3.1 280 21:19 04.01.2020
4880 Clouds 3 1028 93 10000 3.1 280 20:57 04.01.2020
4881 Clouds 3 1028 86 10000 3.6 260 20:38 04.01.2020
4882 Clouds 4 1027 93 10000 4.6 280 20:19 04.01.2020
4883 Clouds 4 1027 86 10000 4.1 280 19:42 04.01.2020
4884 Clouds 4 1027 86 10000 4.1 280 19:42 04.01.2020
4885 Clouds 4 1027 86 10000 3.1 290 19:24 04.01.2020
4886 Clouds 4 1027 86 10000 3.1 290 18:58 04.01.2020
4887 Clouds 4 1026 86 10000 3.1 290 18:39 04.01.2020
4888 Clouds 4 1026 86 10000 4.1 310 18:21 04.01.2020
4889 Clouds 5 1026 86 10000 4.1 310 17:59 04.01.2020
4890 Clouds 5 1025 93 10000 5.7 310 17:40 04.01.2020
4891 Clouds 5 1025 87 10000 5.1 300 17:22 04.01.2020
4892 Clouds 5 1025 87 10000 5.1 300 16:55 04.01.2020
4893 Clouds 5 1024 93 10000 4.6 300 16:36 04.01.2020
4894 Clouds 6 1023 87 10000 5.7 300 16:18 04.01.2020
4895 Clouds 6 1022 87 10000 6.2 310 15:42 04.01.2020
4896 Rain 6 1022 87 10000 7.2 310 15:20 04.01.2020
4897 Rain 6 1022 87 10000 7.2 310 14:59 04.01.2020
4898 Rain 6 1022 87 10000 7.2 310 14:59 04.01.2020
4899 Rain 6 1021 87 10000 8.2 330 14:40 04.01.2020
4900 Rain 6 1020 87 8000 11.8 280 14:20 04.01.2020
4901 Rain 7 1020 87 8000 11.8 280 13:58 04.01.2020
4902 Rain 7 1020 93 8000 10.8 280 13:37 04.01.2020
4903 Rain 7 1021 87 8000 10.3 270 13:19 04.01.2020
4904 Rain 7 1021 87 8000 10.3 270 12:57 04.01.2020
4905 Clouds 7 1021 87 10000 10.3 270 12:38 04.01.2020
4906 Clouds 7 1021 87 10000 10.3 270 12:18 04.01.2020
4907 Clouds 7 1021 87 10000 10.3 270 11:55 04.01.2020
4908 Rain 7 1020 87 10000 10.8 270 11:36 04.01.2020
4909 Rain 7 1021 87 10000 10.8 260 11:18 04.01.2020
4910 Rain 6 1021 81 10000 10.8 260 10:40 04.01.2020
4911 Clouds 6 1021 81 10000 9.3 260 10:21 04.01.2020
4912 Clouds 6 1021 87 10000 9.8 260 09:47 04.01.2020
4913 Clouds 6 1021 87 10000 9.8 260 09:26 04.01.2020
4914 Clouds 6 1021 87 10000 9.3 260 08:49 04.01.2020
4915 Clouds 5 1021 87 10000 9.3 260 08:29 04.01.2020
4916 Clouds 5 1021 86 10000 8.7 260 07:57 04.01.2020
4917 Clouds 5 1021 86 10000 7.7 250 07:38 04.01.2020
4918 Clouds 5 1022 86 10000 7.2 260 06:44 04.01.2020
4919 Clouds 4 1022 86 10000 7.7 250 05:59 04.01.2020
4920 Clouds 4 1022 93 10000 6.7 250 04:52 04.01.2020
4921 Clouds 4 1022 93 10000 6.7 250 04:31 04.01.2020
4922 Clouds 4 1022 86 10000 6.7 250 03:30 04.01.2020
4923 Clouds 4 1023 86 10000 6.2 250 02:52 04.01.2020
4924 Clouds 4 1023 93 10000 5.1 250 02:18 04.01.2020
4925 Clouds 4 1023 86 10000 5.7 260 01:45 04.01.2020
4926 Clouds 4 1023 86 10000 5.7 260 01:27 04.01.2020
4927 Clouds 4 1022 96 0 1.79 288 00:29 04.01.2020
4928 Clouds 4 1022 96 0 1.79 288 00:29 04.01.2020
4929 Clouds 5 1022 86 10000 6.2 270 23:59 03.01.2020
4930 Clouds 5 1022 86 10000 6.2 270 23:59 03.01.2020
4931 Clouds 5 1022 86 10000 5.1 270 23:37 03.01.2020
4932 Clouds 5 1022 86 10000 5.7 270 23:19 03.01.2020
4933 Clouds 5 1021 86 10000 5.1 280 22:41 03.01.2020
4934 Clouds 5 1020 93 10000 4.6 270 22:19 03.01.2020
4935 Clouds 5 1020 93 10000 4.6 270 21:58 03.01.2020
4936 Clouds 5 1020 93 10000 4.6 270 21:38 03.01.2020
4937 Clouds 5 1020 93 10000 4.6 270 21:38 03.01.2020
4938 Clouds 5 1020 93 10000 4.6 270 21:38 03.01.2020
4939 Clouds 5 1019 87 10000 5.7 290 21:19 03.01.2020
4940 Clouds 5 1019 87 10000 5.7 290 21:19 03.01.2020
4941 Clouds 5 1016 99 0 5.05 285 20:57 03.01.2020
4942 Clouds 5 1019 93 10000 4.6 290 20:39 03.01.2020
4943 Clouds 6 1018 93 10000 4.6 300 20:18 03.01.2020
4944 Clouds 6 1018 93 10000 4.6 300 19:55 03.01.2020
4945 Clouds 6 1017 93 10000 5.7 330 19:37 03.01.2020
4946 Rain 6 1016 93 10000 6.7 320 19:18 03.01.2020
4947 Rain 6 1015 93 10000 8.2 340 18:41 03.01.2020
4948 Rain 7 1014 93 10000 6.7 320 18:23 03.01.2020
4949 Rain 7 1014 93 10000 6.7 320 17:55 03.01.2020
4950 Rain 7 1012 93 10000 4.1 290 17:36 03.01.2020
4951 Drizzle 8 1012 100 2800 4.1 280 17:18 03.01.2020
4952 Drizzle 8 1012 93 4500 4.6 240 16:42 03.01.2020
4953 Drizzle 8 1012 100 3000 4.6 230 16:22 03.01.2020
4954 Drizzle 8 1011 100 3200 5.1 220 15:44 03.01.2020
4955 Drizzle 8 1012 100 3800 5.1 220 15:19 03.01.2020
4956 Drizzle 8 1012 100 3800 5.1 220 14:59 03.01.2020
4957 Rain 9 1012 93 10000 6.7 220 14:38 03.01.2020
4958 Rain 8 1012 100 10000 6.7 230 14:19 03.01.2020
4959 Drizzle 8 1012 100 5000 6.7 220 13:44 03.01.2020
4960 Drizzle 8 1012 100 8000 6.7 220 13:24 03.01.2020
4961 Drizzle 8 1012 100 8000 6.7 220 12:59 03.01.2020
4962 Drizzle 8 1013 93 8000 6.7 220 12:39 03.01.2020
4963 Drizzle 8 1013 93 7000 6.2 220 12:21 03.01.2020
4964 Drizzle 8 1013 93 3500 6.2 220 11:45 03.01.2020
4965 Drizzle 8 1013 93 3000 6.2 220 11:21 03.01.2020
4966 Clouds 8 1014 100 6000 6.2 220 10:46 03.01.2020
4967 Clouds 7 1014 100 6000 6.2 220 10:27 03.01.2020
4968 Drizzle 7 1014 93 4500 5.7 210 09:58 03.01.2020
4969 Drizzle 7 1014 93 4200 4.6 210 09:40 03.01.2020
4970 Drizzle 7 1014 93 4500 4.6 210 09:22 03.01.2020
4971 Drizzle 7 1014 93 4500 4.6 210 08:57 03.01.2020
4972 Drizzle 7 1014 87 10000 5.7 210 08:38 03.01.2020
4973 Clouds 7 1014 87 10000 5.1 210 08:19 03.01.2020
4974 Clouds 7 1014 87 10000 5.1 210 07:40 03.01.2020
4975 Clouds 7 1014 87 10000 6.2 210 07:19 03.01.2020
4976 Clouds 7 1014 87 10000 5.7 220 06:51 03.01.2020
4977 Clouds 7 1014 87 10000 5.7 220 06:33 03.01.2020
4978 Clouds 6 1015 87 10000 5.1 210 05:46 03.01.2020
4979 Clouds 5 1015 93 10000 5.1 200 04:27 03.01.2020
4980 Clouds 5 1017 86 10000 5.7 200 02:59 03.01.2020
4981 Clouds 5 1017 86 10000 6.2 200 02:41 03.01.2020
4982 Clouds 5 1018 86 10000 6.7 200 01:45 03.01.2020
4983 Clouds 4 1019 93 10000 4.6 200 00:53 03.01.2020
4984 Clouds 4 1019 93 10000 4.6 200 00:31 03.01.2020
4985 Clouds 4 1019 93 10000 4.6 190 23:57 02.01.2020
4986 Clouds 4 1020 93 10000 4.6 200 23:38 02.01.2020
4987 Clouds 4 1020 93 10000 4.1 200 23:19 02.01.2020
4988 Clouds 3 1020 93 10000 4.1 200 22:57 02.01.2020
4989 Clouds 3 1020 93 8000 4.1 200 22:39 02.01.2020
4990 Clouds 3 1020 93 8000 3.6 200 22:18 02.01.2020
4991 Clouds 3 1020 100 7000 3.6 190 21:42 02.01.2020
4992 Clouds 2 1020 100 7000 3.6 190 21:23 02.01.2020
4993 Clouds 2 1021 100 6000 3.6 190 21:00 02.01.2020
4994 Clouds 2 1021 100 6000 3.6 190 21:00 02.01.2020
4995 Drizzle 2 1021 100 5000 2.6 180 20:40 02.01.2020
4996 Drizzle 2 1022 100 4500 2.6 190 20:21 02.01.2020
4997 Drizzle 1 1022 100 4500 2.6 190 19:56 02.01.2020
4998 Mist 1 1022 100 4500 3.1 190 19:38 02.01.2020
4999 Drizzle 1 1022 88 4000 3.6 180 19:19 02.01.2020
5000 Drizzle 1 1022 88 4000 3.6 180 18:59 02.01.2020
5001 Drizzle 1 1022 88 2900 3.6 180 18:40 02.01.2020
5002 Mist 1 1023 88 2500 4.1 180 18:22 02.01.2020
5003 Mist 1 1023 88 2500 4.1 180 18:22 02.01.2020
5004 Mist 0 1023 88 2500 4.1 180 17:57 02.01.2020
5005 Mist 0 1023 88 2500 4.1 180 17:38 02.01.2020
5006 Mist 0 1023 80 2300 4.1 190 17:19 02.01.2020
5007 Mist 0 1023 80 2300 4.1 190 16:57 02.01.2020
5008 Mist 0 1023 80 1100 4.1 200 16:39 02.01.2020
5009 Mist 0 1024 80 1100 4.1 200 16:20 02.01.2020
5010 Mist 0 1024 80 1100 4.1 200 15:57 02.01.2020
5011 Mist 0 1024 80 1500 5.1 220 15:37 02.01.2020
5012 Mist 0 1024 80 2000 5.1 220 15:19 02.01.2020
5013 Mist 0 1024 80 1300 4.1 210 14:55 02.01.2020
5014 Mist 0 1024 80 1300 4.1 210 14:55 02.01.2020
5015 Mist 0 1024 80 1300 4.1 210 14:55 02.01.2020
5016 Mist 0 1024 80 1300 4.1 210 14:36 02.01.2020
5017 Mist 0 1024 76 2800 4.1 230 14:18 02.01.2020
5018 Mist 0 1025 76 4000 5.7 240 13:47 02.01.2020
5019 Mist -1 1025 76 4000 5.7 240 13:29 02.01.2020
5020 Mist -1 1025 72 3600 5.7 230 12:45 02.01.2020
5021 Mist -1 1026 100 2100 4.6 250 12:25 02.01.2020
5022 Mist -1 1026 100 2100 4.6 250 11:58 02.01.2020
5023 Mist -1 1026 100 2100 4.6 250 11:40 02.01.2020
5024 Mist -1 1026 88 1600 4.1 230 11:19 02.01.2020
5025 Mist -1 1026 100 1400 4.6 220 10:44 02.01.2020
5026 Mist -1 1026 100 1400 4.6 220 10:25 02.01.2020
5027 Mist -1 1026 100 2000 4.1 210 09:48 02.01.2020
5028 Mist -2 1026 100 2000 4.1 210 09:29 02.01.2020
5029 Mist -2 1026 100 5000 1.5 180 08:47 02.01.2020
5030 Mist -3 1026 100 5000 1.5 180 08:27 02.01.2020
5031 Clear -3 1026 100 8000 1.5 180 07:53 02.01.2020
5032 Clear -3 1026 92 8000 2.1 170 07:30 02.01.2020
5033 Clear -3 1027 92 8000 1 0 06:46 02.01.2020
5034 Clear -3 1027 92 8000 1 0 06:27 02.01.2020
5035 Fog -3 1027 100 400 1.5 170 05:29 02.01.2020
5036 Fog -3 1028 100 200 1.5 150 04:32 02.01.2020
5037 Fog -2 1028 100 200 2.6 200 02:54 02.01.2020
5038 Fog -2 1029 100 200 1 190 01:59 02.01.2020
5039 Fog -2 1029 100 300 1.5 190 01:39 02.01.2020
5040 Fog -2 1029 100 300 1.5 210 00:58 02.01.2020
5041 Fog -2 1029 92 300 2.1 230 00:33 02.01.2020
5042 Fog -2 1030 100 300 1.5 250 23:56 01.01.2020
5043 Mist -2 1029 100 1000 1.5 240 23:37 01.01.2020
5044 Fog -1 1030 100 700 1.5 260 23:18 01.01.2020
5045 Fog -1 1030 100 400 2.1 230 22:38 01.01.2020
5046 Fog -1 1030 100 300 2.1 210 22:19 01.01.2020
5047 Fog -1 1030 100 300 2.1 210 21:56 01.01.2020
5048 Fog -1 1030 100 300 2.6 190 21:38 01.01.2020
5049 Fog -2 1030 100 300 1.5 210 21:19 01.01.2020
5050 Fog -1 1030 100 300 1.5 210 20:55 01.01.2020
5051 Fog -1 1030 100 300 2.1 200 20:37 01.01.2020
5052 Fog -2 1030 100 400 2.1 220 20:19 01.01.2020
5053 Fog -1 1030 100 400 2.1 220 19:55 01.01.2020
5054 Fog -1 1031 100 400 2.1 190 19:37 01.01.2020
5055 Fog -1 1031 100 400 2.1 200 19:19 01.01.2020
5056 Fog -1 1031 100 400 2.1 200 18:55 01.01.2020
5057 Fog -1 1031 100 400 2.6 210 18:36 01.01.2020
5058 Fog -1 1031 100 800 2.1 200 18:18 01.01.2020
5059 Fog -1 1031 100 800 2.1 200 17:56 01.01.2020
5060 Mist -1 1031 100 1400 2.6 210 17:38 01.01.2020
5061 Mist -1 1031 100 1400 2.6 190 17:18 01.01.2020
5062 Mist -1 1031 100 2500 3.1 220 16:41 01.01.2020
5063 Mist -1 1031 100 2500 3.1 220 16:22 01.01.2020
5064 Mist -1 1031 100 3400 2.1 190 15:58 01.01.2020
5065 Mist -1 1031 100 1500 3.1 190 15:40 01.01.2020
5066 Fog -1 1031 100 600 2.6 170 15:21 01.01.2020
5067 Fog -1 1031 100 600 2.6 170 14:59 01.01.2020
5068 Fog -1 1031 100 500 2.6 160 14:40 01.01.2020
5069 Fog -1 1032 100 500 2.6 150 14:21 01.01.2020
5070 Fog -1 1032 100 500 2.6 150 13:56 01.01.2020
5071 Fog -1 1033 100 300 2.1 170 13:37 01.01.2020
5072 Fog -1 1033 92 300 2.1 170 13:18 01.01.2020
5073 Fog -1 1033 92 300 2.1 170 12:57 01.01.2020
5074 Fog -1 1033 100 300 0.5 0 12:39 01.01.2020
5075 Fog -1 1033 100 300 1 0 12:19 01.01.2020
5076 Clear -1 1033 94 0 2.4 194 11:43 01.01.2020
5077 Fog -2 1034 100 300 1 0 11:23 01.01.2020
5078 Fog -2 1034 100 300 2.1 170 10:59 01.01.2020
5079 Fog -2 1034 100 300 2.6 160 10:41 01.01.2020
5080 Fog -2 1034 92 300 1.5 210 10:21 01.01.2020
5081 Fog -2 1034 92 300 1.5 210 09:59 01.01.2020
5082 Fog -2 1034 100 200 1.5 190 09:38 01.01.2020
5083 Fog -2 1034 100 200 1.5 190 09:38 01.01.2020
5084 Fog -2 1034 100 200 1.5 190 09:18 01.01.2020
5085 Fog -2 1034 100 200 1.5 190 08:55 01.01.2020
5086 Fog -2 1034 92 200 1.5 230 08:36 01.01.2020
5087 Fog -2 1034 92 200 1.5 210 08:18 01.01.2020
5088 Fog -2 1034 92 200 1.5 210 07:54 01.01.2020
5089 Fog -2 1034 100 200 1.5 200 07:36 01.01.2020
5090 Fog -1 1034 100 250 1.5 230 06:45 01.01.2020
5091 Fog -1 1034 100 200 0.5 0 06:21 01.01.2020
5092 Fog -1 1034 100 100 0.5 120 05:22 01.01.2020
5093 Fog -1 1034 100 100 2.54 230 03:45 01.01.2020
5094 Fog -1 1034 100 100 2.54 230 03:23 01.01.2020
5095 Fog 0 1034 100 100 0.5 0 02:57 01.01.2020
5096 Fog 0 1034 92 200 1 230 02:36 01.01.2020
5097 Fog 0 1035 100 1300 1 160 01:57 01.01.2020
5098 Mist 0 1035 100 2000 1.5 200 01:38 01.01.2020
5099 Mist 0 1035 100 2000 1 190 01:20 01.01.2020
5100 Mist 0 1035 93 6000 0.5 0 00:44 01.01.2020
5101 Mist 0 1035 93 6000 0.5 0 00:44 01.01.2020
5102 Mist 1 1035 93 6000 0.5 0 00:25 01.01.2020
5103 Clear 1 1035 93 9000 0.5 240 23:41 31.12.2019
5104 Clear 2 1035 100 9000 1 220 23:22 31.12.2019
5105 Clear 2 1035 100 9000 1 220 22:58 31.12.2019
5106 Clear 2 1035 100 10000 1 200 22:39 31.12.2019
5107 Clouds 2 1035 93 10000 0.5 0 22:20 31.12.2019
5108 Clouds 3 1035 93 10000 0.5 0 21:58 31.12.2019
5109 Clear 3 1035 93 10000 0.5 0 21:40 31.12.2019
5110 Clouds 4 1035 80 10000 1 0 21:21 31.12.2019
5111 Clouds 4 1035 80 10000 1 0 20:56 31.12.2019
5112 Clouds 4 1035 86 10000 1.5 260 20:37 31.12.2019
5113 Clouds 5 1035 80 10000 1.5 280 20:19 31.12.2019
5114 Clouds 5 1035 80 10000 1.5 280 19:55 31.12.2019
5115 Clouds 5 1035 80 10000 2.6 290 19:36 31.12.2019
5116 Clouds 5 1035 81 10000 2.1 300 19:18 31.12.2019
5117 Clouds 5 1035 81 10000 2.1 300 18:54 31.12.2019
5118 Clouds 5 1034 81 10000 2.6 310 18:36 31.12.2019
5119 Clouds 5 1034 80 10000 2.6 310 18:18 31.12.2019
5120 Clouds 5 1034 80 10000 2.6 310 17:54 31.12.2019
5121 Clouds 6 1034 80 10000 3.1 290 17:36 31.12.2019
5122 Clouds 6 1034 70 10000 3.6 310 17:18 31.12.2019
5123 Clouds 6 1034 70 10000 3.6 310 16:55 31.12.2019
5124 Clouds 7 1033 75 10000 4.6 300 16:36 31.12.2019
5125 Clouds 7 1033 70 10000 4.6 310 16:18 31.12.2019
5126 Clouds 7 1033 70 10000 4.6 310 15:55 31.12.2019
5127 Clouds 7 1033 70 10000 4.6 310 15:55 31.12.2019
5128 Clouds 7 1033 70 10000 4.6 310 15:55 31.12.2019
5129 Clouds 7 1033 75 10000 4.1 310 15:37 31.12.2019
5130 Clouds 8 1032 75 10000 5.1 300 15:19 31.12.2019
5131 Clouds 8 1032 75 10000 5.1 300 14:55 31.12.2019
5132 Clouds 8 1032 75 10000 5.1 300 14:37 31.12.2019
5133 Clouds 8 1032 75 10000 5.1 300 14:37 31.12.2019
5134 Clouds 8 1032 75 10000 6.2 300 14:18 31.12.2019
5135 Clouds 8 1032 75 10000 6.2 300 13:55 31.12.2019
5136 Clouds 8 1032 75 10000 5.7 300 13:37 31.12.2019
5137 Clouds 8 1032 75 10000 5.7 300 13:19 31.12.2019
5138 Clouds 8 1032 75 10000 5.7 300 12:55 31.12.2019
5139 Clouds 8 1032 75 10000 4.6 290 12:37 31.12.2019
5140 Clouds 8 1032 75 10000 5.7 290 12:18 31.12.2019
5141 Clouds 7 1031 81 10000 5.7 280 11:54 31.12.2019
5142 Clouds 7 1031 81 10000 5.7 280 11:36 31.12.2019
5143 Clouds 7 1031 81 10000 5.7 280 11:36 31.12.2019
5144 Clouds 7 1031 81 10000 4.1 280 11:18 31.12.2019
5145 Clouds 6 1031 87 10000 4.6 280 10:55 31.12.2019
5146 Clouds 6 1031 87 10000 4.6 280 10:37 31.12.2019
5147 Clouds 5 1031 93 10000 4.1 270 10:19 31.12.2019
5148 Clouds 5 1031 93 10000 4.1 270 09:56 31.12.2019
5149 Clouds 5 1031 93 10000 3.6 260 09:38 31.12.2019
5150 Clouds 5 1030 93 10000 2.6 260 09:18 31.12.2019
5151 Clouds 5 1030 93 10000 2.6 260 09:18 31.12.2019
5152 Clouds 5 1030 100 10000 3.1 250 08:42 31.12.2019
5153 Clouds 5 1030 100 10000 3.1 250 08:42 31.12.2019
5154 Clouds 5 1029 93 0 3.8 286 08:22 31.12.2019
5155 Clouds 5 1028 93 0 0.45 238 07:57 31.12.2019
5156 Clouds 5 1029 100 10000 3.6 280 07:38 31.12.2019
5157 Clouds 5 1028 93 0 3.8 286 07:18 31.12.2019
5158 Clouds 5 1028 100 10000 4.1 290 06:40 31.12.2019
5159 Clouds 6 1027 100 7000 4.1 280 05:28 31.12.2019
5160 Mist 6 1026 100 4500 4.6 280 04:25 31.12.2019
5161 Clouds 5 1025 100 10000 3.6 250 02:59 31.12.2019
5162 Clouds 5 1025 93 10000 4.6 250 02:36 31.12.2019
5163 Clouds 5 1025 80 10000 4.6 260 01:51 31.12.2019
5164 Clouds 5 1025 80 10000 4.6 260 01:32 31.12.2019
5165 Clouds 5 1024 80 10000 3.6 250 00:56 31.12.2019
5166 Clouds 5 1024 80 10000 4.1 250 00:37 31.12.2019
5167 Clouds 5 1024 69 10000 4.1 260 00:18 31.12.2019
5168 Clouds 5 1024 69 10000 4.1 260 23:55 30.12.2019
5169 Clouds 4 1024 74 10000 4.6 260 23:36 30.12.2019
5170 Clear 4 1024 64 10000 5.1 250 23:18 30.12.2019
5171 Clear 4 1024 64 10000 5.1 250 22:55 30.12.2019
5172 Clear 4 1024 64 10000 4.6 250 22:37 30.12.2019
5173 Clear 5 1024 60 10000 4.1 250 22:18 30.12.2019
5174 Clear 5 1024 60 10000 4.1 250 21:55 30.12.2019
5175 Clear 5 1024 59 10000 4.1 240 21:37 30.12.2019
5176 Clear 5 1024 59 10000 4.1 230 21:18 30.12.2019
5177 Clear 5 1024 59 10000 4.1 230 20:55 30.12.2019
5178 Clear 5 1024 55 10000 4.1 240 20:37 30.12.2019
5179 Clouds 5 1024 55 10000 4.1 240 20:18 30.12.2019
5180 Clouds 5 1024 55 10000 4.1 240 19:55 30.12.2019
5181 Clouds 5 1024 51 10000 5.1 240 19:36 30.12.2019
5182 Clouds 5 1024 55 10000 3.6 240 19:18 30.12.2019
5183 Clouds 5 1024 51 10000 4.1 230 18:42 30.12.2019
5184 Clouds 4 1024 44 10000 3.1 230 18:21 30.12.2019
5185 Clouds 3 1024 44 10000 3.1 230 17:59 30.12.2019
5186 Clouds 3 1024 44 10000 3.1 230 17:59 30.12.2019
5187 Clouds 3 1024 41 10000 3.6 210 17:41 30.12.2019
5188 Clouds 6 1024 45 10000 3.6 220 17:20 30.12.2019
5189 Clouds 5 1024 45 10000 3.6 220 17:00 30.12.2019
5190 Clouds 7 1024 42 10000 4.1 210 16:41 30.12.2019
5191 Clouds 5 1025 42 10000 3.6 210 16:20 30.12.2019
5192 Clouds 5 1025 42 10000 3.6 210 15:57 30.12.2019
5193 Clouds 5 1025 39 10000 5.1 220 15:39 30.12.2019
5194 Clouds 5 1025 42 10000 4.6 220 15:19 30.12.2019
5195 Clouds 5 1025 42 10000 4.6 220 14:56 30.12.2019
5196 Clouds 5 1025 39 10000 4.6 220 14:38 30.12.2019
5197 Clouds 8 1026 42 10000 6.7 230 14:18 30.12.2019
5198 Clouds 7 1026 39 10000 6.2 220 13:43 30.12.2019
5199 Clouds 7 1026 39 10000 6.2 220 13:24 30.12.2019
5200 Clouds 7 1027 42 10000 5.7 220 12:59 30.12.2019
5201 Clouds 7 1027 39 10000 5.7 220 12:41 30.12.2019
5202 Clouds 7 1027 42 10000 4.6 230 12:19 30.12.2019
5203 Clouds 7 1027 42 10000 4.6 230 11:58 30.12.2019
5204 Clouds 7 1027 45 10000 5.1 230 11:39 30.12.2019
5205 Clouds 4 1028 45 10000 4.6 230 11:19 30.12.2019
5206 Clouds 6 1028 39 10000 5.1 220 10:43 30.12.2019
5207 Clouds 3 1028 48 10000 5.1 220 10:21 30.12.2019
5208 Clouds 3 1028 48 10000 5.1 220 09:57 30.12.2019
5209 Clouds 5 1028 44 10000 5.1 220 09:37 30.12.2019
5210 Clouds 5 1028 41 10000 5.1 210 09:19 30.12.2019
5211 Clouds 5 1028 44 10000 4.1 220 08:49 30.12.2019
5212 Clouds 4 1028 44 10000 4.1 220 08:23 30.12.2019
5213 Clouds 4 1028 44 10000 4.1 230 07:55 30.12.2019
5214 Clouds 4 1028 38 10000 4.1 220 07:34 30.12.2019
5215 Clouds 5 1029 44 10000 3.6 210 06:52 30.12.2019
5216 Clouds 4 1030 48 10000 4.1 230 04:57 30.12.2019
5217 Clouds 4 1030 44 10000 3.1 200 03:55 30.12.2019
5218 Clouds 4 1031 51 10000 2.1 200 02:58 30.12.2019
5219 Clouds 4 1031 51 10000 3.6 200 02:40 30.12.2019
5220 Clouds 4 1031 59 10000 3.6 220 01:50 30.12.2019
5221 Clouds 4 1031 51 10000 3.6 210 01:21 30.12.2019
5222 Clouds 4 1032 55 10000 2.1 220 00:45 30.12.2019
5223 Clouds 4 1032 55 10000 3.1 210 00:19 30.12.2019
5224 Clouds 4 1032 55 10000 2.6 210 23:39 29.12.2019
5225 Clouds 3 1032 59 10000 3.1 200 23:21 29.12.2019
5226 Clouds 3 1032 59 10000 3.1 200 22:55 29.12.2019
5227 Clouds 3 1033 64 10000 3.1 190 22:37 29.12.2019
5228 Clouds 3 1033 59 10000 1.5 200 22:18 29.12.2019
5229 Clouds 3 1033 69 10000 3.1 190 21:43 29.12.2019
5230 Clouds 3 1033 69 10000 3.1 190 21:21 29.12.2019
5231 Clouds 3 1033 69 10000 3.1 190 20:58 29.12.2019
5232 Clouds 3 1034 74 10000 2.1 180 20:39 29.12.2019
5233 Clouds 2 1034 74 10000 2.6 170 20:21 29.12.2019
5234 Clouds 2 1034 74 10000 2.6 170 19:59 29.12.2019
5235 Clouds 2 1034 80 10000 1.5 210 19:40 29.12.2019
5236 Clouds 2 1034 80 10000 1.5 200 19:21 29.12.2019
5237 Clouds 1 1034 80 10000 1.5 200 18:58 29.12.2019
5238 Clouds 2 1034 80 10000 3.1 160 18:39 29.12.2019
5239 Clouds 1 1035 80 10000 2.1 150 18:20 29.12.2019
5240 Clouds 1 1035 80 10000 2.1 150 17:58 29.12.2019
5241 Clouds 1 1035 80 10000 3.6 160 17:39 29.12.2019
5242 Clouds 1 1035 80 10000 2.1 200 17:20 29.12.2019
5243 Clouds 1 1035 80 10000 2.1 200 16:57 29.12.2019
5244 Clouds 1 1035 80 10000 3.1 150 16:39 29.12.2019
5245 Clouds 2 1035 74 10000 1.5 190 16:21 29.12.2019
5246 Clouds 2 1035 74 10000 1.5 190 15:58 29.12.2019
5247 Clouds 2 1035 74 10000 2.1 190 15:39 29.12.2019
5248 Clouds 2 1035 74 10000 2.6 180 15:20 29.12.2019
5249 Clouds 2 1035 74 10000 2.6 180 15:20 29.12.2019
5250 Clouds 2 1035 74 10000 2.6 180 14:58 29.12.2019
5251 Clouds 2 1036 74 10000 2.6 180 14:39 29.12.2019
5252 Clouds 2 1036 74 10000 2.1 190 14:18 29.12.2019
5253 Clouds 2 1036 74 10000 2.1 190 13:58 29.12.2019
5254 Clouds 1 1036 80 10000 3.1 170 13:39 29.12.2019
5255 Clouds 1 1036 86 10000 2.1 180 13:21 29.12.2019
5256 Clouds 1 1036 86 10000 2.1 180 12:56 29.12.2019
5257 Clouds 1 1037 80 10000 2.6 170 12:38 29.12.2019
5258 Clouds 1 1037 80 10000 2.1 190 12:20 29.12.2019
5259 Clouds 1 1037 63 10000 2.6 160 11:41 29.12.2019
5260 Clouds 0 1038 73 10000 2.1 150 11:21 29.12.2019
5261 Clouds 0 1038 92 10000 2.1 150 10:57 29.12.2019
5262 Clouds 0 1038 92 10000 2.1 150 10:38 29.12.2019
5263 Clouds 0 1038 92 10000 1 0 10:18 29.12.2019
5264 Clouds -1 1038 86 10000 1 170 09:45 29.12.2019
5265 Clouds -2 1038 86 10000 1 170 09:27 29.12.2019
5266 Clouds -2 1038 92 10000 1.5 170 08:56 29.12.2019
5267 Clouds -2 1038 92 10000 1.5 160 08:38 29.12.2019
5268 Clouds -2 1038 92 10000 1.5 150 08:20 29.12.2019
5269 Clouds -2 1038 92 10000 1.5 180 07:43 29.12.2019
5270 Clouds -3 1038 92 10000 1.5 180 07:25 29.12.2019
5271 Clouds -3 1038 92 10000 3.1 140 06:38 29.12.2019
5272 Clouds -3 1039 92 10000 2.1 130 06:18 29.12.2019
5273 Clouds -3 1038 92 10000 1.5 140 05:44 29.12.2019
5274 Clouds -3 1039 92 10000 1.5 120 04:32 29.12.2019
5275 Clouds -2 1039 92 10000 1.5 140 03:35 29.12.2019
5276 Clouds -2 1040 92 10000 0.5 0 02:30 29.12.2019
5277 Clouds -2 1039 92 10000 2.1 150 01:52 29.12.2019
5278 Clouds -2 1039 92 10000 2.1 150 01:29 29.12.2019
5279 Clouds -1 1039 92 10000 3.1 140 00:45 29.12.2019
5280 Clouds -1 1039 92 10000 3.1 140 00:25 29.12.2019
5281 Clouds -1 1039 92 10000 3.1 140 00:25 29.12.2019
5282 Clouds -1 1040 92 10000 2.6 140 23:55 28.12.2019
5283 Clouds 0 1040 85 10000 3.1 150 23:37 28.12.2019
5284 Clouds 0 1041 83 10000 3.1 140 23:18 28.12.2019
5285 Clouds 0 1040 83 10000 4.1 150 22:37 28.12.2019
5286 Clouds 0 1041 83 10000 3.1 150 22:18 28.12.2019
5287 Clouds 0 1041 83 10000 3.1 150 21:57 28.12.2019
5288 Clouds 0 1041 83 10000 1.5 130 21:38 28.12.2019
5289 Clouds 0 1041 83 10000 1.5 130 21:19 28.12.2019
5290 Clouds 0 1041 83 10000 1.5 130 20:54 28.12.2019
5291 Clouds 0 1041 83 10000 0.5 0 20:36 28.12.2019
5292 Clouds 0 1041 83 10000 2.6 130 20:18 28.12.2019
5293 Clouds 0 1041 85 10000 2.6 130 19:54 28.12.2019
5294 Clouds 0 1041 85 10000 2.1 140 19:36 28.12.2019
5295 Clouds 0 1041 85 10000 3.6 140 19:18 28.12.2019
5296 Clouds 0 1041 85 10000 2.1 140 18:42 28.12.2019
5297 Clouds 0 1041 85 10000 3.1 140 18:20 28.12.2019
5298 Clouds 0 1041 85 10000 3.1 140 17:59 28.12.2019
5299 Clouds 0 1041 85 10000 3.1 130 17:40 28.12.2019
5300 Clouds 0 1041 82 10000 4.1 130 17:21 28.12.2019
5301 Clouds 0 1041 82 10000 4.1 130 16:54 28.12.2019
5302 Clouds 1 1041 80 10000 3.1 130 16:36 28.12.2019
5303 Clouds 1 1041 80 10000 4.1 130 16:18 28.12.2019
5304 Clouds 1 1041 80 10000 3.1 130 15:41 28.12.2019
5305 Clouds 1 1041 80 10000 3.6 120 15:21 28.12.2019
5306 Clouds 1 1041 80 10000 3.6 130 14:48 28.12.2019
5307 Clouds 1 1041 80 10000 3.6 130 14:26 28.12.2019
5308 Clouds 1 1041 86 10000 3.1 130 13:58 28.12.2019
5309 Clouds 1 1041 86 10000 4.6 130 13:40 28.12.2019
5310 Clouds 1 1041 80 10000 4.6 130 13:21 28.12.2019
5311 Clouds 1 1041 80 10000 4.6 130 12:58 28.12.2019
5312 Clouds 0 1042 80 10000 3.6 130 12:40 28.12.2019
5313 Clouds 0 1042 80 10000 2.1 120 12:21 28.12.2019
5314 Clouds 0 1042 80 10000 1.5 140 11:40 28.12.2019
5315 Clouds 0 1042 80 10000 1.5 140 11:40 28.12.2019
5316 Clouds 0 1042 91 10000 2.1 140 11:21 28.12.2019
5317 Clouds 0 1042 91 10000 2.1 140 10:56 28.12.2019
5318 Clouds -1 1042 91 10000 2.6 120 10:38 28.12.2019
5319 Clouds -1 1042 92 10000 2.1 100 10:19 28.12.2019
5320 Clouds -2 1042 92 10000 1 0 09:54 28.12.2019
5321 Clouds -2 1042 92 10000 1 0 09:36 28.12.2019
5322 Clouds -2 1041 100 10000 2.6 110 09:18 28.12.2019
5323 Clouds -2 1041 92 10000 1 0 08:42 28.12.2019
5324 Clouds -2 1041 92 10000 1 0 08:23 28.12.2019
5325 Clouds -2 1041 100 10000 1.5 70 07:47 28.12.2019
5326 Clouds -2 1041 100 10000 1.5 70 07:23 28.12.2019
5327 Clouds -1 1040 92 10000 1.5 80 05:51 28.12.2019
5328 Clouds 0 1040 92 10000 1.5 90 03:48 28.12.2019
5329 Clouds 0 1040 92 10000 1.5 100 02:51 28.12.2019
5330 Clouds 0 1040 92 10000 1.5 100 02:31 28.12.2019
5331 Clouds 0 1040 85 10000 1 50 01:56 28.12.2019
5332 Clouds 0 1040 85 10000 1 50 01:56 28.12.2019
5333 Clouds 0 1040 84 10000 1 60 01:24 28.12.2019
5334 Clouds 0 1039 100 10000 0.5 320 00:51 28.12.2019
5335 Clouds 0 1039 100 10000 0.5 320 00:32 28.12.2019
5336 Clouds 0 1039 100 10000 0.5 220 23:59 27.12.2019
5337 Clouds 0 1039 84 10000 1.5 80 23:41 27.12.2019
5338 Clouds 0 1038 83 10000 1 0 23:19 27.12.2019
5339 Clouds 0 1038 83 10000 1.5 100 22:57 27.12.2019
5340 Clouds 0 1038 83 10000 1.5 100 22:38 27.12.2019
5341 Clouds 1 1038 83 10000 2.1 100 22:20 27.12.2019
5342 Clouds 1 1038 83 10000 2.1 60 21:44 27.12.2019
5343 Clouds 1 1038 83 10000 2.1 60 21:25 27.12.2019
5344 Clouds 2 1037 83 10000 1.5 70 20:58 27.12.2019
5345 Clouds 2 1037 83 10000 2.1 80 20:40 27.12.2019
5346 Clouds 2 1037 76 10000 2.1 60 20:21 27.12.2019
5347 Clouds 2 1037 76 10000 2.6 50 19:42 27.12.2019
5348 Clouds 2 1036 76 10000 3.1 40 19:20 27.12.2019
5349 Clouds 2 1036 76 10000 3.1 40 18:59 27.12.2019
5350 Clouds 2 1036 76 10000 2.6 50 18:38 27.12.2019
5351 Clouds 3 1035 74 10000 1 0 18:20 27.12.2019
5352 Clouds 3 1035 74 10000 1 0 17:57 27.12.2019
5353 Clouds 3 1035 74 10000 0.5 0 17:39 27.12.2019
5354 Clouds 3 1035 79 10000 1.5 60 17:19 27.12.2019
5355 Clouds 3 1035 79 10000 1.5 60 16:58 27.12.2019
5356 Clouds 3 1034 79 10000 3.1 60 16:38 27.12.2019
5357 Clouds 3 1033 79 10000 3.6 90 16:19 27.12.2019
5358 Clouds 3 1033 79 10000 3.6 90 16:19 27.12.2019
5359 Clouds 3 1033 74 10000 3.6 80 15:43 27.12.2019
5360 Clouds 3 1033 79 10000 3.1 40 15:22 27.12.2019
5361 Clouds 3 1033 79 10000 3.1 40 14:57 27.12.2019
5362 Clouds 3 1032 79 10000 4.1 50 14:39 27.12.2019
5363 Clouds 3 1032 82 10000 4.6 50 14:20 27.12.2019
5364 Clouds 3 1032 82 10000 4.6 50 13:55 27.12.2019
5365 Clouds 3 1032 82 10000 5.1 50 13:37 27.12.2019
5366 Clouds 3 1032 80 10000 5.1 30 13:18 27.12.2019
5367 Clouds 4 1031 80 10000 5.1 40 12:40 27.12.2019
5368 Clouds 4 1031 86 10000 5.1 50 12:22 27.12.2019
5369 Clouds 3 1031 80 10000 4.1 50 11:46 27.12.2019
5370 Clouds 3 1030 86 10000 3.6 50 11:26 27.12.2019
5371 Clouds 3 1031 80 10000 4.1 50 11:26 27.12.2019
5372 Clouds 3 1030 86 10000 3.6 50 10:59 27.12.2019
5373 Clouds 3 1030 86 10000 4.1 40 10:40 27.12.2019
5374 Clouds 3 1029 86 10000 3.1 50 10:22 27.12.2019
5375 Clouds 3 1028 93 10000 3.6 50 09:44 27.12.2019
5376 Clouds 2 1028 93 7000 3.6 60 09:22 27.12.2019
5377 Clouds 2 1028 93 7000 3.6 60 09:22 27.12.2019
5378 Clouds 2 1028 93 7000 3.6 60 08:59 27.12.2019
5379 Clouds 2 1028 93 7000 3.6 60 08:59 27.12.2019
5380 Clouds 3 1027 93 8000 4.1 60 08:37 27.12.2019
5381 Clouds 2 1026 86 10000 3.6 50 07:53 27.12.2019
5382 Clouds 2 1026 93 10000 2.6 50 07:34 27.12.2019
5383 Clouds 2 1025 93 10000 2.1 60 06:39 27.12.2019
5384 Clouds 2 1025 93 10000 2.1 60 06:18 27.12.2019
5385 Clouds 2 1024 80 10000 3.1 60 04:20 27.12.2019
5386 Clouds 3 1023 93 10000 2.1 80 02:26 27.12.2019
5387 Clouds 3 1023 93 10000 2.6 70 01:42 27.12.2019
5388 Clouds 3 1023 93 10000 2.1 90 01:20 27.12.2019
5389 Clouds 3 1023 93 10000 2.1 90 00:46 27.12.2019
5390 Clouds 3 1023 93 10000 2.1 90 00:25 27.12.2019
5391 Clouds 3 1023 86 10000 2.6 110 23:54 26.12.2019
5392 Clouds 3 1023 86 10000 2.6 110 23:36 26.12.2019
5393 Clouds 3 1023 100 10000 1.5 130 23:18 26.12.2019
5394 Clouds 3 1023 93 10000 1.5 110 22:38 26.12.2019
5395 Clouds 3 1023 100 10000 1.5 100 22:18 26.12.2019
5396 Clouds 4 1023 93 10000 1.5 90 21:40 26.12.2019
5397 Clouds 4 1023 93 10000 2.1 70 21:21 26.12.2019
5398 Clouds 4 1023 93 10000 2.1 70 20:58 26.12.2019
5399 Clouds 5 1023 86 10000 2.1 140 20:38 26.12.2019
5400 Clouds 5 1023 86 10000 1.5 120 20:20 26.12.2019
5401 Clouds 5 1023 86 10000 1.5 120 19:55 26.12.2019
5402 Clouds 5 1023 86 10000 1 0 19:37 26.12.2019
5403 Clouds 5 1023 86 10000 0.5 0 19:19 26.12.2019
5404 Clouds 5 1023 86 10000 0.5 0 18:57 26.12.2019
5405 Clouds 5 1023 86 10000 1.5 180 18:36 26.12.2019
5406 Clouds 5 1023 93 10000 1.5 170 18:18 26.12.2019
5407 Clouds 5 1023 86 10000 1 0 17:41 26.12.2019
5408 Clouds 5 1023 86 10000 0.5 0 17:22 26.12.2019
5409 Clouds 5 1023 87 10000 0.5 170 16:50 26.12.2019
5410 Clouds 6 1023 87 10000 0.5 170 16:28 26.12.2019
5411 Clouds 6 1023 87 10000 1 230 15:58 26.12.2019
5412 Clouds 6 1023 87 10000 2.1 220 15:40 26.12.2019
5413 Clouds 6 1023 87 10000 1.5 210 15:19 26.12.2019
5414 Clouds 6 1023 87 10000 2.1 220 14:42 26.12.2019
5415 Clouds 6 1023 87 10000 2.1 220 14:23 26.12.2019
5416 Clouds 6 1023 87 10000 2.1 220 13:58 26.12.2019
5417 Clouds 6 1023 87 10000 2.1 240 13:40 26.12.2019
5418 Clouds 6 1023 87 10000 2.6 260 13:19 26.12.2019
5419 Clouds 6 1023 87 10000 2.6 260 12:56 26.12.2019
5420 Clouds 6 1024 87 10000 1.5 230 12:37 26.12.2019
5421 Clouds 6 1024 81 10000 1.5 290 12:18 26.12.2019
5422 Clouds 6 1024 81 10000 1.5 290 11:56 26.12.2019
5423 Clouds 6 1024 87 10000 2.1 250 11:37 26.12.2019
5424 Clouds 5 1024 93 10000 2.1 260 11:19 26.12.2019
5425 Clouds 5 1024 93 10000 2.1 240 10:41 26.12.2019
5426 Clouds 5 1024 93 10000 2.1 230 10:18 26.12.2019
5427 Clouds 4 1024 100 10000 1 0 09:43 26.12.2019
5428 Clouds 4 1024 100 10000 1 0 09:25 26.12.2019
5429 Clouds 4 1024 100 10000 2.6 220 08:42 26.12.2019
5430 Clouds 4 1024 100 10000 2.6 220 08:24 26.12.2019
5431 Clouds 5 1024 93 10000 2.1 210 07:53 26.12.2019
5432 Clouds 5 1024 93 10000 2.1 210 07:26 26.12.2019
5433 Rain 5 1024 93 10000 3.1 250 06:53 26.12.2019
5434 Clouds 5 1024 100 10000 3.1 240 06:32 26.12.2019
5435 Clouds 5 1023 100 10000 1.5 270 05:45 26.12.2019
5436 Clouds 5 1023 93 10000 3.1 280 04:55 26.12.2019
5437 Clouds 5 1023 93 10000 3.1 280 04:29 26.12.2019
5438 Clouds 5 1024 100 10000 3.6 260 02:56 26.12.2019
5439 Clouds 5 1024 93 10000 3.6 250 02:34 26.12.2019
5440 Clouds 5 1024 93 10000 3.6 250 02:34 26.12.2019
5441 Clear 5 1022 96 0 3.9 266 01:50 26.12.2019
5442 Clear 5 1022 96 0 3.9 266 01:32 26.12.2019
5443 Clouds 5 1024 93 10000 2.6 280 00:50 26.12.2019
5444 Clouds 5 1024 93 10000 2.6 280 00:27 26.12.2019
5445 Clouds 5 1023 93 10000 3.1 280 23:59 25.12.2019
5446 Clouds 6 1023 87 10000 3.6 270 23:40 25.12.2019
5447 Clouds 6 1023 87 10000 3.6 270 23:21 25.12.2019
5448 Clouds 6 1023 87 10000 3.6 270 22:59 25.12.2019
5449 Clouds 5 1023 93 10000 2.6 270 22:39 25.12.2019
5450 Clouds 6 1023 100 10000 2.6 250 22:21 25.12.2019
5451 Clouds 6 1023 100 10000 2.6 250 21:59 25.12.2019
5452 Clouds 6 1022 100 10000 2.6 260 21:39 25.12.2019
5453 Clouds 6 1022 93 10000 2.6 270 21:20 25.12.2019
5454 Clouds 6 1022 93 10000 2.6 270 20:57 25.12.2019
5455 Clouds 6 1022 100 10000 2.1 270 20:39 25.12.2019
5456 Clouds 6 1022 93 10000 1.5 290 20:18 25.12.2019
5457 Clouds 6 1022 93 10000 2.6 290 19:43 25.12.2019
5458 Clouds 6 1022 93 10000 2.6 290 19:25 25.12.2019
5459 Clouds 6 1021 93 10000 2.6 290 18:59 25.12.2019
5460 Clouds 6 1021 93 10000 2.1 300 18:38 25.12.2019
5461 Clouds 6 1021 93 10000 2.1 300 18:38 25.12.2019
5462 Clouds 6 1021 81 10000 2.1 340 18:19 25.12.2019
5463 Clouds 6 1021 87 10000 3.1 290 17:42 25.12.2019
5464 Clouds 6 1020 93 10000 3.1 300 17:20 25.12.2019
5465 Clouds 6 1020 93 10000 3.1 300 16:59 25.12.2019
5466 Clouds 7 1020 87 10000 3.6 300 16:39 25.12.2019
5467 Clouds 7 1019 87 10000 4.6 300 16:19 25.12.2019
5468 Clouds 7 1019 87 10000 4.6 300 15:57 25.12.2019
5469 Clouds 7 1019 93 10000 5.1 300 15:39 25.12.2019
5470 Clouds 7 1018 87 10000 3.6 290 15:20 25.12.2019
5471 Clouds 7 1018 87 10000 3.6 290 14:58 25.12.2019
5472 Clouds 7 1018 81 10000 3.6 300 14:39 25.12.2019
5473 Clouds 7 1018 81 10000 3.6 300 14:39 25.12.2019
5474 Clouds 7 1018 93 10000 4.1 300 14:21 25.12.2019
5475 Clouds 7 1018 93 10000 4.1 300 13:55 25.12.2019
5476 Clouds 7 1017 93 10000 3.6 300 13:36 25.12.2019
5477 Clouds 7 1017 93 10000 4.6 290 13:18 25.12.2019
5478 Clouds 7 1016 93 10000 4.1 290 12:39 25.12.2019
5479 Rain 7 1016 93 8000 4.1 290 12:20 25.12.2019
5480 Rain 7 1016 93 8000 4.1 290 11:55 25.12.2019
5481 Rain 7 1016 93 8000 4.1 290 11:55 25.12.2019
5482 Clouds 6 1016 93 9000 4.1 280 11:37 25.12.2019
5483 Drizzle 6 1015 93 6000 3.1 280 11:18 25.12.2019
5484 Clouds 6 1015 93 6000 3.1 280 10:38 25.12.2019
5485 Mist 5 1014 100 4200 4.1 290 10:20 25.12.2019
5486 Mist 5 1014 100 4500 3.6 290 09:51 25.12.2019
5487 Mist 5 1014 100 4500 3.6 290 09:32 25.12.2019
5488 Clouds 5 1013 93 6000 3.1 300 08:51 25.12.2019
5489 Clouds 5 1013 93 6000 3.1 300 08:31 25.12.2019
5490 Clouds 5 1012 100 10000 2.6 300 07:52 25.12.2019
5491 Clouds 5 1012 100 10000 2.6 300 07:34 25.12.2019
5492 Clouds 5 1011 100 6000 2.6 290 06:52 25.12.2019
5493 Clouds 5 1011 100 6000 2.6 290 06:23 25.12.2019
5494 Clouds 6 1010 93 6000 2.6 290 05:18 25.12.2019
5495 Clouds 6 1010 93 6000 2.6 290 04:39 25.12.2019
5496 Clouds 6 1009 93 6000 2.1 290 04:20 25.12.2019
5497 Clouds 6 1009 100 6000 2.1 310 03:42 25.12.2019
5498 Drizzle 6 1009 93 6000 3.6 300 02:56 25.12.2019
5499 Drizzle 6 1009 100 6000 3.1 310 02:27 25.12.2019
5500 Drizzle 6 1008 100 4500 2.6 300 01:26 25.12.2019
5501 Drizzle 6 1008 100 2500 2.1 300 00:56 25.12.2019
5502 Drizzle 6 1007 100 2800 2.1 300 00:33 25.12.2019
5503 Drizzle 6 1007 100 5000 2.6 290 23:59 24.12.2019
5504 Drizzle 6 1007 100 1800 1.5 300 23:39 24.12.2019
5505 Drizzle 6 1006 100 4200 2.1 280 23:20 24.12.2019
5506 Drizzle 6 1006 100 4200 2.1 280 23:20 24.12.2019
5507 Drizzle 6 1006 100 4000 2.1 280 22:42 24.12.2019
5508 Drizzle 6 1006 100 4000 2.1 280 22:23 24.12.2019
5509 Drizzle 6 1006 100 2200 2.1 270 21:57 24.12.2019
5510 Drizzle 6 1005 100 5000 2.1 260 21:37 24.12.2019
5511 Drizzle 6 1005 100 6000 1.5 270 21:19 24.12.2019
5512 Drizzle 6 1005 100 7000 1.5 310 20:41 24.12.2019
5513 Drizzle 6 1005 100 8000 1.5 290 20:20 24.12.2019
5514 Clouds 6 1004 100 9000 1.5 280 19:47 24.12.2019
5515 Clouds 6 1004 100 10000 2.1 280 19:22 24.12.2019
5516 Clouds 6 1004 100 10000 2.1 280 18:59 24.12.2019
5517 Clouds 6 1004 100 10000 1 0 18:40 24.12.2019
5518 Clouds 6 1003 100 9000 0.5 0 18:18 24.12.2019
5519 Clouds 6 1003 100 9000 0.5 0 18:18 24.12.2019
5520 Drizzle 6 1003 93 4500 1.5 120 17:44 24.12.2019
5521 Rain 6 1003 93 10000 1.5 160 17:22 24.12.2019
5522 Rain 6 1003 93 10000 1.5 160 17:22 24.12.2019
5523 Rain 6 1003 93 10000 1.5 160 16:58 24.12.2019
5524 Rain 6 1003 93 8000 3.6 110 16:40 24.12.2019
5525 Drizzle 6 1003 93 5000 2.6 90 16:21 24.12.2019
5526 Drizzle 6 1003 93 5000 2.6 90 15:58 24.12.2019
5527 Rain 6 1003 93 10000 3.6 130 15:37 24.12.2019
5528 Rain 6 1003 93 10000 3.1 130 15:19 24.12.2019
5529 Rain 6 1003 93 10000 3.1 130 14:58 24.12.2019
5530 Rain 6 1003 93 10000 3.1 130 14:40 24.12.2019
5531 Rain 6 1003 93 10000 3.1 130 14:40 24.12.2019
5532 Rain 6 1004 93 10000 3.6 140 14:22 24.12.2019
5533 Rain 6 1004 93 10000 3.6 140 13:56 24.12.2019
5534 Rain 6 1005 93 9000 4.1 170 13:38 24.12.2019
5535 Rain 6 1005 87 6000 3.6 170 13:20 24.12.2019
5536 Rain 7 1005 87 6000 3.6 170 12:57 24.12.2019
5537 Rain 7 1006 87 10000 3.6 150 12:38 24.12.2019
5538 Rain 7 1006 87 10000 3.6 150 12:38 24.12.2019
5539 Rain 7 1006 87 10000 4.1 150 12:19 24.12.2019
5540 Rain 7 1006 87 10000 4.1 150 11:57 24.12.2019
5541 Clouds 7 1007 93 10000 4.1 170 11:38 24.12.2019
5542 Clouds 7 1007 93 10000 3.6 160 11:19 24.12.2019
5543 Clouds 7 1007 93 10000 3.6 160 10:57 24.12.2019
5544 Clouds 7 1008 87 10000 4.1 170 10:38 24.12.2019
5545 Clouds 7 1008 87 10000 3.6 180 10:20 24.12.2019
5546 Clouds 7 1008 87 10000 3.6 180 09:57 24.12.2019
5547 Clouds 7 1009 87 10000 3.1 190 09:39 24.12.2019
5548 Clouds 6 1009 93 10000 4.1 200 09:21 24.12.2019
5549 Clouds 6 1009 93 10000 3.6 200 08:47 24.12.2019
5550 Clouds 6 1009 93 10000 3.6 200 08:47 24.12.2019
5551 Clouds 6 1009 93 10000 3.6 200 08:24 24.12.2019
5552 Clouds 6 1010 93 10000 3.6 200 07:59 24.12.2019
5553 Clouds 6 1010 93 10000 4.1 210 07:39 24.12.2019
5554 Clouds 6 1010 93 10000 3.6 210 07:21 24.12.2019
5555 Clouds 6 1010 93 10000 3.6 210 06:40 24.12.2019
5556 Clouds 6 1010 93 10000 4.1 210 06:22 24.12.2019
5557 Clouds 6 1010 93 10000 4.1 210 05:55 24.12.2019
5558 Clouds 6 1011 87 10000 4.6 220 05:20 24.12.2019
5559 Clouds 6 1011 93 10000 4.6 220 04:22 24.12.2019
5560 Clouds 6 1011 93 10000 4.6 220 03:50 24.12.2019
5561 Clouds 6 1011 87 10000 5.7 230 02:37 24.12.2019
5562 Clouds 6 1011 87 10000 5.1 230 02:18 24.12.2019
5563 Clouds 6 1011 87 10000 5.1 230 01:42 24.12.2019
5564 Clouds 6 1009 93 0 1.34 236 01:19 24.12.2019
5565 Clouds 6 1010 87 10000 4.6 240 00:41 24.12.2019
5566 Rain 6 1010 87 10000 5.1 240 00:22 24.12.2019
5567 Rain 6 1010 87 10000 5.1 240 23:55 23.12.2019
5568 Clouds 6 1010 93 10000 4.6 240 23:37 23.12.2019
5569 Clouds 7 1010 93 10000 4.6 230 23:19 23.12.2019
5570 Clouds 7 1010 93 10000 4.6 230 22:54 23.12.2019
5571 Clouds 7 1009 93 10000 4.6 240 22:36 23.12.2019
5572 Clouds 7 1009 87 10000 6.7 250 22:18 23.12.2019
5573 Clouds 7 1009 87 10000 6.7 250 21:54 23.12.2019
5574 Clouds 7 1009 93 10000 4.6 240 21:36 23.12.2019
5575 Clouds 7 1009 87 10000 6.2 260 21:18 23.12.2019
5576 Clouds 7 1009 87 10000 6.2 260 20:55 23.12.2019
5577 Rain 7 1008 87 10000 6.2 250 20:37 23.12.2019
5578 Clouds 7 1008 87 10000 5.7 240 20:18 23.12.2019
5579 Clouds 8 1008 87 10000 5.7 240 19:54 23.12.2019
5580 Clouds 7 1007 93 10000 5.1 250 19:36 23.12.2019
5581 Clouds 7 1007 93 10000 4.6 240 19:18 23.12.2019
5582 Clouds 7 1007 93 10000 4.1 250 18:54 23.12.2019
5583 Clouds 7 1007 93 10000 4.1 250 18:36 23.12.2019
5584 Clouds 7 1006 93 10000 4.6 250 18:18 23.12.2019
5585 Clouds 7 1006 93 10000 6.2 250 17:55 23.12.2019
5586 Clouds 7 1006 93 10000 6.2 250 17:37 23.12.2019
5587 Clouds 8 1006 87 10000 6.2 240 17:18 23.12.2019
5588 Clouds 8 1005 87 10000 4.1 240 16:42 23.12.2019
5589 Rain 8 1005 87 10000 6.7 250 16:19 23.12.2019
5590 Rain 8 1005 87 10000 6.7 250 15:58 23.12.2019
5591 Clouds 8 1004 87 10000 5.1 250 15:37 23.12.2019
5592 Rain 8 1004 87 10000 5.1 250 15:19 23.12.2019
5593 Rain 8 1004 87 10000 5.1 250 14:58 23.12.2019
5594 Clouds 8 1003 81 10000 5.1 250 14:39 23.12.2019
5595 Rain 8 1003 81 10000 7.2 260 14:20 23.12.2019
5596 Rain 8 1003 81 10000 7.2 260 13:58 23.12.2019
5597 Clouds 8 1003 81 10000 6.7 250 13:40 23.12.2019
5598 Rain 8 1002 87 10000 6.2 250 13:21 23.12.2019
5599 Rain 8 1002 87 10000 6.2 250 12:55 23.12.2019
5600 Clouds 8 1002 87 10000 6.2 240 12:37 23.12.2019
5601 Clouds 8 1002 87 10000 5.7 250 12:19 23.12.2019
5602 Rain 8 1002 87 10000 6.2 240 11:44 23.12.2019
5603 Rain 7 1002 87 10000 6.2 240 11:25 23.12.2019
5604 Clouds 7 1001 93 10000 5.1 230 10:57 23.12.2019
5605 Clouds 7 1001 93 10000 5.1 230 10:57 23.12.2019
5606 Clouds 7 1001 93 10000 4.6 240 10:39 23.12.2019
5607 Rain 7 1000 93 10000 5.1 240 10:20 23.12.2019
5608 Rain 7 1000 93 10000 5.1 240 09:59 23.12.2019
5609 Clouds 7 999 87 10000 4.6 230 09:39 23.12.2019
5610 Clouds 7 999 87 10000 5.1 240 09:20 23.12.2019
5611 Clouds 7 999 87 10000 5.1 240 08:56 23.12.2019
5612 Clouds 7 998 87 10000 5.7 240 08:38 23.12.2019
5613 Clouds 7 998 87 10000 5.1 240 08:19 23.12.2019
5614 Clouds 7 997 87 10000 6.2 240 07:43 23.12.2019
5615 Clouds 7 997 87 10000 5.7 240 07:20 23.12.2019
5616 Clouds 7 997 87 10000 5.7 240 06:53 23.12.2019
5617 Clouds 7 996 95 0 5.72 252 06:25 23.12.2019
5618 Clouds 7 995 87 10000 6.7 250 05:50 23.12.2019
5619 Clouds 7 994 95 0 1.34 269 05:28 23.12.2019
5620 Clouds 7 994 87 10000 6.2 250 04:31 23.12.2019
5621 Rain 7 993 96 0 0.45 315 03:24 23.12.2019
5622 Rain 7 992 93 10000 6.7 260 02:41 23.12.2019
5623 Rain 7 991 93 10000 6.2 260 02:19 23.12.2019
5624 Rain 7 991 100 10000 7.7 270 01:42 23.12.2019
5625 Rain 8 990 93 10000 7.7 280 01:23 23.12.2019
5626 Rain 8 989 100 3500 3.1 220 00:43 23.12.2019
5627 Rain 8 989 100 3500 3.1 220 00:23 23.12.2019
5628 Rain 8 988 100 3200 2.1 200 23:40 22.12.2019
5629 Rain 8 988 100 5000 2.6 200 23:21 22.12.2019
5630 Rain 8 988 100 5000 2.6 200 22:58 22.12.2019
5631 Rain 8 988 100 5000 2.6 200 22:58 22.12.2019
5632 Rain 8 988 100 5000 2.6 200 22:58 22.12.2019
5633 Rain 8 987 100 10000 2.1 190 22:40 22.12.2019
5634 Rain 8 987 93 10000 2.6 170 22:21 22.12.2019
5635 Rain 8 987 93 10000 2.6 170 21:58 22.12.2019
5636 Rain 8 987 93 10000 2.6 170 21:58 22.12.2019
5637 Clouds 8 986 100 10000 2.1 150 21:40 22.12.2019
5638 Clouds 8 986 100 10000 2.6 140 21:21 22.12.2019
5639 Clouds 7 986 100 10000 2.6 140 20:58 22.12.2019
5640 Rain 7 986 100 2700 3.1 150 20:39 22.12.2019
5641 Clouds 7 985 87 10000 3.6 140 20:19 22.12.2019
5642 Clouds 7 985 87 10000 3.6 140 19:57 22.12.2019
5643 Clouds 7 985 93 10000 3.6 140 19:38 22.12.2019
5644 Clouds 7 985 93 10000 3.6 130 19:19 22.12.2019
5645 Clouds 7 985 87 10000 3.6 130 18:42 22.12.2019
5646 Clouds 7 985 93 10000 4.1 120 18:24 22.12.2019
5647 Clouds 7 985 93 10000 4.1 120 17:57 22.12.2019
5648 Clouds 8 984 87 10000 4.1 120 17:39 22.12.2019
5649 Clouds 8 984 87 10000 4.1 120 17:19 22.12.2019
5650 Clouds 8 984 87 10000 4.1 120 16:58 22.12.2019
5651 Clouds 8 984 87 10000 4.6 120 16:40 22.12.2019
5652 Clouds 8 984 87 10000 2.6 100 16:22 22.12.2019
5653 Clouds 8 984 87 10000 2.6 100 15:57 22.12.2019
5654 Clouds 8 984 87 10000 2.6 120 15:38 22.12.2019
5655 Clouds 8 984 87 10000 3.1 120 15:20 22.12.2019
5656 Clouds 8 984 87 10000 3.1 120 14:56 22.12.2019
5657 Clouds 8 984 81 10000 3.6 130 14:38 22.12.2019
5658 Clouds 8 984 81 10000 3.6 140 14:18 22.12.2019
5659 Clouds 8 984 81 10000 3.6 140 13:55 22.12.2019
5660 Clouds 7 984 87 10000 3.6 130 13:37 22.12.2019
5661 Clouds 8 984 87 10000 4.1 130 13:19 22.12.2019
5662 Clouds 7 984 87 10000 4.1 130 12:56 22.12.2019
5663 Clouds 7 984 87 10000 4.1 130 12:38 22.12.2019
5664 Rain 7 984 93 10000 4.1 130 12:19 22.12.2019
5665 Rain 7 984 93 10000 4.1 130 11:56 22.12.2019
5666 Drizzle 6 984 93 6000 4.1 130 11:38 22.12.2019
5667 Clouds 6 984 87 10000 3.6 130 11:19 22.12.2019
5668 Clouds 6 984 87 10000 3.6 130 10:56 22.12.2019
5669 Clouds 6 984 87 10000 4.1 130 10:38 22.12.2019
5670 Clouds 6 984 93 10000 3.6 120 10:19 22.12.2019
5671 Clouds 6 984 93 10000 3.6 120 10:19 22.12.2019
5672 Clouds 6 984 93 10000 3.6 120 09:57 22.12.2019
5673 Clouds 6 984 93 10000 4.1 140 09:39 22.12.2019
5674 Clouds 5 984 93 10000 4.6 130 09:20 22.12.2019
5675 Clouds 5 983 93 10000 5.1 130 08:45 22.12.2019
5676 Clouds 5 983 93 10000 5.1 130 08:22 22.12.2019
5677 Rain 5 983 86 10000 4.6 130 07:44 22.12.2019
5678 Rain 5 983 86 10000 5.1 130 07:21 22.12.2019
5679 Rain 5 983 86 10000 5.1 130 06:55 22.12.2019
5680 Rain 5 983 86 10000 5.1 120 06:26 22.12.2019
5681 Clouds 5 983 86 10000 5.1 120 05:41 22.12.2019
5682 Clouds 5 984 86 10000 5.1 130 05:20 22.12.2019
5683 Clouds 4 984 93 10000 4.6 120 04:26 22.12.2019
5684 Clouds 5 984 86 10000 4.1 100 02:56 22.12.2019
5685 Clouds 5 985 86 10000 4.6 120 02:34 22.12.2019
5686 Clouds 4 985 93 10000 4.6 120 01:32 22.12.2019
5687 Clouds 4 985 93 10000 4.6 120 00:58 22.12.2019
5688 Clouds 4 985 86 10000 4.6 120 00:39 22.12.2019
5689 Clouds 4 986 86 10000 4.1 120 00:20 22.12.2019
5690 Clouds 5 986 86 10000 3.6 130 23:42 21.12.2019
5691 Clouds 5 986 86 10000 3.6 130 23:24 21.12.2019
5692 Clouds 5 986 86 10000 3.6 130 22:57 21.12.2019
5693 Clouds 5 987 86 10000 3.1 130 22:39 21.12.2019
5694 Clouds 5 987 86 10000 3.6 140 22:19 21.12.2019
5695 Clouds 6 987 86 10000 3.6 140 21:56 21.12.2019
5696 Clouds 6 987 81 10000 3.1 140 21:37 21.12.2019
5697 Clouds 6 987 81 10000 3.6 150 21:19 21.12.2019
5698 Clouds 6 987 81 10000 3.6 150 20:57 21.12.2019
5699 Clouds 7 988 81 10000 4.6 160 20:39 21.12.2019
5700 Clouds 7 988 75 10000 5.7 170 20:21 21.12.2019
5701 Clouds 7 988 75 10000 5.7 170 19:57 21.12.2019
5702 Clouds 7 988 75 10000 5.7 170 19:39 21.12.2019
5703 Clouds 8 988 75 10000 5.1 160 19:19 21.12.2019
5704 Clouds 8 988 75 10000 5.1 150 18:44 21.12.2019
5705 Clouds 8 988 75 10000 5.1 150 18:24 21.12.2019
5706 Clouds 8 988 75 10000 6.2 140 17:57 21.12.2019
5707 Clouds 8 988 75 10000 6.2 140 17:39 21.12.2019
5708 Clouds 8 989 81 10000 5.7 140 17:21 21.12.2019
5709 Clouds 8 989 81 10000 5.7 140 16:58 21.12.2019
5710 Clouds 8 989 81 10000 5.7 150 16:40 21.12.2019
5711 Clouds 8 989 81 10000 5.1 160 16:18 21.12.2019
5712 Clouds 8 989 81 10000 5.1 160 16:18 21.12.2019
5713 Clouds 9 989 81 10000 5.1 160 15:57 21.12.2019
5714 Clouds 9 989 81 10000 5.1 160 15:57 21.12.2019
5715 Clouds 9 989 76 10000 4.1 160 15:38 21.12.2019
5716 Clouds 9 989 76 10000 4.6 170 15:19 21.12.2019
5717 Clouds 9 989 76 10000 4.6 170 14:55 21.12.2019
5718 Clouds 9 990 76 10000 6.2 180 14:37 21.12.2019
5719 Clouds 9 990 71 10000 5.1 180 14:18 21.12.2019
5720 Clouds 9 990 71 10000 5.1 180 13:55 21.12.2019
5721 Clouds 9 990 76 10000 6.2 180 13:37 21.12.2019
5722 Clear 10 990 71 10000 7.2 190 13:18 21.12.2019
5723 Clear 10 990 71 10000 7.2 190 12:54 21.12.2019
5724 Clear 10 991 71 10000 5.1 180 12:36 21.12.2019
5725 Clear 9 991 76 10000 4.6 190 12:18 21.12.2019
5726 Clear 9 991 76 10000 3.6 180 11:41 21.12.2019
5727 Clear 8 991 76 10000 3.6 180 11:23 21.12.2019
5728 Clear 8 991 81 10000 3.6 160 10:56 21.12.2019
5729 Clouds 7 991 81 10000 3.6 150 10:37 21.12.2019
5730 Clouds 7 991 81 10000 3.1 160 10:19 21.12.2019
5731 Clouds 7 991 81 10000 3.1 160 10:19 21.12.2019
5732 Clouds 6 991 81 10000 3.1 160 09:42 21.12.2019
5733 Clouds 6 991 81 10000 3.6 180 09:21 21.12.2019
5734 Clouds 6 991 81 10000 3.6 180 08:57 21.12.2019
5735 Clouds 6 991 87 10000 3.1 180 08:37 21.12.2019
5736 Clouds 6 991 87 10000 3.1 170 08:19 21.12.2019
5737 Clouds 7 991 81 10000 3.6 200 07:44 21.12.2019
5738 Clouds 7 991 87 10000 3.1 200 07:22 21.12.2019
5739 Clouds 7 991 81 10000 4.1 200 06:44 21.12.2019
5740 Clouds 7 991 81 10000 4.1 190 06:25 21.12.2019
5741 Clouds 8 991 81 10000 4.1 200 05:49 21.12.2019
5742 Clouds 8 991 81 10000 4.1 200 04:58 21.12.2019
5743 Clouds 8 990 81 10000 4.6 200 03:57 21.12.2019
5744 Clouds 8 990 81 10000 4.1 210 02:52 21.12.2019
5745 Clouds 8 989 81 10000 4.1 210 01:59 21.12.2019
5746 Clouds 8 989 81 10000 5.1 220 01:28 21.12.2019
5747 Clouds 9 989 76 10000 4.1 210 00:55 21.12.2019
5748 Clouds 9 989 76 10000 4.6 210 00:37 21.12.2019
5749 Clouds 9 988 81 10000 5.1 220 00:18 21.12.2019
5750 Clouds 9 988 76 10000 3.1 220 23:38 20.12.2019
5751 Rain 10 988 76 10000 5.7 250 23:19 20.12.2019
5752 Clouds 10 988 81 10000 5.7 210 22:43 20.12.2019
5753 Clouds 10 987 93 10000 3.1 190 22:21 20.12.2019
5754 Clouds 10 987 93 10000 3.1 190 21:59 20.12.2019
5755 Rain 10 986 93 10000 3.1 180 21:40 20.12.2019
5756 Rain 10 986 93 10000 4.1 170 21:20 20.12.2019
5757 Rain 10 986 93 10000 4.1 170 21:20 20.12.2019
5758 Rain 10 986 93 10000 4.1 170 20:56 20.12.2019
5759 Rain 10 986 93 10000 3.1 170 20:36 20.12.2019
5760 Rain 10 986 87 10000 4.1 180 20:18 20.12.2019
5761 Rain 10 986 87 10000 5.1 180 19:42 20.12.2019
5762 Clouds 11 985 76 10000 5.7 180 19:20 20.12.2019
5763 Clouds 11 985 76 10000 5.7 180 18:58 20.12.2019
5764 Clouds 11 985 76 10000 5.7 170 18:39 20.12.2019
5765 Clouds 11 985 76 10000 5.1 160 18:21 20.12.2019
5766 Clouds 11 985 76 10000 5.1 160 17:55 20.12.2019
5767 Clouds 11 985 71 10000 4.6 150 17:37 20.12.2019
5768 Clouds 11 985 71 10000 4.6 150 17:18 20.12.2019
5769 Rain 11 986 71 10000 5.1 120 16:40 20.12.2019
5770 Rain 11 986 71 10000 4.6 130 16:20 20.12.2019
5771 Clouds 11 986 71 10000 5.1 130 15:57 20.12.2019
5772 Clouds 11 986 71 10000 5.1 130 15:39 20.12.2019
5773 Rain 11 987 66 10000 5.1 130 15:20 20.12.2019
5774 Rain 11 987 71 10000 6.2 130 14:59 20.12.2019
5775 Rain 11 987 71 10000 6.2 130 14:41 20.12.2019
5776 Rain 11 987 71 10000 6.2 130 14:41 20.12.2019
5777 Rain 10 987 70 10000 5.1 120 14:23 20.12.2019
5778 Clouds 10 988 70 10000 4.6 120 13:56 20.12.2019
5779 Clouds 10 989 70 10000 4.1 140 13:37 20.12.2019
5780 Clouds 10 989 70 10000 4.1 140 13:18 20.12.2019
5781 Clouds 10 989 70 10000 3.6 130 12:55 20.12.2019
5782 Clouds 9 989 75 10000 4.6 140 12:36 20.12.2019
5783 Clouds 9 989 75 10000 4.6 140 12:18 20.12.2019
5784 Clouds 9 989 70 10000 5.7 130 11:57 20.12.2019
5785 Clouds 9 990 70 10000 6.7 130 11:38 20.12.2019
5786 Clouds 8 990 70 10000 6.7 130 11:18 20.12.2019
5787 Clouds 8 991 75 10000 6.7 130 10:55 20.12.2019
5788 Clouds 7 991 75 10000 6.2 130 10:37 20.12.2019
5789 Clouds 7 991 75 10000 6.2 130 10:18 20.12.2019
5790 Clouds 6 992 81 10000 6.7 120 09:42 20.12.2019
5791 Clouds 6 992 81 10000 7.2 120 09:21 20.12.2019
5792 Clouds 6 993 81 10000 5.7 120 08:54 20.12.2019
5793 Clouds 6 994 81 10000 6.7 120 08:36 20.12.2019
5794 Clouds 6 994 81 10000 6.7 120 08:18 20.12.2019
5795 Clouds 6 994 86 10000 6.2 120 07:41 20.12.2019
5796 Clouds 6 995 86 10000 7.2 130 07:23 20.12.2019
5797 Clouds 6 995 86 10000 5.7 130 06:55 20.12.2019
5798 Clouds 6 996 86 10000 4.6 130 06:36 20.12.2019
5799 Clouds 6 996 86 10000 4.6 130 06:18 20.12.2019
5800 Clouds 6 996 87 10000 6.7 120 05:45 20.12.2019
5801 Clouds 6 997 93 10000 4.1 120 04:57 20.12.2019
5802 Clouds 6 999 87 10000 3.6 120 03:48 20.12.2019
5803 Clouds 7 1000 87 10000 4.6 120 02:46 20.12.2019
5804 Clouds 7 1001 87 10000 4.6 130 01:59 20.12.2019
5805 Clouds 7 1001 87 10000 5.1 130 01:35 20.12.2019
5806 Clouds 7 1002 87 10000 4.6 130 00:55 20.12.2019
5807 Clouds 7 1002 81 10000 4.6 130 00:35 20.12.2019
5808 Clouds 7 1003 81 10000 4.6 130 23:58 19.12.2019
5809 Clouds 7 1003 81 10000 4.6 130 23:40 19.12.2019
5810 Clouds 8 1003 81 10000 4.1 120 23:19 19.12.2019
5811 Clouds 8 1003 81 10000 3.6 130 22:40 19.12.2019
5812 Clouds 9 1004 81 10000 2.6 120 22:22 19.12.2019
5813 Clouds 9 1004 81 10000 3.6 130 21:57 19.12.2019
5814 Clouds 9 1004 81 10000 3.6 130 21:39 19.12.2019
5815 Clouds 9 1005 76 10000 5.1 130 21:19 19.12.2019
5816 Clouds 9 1005 76 10000 6.2 130 20:57 19.12.2019
5817 Clouds 9 1005 76 10000 5.1 120 20:38 19.12.2019
5818 Clear 9 1005 76 10000 5.1 120 20:20 19.12.2019
5819 Clear 9 1005 76 10000 5.1 120 20:20 19.12.2019
5820 Clear 9 1006 81 10000 5.1 130 19:58 19.12.2019
5821 Clear 9 1006 81 10000 5.1 130 19:40 19.12.2019
5822 Clear 9 1006 76 10000 5.1 130 19:19 19.12.2019
5823 Clear 9 1006 76 10000 5.1 130 19:19 19.12.2019
5824 Clear 9 1006 76 10000 5.1 130 19:19 19.12.2019
5825 Clear 9 1006 76 10000 5.1 130 19:19 19.12.2019
5826 Clear 9 1006 76 10000 5.1 130 19:19 19.12.2019
5827 Clear 9 1006 76 10000 4.6 120 18:58 19.12.2019
5828 Clear 10 1006 76 10000 4.6 120 18:40 19.12.2019
5829 Clear 10 1007 76 10000 5.1 120 18:20 19.12.2019
5830 Clear 10 1007 76 10000 5.1 120 17:56 19.12.2019
5831 Clear 10 1008 81 10000 3.6 130 17:38 19.12.2019
5832 Clear 10 1008 81 10000 3.6 130 17:18 19.12.2019
5833 Clear 10 1008 81 10000 2.6 140 16:56 19.12.2019
5834 Clear 11 1008 76 10000 4.6 120 16:38 19.12.2019
5835 Clear 11 1008 76 10000 4.6 120 16:19 19.12.2019
5836 Clear 11 1008 76 10000 3.1 110 15:57 19.12.2019
5837 Clear 11 1009 81 10000 2.6 120 15:38 19.12.2019
5838 Clear 12 1009 81 10000 2.6 120 15:19 19.12.2019
5839 Clear 12 1009 76 10000 2.6 120 14:57 19.12.2019
5840 Clear 12 1009 76 10000 4.1 130 14:38 19.12.2019
5841 Clouds 13 1009 71 10000 2.1 190 14:18 19.12.2019
5842 Clear 12 1010 76 10000 3.1 130 13:39 19.12.2019
5843 Clouds 12 1010 81 10000 4.1 130 13:20 19.12.2019
5844 Clouds 12 1010 81 10000 4.1 130 13:20 19.12.2019
5845 Clouds 12 1011 81 10000 4.6 130 12:58 19.12.2019
5846 Clouds 11 1011 87 10000 3.6 140 12:40 19.12.2019
5847 Clouds 10 1011 87 10000 3.6 140 12:19 19.12.2019
5848 Clouds 10 1011 87 10000 3.6 140 12:19 19.12.2019
5849 Clouds 10 1012 81 10000 3.6 130 11:59 19.12.2019
5850 Clouds 10 1012 81 10000 3.6 130 11:41 19.12.2019
5851 Clouds 9 1012 87 10000 3.1 130 11:20 19.12.2019
5852 Clouds 9 1012 87 10000 3.1 130 11:20 19.12.2019
5853 Clouds 9 1012 87 10000 3.1 130 11:20 19.12.2019
5854 Clouds 8 1012 87 10000 5.1 130 10:59 19.12.2019
5855 Clouds 8 1012 93 10000 5.1 130 10:38 19.12.2019
5856 Clouds 7 1012 93 10000 5.1 130 10:20 19.12.2019
5857 Clouds 7 1012 93 10000 4.6 130 09:57 19.12.2019
5858 Clouds 6 1013 93 10000 3.6 140 09:38 19.12.2019
5859 Clouds 6 1013 93 10000 3.6 140 09:19 19.12.2019
5860 Clouds 6 1013 93 10000 3.6 140 09:19 19.12.2019
5861 Clouds 6 1013 100 10000 4.1 130 08:55 19.12.2019
5862 Clouds 5 1013 100 10000 4.1 130 08:37 19.12.2019
5863 Clouds 5 1013 100 10000 4.1 130 08:18 19.12.2019
5864 Clouds 5 1013 100 10000 3.6 130 07:54 19.12.2019
5865 Clouds 5 1013 93 10000 4.1 130 07:36 19.12.2019
5866 Clouds 5 1013 93 10000 4.1 130 07:18 19.12.2019
5867 Clouds 5 1013 93 10000 4.6 130 06:42 19.12.2019
5868 Clouds 5 1013 93 10000 4.1 130 06:24 19.12.2019
5869 Clouds 5 1013 93 10000 4.1 130 05:47 19.12.2019
5870 Clouds 5 1014 93 10000 3.1 130 05:27 19.12.2019
5871 Clouds 4 1014 93 10000 4.6 130 03:58 19.12.2019
5872 Clouds 4 1015 93 10000 5.1 130 02:30 19.12.2019
5873 Clouds 3 1016 93 10000 4.1 120 01:43 19.12.2019
5874 Clouds 3 1016 93 6000 4.6 120 01:21 19.12.2019
5875 Mist 3 1017 93 4200 3.6 130 00:39 19.12.2019
5876 Mist 3 1017 93 4200 3.6 130 00:39 19.12.2019
5877 Mist 3 1017 93 4200 3.6 130 00:19 19.12.2019
5878 Mist 3 1017 93 4500 3.6 130 23:45 18.12.2019
5879 Mist 4 1017 93 5000 4.6 130 23:19 18.12.2019
5880 Mist 4 1017 93 5000 4.6 130 23:19 18.12.2019
5881 Mist 4 1018 93 4000 4.1 130 22:58 18.12.2019
5882 Mist 4 1018 93 4000 4.1 130 22:40 18.12.2019
5883 Mist 4 1018 100 4000 4.1 130 22:22 18.12.2019
5884 Mist 4 1018 93 4500 3.1 120 21:59 18.12.2019
5885 Mist 3 1018 93 4500 3.1 120 21:41 18.12.2019
5886 Mist 4 1018 93 5000 3.1 130 21:21 18.12.2019
5887 Mist 4 1018 93 5000 3.1 130 21:21 18.12.2019
5888 Clouds 4 1018 93 6000 3.1 130 20:58 18.12.2019
5889 Clouds 4 1018 93 7000 3.1 130 20:39 18.12.2019
5890 Clouds 4 1018 93 7000 3.1 130 20:20 18.12.2019
5891 Clouds 4 1018 93 10000 2.6 120 19:57 18.12.2019
5892 Clouds 5 1018 93 10000 2.6 120 19:39 18.12.2019
5893 Clouds 5 1018 93 10000 2.6 140 19:19 18.12.2019
5894 Clouds 5 1018 93 10000 2.6 140 18:59 18.12.2019
5895 Clouds 5 1017 87 10000 3.1 140 18:41 18.12.2019
5896 Clouds 5 1017 87 10000 3.1 140 18:22 18.12.2019
5897 Clouds 5 1018 93 10000 1.5 180 17:56 18.12.2019
5898 Clouds 6 1018 87 10000 1.5 180 17:38 18.12.2019
5899 Clouds 6 1018 87 10000 1.5 180 17:38 18.12.2019
5900 Clouds 6 1018 87 10000 1.5 180 17:19 18.12.2019
5901 Clouds 7 1017 87 10000 1.5 190 16:43 18.12.2019
5902 Clouds 7 1017 87 10000 1.5 190 16:43 18.12.2019
5903 Clouds 7 1017 87 10000 1.5 190 16:24 18.12.2019
5904 Clouds 7 1017 87 10000 2.6 240 15:59 18.12.2019
5905 Clouds 7 1017 75 10000 4.1 240 15:40 18.12.2019
5906 Clouds 7 1017 81 10000 3.6 230 15:21 18.12.2019
5907 Clouds 8 1017 81 10000 3.6 230 14:59 18.12.2019
5908 Clouds 8 1017 81 10000 3.6 230 14:40 18.12.2019
5909 Clouds 7 1017 87 10000 4.1 240 14:20 18.12.2019
5910 Clouds 7 1017 87 10000 4.1 240 13:56 18.12.2019
5911 Clouds 7 1016 87 10000 4.6 230 13:37 18.12.2019
5912 Clouds 7 1016 87 10000 5.1 230 13:19 18.12.2019
5913 Clouds 7 1016 87 10000 4.6 230 12:57 18.12.2019
5914 Clouds 7 1016 87 10000 4.6 230 12:37 18.12.2019
5915 Clouds 7 1015 93 10000 4.6 230 12:19 18.12.2019
5916 Clouds 7 1015 93 10000 4.6 230 11:55 18.12.2019
5917 Clouds 7 1015 93 10000 3.6 230 11:37 18.12.2019
5918 Clouds 7 1015 93 10000 3.1 240 11:18 18.12.2019
5919 Rain 7 1015 93 10000 4.1 230 10:55 18.12.2019
5920 Rain 6 1015 93 10000 4.1 230 10:37 18.12.2019
5921 Rain 6 1015 93 10000 4.1 230 10:37 18.12.2019
5922 Clouds 6 1014 93 10000 3.6 210 10:18 18.12.2019
5923 Rain 6 1014 93 10000 3.6 200 09:43 18.12.2019
5924 Clouds 6 1013 93 10000 3.1 240 09:18 18.12.2019
5925 Clouds 6 1013 93 10000 3.1 230 08:40 18.12.2019
5926 Clouds 6 1012 93 10000 3.1 230 08:21 18.12.2019
5927 Clouds 6 1012 93 10000 3.1 230 07:43 18.12.2019
5928 Clouds 6 1012 93 10000 3.1 220 07:23 18.12.2019
5929 Clouds 6 1012 93 10000 3.1 220 06:55 18.12.2019
5930 Clouds 6 1011 93 10000 3.6 220 06:27 18.12.2019
5931 Clouds 6 1010 93 10000 3.1 240 05:47 18.12.2019
5932 Clouds 6 1009 87 10000 3.6 250 04:52 18.12.2019
5933 Clouds 8 1007 87 10000 6.2 290 02:55 18.12.2019
5934 Clouds 8 1006 87 10000 8.2 290 02:36 18.12.2019
5935 Rain 9 1005 87 10000 9.3 270 02:18 18.12.2019
5936 Clouds 10 1004 93 10000 5.7 250 01:40 18.12.2019
5937 Rain 10 1003 87 10000 8.2 240 01:21 18.12.2019
5938 Rain 10 1002 87 10000 7.7 240 00:41 18.12.2019
5939 Rain 10 1001 91 0 2.24 266 00:23 18.12.2019
5940 Rain 11 1002 87 10000 7.2 220 23:57 17.12.2019
5941 Rain 11 1001 81 10000 5.7 210 23:38 17.12.2019
5942 Rain 11 1001 81 10000 4.6 200 23:19 17.12.2019
5943 Rain 12 1001 81 10000 4.6 200 22:56 17.12.2019
5944 Rain 13 1001 71 10000 4.1 180 22:38 17.12.2019
5945 Clouds 13 1001 71 10000 4.1 180 22:19 17.12.2019
5946 Clouds 13 1001 71 10000 4.1 180 21:55 17.12.2019
5947 Clouds 13 1001 71 10000 4.6 170 21:37 17.12.2019
5948 Clouds 12 1001 71 10000 4.1 170 21:19 17.12.2019
5949 Clouds 12 1001 71 10000 4.1 170 20:57 17.12.2019
5950 Clouds 12 1001 66 10000 5.1 180 20:38 17.12.2019
5951 Clouds 12 1001 66 10000 5.1 180 20:18 17.12.2019
5952 Clouds 12 1001 66 10000 5.1 180 20:18 17.12.2019
5953 Clouds 12 1001 66 10000 5.1 180 19:56 17.12.2019
5954 Clouds 12 1001 71 10000 4.1 170 19:38 17.12.2019
5955 Clouds 12 1001 71 10000 4.6 180 19:18 17.12.2019
5956 Clouds 12 1001 71 10000 4.1 180 18:54 17.12.2019
5957 Clouds 12 1001 71 10000 4.1 180 18:36 17.12.2019
5958 Clouds 12 1001 71 10000 3.6 180 18:18 17.12.2019
5959 Clouds 12 1001 71 10000 3.6 180 18:18 17.12.2019
5960 Clouds 12 1001 71 10000 3.6 190 17:42 17.12.2019
5961 Clouds 12 1001 71 10000 4.1 180 17:21 17.12.2019
5962 Clouds 12 1001 71 10000 4.1 180 16:57 17.12.2019
5963 Clouds 12 1001 71 10000 3.6 180 16:38 17.12.2019
5964 Clouds 12 1001 71 10000 4.6 170 16:19 17.12.2019
5965 Clouds 12 1001 71 10000 4.6 170 15:59 17.12.2019
5966 Clouds 13 1001 71 10000 4.1 170 15:37 17.12.2019
5967 Clouds 13 1001 71 10000 4.1 180 15:19 17.12.2019
5968 Clouds 13 1000 71 10000 4.6 190 14:56 17.12.2019
5969 Clouds 13 1000 71 10000 4.6 190 14:38 17.12.2019
5970 Clouds 13 1000 71 10000 5.1 180 14:18 17.12.2019
5971 Clouds 13 1000 71 10000 5.1 180 13:56 17.12.2019
5972 Clouds 13 1000 71 10000 4.6 190 13:38 17.12.2019
5973 Clouds 13 1000 71 10000 4.6 180 13:19 17.12.2019
5974 Clouds 13 1000 76 10000 4.6 180 12:56 17.12.2019
5975 Clouds 12 1000 76 10000 4.6 180 12:37 17.12.2019
5976 Clouds 12 1001 71 10000 4.1 180 12:18 17.12.2019
5977 Clouds 12 1001 71 10000 4.1 180 11:56 17.12.2019
5978 Clouds 11 1001 71 10000 5.1 180 11:36 17.12.2019
5979 Clouds 11 1001 71 10000 5.1 180 11:18 17.12.2019
5980 Clouds 10 1001 76 10000 4.6 180 10:56 17.12.2019
5981 Clouds 10 1001 76 10000 4.6 180 10:37 17.12.2019
5982 Clouds 9 1001 81 10000 2.6 150 10:19 17.12.2019
5983 Clouds 7 1001 93 10000 2.6 160 09:42 17.12.2019
5984 Clouds 7 1000 87 10000 3.1 150 09:22 17.12.2019
5985 Clouds 7 1000 87 10000 3.1 150 08:59 17.12.2019
5986 Clouds 7 1000 87 10000 2.1 130 08:40 17.12.2019
5987 Clouds 7 1000 93 10000 2.6 130 08:22 17.12.2019
5988 Clouds 7 1000 93 10000 2.6 130 08:22 17.12.2019
5989 Clouds 6 1000 93 10000 2.6 130 07:58 17.12.2019
5990 Clouds 7 1000 93 10000 3.1 140 07:39 17.12.2019
5991 Clouds 6 1000 93 10000 2.6 130 07:21 17.12.2019
5992 Rain 6 1000 100 10000 2.1 120 06:42 17.12.2019
5993 Rain 6 1000 93 10000 2.6 130 06:24 17.12.2019
5994 Rain 6 1000 93 10000 2.6 130 06:24 17.12.2019
5995 Rain 6 1000 100 10000 3.1 140 05:41 17.12.2019
5996 Clouds 6 1001 100 10000 2.1 130 04:53 17.12.2019
5997 Clouds 6 1001 93 10000 2.1 110 03:55 17.12.2019
5998 Clouds 7 1002 93 10000 2.6 110 02:26 17.12.2019
5999 Rain 7 1002 100 10000 2.6 100 01:22 17.12.2019
6000 Clouds 7 1003 93 10000 2.6 90 00:47 17.12.2019
6001 Rain 7 1003 93 10000 2.1 80 00:22 17.12.2019
6002 Rain 7 1003 93 10000 2.1 80 23:58 16.12.2019
6003 Rain 7 1004 93 10000 2.1 100 23:40 16.12.2019
6004 Clouds 7 1004 93 10000 2.6 80 23:18 16.12.2019
6005 Clouds 7 1004 93 10000 2.1 70 22:54 16.12.2019
6006 Clouds 7 1004 93 10000 2.1 70 22:36 16.12.2019
6007 Rain 7 1004 93 10000 2.1 80 22:18 16.12.2019
6008 Rain 7 1004 93 10000 2.1 80 21:54 16.12.2019
6009 Clouds 7 1004 87 10000 1 0 21:36 16.12.2019
6010 Clouds 7 1004 87 10000 2.1 150 21:18 16.12.2019
6011 Clouds 7 1004 87 10000 2.1 150 20:56 16.12.2019
6012 Rain 7 1004 87 10000 2.6 150 20:37 16.12.2019
6013 Rain 7 1004 87 10000 2.6 150 20:37 16.12.2019
6014 Rain 7 1005 93 10000 2.6 170 20:18 16.12.2019
6015 Rain 7 1005 93 10000 2.6 160 19:55 16.12.2019
6016 Rain 7 1005 93 10000 2.6 160 19:36 16.12.2019
6017 Rain 7 1005 93 10000 3.6 170 19:18 16.12.2019
6018 Rain 7 1005 93 10000 3.6 170 18:55 16.12.2019
6019 Rain 7 1004 93 10000 3.6 160 18:36 16.12.2019
6020 Rain 7 1005 87 10000 3.1 180 18:18 16.12.2019
6021 Rain 7 1005 93 10000 3.6 180 17:56 16.12.2019
6022 Rain 7 1005 93 10000 3.6 180 17:37 16.12.2019
6023 Clouds 8 1005 93 10000 3.6 170 17:19 16.12.2019
6024 Rain 8 1005 87 10000 3.6 180 16:54 16.12.2019
6025 Rain 8 1005 87 10000 3.6 180 16:36 16.12.2019
6026 Rain 8 1005 87 10000 3.1 190 16:18 16.12.2019
6027 Rain 8 1005 87 10000 3.1 190 15:55 16.12.2019
6028 Rain 8 1005 87 10000 3.6 190 15:37 16.12.2019
6029 Rain 8 1005 87 10000 3.6 180 15:18 16.12.2019
6030 Rain 8 1005 87 10000 3.6 180 14:54 16.12.2019
6031 Clouds 8 1005 87 10000 4.1 180 14:36 16.12.2019
6032 Clouds 8 1005 81 10000 3.1 180 14:18 16.12.2019
6033 Clouds 8 1005 87 10000 2.6 180 13:38 16.12.2019
6034 Clouds 8 1005 87 10000 2.6 170 13:20 16.12.2019
6035 Clouds 8 1005 87 10000 2.6 170 12:59 16.12.2019
6036 Clouds 8 1005 81 10000 3.6 190 12:41 16.12.2019
6037 Clouds 7 1006 87 10000 3.1 190 12:20 16.12.2019
6038 Clouds 7 1006 81 10000 3.6 190 11:59 16.12.2019
6039 Clouds 7 1006 81 10000 3.6 190 11:41 16.12.2019
6040 Clouds 7 1006 81 10000 4.6 180 11:22 16.12.2019
6041 Clouds 6 1006 81 10000 4.6 180 11:00 16.12.2019
6042 Clouds 6 1005 81 10000 3.6 170 10:40 16.12.2019
6043 Clouds 5 1006 86 10000 3.6 170 10:21 16.12.2019
6044 Clouds 5 1005 80 10000 4.1 170 09:55 16.12.2019
6045 Clouds 5 1005 80 10000 4.1 170 09:37 16.12.2019
6046 Clouds 5 1005 86 10000 4.6 170 09:19 16.12.2019
6047 Clouds 5 1005 86 10000 4.6 170 08:39 16.12.2019
6048 Clouds 5 1005 86 10000 4.1 160 08:19 16.12.2019
6049 Clouds 4 1005 86 10000 3.6 160 07:51 16.12.2019
6050 Clouds 4 1005 86 10000 3.6 160 07:31 16.12.2019
6051 Clouds 4 1005 86 10000 4.1 180 06:49 16.12.2019
6052 Clouds 4 1006 80 10000 3.6 170 06:27 16.12.2019
6053 Clouds 4 1006 80 10000 3.6 170 05:59 16.12.2019
6054 Clouds 4 1006 75 10000 4.6 180 05:40 16.12.2019
6055 Clouds 4 1006 80 10000 4.6 180 05:22 16.12.2019
6056 Clouds 4 1005 84 0 0.89 196 02:59 16.12.2019
6057 Clouds 5 1006 80 10000 3.6 210 01:46 16.12.2019
6058 Clouds 5 1006 80 10000 4.1 210 00:57 16.12.2019
6059 Clouds 6 1005 75 10000 5.1 210 00:38 16.12.2019
6060 Clouds 6 1005 75 10000 5.1 220 00:19 16.12.2019
6061 Clouds 6 1005 75 10000 6.7 220 23:43 15.12.2019
6062 Clouds 6 1005 81 10000 7.7 220 23:25 15.12.2019
6063 Clouds 6 1005 81 10000 7.7 220 22:57 15.12.2019
6064 Clouds 6 1004 81 10000 7.2 230 22:38 15.12.2019
6065 Clouds 6 1004 81 10000 7.2 230 22:38 15.12.2019
6066 Clouds 6 1004 81 10000 7.2 230 22:19 15.12.2019
6067 Clouds 7 1004 81 10000 7.2 230 21:58 15.12.2019
6068 Clouds 7 1003 75 10000 7.2 230 21:39 15.12.2019
6069 Clouds 7 1003 75 10000 7.2 220 21:20 15.12.2019
6070 Clouds 7 1003 75 10000 7.2 220 20:58 15.12.2019
6071 Clouds 7 1003 75 10000 7.2 220 20:58 15.12.2019
6072 Clouds 7 1002 81 10000 7.7 220 20:40 15.12.2019
6073 Clouds 7 1002 87 10000 5.7 210 20:21 15.12.2019
6074 Clouds 7 1002 87 10000 5.7 210 19:58 15.12.2019
6075 Rain 7 1001 87 10000 7.7 230 19:40 15.12.2019
6076 Clouds 7 1001 81 10000 8.2 230 19:20 15.12.2019
6077 Clouds 7 1001 81 10000 8.2 230 18:58 15.12.2019
6078 Clouds 7 1001 81 10000 5.7 220 18:39 15.12.2019
6079 Clouds 7 1000 81 10000 6.7 220 18:19 15.12.2019
6080 Clouds 7 1000 81 10000 6.7 220 17:57 15.12.2019
6081 Clouds 7 999 83 0 3.58 242 17:38 15.12.2019
6082 Rain 7 999 81 10000 10.8 240 17:19 15.12.2019
6083 Rain 7 999 81 10000 10.8 240 16:59 15.12.2019
6084 Rain 7 999 81 10000 6.2 240 16:41 15.12.2019
6085 Clouds 8 998 65 10000 8.7 230 16:21 15.12.2019
6086 Clouds 8 998 65 10000 8.7 230 15:57 15.12.2019
6087 Clouds 8 998 65 10000 9.8 240 15:38 15.12.2019
6088 Clouds 8 997 61 10000 10.3 240 15:19 15.12.2019
6089 Clouds 8 997 61 10000 10.3 240 15:19 15.12.2019
6090 Clouds 8 997 61 10000 10.3 240 14:56 15.12.2019
6091 Clouds 9 997 61 10000 11.3 240 14:37 15.12.2019
6092 Clouds 9 996 61 10000 10.8 240 14:19 15.12.2019
6093 Clouds 9 996 61 10000 10.8 240 13:58 15.12.2019
6094 Clouds 9 996 65 10000 12.3 240 13:38 15.12.2019
6095 Clouds 9 995 65 10000 11.8 250 13:19 15.12.2019
6096 Clouds 9 995 65 10000 11.8 250 12:57 15.12.2019
6097 Clouds 9 995 65 10000 11.3 240 12:39 15.12.2019
6098 Clouds 8 994 65 10000 12.3 240 12:20 15.12.2019
6099 Clouds 8 994 65 10000 12.3 240 12:20 15.12.2019
6100 Clouds 8 994 65 10000 12.3 240 11:58 15.12.2019
6101 Clouds 9 994 65 10000 12.9 250 11:37 15.12.2019
6102 Clouds 8 993 66 10000 12.9 240 11:19 15.12.2019
6103 Clouds 8 992 70 10000 10.3 240 10:55 15.12.2019
6104 Clouds 8 992 70 10000 10.3 240 10:37 15.12.2019
6105 Clouds 8 991 76 10000 10.3 240 10:19 15.12.2019
6106 Clouds 8 991 81 10000 9.3 240 09:41 15.12.2019
6107 Clouds 8 990 87 10000 8.2 220 09:20 15.12.2019
6108 Clouds 8 990 87 10000 8.2 220 08:59 15.12.2019
6109 Clouds 7 989 93 10000 5.7 210 08:41 15.12.2019
6110 Clouds 7 989 93 10000 6.2 180 08:22 15.12.2019
6111 Clouds 7 989 93 10000 6.2 180 07:56 15.12.2019
6112 Clouds 6 989 87 10000 6.7 170 07:36 15.12.2019
6113 Clouds 5 990 80 10000 6.7 140 06:56 15.12.2019
6114 Clouds 5 991 86 10000 6.7 140 06:21 15.12.2019
6115 Clouds 4 991 80 10000 5.1 140 05:39 15.12.2019
6116 Clouds 4 992 80 10000 4.6 150 05:19 15.12.2019
6117 Clouds 3 995 86 10000 5.7 170 03:56 15.12.2019
6118 Clouds 3 995 87 10000 4.1 210 02:35 15.12.2019
6119 Clouds 3 995 80 10000 4.1 210 01:57 15.12.2019
6120 Clouds 3 996 80 10000 4.6 210 01:39 15.12.2019
6121 Clouds 4 996 77 0 4.6 210 01:18 15.12.2019
6122 Clouds 4 996 80 10000 6.2 220 00:44 15.12.2019
6123 Clouds 4 996 80 10000 6.2 220 00:25 15.12.2019
6124 Clouds 4 996 86 10000 6.7 230 23:41 14.12.2019
6125 Clouds 4 995 86 10000 7.2 230 23:22 14.12.2019
6126 Clouds 4 995 86 10000 7.2 230 22:59 14.12.2019
6127 Clouds 4 994 86 10000 7.2 230 22:41 14.12.2019
6128 Clouds 3 994 86 10000 6.2 230 22:22 14.12.2019
6129 Clouds 3 994 93 10000 7.2 230 21:56 14.12.2019
6130 Clouds 3 994 93 10000 7.2 230 21:38 14.12.2019
6131 Clouds 4 993 86 10000 8.2 240 21:19 14.12.2019
6132 Clouds 4 993 86 10000 8.2 240 20:58 14.12.2019
6133 Rain 4 992 86 10000 10.3 250 20:39 14.12.2019
6134 Clouds 4 992 86 10000 8.2 250 20:20 14.12.2019
6135 Clouds 5 992 86 10000 8.2 250 19:57 14.12.2019
6136 Clouds 5 990 80 10000 8.2 230 19:37 14.12.2019
6137 Rain 6 989 75 10000 8.2 230 19:19 14.12.2019
6138 Clouds 6 989 75 10000 7.7 220 18:56 14.12.2019
6139 Clouds 6 989 75 10000 7.7 220 18:38 14.12.2019
6140 Clouds 6 989 75 10000 8.2 220 18:19 14.12.2019
6141 Clouds 6 989 75 10000 8.2 230 17:44 14.12.2019
6142 Clouds 6 989 75 10000 7.2 230 17:24 14.12.2019
6143 Clouds 6 989 75 10000 7.2 230 16:58 14.12.2019
6144 Clouds 6 988 75 10000 7.7 240 16:39 14.12.2019
6145 Clouds 6 988 75 10000 8.2 240 16:19 14.12.2019
6146 Clouds 6 988 75 10000 8.2 240 16:19 14.12.2019
6147 Rain 6 987 75 10000 10.3 250 15:43 14.12.2019
6148 Rain 6 987 75 10000 10.3 250 15:24 14.12.2019
6149 Rain 6 987 70 10000 11.3 250 14:59 14.12.2019
6150 Clouds 6 986 75 10000 9.8 250 14:39 14.12.2019
6151 Clouds 6 986 75 10000 9.8 250 14:20 14.12.2019
6152 Clouds 6 986 81 10000 9.3 250 13:57 14.12.2019
6153 Clouds 6 986 81 10000 9.3 250 13:39 14.12.2019
6154 Clouds 6 985 81 10000 10.8 250 13:19 14.12.2019
6155 Clouds 6 985 81 10000 10.8 250 12:56 14.12.2019
6156 Clouds 6 985 87 10000 8.7 250 12:37 14.12.2019
6157 Clouds 6 984 87 10000 7.2 240 12:19 14.12.2019
6158 Clouds 5 984 86 10000 6.2 230 11:56 14.12.2019
6159 Clouds 5 984 86 10000 6.2 230 11:37 14.12.2019
6160 Rain 5 984 93 10000 7.2 230 11:18 14.12.2019
6161 Clouds 4 983 93 10000 5.7 220 10:55 14.12.2019
6162 Clouds 4 983 93 10000 5.7 220 10:55 14.12.2019
6163 Clouds 4 983 93 10000 5.7 220 10:37 14.12.2019
6164 Rain 4 983 93 10000 7.2 230 10:19 14.12.2019
6165 Rain 4 982 93 10000 7.7 230 09:42 14.12.2019
6166 Rain 4 982 93 10000 5.1 220 09:21 14.12.2019
6167 Rain 4 982 93 10000 5.1 220 08:56 14.12.2019
6168 Rain 4 981 86 10000 6.2 230 08:38 14.12.2019
6169 Clouds 4 981 86 10000 7.2 230 08:19 14.12.2019
6170 Clouds 5 981 86 10000 5.1 210 07:40 14.12.2019
6171 Clouds 5 980 86 10000 5.1 210 07:21 14.12.2019
6172 Clouds 5 980 86 10000 5.1 210 07:21 14.12.2019
6173 Clouds 5 980 86 10000 4.6 200 06:48 14.12.2019
6174 Clouds 4 980 86 10000 4.6 200 06:30 14.12.2019
6175 Clouds 4 980 93 10000 4.1 190 05:50 14.12.2019
6176 Clouds 4 982 93 10000 5.1 210 03:44 14.12.2019
6177 Clouds 4 981 93 10000 3.1 210 02:24 14.12.2019
6178 Clouds 4 982 93 6000 3.1 200 01:44 14.12.2019
6179 Mist 3 982 100 5000 3.1 210 01:20 14.12.2019
6180 Clouds 3 982 93 7000 3.6 190 00:43 14.12.2019
6181 Clouds 3 982 93 8000 3.1 190 00:22 14.12.2019
6182 Rain 2 982 100 8000 2.6 190 23:41 13.12.2019
6183 Rain 2 982 100 7000 2.6 190 23:20 13.12.2019
6184 Rain 2 982 100 7000 2.6 190 22:59 13.12.2019
6185 Rain 2 982 100 6000 2.1 180 22:40 13.12.2019
6186 Rain 2 982 100 6000 1.5 180 22:19 13.12.2019
6187 Rain 2 982 100 6000 1.5 180 21:55 13.12.2019
6188 Rain 2 982 93 6000 1.5 170 21:36 13.12.2019
6189 Rain 2 982 93 6000 1 180 21:18 13.12.2019
6190 Rain 2 982 93 6000 1.5 160 20:40 13.12.2019
6191 Clouds 2 981 93 10000 3.1 130 20:21 13.12.2019
6192 Clouds 2 981 93 10000 3.1 130 19:58 13.12.2019
6193 Clouds 2 981 93 10000 3.1 130 19:40 13.12.2019
6194 Clouds 2 981 93 10000 2.6 110 19:20 13.12.2019
6195 Clouds 2 980 93 10000 2.1 120 18:58 13.12.2019
6196 Clouds 2 980 93 10000 2.1 120 18:40 13.12.2019
6197 Clouds 2 980 93 10000 3.1 120 18:19 13.12.2019
6198 Clouds 2 980 93 10000 3.1 120 18:19 13.12.2019
6199 Clouds 2 980 93 10000 3.6 110 17:42 13.12.2019
6200 Clouds 2 980 96 10000 3.6 120 17:20 13.12.2019
6201 Clouds 2 979 96 10000 4.6 110 16:59 13.12.2019
6202 Rain 2 979 96 10000 4.1 120 16:39 13.12.2019
6203 Rain 3 979 96 10000 4.1 120 16:20 13.12.2019
6204 Clouds 3 979 96 10000 4.6 120 15:58 13.12.2019
6205 Clouds 3 978 96 10000 4.6 120 15:37 13.12.2019
6206 Clouds 3 978 96 10000 4.6 120 15:18 13.12.2019
6207 Clouds 3 978 96 10000 4.6 120 14:41 13.12.2019
6208 Clouds 3 978 76 10000 4.6 120 14:21 13.12.2019
6209 Clouds 3 978 76 10000 5.1 120 13:57 13.12.2019
6210 Clouds 3 978 76 10000 6.7 120 13:38 13.12.2019
6211 Clouds 3 978 80 10000 6.7 120 13:19 13.12.2019
6212 Clouds 3 978 74 10000 6.2 120 12:42 13.12.2019
6213 Clouds 3 978 74 10000 6.2 120 12:20 13.12.2019
6214 Clouds 3 978 74 10000 6.7 120 11:57 13.12.2019
6215 Clouds 3 978 74 10000 6.7 120 11:57 13.12.2019
6216 Clouds 2 978 74 10000 6.7 120 11:39 13.12.2019
6217 Clouds 2 978 80 10000 6.7 120 11:21 13.12.2019
6218 Clouds 2 978 80 10000 7.2 120 10:55 13.12.2019
6219 Clouds 2 978 80 10000 7.2 120 10:37 13.12.2019
6220 Clouds 2 978 80 10000 7.2 120 10:19 13.12.2019
6221 Clouds 2 978 74 10000 6.7 120 09:39 13.12.2019
6222 Clouds 2 978 74 10000 6.7 120 09:19 13.12.2019
6223 Clouds 2 978 74 10000 6.7 110 08:42 13.12.2019
6224 Clouds 2 979 80 10000 7.2 120 08:24 13.12.2019
6225 Clouds 2 979 86 10000 7.7 120 07:47 13.12.2019
6226 Clouds 2 979 86 10000 7.2 120 07:24 13.12.2019
6227 Clouds 2 980 80 10000 6.2 120 06:55 13.12.2019
6228 Clouds 2 980 80 10000 7.2 120 06:29 13.12.2019
6229 Clouds 2 981 80 10000 7.2 130 05:51 13.12.2019
6230 Clouds 2 981 80 10000 7.2 130 05:30 13.12.2019
6231 Clear 2 982 80 10000 7.2 120 04:46 13.12.2019
6232 Clear 2 983 80 10000 7.2 120 03:49 13.12.2019
6233 Clear 2 985 86 10000 6.2 120 02:35 13.12.2019
6234 Clear 2 986 86 10000 5.7 120 01:49 13.12.2019
6235 Clear 2 987 86 10000 5.7 130 01:21 13.12.2019
6236 Clear 1 988 86 10000 5.1 130 00:46 13.12.2019
6237 Clear 1 989 86 10000 4.6 130 00:24 13.12.2019
6238 Clear 2 990 80 10000 5.1 130 23:41 12.12.2019
6239 Clear 2 990 88 10000 5.1 140 23:22 12.12.2019
6240 Clear 2 991 88 10000 4.6 140 22:56 12.12.2019
6241 Clear 2 992 88 10000 4.1 130 22:38 12.12.2019
6242 Clear 2 992 88 10000 4.1 130 22:19 12.12.2019
6243 Clear 2 992 93 10000 4.6 140 21:55 12.12.2019
6244 Clear 2 993 93 10000 4.6 140 21:37 12.12.2019
6245 Clear 2 993 93 10000 4.6 140 21:19 12.12.2019
6246 Clear 2 994 88 10000 5.1 140 20:58 12.12.2019
6247 Clear 2 994 89 10000 4.6 140 20:39 12.12.2019
6248 Clouds 2 994 85 10000 4.6 140 20:21 12.12.2019
6249 Clouds 2 995 85 10000 3.6 130 19:55 12.12.2019
6250 Clouds 2 995 93 10000 3.6 150 19:37 12.12.2019
6251 Clouds 2 995 93 10000 3.6 150 19:18 12.12.2019
6252 Clouds 2 996 93 10000 3.1 160 18:55 12.12.2019
6253 Clouds 3 996 93 10000 3.1 150 18:37 12.12.2019
6254 Clouds 3 996 93 10000 3.1 150 18:19 12.12.2019
6255 Clouds 3 996 86 10000 3.6 160 17:56 12.12.2019
6256 Clouds 3 997 86 10000 3.6 160 17:38 12.12.2019
6257 Clouds 3 997 86 10000 3.6 160 17:19 12.12.2019
6258 Clouds 4 997 86 10000 3.1 160 16:54 12.12.2019
6259 Clouds 5 997 86 10000 3.1 190 16:36 12.12.2019
6260 Clouds 4 997 86 10000 3.1 190 16:18 12.12.2019
6261 Clouds 5 998 80 10000 4.6 200 15:42 12.12.2019
6262 Clouds 5 998 86 10000 4.6 200 15:20 12.12.2019
6263 Clouds 5 998 81 10000 5.1 210 14:57 12.12.2019
6264 Clouds 5 998 81 10000 5.1 210 14:38 12.12.2019
6265 Clouds 6 998 81 10000 5.1 210 14:19 12.12.2019
6266 Clouds 6 999 81 10000 5.1 220 13:56 12.12.2019
6267 Clouds 6 999 87 10000 5.1 210 13:38 12.12.2019
6268 Clouds 6 999 87 10000 5.1 210 13:20 12.12.2019
6269 Clouds 6 999 87 10000 4.1 210 12:56 12.12.2019
6270 Clouds 5 1000 93 10000 4.6 220 12:38 12.12.2019
6271 Clouds 5 1000 93 10000 4.6 220 12:18 12.12.2019
6272 Clouds 5 1000 93 10000 4.6 210 11:54 12.12.2019
6273 Clouds 5 1000 93 10000 5.1 210 11:36 12.12.2019
6274 Clouds 5 1000 93 10000 5.1 210 11:18 12.12.2019
6275 Clouds 5 1000 93 10000 4.1 210 10:41 12.12.2019
6276 Clouds 5 1000 93 10000 4.6 200 10:23 12.12.2019
6277 Clouds 5 1000 93 10000 4.6 200 10:23 12.12.2019
6278 Clouds 5 1000 93 10000 4.1 210 09:59 12.12.2019
6279 Clouds 5 1000 93 10000 4.1 210 09:41 12.12.2019
6280 Clouds 5 1000 93 8000 4.1 210 09:23 12.12.2019
6281 Clouds 5 1000 93 8000 4.1 220 08:55 12.12.2019
6282 Clouds 5 1000 93 8000 2.6 210 08:37 12.12.2019
6283 Clouds 5 1000 93 8000 2.6 210 08:18 12.12.2019
6284 Clouds 5 1000 93 7000 3.6 200 07:41 12.12.2019
6285 Clouds 5 1000 93 7000 3.6 190 07:23 12.12.2019
6286 Clouds 4 1000 93 7000 3.6 190 06:44 12.12.2019
6287 Clouds 4 1000 93 6000 3.6 190 06:24 12.12.2019
6288 Mist 4 1001 100 5000 3.1 180 05:36 12.12.2019
6289 Mist 4 1001 100 4500 2.6 180 04:51 12.12.2019
6290 Mist 4 1002 100 5000 2.1 200 03:20 12.12.2019
6291 Mist 4 1002 100 5000 3.1 210 02:37 12.12.2019
6292 Mist 4 1002 100 5000 3.1 210 02:19 12.12.2019
6293 Mist 4 1002 100 4500 2.6 200 01:37 12.12.2019
6294 Mist 4 1002 100 4500 2.6 200 01:19 12.12.2019
6295 Mist 4 1002 93 5000 2.1 200 00:46 12.12.2019
6296 Mist 4 1003 93 5000 2.1 210 00:19 12.12.2019
6297 Mist 5 1003 93 4500 2.1 210 23:44 11.12.2019
6298 Mist 5 1003 100 4200 3.1 210 23:21 11.12.2019
6299 Mist 5 1003 100 3500 2.6 220 22:57 11.12.2019
6300 Mist 5 1003 100 4500 2.6 220 22:38 11.12.2019
6301 Mist 4 1003 100 4500 2.6 220 22:20 11.12.2019
6302 Mist 5 1003 100 5000 2.6 210 21:57 11.12.2019
6303 Mist 5 1003 93 5000 2.6 200 21:38 11.12.2019
6304 Mist 5 1003 93 5000 2.6 200 21:19 11.12.2019
6305 Mist 5 1004 100 4300 2.1 200 20:56 11.12.2019
6306 Drizzle 5 1004 100 2800 1.5 210 20:37 11.12.2019
6307 Drizzle 5 1004 100 2800 1.5 210 20:37 11.12.2019
6308 Drizzle 5 1004 100 2800 1.5 210 20:37 11.12.2019
6309 Drizzle 5 1004 100 2800 1.5 210 20:19 11.12.2019
6310 Drizzle 5 1004 100 2800 1.5 210 20:19 11.12.2019
6311 Drizzle 5 1004 100 3200 2.1 210 19:57 11.12.2019
6312 Rain 5 1004 100 4500 2.6 200 19:39 11.12.2019
6313 Rain 5 1004 100 4500 2.6 200 19:19 11.12.2019
6314 Rain 5 1004 100 6000 3.1 180 18:41 11.12.2019
6315 Rain 5 1004 100 6000 3.6 180 18:21 11.12.2019
6316 Rain 5 1004 100 6000 3.1 180 17:57 11.12.2019
6317 Rain 5 1004 100 6000 3.1 180 17:57 11.12.2019
6318 Rain 5 1004 100 6000 3.6 180 17:39 11.12.2019
6319 Rain 5 1004 100 6000 3.6 180 17:18 11.12.2019
6320 Rain 5 1005 100 6000 3.6 180 16:57 11.12.2019
6321 Rain 5 1005 100 6000 3.1 170 16:39 11.12.2019
6322 Rain 5 1005 100 6000 3.1 170 16:21 11.12.2019
6323 Rain 5 1005 100 6000 2.6 180 15:59 11.12.2019
6324 Rain 5 1005 100 6000 2.6 180 15:40 11.12.2019
6325 Rain 5 1005 100 6000 2.6 180 15:22 11.12.2019
6326 Rain 6 1006 100 6000 3.1 190 14:56 11.12.2019
6327 Rain 6 1006 100 6000 3.1 200 14:38 11.12.2019
6328 Rain 5 1006 100 6000 3.1 200 14:19 11.12.2019
6329 Rain 6 1006 100 6000 2.6 200 13:55 11.12.2019
6330 Rain 6 1006 100 6000 3.6 200 13:36 11.12.2019
6331 Rain 5 1006 100 6000 3.6 200 13:18 11.12.2019
6332 Rain 5 1007 100 7000 3.1 200 12:55 11.12.2019
6333 Rain 5 1007 100 8000 3.6 200 12:37 11.12.2019
6334 Rain 5 1007 100 8000 3.6 200 12:18 11.12.2019
6335 Rain 5 1007 100 8000 3.6 210 11:57 11.12.2019
6336 Rain 5 1008 93 8000 4.1 210 11:38 11.12.2019
6337 Rain 5 1008 93 8000 4.1 210 11:18 11.12.2019
6338 Rain 5 1008 93 8000 4.1 210 11:18 11.12.2019
6339 Rain 5 1008 93 8000 4.6 210 10:44 11.12.2019
6340 Rain 5 1008 93 8000 4.6 210 10:44 11.12.2019
6341 Rain 5 1008 93 8000 4.6 210 10:26 11.12.2019
6342 Rain 5 1008 93 8000 5.1 200 09:59 11.12.2019
6343 Rain 5 1008 93 8000 5.1 200 09:39 11.12.2019
6344 Rain 5 1008 93 8000 5.1 200 09:39 11.12.2019
6345 Rain 5 1008 93 8000 5.1 200 09:39 11.12.2019
6346 Rain 5 1008 93 8000 5.1 200 09:20 11.12.2019
6347 Rain 5 1008 93 10000 5.1 200 08:57 11.12.2019
6348 Rain 5 1008 93 10000 5.7 200 08:38 11.12.2019
6349 Rain 5 1008 93 10000 5.7 200 08:19 11.12.2019
6350 Rain 5 1008 93 10000 5.1 210 07:47 11.12.2019
6351 Rain 5 1008 86 9000 5.1 210 07:28 11.12.2019
6352 Clouds 5 1008 75 10000 6.2 210 06:59 11.12.2019
6353 Clouds 6 1008 75 10000 6.2 210 06:40 11.12.2019
6354 Clouds 6 1008 75 10000 6.7 210 06:21 11.12.2019
6355 Clouds 6 1008 75 10000 7.2 210 05:41 11.12.2019
6356 Rain 6 1007 81 0 2.24 204 05:19 11.12.2019
6357 Clouds 6 1009 70 10000 7.2 200 04:26 11.12.2019
6358 Clouds 6 1009 60 10000 6.7 190 02:49 11.12.2019
6359 Clouds 6 1011 60 10000 7.7 180 01:25 11.12.2019
6360 Clouds 6 1011 60 10000 8.2 180 00:47 11.12.2019
6361 Clouds 5 1011 60 10000 7.7 180 00:21 11.12.2019
6362 Rain 5 1012 60 10000 8.2 180 23:50 10.12.2019
6363 Rain 5 1012 65 10000 8.2 180 23:30 10.12.2019
6364 Clouds 5 1013 75 10000 7.7 180 22:59 10.12.2019
6365 Clouds 5 1013 75 10000 7.7 180 22:40 10.12.2019
6366 Clouds 5 1013 75 10000 7.7 180 22:40 10.12.2019
6367 Clouds 5 1013 75 10000 7.2 170 22:22 10.12.2019
6368 Clouds 5 1014 75 10000 7.7 180 21:57 10.12.2019
6369 Clouds 5 1014 75 10000 7.7 180 21:39 10.12.2019
6370 Clouds 4 1015 75 10000 9.3 180 21:21 10.12.2019
6371 Clouds 4 1015 75 10000 8.2 180 20:57 10.12.2019
6372 Clouds 4 1016 80 10000 7.7 170 20:38 10.12.2019
6373 Clouds 4 1016 80 10000 7.7 170 20:19 10.12.2019
6374 Clouds 4 1016 80 10000 7.7 170 20:19 10.12.2019
6375 Clouds 4 1016 80 10000 7.2 170 19:55 10.12.2019
6376 Clouds 3 1017 86 10000 7.2 170 19:37 10.12.2019
6377 Clouds 3 1017 86 10000 7.2 170 19:19 10.12.2019
6378 Clouds 3 1017 86 10000 6.2 170 18:41 10.12.2019
6379 Clouds 3 1018 86 10000 5.7 170 18:21 10.12.2019
6380 Clouds 3 1019 80 10000 6.2 180 17:58 10.12.2019
6381 Clouds 3 1019 86 10000 5.7 170 17:40 10.12.2019
6382 Clouds 3 1019 86 10000 5.7 170 17:22 10.12.2019
6383 Clouds 4 1019 86 10000 6.2 170 16:55 10.12.2019
6384 Clouds 4 1020 80 10000 5.7 180 16:36 10.12.2019
6385 Clouds 4 1020 80 10000 5.7 180 16:18 10.12.2019
6386 Clouds 5 1020 80 10000 5.1 190 15:38 10.12.2019
6387 Clouds 5 1020 80 10000 5.1 190 15:38 10.12.2019
6388 Clouds 5 1021 75 10000 4.6 190 15:18 10.12.2019
6389 Clouds 5 1021 75 10000 4.1 190 14:56 10.12.2019
6390 Clouds 6 1021 70 10000 4.1 200 14:38 10.12.2019
6391 Clouds 6 1021 70 10000 4.1 200 14:20 10.12.2019
6392 Clouds 6 1021 70 10000 4.1 200 14:20 10.12.2019
6393 Clouds 6 1022 70 10000 4.6 210 13:58 10.12.2019
6394 Clouds 6 1022 70 10000 4.6 210 13:40 10.12.2019
6395 Clouds 6 1022 70 10000 4.1 210 13:20 10.12.2019
6396 Clouds 5 1022 75 10000 4.1 210 12:48 10.12.2019
6397 Clouds 5 1023 75 10000 4.1 230 12:28 10.12.2019
6398 Clouds 5 1023 80 10000 4.1 220 11:56 10.12.2019
6399 Clouds 4 1023 86 10000 4.1 220 11:38 10.12.2019
6400 Clear 4 1023 86 10000 4.1 220 11:19 10.12.2019
6401 Clouds 3 1023 86 10000 3.1 220 10:43 10.12.2019
6402 Clear 3 1023 86 10000 1.5 230 10:24 10.12.2019
6403 Clear 2 1022 86 10000 1 0 09:57 10.12.2019
6404 Clear 2 1022 86 10000 1 0 09:57 10.12.2019
6405 Clear 2 1022 86 10000 1 0 09:57 10.12.2019
6406 Clear 2 1022 86 10000 1 0 09:39 10.12.2019
6407 Clouds 2 1022 86 10000 1.5 230 09:20 10.12.2019
6408 Clouds 1 1022 86 10000 1 260 08:58 10.12.2019
6409 Clouds 1 1022 86 10000 1 260 08:39 10.12.2019
6410 Clouds 1 1022 86 10000 2.1 270 08:21 10.12.2019
6411 Clouds 2 1021 86 10000 2.6 260 07:45 10.12.2019
6412 Rain 2 1021 83 10000 3.1 260 07:27 10.12.2019
6413 Rain 2 1020 83 10000 3.6 260 06:56 10.12.2019
6414 Rain 2 1020 86 10000 3.6 260 06:38 10.12.2019
6415 Rain 3 1019 91 0 3.81 265 06:19 10.12.2019
6416 Rain 3 1019 91 0 0.45 265 05:51 10.12.2019
6417 Clouds 3 1019 86 10000 3.1 270 04:23 10.12.2019
6418 Rain 4 1018 86 10000 4.6 320 03:27 10.12.2019
6419 Clouds 4 1016 80 10000 6.2 290 02:36 10.12.2019
6420 Clouds 4 1016 75 10000 7.2 290 01:40 10.12.2019
6421 Clouds 4 1015 80 10000 7.2 290 01:19 10.12.2019
6422 Clouds 4 1014 75 10000 6.2 290 00:38 10.12.2019
6423 Clouds 4 1014 75 10000 6.2 290 00:18 10.12.2019
6424 Clouds 4 1013 79 10000 4.6 270 23:40 09.12.2019
6425 Rain 4 1012 75 10000 7.7 300 23:22 09.12.2019
6426 Clouds 4 1012 75 10000 7.2 290 22:57 09.12.2019
6427 Clouds 4 1012 75 10000 7.2 290 22:39 09.12.2019
6428 Clouds 5 1011 75 10000 6.2 280 22:18 09.12.2019
6429 Clouds 5 1010 80 10000 5.7 290 21:56 09.12.2019
6430 Clouds 5 1009 75 10000 6.2 300 21:38 09.12.2019
6431 Clouds 5 1009 75 10000 6.2 300 21:18 09.12.2019
6432 Clouds 5 1008 80 10000 6.2 300 20:56 09.12.2019
6433 Rain 5 1007 75 10000 6.7 300 20:38 09.12.2019
6434 Rain 5 1007 75 10000 6.7 300 20:19 09.12.2019
6435 Clouds 5 1006 75 10000 8.2 310 19:55 09.12.2019
6436 Clouds 5 1006 75 10000 8.2 310 19:55 09.12.2019
6437 Clouds 5 1005 81 10000 6.7 300 19:37 09.12.2019
6438 Clouds 5 1005 81 10000 6.7 300 19:19 09.12.2019
6439 Clouds 6 1004 87 10000 4.1 290 18:56 09.12.2019
6440 Clouds 6 1003 81 10000 6.2 320 18:37 09.12.2019
6441 Clouds 6 1003 81 10000 6.2 320 18:19 09.12.2019
6442 Clouds 6 1002 87 10000 4.1 300 17:57 09.12.2019
6443 Rain 6 1001 87 10000 8.7 340 17:38 09.12.2019
6444 Rain 6 1001 87 10000 8.7 340 17:20 09.12.2019
6445 Rain 6 1000 87 10000 6.2 280 16:56 09.12.2019
6446 Clouds 7 999 87 10000 5.7 270 16:37 09.12.2019
6447 Clouds 7 999 87 10000 5.7 270 16:18 09.12.2019
6448 Clouds 7 998 87 10000 4.6 260 15:55 09.12.2019
6449 Clouds 7 998 87 10000 4.6 260 15:55 09.12.2019
6450 Rain 7 998 87 10000 6.2 260 15:37 09.12.2019
6451 Rain 7 998 87 10000 6.2 260 15:37 09.12.2019
6452 Rain 7 998 87 10000 6.2 260 15:19 09.12.2019
6453 Clouds 7 997 87 10000 4.1 250 14:42 09.12.2019
6454 Clouds 7 997 87 10000 4.1 250 14:19 09.12.2019
6455 Clouds 7 996 87 10000 3.6 250 13:58 09.12.2019
6456 Clouds 7 996 87 10000 3.6 250 13:38 09.12.2019
6457 Clouds 7 995 87 10000 4.1 240 13:19 09.12.2019
6458 Clouds 7 995 93 10000 3.1 220 12:57 09.12.2019
6459 Clouds 7 995 93 10000 2.6 200 12:38 09.12.2019
6460 Clouds 7 995 93 10000 2.6 200 12:20 09.12.2019
6461 Rain 7 995 100 10000 2.1 200 11:58 09.12.2019
6462 Rain 6 995 100 10000 2.1 200 11:39 09.12.2019
6463 Rain 6 995 93 10000 2.6 180 11:21 09.12.2019
6464 Rain 7 995 93 10000 3.6 190 10:56 09.12.2019
6465 Clouds 7 994 81 10000 4.1 210 10:38 09.12.2019
6466 Clouds 7 994 81 10000 4.1 210 10:18 09.12.2019
6467 Rain 7 994 81 10000 5.1 210 09:41 09.12.2019
6468 Clouds 7 994 81 10000 4.1 200 09:23 09.12.2019
6469 Clouds 7 994 81 10000 4.6 210 08:55 09.12.2019
6470 Clouds 7 993 81 10000 4.1 200 08:37 09.12.2019
6471 Clouds 7 993 81 10000 4.1 200 08:19 09.12.2019
6472 Clouds 7 993 81 10000 4.6 210 07:44 09.12.2019
6473 Clouds 7 993 75 10000 5.1 210 07:25 09.12.2019
6474 Clouds 7 993 75 10000 7.2 220 06:55 09.12.2019
6475 Clouds 7 993 75 10000 6.7 220 06:28 09.12.2019
6476 Clouds 6 993 81 10000 7.2 220 05:30 09.12.2019
6477 Clouds 7 993 75 10000 8.7 220 04:54 09.12.2019
6478 Clouds 7 993 75 10000 8.7 220 04:23 09.12.2019
6479 Clouds 6 994 93 10000 6.2 230 02:28 09.12.2019
6480 Clouds 6 994 93 10000 5.1 220 01:46 09.12.2019
6481 Rain 6 994 86 10000 6.2 260 00:57 09.12.2019
6482 Rain 6 993 81 10000 7.7 230 00:32 09.12.2019
6483 Clouds 7 993 81 10000 7.2 220 23:55 08.12.2019
6484 Clouds 7 993 81 10000 7.2 230 23:37 08.12.2019
6485 Clouds 7 993 81 10000 7.2 230 23:18 08.12.2019
6486 Clouds 7 994 81 10000 7.7 230 22:56 08.12.2019
6487 Clouds 7 994 81 10000 6.7 220 22:38 08.12.2019
6488 Clouds 7 994 81 10000 6.7 220 22:18 08.12.2019
6489 Rain 7 994 93 9000 7.2 230 21:55 08.12.2019
6490 Rain 7 995 81 9000 9.8 230 21:37 08.12.2019
6491 Rain 7 995 81 9000 9.8 230 21:19 08.12.2019
6492 Clouds 7 995 87 10000 5.1 240 20:55 08.12.2019
6493 Rain 8 995 81 10000 7.2 220 20:37 08.12.2019
6494 Rain 8 995 81 10000 7.2 220 20:18 08.12.2019
6495 Clouds 8 995 87 10000 7.2 230 19:55 08.12.2019
6496 Clouds 8 995 81 10000 7.7 230 19:36 08.12.2019
6497 Clouds 8 995 81 10000 7.7 230 19:18 08.12.2019
6498 Clouds 8 995 81 10000 7.7 230 19:18 08.12.2019
6499 Clouds 8 995 81 10000 6.7 220 18:54 08.12.2019
6500 Clouds 8 995 87 10000 6.2 230 18:36 08.12.2019
6501 Clouds 8 995 87 10000 6.2 230 18:18 08.12.2019
6502 Clouds 8 995 81 10000 8.7 250 17:54 08.12.2019
6503 Clouds 8 995 87 10000 8.7 250 17:36 08.12.2019
6504 Clouds 8 995 87 10000 8.7 250 17:18 08.12.2019
6505 Rain 9 995 81 10000 9.8 240 16:55 08.12.2019
6506 Clouds 9 995 81 10000 8.2 240 16:37 08.12.2019
6507 Clouds 9 995 81 10000 8.2 240 16:18 08.12.2019
6508 Clouds 10 995 81 10000 9.3 250 15:37 08.12.2019
6509 Clouds 10 995 81 10000 9.3 250 15:18 08.12.2019
6510 Clouds 10 995 87 10000 9.8 240 14:57 08.12.2019
6511 Rain 10 995 93 10000 9.3 230 14:38 08.12.2019
6512 Rain 10 995 93 10000 9.3 230 14:20 08.12.2019
6513 Drizzle 10 995 93 6000 8.7 230 13:42 08.12.2019
6514 Drizzle 10 995 93 4500 9.3 230 13:23 08.12.2019
6515 Drizzle 10 995 87 8000 11.8 230 12:59 08.12.2019
6516 Drizzle 10 995 87 8000 11.8 230 12:41 08.12.2019
6517 Drizzle 9 996 87 7000 10.3 220 12:23 08.12.2019
6518 Drizzle 9 996 93 6000 9.3 220 11:59 08.12.2019
6519 Drizzle 9 997 93 3800 9.3 220 11:38 08.12.2019
6520 Drizzle 9 997 93 3800 9.3 220 11:19 08.12.2019
6521 Rain 9 997 87 10000 9.8 220 10:58 08.12.2019
6522 Rain 9 997 87 10000 8.7 210 10:38 08.12.2019
6523 Rain 9 997 87 10000 8.7 210 10:19 08.12.2019
6524 Rain 9 997 87 10000 8.7 210 09:56 08.12.2019
6525 Rain 9 998 81 10000 10.3 220 09:37 08.12.2019
6526 Rain 9 998 81 10000 10.3 220 09:19 08.12.2019
6527 Rain 9 998 81 10000 10.3 220 09:19 08.12.2019
6528 Rain 9 997 87 0 4.02 238 08:57 08.12.2019
6529 Rain 9 997 87 0 4.02 238 08:57 08.12.2019
6530 Rain 9 997 85 0 2.24 193 08:37 08.12.2019
6531 Clouds 9 999 71 10000 10.8 220 08:18 08.12.2019
6532 Clouds 9 999 76 10000 10.8 220 07:42 08.12.2019
6533 Clouds 9 1000 76 10000 10.8 220 07:19 08.12.2019
6534 Clouds 9 1000 76 10000 11.8 220 06:50 08.12.2019
6535 Clouds 9 1001 76 10000 11.3 220 06:22 08.12.2019
6536 Clouds 9 1002 76 10000 10.3 220 05:43 08.12.2019
6537 Clouds 9 1003 76 10000 10.8 230 05:18 08.12.2019
6538 Clouds 8 1005 76 10000 7.7 210 03:50 08.12.2019
6539 Clouds 8 1005 81 10000 7.2 210 03:22 08.12.2019
6540 Clouds 8 1006 81 0 6.2 210 02:39 08.12.2019
6541 Clouds 8 1007 75 10000 6.7 220 01:55 08.12.2019
6542 Clouds 8 1008 81 10000 6.7 220 01:23 08.12.2019
6543 Clouds 8 1008 81 10000 6.7 220 00:40 08.12.2019
6544 Clouds 8 1009 87 10000 6.2 230 00:20 08.12.2019
6545 Clouds 8 1009 87 10000 6.2 230 00:20 08.12.2019
6546 Clouds 8 1009 87 10000 6.2 230 23:41 07.12.2019
6547 Clouds 8 1009 87 10000 6.7 230 23:21 07.12.2019
6548 Clouds 8 1009 87 10000 6.7 230 23:21 07.12.2019
6549 Clouds 8 1010 87 10000 6.2 230 22:57 07.12.2019
6550 Clouds 8 1010 87 10000 6.2 230 22:39 07.12.2019
6551 Clouds 8 1010 87 10000 6.2 240 22:21 07.12.2019
6552 Clouds 8 1010 93 10000 5.7 240 21:56 07.12.2019
6553 Clouds 8 1010 93 10000 5.7 240 21:38 07.12.2019
6554 Clouds 8 1010 93 10000 5.7 240 21:19 07.12.2019
6555 Clouds 8 1010 87 10000 6.7 240 20:59 07.12.2019
6556 Clouds 8 1010 93 10000 5.7 240 20:37 07.12.2019
6557 Clouds 8 1010 93 10000 5.7 240 20:18 07.12.2019
6558 Clouds 8 1010 93 10000 6.2 240 19:56 07.12.2019
6559 Clouds 9 1010 87 10000 6.2 250 19:38 07.12.2019
6560 Clouds 9 1010 87 10000 6.2 250 19:20 07.12.2019
6561 Clouds 9 1010 87 10000 4.1 250 18:44 07.12.2019
6562 Rain 9 1010 100 9000 5.1 260 18:21 07.12.2019
6563 Clouds 9 1010 87 10000 7.2 240 17:59 07.12.2019
6564 Clouds 9 1010 87 10000 7.2 240 17:41 07.12.2019
6565 Clouds 9 1009 87 10000 6.2 240 17:23 07.12.2019
6566 Clouds 9 1009 87 10000 6.2 250 16:58 07.12.2019
6567 Clouds 9 1009 87 10000 6.2 250 16:39 07.12.2019
6568 Clouds 9 1009 81 10000 7.7 260 16:20 07.12.2019
6569 Clouds 9 1009 87 10000 6.7 250 15:57 07.12.2019
6570 Clouds 9 1009 87 10000 6.7 250 15:57 07.12.2019
6571 Clouds 9 1009 87 10000 6.7 250 15:38 07.12.2019
6572 Clouds 9 1008 87 10000 5.1 260 15:20 07.12.2019
6573 Clouds 9 1008 87 10000 5.1 260 15:20 07.12.2019
6574 Clouds 9 1008 87 10000 7.2 260 14:42 07.12.2019
6575 Clouds 9 1008 93 10000 6.7 260 14:19 07.12.2019
6576 Rain 9 1008 87 10000 8.7 260 13:58 07.12.2019
6577 Rain 9 1008 87 10000 8.7 260 13:58 07.12.2019
6578 Rain 9 1008 87 10000 8.7 260 13:39 07.12.2019
6579 Clouds 9 1008 81 10000 8.2 260 13:19 07.12.2019
6580 Clouds 9 1007 87 10000 8.2 260 12:54 07.12.2019
6581 Clouds 9 1007 81 10000 9.3 250 12:36 07.12.2019
6582 Clouds 9 1007 81 10000 9.3 250 12:36 07.12.2019
6583 Clouds 9 1007 81 10000 9.3 250 12:18 07.12.2019
6584 Clouds 9 1007 87 10000 8.7 260 11:41 07.12.2019
6585 Clouds 9 1007 87 10000 7.7 260 11:23 07.12.2019
6586 Clouds 9 1007 87 10000 7.2 260 10:55 07.12.2019
6587 Clouds 9 1007 87 10000 9.3 260 10:36 07.12.2019
6588 Clouds 9 1007 87 10000 9.3 260 10:18 07.12.2019
6589 Clouds 9 1006 87 10000 7.2 260 09:39 07.12.2019
6590 Clouds 9 1006 87 10000 7.2 260 09:21 07.12.2019
6591 Clouds 9 1005 87 10000 7.7 260 08:45 07.12.2019
6592 Clouds 9 1005 87 10000 8.2 260 08:24 07.12.2019
6593 Clouds 9 1004 87 10000 7.7 250 07:52 07.12.2019
6594 Rain 8 1004 87 10000 7.7 260 07:29 07.12.2019
6595 Rain 9 1003 87 10000 7.7 260 06:53 07.12.2019
6596 Clouds 8 1003 87 10000 8.2 270 06:27 07.12.2019
6597 Clouds 9 1002 87 10000 9.3 270 05:49 07.12.2019
6598 Clouds 8 1001 93 10000 8.2 260 04:48 07.12.2019
6599 Rain 8 1000 100 8000 6.7 260 03:51 07.12.2019
6600 Rain 8 999 93 10000 6.7 230 02:23 07.12.2019
6601 Rain 8 999 93 10000 7.2 230 01:51 07.12.2019
6602 Rain 8 999 87 10000 8.2 220 01:25 07.12.2019
6603 Rain 8 999 87 10000 8.2 220 01:25 07.12.2019
6604 Clouds 8 999 87 10000 8.2 220 00:42 07.12.2019
6605 Clouds 8 999 87 10000 9.3 220 00:18 07.12.2019
6606 Clouds 8 1000 87 10000 8.7 220 23:44 06.12.2019
6607 Clouds 8 1000 87 10000 8.2 220 23:23 06.12.2019
6608 Clouds 7 1000 87 10000 7.2 220 22:57 06.12.2019
6609 Clouds 7 1000 87 10000 7.7 220 22:36 06.12.2019
6610 Clouds 8 1000 87 10000 7.7 220 22:18 06.12.2019
6611 Clouds 7 1001 87 10000 8.2 220 21:41 06.12.2019
6612 Clouds 7 1001 87 10000 8.7 220 21:41 06.12.2019
6613 Clouds 7 1001 87 10000 8.2 220 21:21 06.12.2019
6614 Clouds 7 1001 93 10000 8.7 220 20:59 06.12.2019
6615 Clouds 7 1001 93 10000 8.7 220 20:41 06.12.2019
6616 Clouds 7 1001 93 10000 8.7 220 20:41 06.12.2019
6617 Drizzle 7 1001 93 5000 8.2 220 20:21 06.12.2019
6618 Drizzle 7 1001 93 6000 7.7 220 19:54 06.12.2019
6619 Drizzle 7 1002 93 5000 8.2 220 19:36 06.12.2019
6620 Drizzle 7 1002 93 5000 8.2 220 19:18 06.12.2019
6621 Drizzle 7 1002 93 5000 7.7 220 18:44 06.12.2019
6622 Drizzle 7 1002 93 5000 6.7 210 18:23 06.12.2019
6623 Rain 7 1002 100 10000 6.7 210 17:58 06.12.2019
6624 Rain 6 1002 100 10000 6.7 210 17:40 06.12.2019
6625 Drizzle 6 1002 93 5000 6.7 210 17:22 06.12.2019
6626 Clouds 6 1003 93 10000 6.7 210 16:59 06.12.2019
6627 Clouds 6 1003 93 10000 6.7 210 16:40 06.12.2019
6628 Rain 6 1003 93 10000 7.2 210 16:21 06.12.2019
6629 Drizzle 6 1003 93 6000 7.2 210 15:42 06.12.2019
6630 Drizzle 5 1004 93 2500 7.7 210 15:24 06.12.2019
6631 Drizzle 5 1004 100 3500 7.2 210 14:59 06.12.2019
6632 Drizzle 5 1004 100 3500 7.2 210 14:41 06.12.2019
6633 Drizzle 5 1005 100 5000 6.7 210 14:20 06.12.2019
6634 Drizzle 5 1005 93 4500 9.3 220 13:58 06.12.2019
6635 Drizzle 5 1005 93 4500 9.3 220 13:40 06.12.2019
6636 Drizzle 5 1005 93 4500 9.3 220 13:40 06.12.2019
6637 Drizzle 5 1005 100 4200 7.7 220 13:21 06.12.2019
6638 Drizzle 5 1005 100 4200 7.7 220 13:21 06.12.2019
6639 Drizzle 5 1005 100 4200 7.7 220 13:21 06.12.2019
6640 Drizzle 5 1006 93 5000 9.8 220 12:40 06.12.2019
6641 Drizzle 5 1006 93 9000 9.8 220 12:21 06.12.2019
6642 Drizzle 5 1007 93 7000 8.7 220 11:43 06.12.2019
6643 Drizzle 5 1007 93 7000 8.7 220 11:24 06.12.2019
6644 Drizzle 5 1007 93 7000 8.7 220 11:24 06.12.2019
6645 Drizzle 5 1008 93 7000 7.7 220 10:59 06.12.2019
6646 Drizzle 5 1008 93 7000 7.7 220 10:40 06.12.2019
6647 Drizzle 5 1008 93 7000 7.7 220 10:21 06.12.2019
6648 Drizzle 5 1008 93 7000 7.7 220 09:56 06.12.2019
6649 Rain 5 1008 93 7000 7.2 220 09:37 06.12.2019
6650 Rain 5 1008 93 7000 7.2 220 09:19 06.12.2019
6651 Rain 5 1008 93 7000 7.7 220 08:45 06.12.2019
6652 Rain 5 1008 93 7000 8.7 220 08:26 06.12.2019
6653 Rain 5 1008 93 8000 8.7 230 07:44 06.12.2019
6654 Rain 5 1008 93 9000 9.3 230 07:23 06.12.2019
6655 Rain 5 1008 93 10000 8.2 230 06:58 06.12.2019
6656 Rain 5 1008 93 10000 9.3 230 06:26 06.12.2019
6657 Clouds 5 1008 93 10000 8.7 230 05:52 06.12.2019
6658 Clouds 5 1008 93 10000 9.3 220 04:52 06.12.2019
6659 Clouds 5 1008 93 10000 9.3 220 04:52 06.12.2019
6660 Rain 3 1010 86 9000 8.2 220 01:49 06.12.2019
6661 Clouds 3 1011 86 10000 8.7 220 01:22 06.12.2019
6662 Clouds 3 1011 86 10000 7.7 220 00:39 06.12.2019
6663 Clouds 3 1012 93 10000 6.7 220 00:20 06.12.2019
6664 Clouds 3 1012 88 10000 6.7 210 23:41 05.12.2019
6665 Clouds 3 1013 81 10000 5.1 210 23:18 05.12.2019
6666 Clouds 2 1013 93 10000 5.7 200 22:56 05.12.2019
6667 Clouds 3 1014 86 8000 6.7 210 22:37 05.12.2019
6668 Clouds 3 1014 86 8000 6.7 210 22:18 05.12.2019
6669 Clouds 3 1014 86 6000 7.2 220 21:43 05.12.2019
6670 Clouds 3 1014 93 6000 7.7 210 21:25 05.12.2019
6671 Clouds 2 1015 93 6000 7.2 220 20:59 05.12.2019
6672 Clouds 2 1015 93 6000 7.2 220 20:40 05.12.2019
6673 Clouds 2 1015 93 7000 5.7 220 20:20 05.12.2019
6674 Clouds 2 1015 93 7000 5.7 220 20:20 05.12.2019
6675 Clouds 2 1015 93 7000 5.7 220 20:20 05.12.2019
6676 Clouds 2 1015 93 7000 5.7 220 20:20 05.12.2019
6677 Clouds 2 1015 93 7000 5.7 220 19:57 05.12.2019
6678 Clouds 2 1016 93 7000 5.1 210 19:39 05.12.2019
6679 Clouds 2 1016 93 6000 5.7 210 19:20 05.12.2019
6680 Clouds 2 1016 93 6000 5.7 210 18:57 05.12.2019
6681 Clouds 2 1017 93 6000 5.7 220 18:37 05.12.2019
6682 Clouds 2 1016 93 6000 6.2 210 18:19 05.12.2019
6683 Clouds 2 1017 93 6000 6.2 220 17:39 05.12.2019
6684 Mist 3 1017 93 4500 4.6 220 17:20 05.12.2019
6685 Mist 2 1017 93 4500 4.6 220 16:57 05.12.2019
6686 Mist 2 1017 93 4500 4.1 220 16:39 05.12.2019
6687 Clouds 2 1017 93 6000 4.6 220 16:21 05.12.2019
6688 Clouds 2 1017 93 6000 4.6 220 15:56 05.12.2019
6689 Clouds 2 1017 93 6000 5.7 230 15:38 05.12.2019
6690 Clouds 3 1018 86 8000 5.1 230 15:19 05.12.2019
6691 Clouds 3 1018 86 8000 5.1 230 14:55 05.12.2019
6692 Clear 3 1018 80 10000 4.6 230 14:37 05.12.2019
6693 Clear 4 1018 80 10000 4.1 220 14:18 05.12.2019
6694 Clear 4 1018 80 10000 4.1 220 13:56 05.12.2019
6695 Clear 4 1018 80 10000 3.6 210 13:38 05.12.2019
6696 Clear 3 1018 86 10000 4.1 220 13:19 05.12.2019
6697 Clear 3 1018 86 10000 4.1 220 13:19 05.12.2019
6698 Clear 4 1018 86 10000 4.1 220 12:55 05.12.2019
6699 Clear 4 1018 81 10000 3.6 230 12:37 05.12.2019
6700 Clear 3 1019 86 10000 3.6 220 12:19 05.12.2019
6701 Clear 3 1019 81 10000 4.1 230 11:39 05.12.2019
6702 Clear 2 1018 85 10000 3.6 210 11:21 05.12.2019
6703 Clear 2 1018 85 10000 3.6 210 11:21 05.12.2019
6704 Clear 2 1018 85 10000 3.6 210 10:58 05.12.2019
6705 Clear 1 1018 85 10000 3.6 220 10:40 05.12.2019
6706 Clear 0 1018 85 10000 4.1 180 10:19 05.12.2019
6707 Clear 0 1018 85 10000 4.1 180</